<?xml version="1.0" encoding="UTF-8" standalone="no" ?>
<gpx xmlns="http://www.topografix.com/GPX/1/1" xmlns:xsi="http://www.w3.org/2001/XMLSchema-instance" xsi:schemaLocation="http://www.topografix.com/GPX/1/1 http://www.topografix.com/GPX/1/1/gpx.xsd" version="1.1" creator="VisuGPX - https://www.visugpx.com">
  <metadata>
    <name>E-O-Pirmil Oudon Mauves Thouaré Nantes</name>
    <desc><![CDATA[E-O-Pirmil Oudon Mauves Thouaré Nantes]]></desc>
  </metadata>
  <trk>
    <name><![CDATA[2022-05-08 10:59 GMT+2]]></name>
    <trkseg>
      <trkpt lat="47.16773" lon="-1.62651">
        <ele>75</ele>
        <time>2022-05-08T08:59:27Z</time>
      </trkpt>
      <trkpt lat="47.16782" lon="-1.62657">
        <ele>74</ele>
        <time>2022-05-08T09:00:58Z</time>
      </trkpt>
      <trkpt lat="47.1679" lon="-1.62648">
        <ele>75</ele>
        <time>2022-05-08T09:01:01Z</time>
      </trkpt>
      <trkpt lat="47.16802" lon="-1.62628">
        <ele>74</ele>
        <time>2022-05-08T09:01:05Z</time>
      </trkpt>
      <trkpt lat="47.1681" lon="-1.62616">
        <ele>74</ele>
        <time>2022-05-08T09:01:07Z</time>
      </trkpt>
      <trkpt lat="47.16818" lon="-1.62603">
        <ele>73</ele>
        <time>2022-05-08T09:01:09Z</time>
      </trkpt>
      <trkpt lat="47.16825" lon="-1.62591">
        <ele>73</ele>
        <time>2022-05-08T09:01:11Z</time>
      </trkpt>
      <trkpt lat="47.16829" lon="-1.62576">
        <ele>73</ele>
        <time>2022-05-08T09:01:13Z</time>
      </trkpt>
      <trkpt lat="47.16822" lon="-1.62562">
        <ele>73</ele>
        <time>2022-05-08T09:01:15Z</time>
      </trkpt>
      <trkpt lat="47.16813" lon="-1.62552">
        <ele>72</ele>
        <time>2022-05-08T09:01:17Z</time>
      </trkpt>
      <trkpt lat="47.16802" lon="-1.62544">
        <ele>73</ele>
        <time>2022-05-08T09:01:19Z</time>
      </trkpt>
      <trkpt lat="47.16792" lon="-1.62538">
        <ele>73</ele>
        <time>2022-05-08T09:01:21Z</time>
      </trkpt>
      <trkpt lat="47.16781" lon="-1.62531">
        <ele>72</ele>
        <time>2022-05-08T09:01:23Z</time>
      </trkpt>
      <trkpt lat="47.1677" lon="-1.62523">
        <ele>72</ele>
        <time>2022-05-08T09:01:25Z</time>
      </trkpt>
      <trkpt lat="47.16758" lon="-1.62517">
        <ele>72</ele>
        <time>2022-05-08T09:01:27Z</time>
      </trkpt>
      <trkpt lat="47.16747" lon="-1.6251">
        <ele>71</ele>
        <time>2022-05-08T09:01:29Z</time>
      </trkpt>
      <trkpt lat="47.1673" lon="-1.62501">
        <ele>71</ele>
        <time>2022-05-08T09:01:32Z</time>
      </trkpt>
      <trkpt lat="47.16719" lon="-1.62497">
        <ele>71</ele>
        <time>2022-05-08T09:01:34Z</time>
      </trkpt>
      <trkpt lat="47.16711" lon="-1.62475">
        <ele>70</ele>
        <time>2022-05-08T09:01:38Z</time>
      </trkpt>
      <trkpt lat="47.16714" lon="-1.62457">
        <ele>70</ele>
        <time>2022-05-08T09:01:40Z</time>
      </trkpt>
      <trkpt lat="47.16716" lon="-1.62438">
        <ele>70</ele>
        <time>2022-05-08T09:01:42Z</time>
      </trkpt>
      <trkpt lat="47.1672" lon="-1.6242">
        <ele>70</ele>
        <time>2022-05-08T09:01:44Z</time>
      </trkpt>
      <trkpt lat="47.16726" lon="-1.62402">
        <ele>70</ele>
        <time>2022-05-08T09:01:46Z</time>
      </trkpt>
      <trkpt lat="47.16731" lon="-1.62384">
        <ele>70</ele>
        <time>2022-05-08T09:01:48Z</time>
      </trkpt>
      <trkpt lat="47.16738" lon="-1.62367">
        <ele>71</ele>
        <time>2022-05-08T09:01:50Z</time>
      </trkpt>
      <trkpt lat="47.16748" lon="-1.62355">
        <ele>71</ele>
        <time>2022-05-08T09:01:52Z</time>
      </trkpt>
      <trkpt lat="47.16759" lon="-1.62346">
        <ele>71</ele>
        <time>2022-05-08T09:01:54Z</time>
      </trkpt>
      <trkpt lat="47.16771" lon="-1.62339">
        <ele>71</ele>
        <time>2022-05-08T09:01:56Z</time>
      </trkpt>
      <trkpt lat="47.16783" lon="-1.62332">
        <ele>72</ele>
        <time>2022-05-08T09:01:58Z</time>
      </trkpt>
      <trkpt lat="47.16794" lon="-1.62326">
        <ele>72</ele>
        <time>2022-05-08T09:02:00Z</time>
      </trkpt>
      <trkpt lat="47.16806" lon="-1.62318">
        <ele>73</ele>
        <time>2022-05-08T09:02:02Z</time>
      </trkpt>
      <trkpt lat="47.16817" lon="-1.62311">
        <ele>73</ele>
        <time>2022-05-08T09:02:04Z</time>
      </trkpt>
      <trkpt lat="47.16827" lon="-1.62302">
        <ele>73</ele>
        <time>2022-05-08T09:02:06Z</time>
      </trkpt>
      <trkpt lat="47.16838" lon="-1.62292">
        <ele>73</ele>
        <time>2022-05-08T09:02:08Z</time>
      </trkpt>
      <trkpt lat="47.16847" lon="-1.6228">
        <ele>73</ele>
        <time>2022-05-08T09:02:10Z</time>
      </trkpt>
      <trkpt lat="47.16857" lon="-1.62268">
        <ele>73</ele>
        <time>2022-05-08T09:02:12Z</time>
      </trkpt>
      <trkpt lat="47.16867" lon="-1.62255">
        <ele>73</ele>
        <time>2022-05-08T09:02:14Z</time>
      </trkpt>
      <trkpt lat="47.16877" lon="-1.62243">
        <ele>73</ele>
        <time>2022-05-08T09:02:16Z</time>
      </trkpt>
      <trkpt lat="47.16886" lon="-1.62231">
        <ele>73</ele>
        <time>2022-05-08T09:02:18Z</time>
      </trkpt>
      <trkpt lat="47.16896" lon="-1.62217">
        <ele>72</ele>
        <time>2022-05-08T09:02:20Z</time>
      </trkpt>
      <trkpt lat="47.16905" lon="-1.62203">
        <ele>72</ele>
        <time>2022-05-08T09:02:22Z</time>
      </trkpt>
      <trkpt lat="47.16914" lon="-1.62189">
        <ele>72</ele>
        <time>2022-05-08T09:02:24Z</time>
      </trkpt>
      <trkpt lat="47.16922" lon="-1.62174">
        <ele>72</ele>
        <time>2022-05-08T09:02:26Z</time>
      </trkpt>
      <trkpt lat="47.16931" lon="-1.62158">
        <ele>72</ele>
        <time>2022-05-08T09:02:28Z</time>
      </trkpt>
      <trkpt lat="47.16938" lon="-1.62144">
        <ele>72</ele>
        <time>2022-05-08T09:02:30Z</time>
      </trkpt>
      <trkpt lat="47.16946" lon="-1.62129">
        <ele>72</ele>
        <time>2022-05-08T09:02:32Z</time>
      </trkpt>
      <trkpt lat="47.16954" lon="-1.62113">
        <ele>71</ele>
        <time>2022-05-08T09:02:34Z</time>
      </trkpt>
      <trkpt lat="47.16962" lon="-1.62098">
        <ele>71</ele>
        <time>2022-05-08T09:02:36Z</time>
      </trkpt>
      <trkpt lat="47.1697" lon="-1.62083">
        <ele>71</ele>
        <time>2022-05-08T09:02:38Z</time>
      </trkpt>
      <trkpt lat="47.16977" lon="-1.62068">
        <ele>71</ele>
        <time>2022-05-08T09:02:40Z</time>
      </trkpt>
      <trkpt lat="47.16985" lon="-1.62052">
        <ele>71</ele>
        <time>2022-05-08T09:02:42Z</time>
      </trkpt>
      <trkpt lat="47.16993" lon="-1.62037">
        <ele>71</ele>
        <time>2022-05-08T09:02:44Z</time>
      </trkpt>
      <trkpt lat="47.17002" lon="-1.62024">
        <ele>71</ele>
        <time>2022-05-08T09:02:46Z</time>
      </trkpt>
      <trkpt lat="47.17011" lon="-1.6201">
        <ele>71</ele>
        <time>2022-05-08T09:02:48Z</time>
      </trkpt>
      <trkpt lat="47.1702" lon="-1.61998">
        <ele>71</ele>
        <time>2022-05-08T09:02:50Z</time>
      </trkpt>
      <trkpt lat="47.17029" lon="-1.61985">
        <ele>71</ele>
        <time>2022-05-08T09:02:52Z</time>
      </trkpt>
      <trkpt lat="47.17038" lon="-1.61972">
        <ele>71</ele>
        <time>2022-05-08T09:02:54Z</time>
      </trkpt>
      <trkpt lat="47.17047" lon="-1.61959">
        <ele>71</ele>
        <time>2022-05-08T09:02:56Z</time>
      </trkpt>
      <trkpt lat="47.17057" lon="-1.61947">
        <ele>72</ele>
        <time>2022-05-08T09:02:58Z</time>
      </trkpt>
      <trkpt lat="47.17067" lon="-1.61935">
        <ele>71</ele>
        <time>2022-05-08T09:03:00Z</time>
      </trkpt>
      <trkpt lat="47.17076" lon="-1.61924">
        <ele>71</ele>
        <time>2022-05-08T09:03:02Z</time>
      </trkpt>
      <trkpt lat="47.17086" lon="-1.61914">
        <ele>71</ele>
        <time>2022-05-08T09:03:04Z</time>
      </trkpt>
      <trkpt lat="47.17096" lon="-1.61904">
        <ele>70</ele>
        <time>2022-05-08T09:03:06Z</time>
      </trkpt>
      <trkpt lat="47.17107" lon="-1.61895">
        <ele>70</ele>
        <time>2022-05-08T09:03:08Z</time>
      </trkpt>
      <trkpt lat="47.17117" lon="-1.61885">
        <ele>70</ele>
        <time>2022-05-08T09:03:10Z</time>
      </trkpt>
      <trkpt lat="47.17128" lon="-1.61875">
        <ele>70</ele>
        <time>2022-05-08T09:03:12Z</time>
      </trkpt>
      <trkpt lat="47.17138" lon="-1.61865">
        <ele>70</ele>
        <time>2022-05-08T09:03:14Z</time>
      </trkpt>
      <trkpt lat="47.17148" lon="-1.61855">
        <ele>70</ele>
        <time>2022-05-08T09:03:16Z</time>
      </trkpt>
      <trkpt lat="47.17159" lon="-1.61845">
        <ele>70</ele>
        <time>2022-05-08T09:03:18Z</time>
      </trkpt>
      <trkpt lat="47.17169" lon="-1.61835">
        <ele>70</ele>
        <time>2022-05-08T09:03:20Z</time>
      </trkpt>
      <trkpt lat="47.17179" lon="-1.61825">
        <ele>70</ele>
        <time>2022-05-08T09:03:22Z</time>
      </trkpt>
      <trkpt lat="47.17189" lon="-1.61815">
        <ele>70</ele>
        <time>2022-05-08T09:03:24Z</time>
      </trkpt>
      <trkpt lat="47.172" lon="-1.61804">
        <ele>70</ele>
        <time>2022-05-08T09:03:26Z</time>
      </trkpt>
      <trkpt lat="47.17211" lon="-1.61793">
        <ele>70</ele>
        <time>2022-05-08T09:03:28Z</time>
      </trkpt>
      <trkpt lat="47.1722" lon="-1.6178">
        <ele>70</ele>
        <time>2022-05-08T09:03:30Z</time>
      </trkpt>
      <trkpt lat="47.17225" lon="-1.61761">
        <ele>70</ele>
        <time>2022-05-08T09:03:32Z</time>
      </trkpt>
      <trkpt lat="47.17232" lon="-1.61747">
        <ele>70</ele>
        <time>2022-05-08T09:03:34Z</time>
      </trkpt>
      <trkpt lat="47.17242" lon="-1.61735">
        <ele>70</ele>
        <time>2022-05-08T09:03:36Z</time>
      </trkpt>
      <trkpt lat="47.17251" lon="-1.61721">
        <ele>70</ele>
        <time>2022-05-08T09:03:38Z</time>
      </trkpt>
      <trkpt lat="47.17258" lon="-1.61705">
        <ele>71</ele>
        <time>2022-05-08T09:03:40Z</time>
      </trkpt>
      <trkpt lat="47.17265" lon="-1.6169">
        <ele>71</ele>
        <time>2022-05-08T09:03:42Z</time>
      </trkpt>
      <trkpt lat="47.17272" lon="-1.61676">
        <ele>72</ele>
        <time>2022-05-08T09:03:44Z</time>
      </trkpt>
      <trkpt lat="47.17279" lon="-1.61661">
        <ele>72</ele>
        <time>2022-05-08T09:03:46Z</time>
      </trkpt>
      <trkpt lat="47.17287" lon="-1.61646">
        <ele>73</ele>
        <time>2022-05-08T09:03:48Z</time>
      </trkpt>
      <trkpt lat="47.17295" lon="-1.61633">
        <ele>73</ele>
        <time>2022-05-08T09:03:50Z</time>
      </trkpt>
      <trkpt lat="47.17304" lon="-1.6162">
        <ele>73</ele>
        <time>2022-05-08T09:03:52Z</time>
      </trkpt>
      <trkpt lat="47.17313" lon="-1.61607">
        <ele>74</ele>
        <time>2022-05-08T09:03:54Z</time>
      </trkpt>
      <trkpt lat="47.17321" lon="-1.61594">
        <ele>74</ele>
        <time>2022-05-08T09:03:56Z</time>
      </trkpt>
      <trkpt lat="47.1733" lon="-1.61581">
        <ele>75</ele>
        <time>2022-05-08T09:03:58Z</time>
      </trkpt>
      <trkpt lat="47.17339" lon="-1.6157">
        <ele>75</ele>
        <time>2022-05-08T09:04:00Z</time>
      </trkpt>
      <trkpt lat="47.17348" lon="-1.61558">
        <ele>75</ele>
        <time>2022-05-08T09:04:02Z</time>
      </trkpt>
      <trkpt lat="47.17358" lon="-1.61548">
        <ele>76</ele>
        <time>2022-05-08T09:04:04Z</time>
      </trkpt>
      <trkpt lat="47.17368" lon="-1.61538">
        <ele>75</ele>
        <time>2022-05-08T09:04:06Z</time>
      </trkpt>
      <trkpt lat="47.17379" lon="-1.61528">
        <ele>75</ele>
        <time>2022-05-08T09:04:08Z</time>
      </trkpt>
      <trkpt lat="47.1739" lon="-1.6152">
        <ele>74</ele>
        <time>2022-05-08T09:04:10Z</time>
      </trkpt>
      <trkpt lat="47.17401" lon="-1.6151">
        <ele>73</ele>
        <time>2022-05-08T09:04:12Z</time>
      </trkpt>
      <trkpt lat="47.17413" lon="-1.61501">
        <ele>73</ele>
        <time>2022-05-08T09:04:14Z</time>
      </trkpt>
      <trkpt lat="47.17425" lon="-1.61493">
        <ele>72</ele>
        <time>2022-05-08T09:04:16Z</time>
      </trkpt>
      <trkpt lat="47.17437" lon="-1.61485">
        <ele>72</ele>
        <time>2022-05-08T09:04:18Z</time>
      </trkpt>
      <trkpt lat="47.1745" lon="-1.61478">
        <ele>71</ele>
        <time>2022-05-08T09:04:20Z</time>
      </trkpt>
      <trkpt lat="47.17463" lon="-1.61471">
        <ele>70</ele>
        <time>2022-05-08T09:04:22Z</time>
      </trkpt>
      <trkpt lat="47.17476" lon="-1.61465">
        <ele>69</ele>
        <time>2022-05-08T09:04:24Z</time>
      </trkpt>
      <trkpt lat="47.17488" lon="-1.61459">
        <ele>69</ele>
        <time>2022-05-08T09:04:26Z</time>
      </trkpt>
      <trkpt lat="47.175" lon="-1.61455">
        <ele>68</ele>
        <time>2022-05-08T09:04:28Z</time>
      </trkpt>
      <trkpt lat="47.17511" lon="-1.61444">
        <ele>67</ele>
        <time>2022-05-08T09:04:31Z</time>
      </trkpt>
      <trkpt lat="47.17514" lon="-1.61427">
        <ele>66</ele>
        <time>2022-05-08T09:04:33Z</time>
      </trkpt>
      <trkpt lat="47.17518" lon="-1.61408">
        <ele>65</ele>
        <time>2022-05-08T09:04:35Z</time>
      </trkpt>
      <trkpt lat="47.17522" lon="-1.61388">
        <ele>64</ele>
        <time>2022-05-08T09:04:37Z</time>
      </trkpt>
      <trkpt lat="47.17527" lon="-1.61368">
        <ele>64</ele>
        <time>2022-05-08T09:04:39Z</time>
      </trkpt>
      <trkpt lat="47.17528" lon="-1.61347">
        <ele>63</ele>
        <time>2022-05-08T09:04:41Z</time>
      </trkpt>
      <trkpt lat="47.17524" lon="-1.61329">
        <ele>63</ele>
        <time>2022-05-08T09:04:43Z</time>
      </trkpt>
      <trkpt lat="47.17521" lon="-1.61311">
        <ele>63</ele>
        <time>2022-05-08T09:04:45Z</time>
      </trkpt>
      <trkpt lat="47.17519" lon="-1.61292">
        <ele>63</ele>
        <time>2022-05-08T09:04:47Z</time>
      </trkpt>
      <trkpt lat="47.17511" lon="-1.61275">
        <ele>63</ele>
        <time>2022-05-08T09:04:49Z</time>
      </trkpt>
      <trkpt lat="47.17503" lon="-1.6126">
        <ele>62</ele>
        <time>2022-05-08T09:04:51Z</time>
      </trkpt>
      <trkpt lat="47.17496" lon="-1.61243">
        <ele>63</ele>
        <time>2022-05-08T09:04:53Z</time>
      </trkpt>
      <trkpt lat="47.17489" lon="-1.61226">
        <ele>63</ele>
        <time>2022-05-08T09:04:55Z</time>
      </trkpt>
      <trkpt lat="47.17482" lon="-1.61209">
        <ele>63</ele>
        <time>2022-05-08T09:04:57Z</time>
      </trkpt>
      <trkpt lat="47.17475" lon="-1.61193">
        <ele>62</ele>
        <time>2022-05-08T09:04:59Z</time>
      </trkpt>
      <trkpt lat="47.17469" lon="-1.61176">
        <ele>62</ele>
        <time>2022-05-08T09:05:01Z</time>
      </trkpt>
      <trkpt lat="47.17462" lon="-1.61159">
        <ele>62</ele>
        <time>2022-05-08T09:05:03Z</time>
      </trkpt>
      <trkpt lat="47.17455" lon="-1.61142">
        <ele>62</ele>
        <time>2022-05-08T09:05:05Z</time>
      </trkpt>
      <trkpt lat="47.17448" lon="-1.61125">
        <ele>61</ele>
        <time>2022-05-08T09:05:07Z</time>
      </trkpt>
      <trkpt lat="47.1744" lon="-1.61107">
        <ele>61</ele>
        <time>2022-05-08T09:05:09Z</time>
      </trkpt>
      <trkpt lat="47.17433" lon="-1.61088">
        <ele>61</ele>
        <time>2022-05-08T09:05:11Z</time>
      </trkpt>
      <trkpt lat="47.17428" lon="-1.61068">
        <ele>61</ele>
        <time>2022-05-08T09:05:13Z</time>
      </trkpt>
      <trkpt lat="47.17425" lon="-1.61047">
        <ele>60</ele>
        <time>2022-05-08T09:05:15Z</time>
      </trkpt>
      <trkpt lat="47.17421" lon="-1.61029">
        <ele>59</ele>
        <time>2022-05-08T09:05:17Z</time>
      </trkpt>
      <trkpt lat="47.17427" lon="-1.61017">
        <ele>59</ele>
        <time>2022-05-08T09:05:20Z</time>
      </trkpt>
      <trkpt lat="47.17434" lon="-1.61036">
        <ele>59</ele>
        <time>2022-05-08T09:05:23Z</time>
      </trkpt>
      <trkpt lat="47.17439" lon="-1.61051">
        <ele>59</ele>
        <time>2022-05-08T09:05:25Z</time>
      </trkpt>
      <trkpt lat="47.17447" lon="-1.61067">
        <ele>59</ele>
        <time>2022-05-08T09:05:27Z</time>
      </trkpt>
      <trkpt lat="47.17456" lon="-1.61081">
        <ele>58</ele>
        <time>2022-05-08T09:05:29Z</time>
      </trkpt>
      <trkpt lat="47.17468" lon="-1.61093">
        <ele>57</ele>
        <time>2022-05-08T09:05:31Z</time>
      </trkpt>
      <trkpt lat="47.17482" lon="-1.61102">
        <ele>57</ele>
        <time>2022-05-08T09:05:33Z</time>
      </trkpt>
      <trkpt lat="47.17496" lon="-1.61104">
        <ele>56</ele>
        <time>2022-05-08T09:05:35Z</time>
      </trkpt>
      <trkpt lat="47.1751" lon="-1.61101">
        <ele>56</ele>
        <time>2022-05-08T09:05:37Z</time>
      </trkpt>
      <trkpt lat="47.17523" lon="-1.61092">
        <ele>55</ele>
        <time>2022-05-08T09:05:39Z</time>
      </trkpt>
      <trkpt lat="47.17534" lon="-1.6108">
        <ele>55</ele>
        <time>2022-05-08T09:05:41Z</time>
      </trkpt>
      <trkpt lat="47.17546" lon="-1.6107">
        <ele>55</ele>
        <time>2022-05-08T09:05:43Z</time>
      </trkpt>
      <trkpt lat="47.17558" lon="-1.6106">
        <ele>55</ele>
        <time>2022-05-08T09:05:45Z</time>
      </trkpt>
      <trkpt lat="47.1757" lon="-1.61049">
        <ele>55</ele>
        <time>2022-05-08T09:05:47Z</time>
      </trkpt>
      <trkpt lat="47.17582" lon="-1.61039">
        <ele>55</ele>
        <time>2022-05-08T09:05:49Z</time>
      </trkpt>
      <trkpt lat="47.17593" lon="-1.61029">
        <ele>55</ele>
        <time>2022-05-08T09:05:51Z</time>
      </trkpt>
      <trkpt lat="47.17605" lon="-1.61019">
        <ele>56</ele>
        <time>2022-05-08T09:05:53Z</time>
      </trkpt>
      <trkpt lat="47.17617" lon="-1.61009">
        <ele>56</ele>
        <time>2022-05-08T09:05:55Z</time>
      </trkpt>
      <trkpt lat="47.17628" lon="-1.60998">
        <ele>55</ele>
        <time>2022-05-08T09:05:57Z</time>
      </trkpt>
      <trkpt lat="47.17641" lon="-1.60987">
        <ele>54</ele>
        <time>2022-05-08T09:05:59Z</time>
      </trkpt>
      <trkpt lat="47.17652" lon="-1.60977">
        <ele>54</ele>
        <time>2022-05-08T09:06:01Z</time>
      </trkpt>
      <trkpt lat="47.17665" lon="-1.6097">
        <ele>54</ele>
        <time>2022-05-08T09:06:03Z</time>
      </trkpt>
      <trkpt lat="47.17678" lon="-1.60969">
        <ele>55</ele>
        <time>2022-05-08T09:06:05Z</time>
      </trkpt>
      <trkpt lat="47.1769" lon="-1.60971">
        <ele>55</ele>
        <time>2022-05-08T09:06:07Z</time>
      </trkpt>
      <trkpt lat="47.17701" lon="-1.6097">
        <ele>55</ele>
        <time>2022-05-08T09:06:09Z</time>
      </trkpt>
      <trkpt lat="47.17712" lon="-1.60964">
        <ele>55</ele>
        <time>2022-05-08T09:06:11Z</time>
      </trkpt>
      <trkpt lat="47.17723" lon="-1.60957">
        <ele>55</ele>
        <time>2022-05-08T09:06:13Z</time>
      </trkpt>
      <trkpt lat="47.17734" lon="-1.60949">
        <ele>55</ele>
        <time>2022-05-08T09:06:15Z</time>
      </trkpt>
      <trkpt lat="47.17745" lon="-1.60941">
        <ele>55</ele>
        <time>2022-05-08T09:06:17Z</time>
      </trkpt>
      <trkpt lat="47.17756" lon="-1.60932">
        <ele>55</ele>
        <time>2022-05-08T09:06:19Z</time>
      </trkpt>
      <trkpt lat="47.17767" lon="-1.60924">
        <ele>55</ele>
        <time>2022-05-08T09:06:21Z</time>
      </trkpt>
      <trkpt lat="47.17778" lon="-1.60914">
        <ele>55</ele>
        <time>2022-05-08T09:06:23Z</time>
      </trkpt>
      <trkpt lat="47.1779" lon="-1.60905">
        <ele>54</ele>
        <time>2022-05-08T09:06:25Z</time>
      </trkpt>
      <trkpt lat="47.17802" lon="-1.60897">
        <ele>54</ele>
        <time>2022-05-08T09:06:27Z</time>
      </trkpt>
      <trkpt lat="47.17813" lon="-1.60886">
        <ele>55</ele>
        <time>2022-05-08T09:06:29Z</time>
      </trkpt>
      <trkpt lat="47.17822" lon="-1.60874">
        <ele>55</ele>
        <time>2022-05-08T09:06:31Z</time>
      </trkpt>
      <trkpt lat="47.17831" lon="-1.6086">
        <ele>55</ele>
        <time>2022-05-08T09:06:33Z</time>
      </trkpt>
      <trkpt lat="47.17839" lon="-1.60844">
        <ele>55</ele>
        <time>2022-05-08T09:06:35Z</time>
      </trkpt>
      <trkpt lat="47.17845" lon="-1.60827">
        <ele>55</ele>
        <time>2022-05-08T09:06:37Z</time>
      </trkpt>
      <trkpt lat="47.1785" lon="-1.60809">
        <ele>54</ele>
        <time>2022-05-08T09:06:39Z</time>
      </trkpt>
      <trkpt lat="47.17854" lon="-1.60791">
        <ele>55</ele>
        <time>2022-05-08T09:06:41Z</time>
      </trkpt>
      <trkpt lat="47.17858" lon="-1.60772">
        <ele>55</ele>
        <time>2022-05-08T09:06:43Z</time>
      </trkpt>
      <trkpt lat="47.17862" lon="-1.60754">
        <ele>55</ele>
        <time>2022-05-08T09:06:45Z</time>
      </trkpt>
      <trkpt lat="47.17865" lon="-1.60735">
        <ele>55</ele>
        <time>2022-05-08T09:06:47Z</time>
      </trkpt>
      <trkpt lat="47.1787" lon="-1.60716">
        <ele>55</ele>
        <time>2022-05-08T09:06:49Z</time>
      </trkpt>
      <trkpt lat="47.17874" lon="-1.60698">
        <ele>55</ele>
        <time>2022-05-08T09:06:51Z</time>
      </trkpt>
      <trkpt lat="47.17878" lon="-1.6068">
        <ele>55</ele>
        <time>2022-05-08T09:06:53Z</time>
      </trkpt>
      <trkpt lat="47.17884" lon="-1.60663">
        <ele>55</ele>
        <time>2022-05-08T09:06:55Z</time>
      </trkpt>
      <trkpt lat="47.17889" lon="-1.60646">
        <ele>56</ele>
        <time>2022-05-08T09:06:57Z</time>
      </trkpt>
      <trkpt lat="47.17895" lon="-1.60631">
        <ele>56</ele>
        <time>2022-05-08T09:06:59Z</time>
      </trkpt>
      <trkpt lat="47.17899" lon="-1.60615">
        <ele>57</ele>
        <time>2022-05-08T09:07:01Z</time>
      </trkpt>
      <trkpt lat="47.17903" lon="-1.60599">
        <ele>57</ele>
        <time>2022-05-08T09:07:03Z</time>
      </trkpt>
      <trkpt lat="47.17908" lon="-1.60586">
        <ele>58</ele>
        <time>2022-05-08T09:07:05Z</time>
      </trkpt>
      <trkpt lat="47.17919" lon="-1.60581">
        <ele>58</ele>
        <time>2022-05-08T09:07:07Z</time>
      </trkpt>
      <trkpt lat="47.17931" lon="-1.60584">
        <ele>58</ele>
        <time>2022-05-08T09:07:09Z</time>
      </trkpt>
      <trkpt lat="47.17943" lon="-1.60583">
        <ele>59</ele>
        <time>2022-05-08T09:07:11Z</time>
      </trkpt>
      <trkpt lat="47.17955" lon="-1.60578">
        <ele>60</ele>
        <time>2022-05-08T09:07:13Z</time>
      </trkpt>
      <trkpt lat="47.17966" lon="-1.60571">
        <ele>58</ele>
        <time>2022-05-08T09:07:15Z</time>
      </trkpt>
      <trkpt lat="47.17977" lon="-1.60564">
        <ele>58</ele>
        <time>2022-05-08T09:07:17Z</time>
      </trkpt>
      <trkpt lat="47.17992" lon="-1.60558">
        <ele>58</ele>
        <time>2022-05-08T09:07:19Z</time>
      </trkpt>
      <trkpt lat="47.18007" lon="-1.60553">
        <ele>57</ele>
        <time>2022-05-08T09:07:21Z</time>
      </trkpt>
      <trkpt lat="47.18021" lon="-1.60551">
        <ele>56</ele>
        <time>2022-05-08T09:07:23Z</time>
      </trkpt>
      <trkpt lat="47.18034" lon="-1.60553">
        <ele>56</ele>
        <time>2022-05-08T09:07:25Z</time>
      </trkpt>
      <trkpt lat="47.18047" lon="-1.6056">
        <ele>56</ele>
        <time>2022-05-08T09:07:27Z</time>
      </trkpt>
      <trkpt lat="47.1806" lon="-1.60567">
        <ele>55</ele>
        <time>2022-05-08T09:07:29Z</time>
      </trkpt>
      <trkpt lat="47.18073" lon="-1.60574">
        <ele>55</ele>
        <time>2022-05-08T09:07:31Z</time>
      </trkpt>
      <trkpt lat="47.18085" lon="-1.60581">
        <ele>55</ele>
        <time>2022-05-08T09:07:33Z</time>
      </trkpt>
      <trkpt lat="47.18098" lon="-1.60587">
        <ele>55</ele>
        <time>2022-05-08T09:07:35Z</time>
      </trkpt>
      <trkpt lat="47.18111" lon="-1.60592">
        <ele>55</ele>
        <time>2022-05-08T09:07:37Z</time>
      </trkpt>
      <trkpt lat="47.18124" lon="-1.60597">
        <ele>55</ele>
        <time>2022-05-08T09:07:39Z</time>
      </trkpt>
      <trkpt lat="47.18136" lon="-1.60601">
        <ele>55</ele>
        <time>2022-05-08T09:07:41Z</time>
      </trkpt>
      <trkpt lat="47.18149" lon="-1.60602">
        <ele>55</ele>
        <time>2022-05-08T09:07:43Z</time>
      </trkpt>
      <trkpt lat="47.18162" lon="-1.60603">
        <ele>55</ele>
        <time>2022-05-08T09:07:45Z</time>
      </trkpt>
      <trkpt lat="47.18175" lon="-1.60603">
        <ele>55</ele>
        <time>2022-05-08T09:07:47Z</time>
      </trkpt>
      <trkpt lat="47.18187" lon="-1.60598">
        <ele>55</ele>
        <time>2022-05-08T09:07:49Z</time>
      </trkpt>
      <trkpt lat="47.18192" lon="-1.60583">
        <ele>55</ele>
        <time>2022-05-08T09:07:51Z</time>
      </trkpt>
      <trkpt lat="47.18201" lon="-1.6057">
        <ele>55</ele>
        <time>2022-05-08T09:07:53Z</time>
      </trkpt>
      <trkpt lat="47.18213" lon="-1.60566">
        <ele>56</ele>
        <time>2022-05-08T09:07:55Z</time>
      </trkpt>
      <trkpt lat="47.18225" lon="-1.60561">
        <ele>57</ele>
        <time>2022-05-08T09:07:57Z</time>
      </trkpt>
      <trkpt lat="47.18236" lon="-1.60554">
        <ele>57</ele>
        <time>2022-05-08T09:07:59Z</time>
      </trkpt>
      <trkpt lat="47.18247" lon="-1.60547">
        <ele>58</ele>
        <time>2022-05-08T09:08:01Z</time>
      </trkpt>
      <trkpt lat="47.18259" lon="-1.60538">
        <ele>58</ele>
        <time>2022-05-08T09:08:03Z</time>
      </trkpt>
      <trkpt lat="47.1827" lon="-1.60527">
        <ele>58</ele>
        <time>2022-05-08T09:08:05Z</time>
      </trkpt>
      <trkpt lat="47.18281" lon="-1.60517">
        <ele>57</ele>
        <time>2022-05-08T09:08:07Z</time>
      </trkpt>
      <trkpt lat="47.18292" lon="-1.60505">
        <ele>57</ele>
        <time>2022-05-08T09:08:09Z</time>
      </trkpt>
      <trkpt lat="47.18302" lon="-1.60494">
        <ele>57</ele>
        <time>2022-05-08T09:08:11Z</time>
      </trkpt>
      <trkpt lat="47.18312" lon="-1.60483">
        <ele>56</ele>
        <time>2022-05-08T09:08:13Z</time>
      </trkpt>
      <trkpt lat="47.18322" lon="-1.60471">
        <ele>56</ele>
        <time>2022-05-08T09:08:15Z</time>
      </trkpt>
      <trkpt lat="47.18332" lon="-1.60459">
        <ele>56</ele>
        <time>2022-05-08T09:08:17Z</time>
      </trkpt>
      <trkpt lat="47.18342" lon="-1.60447">
        <ele>55</ele>
        <time>2022-05-08T09:08:19Z</time>
      </trkpt>
      <trkpt lat="47.18352" lon="-1.60434">
        <ele>55</ele>
        <time>2022-05-08T09:08:21Z</time>
      </trkpt>
      <trkpt lat="47.18361" lon="-1.60422">
        <ele>55</ele>
        <time>2022-05-08T09:08:23Z</time>
      </trkpt>
      <trkpt lat="47.18371" lon="-1.60411">
        <ele>55</ele>
        <time>2022-05-08T09:08:25Z</time>
      </trkpt>
      <trkpt lat="47.1838" lon="-1.60399">
        <ele>55</ele>
        <time>2022-05-08T09:08:27Z</time>
      </trkpt>
      <trkpt lat="47.1839" lon="-1.60387">
        <ele>55</ele>
        <time>2022-05-08T09:08:29Z</time>
      </trkpt>
      <trkpt lat="47.18399" lon="-1.60374">
        <ele>55</ele>
        <time>2022-05-08T09:08:31Z</time>
      </trkpt>
      <trkpt lat="47.18407" lon="-1.60362">
        <ele>55</ele>
        <time>2022-05-08T09:08:33Z</time>
      </trkpt>
      <trkpt lat="47.18417" lon="-1.6035">
        <ele>55</ele>
        <time>2022-05-08T09:08:35Z</time>
      </trkpt>
      <trkpt lat="47.18425" lon="-1.60338">
        <ele>55</ele>
        <time>2022-05-08T09:08:37Z</time>
      </trkpt>
      <trkpt lat="47.18434" lon="-1.60324">
        <ele>55</ele>
        <time>2022-05-08T09:08:39Z</time>
      </trkpt>
      <trkpt lat="47.18442" lon="-1.60311">
        <ele>55</ele>
        <time>2022-05-08T09:08:41Z</time>
      </trkpt>
      <trkpt lat="47.1845" lon="-1.60297">
        <ele>55</ele>
        <time>2022-05-08T09:08:43Z</time>
      </trkpt>
      <trkpt lat="47.18458" lon="-1.60283">
        <ele>55</ele>
        <time>2022-05-08T09:08:45Z</time>
      </trkpt>
      <trkpt lat="47.18466" lon="-1.6027">
        <ele>55</ele>
        <time>2022-05-08T09:08:47Z</time>
      </trkpt>
      <trkpt lat="47.18473" lon="-1.60257">
        <ele>56</ele>
        <time>2022-05-08T09:08:49Z</time>
      </trkpt>
      <trkpt lat="47.18481" lon="-1.60242">
        <ele>56</ele>
        <time>2022-05-08T09:08:51Z</time>
      </trkpt>
      <trkpt lat="47.18489" lon="-1.60228">
        <ele>56</ele>
        <time>2022-05-08T09:08:53Z</time>
      </trkpt>
      <trkpt lat="47.18496" lon="-1.60214">
        <ele>56</ele>
        <time>2022-05-08T09:08:55Z</time>
      </trkpt>
      <trkpt lat="47.18504" lon="-1.60199">
        <ele>56</ele>
        <time>2022-05-08T09:08:57Z</time>
      </trkpt>
      <trkpt lat="47.18511" lon="-1.60183">
        <ele>56</ele>
        <time>2022-05-08T09:08:59Z</time>
      </trkpt>
      <trkpt lat="47.18518" lon="-1.60168">
        <ele>56</ele>
        <time>2022-05-08T09:09:01Z</time>
      </trkpt>
      <trkpt lat="47.18526" lon="-1.60153">
        <ele>56</ele>
        <time>2022-05-08T09:09:03Z</time>
      </trkpt>
      <trkpt lat="47.18533" lon="-1.60138">
        <ele>56</ele>
        <time>2022-05-08T09:09:05Z</time>
      </trkpt>
      <trkpt lat="47.1854" lon="-1.60122">
        <ele>56</ele>
        <time>2022-05-08T09:09:07Z</time>
      </trkpt>
      <trkpt lat="47.18547" lon="-1.60106">
        <ele>56</ele>
        <time>2022-05-08T09:09:09Z</time>
      </trkpt>
      <trkpt lat="47.18553" lon="-1.60091">
        <ele>55</ele>
        <time>2022-05-08T09:09:11Z</time>
      </trkpt>
      <trkpt lat="47.1856" lon="-1.60075">
        <ele>55</ele>
        <time>2022-05-08T09:09:13Z</time>
      </trkpt>
      <trkpt lat="47.18566" lon="-1.60059">
        <ele>55</ele>
        <time>2022-05-08T09:09:15Z</time>
      </trkpt>
      <trkpt lat="47.18572" lon="-1.60043">
        <ele>55</ele>
        <time>2022-05-08T09:09:17Z</time>
      </trkpt>
      <trkpt lat="47.18578" lon="-1.60027">
        <ele>56</ele>
        <time>2022-05-08T09:09:19Z</time>
      </trkpt>
      <trkpt lat="47.18583" lon="-1.60011">
        <ele>56</ele>
        <time>2022-05-08T09:09:21Z</time>
      </trkpt>
      <trkpt lat="47.18588" lon="-1.59995">
        <ele>56</ele>
        <time>2022-05-08T09:09:23Z</time>
      </trkpt>
      <trkpt lat="47.18593" lon="-1.59979">
        <ele>56</ele>
        <time>2022-05-08T09:09:25Z</time>
      </trkpt>
      <trkpt lat="47.18598" lon="-1.59962">
        <ele>57</ele>
        <time>2022-05-08T09:09:27Z</time>
      </trkpt>
      <trkpt lat="47.18603" lon="-1.59946">
        <ele>57</ele>
        <time>2022-05-08T09:09:29Z</time>
      </trkpt>
      <trkpt lat="47.18608" lon="-1.59929">
        <ele>57</ele>
        <time>2022-05-08T09:09:31Z</time>
      </trkpt>
      <trkpt lat="47.18612" lon="-1.59913">
        <ele>56</ele>
        <time>2022-05-08T09:09:33Z</time>
      </trkpt>
      <trkpt lat="47.18616" lon="-1.59896">
        <ele>56</ele>
        <time>2022-05-08T09:09:35Z</time>
      </trkpt>
      <trkpt lat="47.1862" lon="-1.5988">
        <ele>56</ele>
        <time>2022-05-08T09:09:37Z</time>
      </trkpt>
      <trkpt lat="47.18623" lon="-1.59863">
        <ele>56</ele>
        <time>2022-05-08T09:09:39Z</time>
      </trkpt>
      <trkpt lat="47.18618" lon="-1.59847">
        <ele>56</ele>
        <time>2022-05-08T09:09:41Z</time>
      </trkpt>
      <trkpt lat="47.18615" lon="-1.59831">
        <ele>56</ele>
        <time>2022-05-08T09:09:43Z</time>
      </trkpt>
      <trkpt lat="47.18622" lon="-1.59818">
        <ele>56</ele>
        <time>2022-05-08T09:09:45Z</time>
      </trkpt>
      <trkpt lat="47.18629" lon="-1.59805">
        <ele>56</ele>
        <time>2022-05-08T09:09:47Z</time>
      </trkpt>
      <trkpt lat="47.18632" lon="-1.59788">
        <ele>56</ele>
        <time>2022-05-08T09:09:49Z</time>
      </trkpt>
      <trkpt lat="47.18637" lon="-1.59772">
        <ele>56</ele>
        <time>2022-05-08T09:09:51Z</time>
      </trkpt>
      <trkpt lat="47.18645" lon="-1.59758">
        <ele>57</ele>
        <time>2022-05-08T09:09:53Z</time>
      </trkpt>
      <trkpt lat="47.18653" lon="-1.59745">
        <ele>56</ele>
        <time>2022-05-08T09:09:55Z</time>
      </trkpt>
      <trkpt lat="47.18656" lon="-1.59729">
        <ele>56</ele>
        <time>2022-05-08T09:09:57Z</time>
      </trkpt>
      <trkpt lat="47.18658" lon="-1.59713">
        <ele>56</ele>
        <time>2022-05-08T09:09:59Z</time>
      </trkpt>
      <trkpt lat="47.18662" lon="-1.59696">
        <ele>56</ele>
        <time>2022-05-08T09:10:01Z</time>
      </trkpt>
      <trkpt lat="47.18665" lon="-1.59679">
        <ele>56</ele>
        <time>2022-05-08T09:10:03Z</time>
      </trkpt>
      <trkpt lat="47.18669" lon="-1.59663">
        <ele>56</ele>
        <time>2022-05-08T09:10:05Z</time>
      </trkpt>
      <trkpt lat="47.18674" lon="-1.59647">
        <ele>56</ele>
        <time>2022-05-08T09:10:07Z</time>
      </trkpt>
      <trkpt lat="47.18677" lon="-1.5963">
        <ele>56</ele>
        <time>2022-05-08T09:10:09Z</time>
      </trkpt>
      <trkpt lat="47.18679" lon="-1.59612">
        <ele>56</ele>
        <time>2022-05-08T09:10:11Z</time>
      </trkpt>
      <trkpt lat="47.18681" lon="-1.59595">
        <ele>56</ele>
        <time>2022-05-08T09:10:13Z</time>
      </trkpt>
      <trkpt lat="47.18683" lon="-1.59577">
        <ele>56</ele>
        <time>2022-05-08T09:10:15Z</time>
      </trkpt>
      <trkpt lat="47.18685" lon="-1.5956">
        <ele>55</ele>
        <time>2022-05-08T09:10:17Z</time>
      </trkpt>
      <trkpt lat="47.18688" lon="-1.59543">
        <ele>55</ele>
        <time>2022-05-08T09:10:19Z</time>
      </trkpt>
      <trkpt lat="47.18689" lon="-1.59525">
        <ele>55</ele>
        <time>2022-05-08T09:10:21Z</time>
      </trkpt>
      <trkpt lat="47.18691" lon="-1.59508">
        <ele>55</ele>
        <time>2022-05-08T09:10:23Z</time>
      </trkpt>
      <trkpt lat="47.18693" lon="-1.59491">
        <ele>55</ele>
        <time>2022-05-08T09:10:25Z</time>
      </trkpt>
      <trkpt lat="47.18694" lon="-1.59473">
        <ele>55</ele>
        <time>2022-05-08T09:10:27Z</time>
      </trkpt>
      <trkpt lat="47.18696" lon="-1.59455">
        <ele>55</ele>
        <time>2022-05-08T09:10:29Z</time>
      </trkpt>
      <trkpt lat="47.18698" lon="-1.59437">
        <ele>56</ele>
        <time>2022-05-08T09:10:31Z</time>
      </trkpt>
      <trkpt lat="47.18699" lon="-1.59419">
        <ele>56</ele>
        <time>2022-05-08T09:10:33Z</time>
      </trkpt>
      <trkpt lat="47.18701" lon="-1.59402">
        <ele>56</ele>
        <time>2022-05-08T09:10:35Z</time>
      </trkpt>
      <trkpt lat="47.18703" lon="-1.59384">
        <ele>57</ele>
        <time>2022-05-08T09:10:37Z</time>
      </trkpt>
      <trkpt lat="47.18705" lon="-1.59366">
        <ele>57</ele>
        <time>2022-05-08T09:10:39Z</time>
      </trkpt>
      <trkpt lat="47.18706" lon="-1.59348">
        <ele>57</ele>
        <time>2022-05-08T09:10:41Z</time>
      </trkpt>
      <trkpt lat="47.18708" lon="-1.59331">
        <ele>57</ele>
        <time>2022-05-08T09:10:43Z</time>
      </trkpt>
      <trkpt lat="47.1871" lon="-1.59313">
        <ele>57</ele>
        <time>2022-05-08T09:10:45Z</time>
      </trkpt>
      <trkpt lat="47.18712" lon="-1.59296">
        <ele>57</ele>
        <time>2022-05-08T09:10:47Z</time>
      </trkpt>
      <trkpt lat="47.18714" lon="-1.59278">
        <ele>57</ele>
        <time>2022-05-08T09:10:49Z</time>
      </trkpt>
      <trkpt lat="47.18716" lon="-1.59261">
        <ele>57</ele>
        <time>2022-05-08T09:10:51Z</time>
      </trkpt>
      <trkpt lat="47.18718" lon="-1.59244">
        <ele>57</ele>
        <time>2022-05-08T09:10:53Z</time>
      </trkpt>
      <trkpt lat="47.1872" lon="-1.59226">
        <ele>57</ele>
        <time>2022-05-08T09:10:55Z</time>
      </trkpt>
      <trkpt lat="47.18721" lon="-1.59208">
        <ele>57</ele>
        <time>2022-05-08T09:10:57Z</time>
      </trkpt>
      <trkpt lat="47.18724" lon="-1.5919">
        <ele>57</ele>
        <time>2022-05-08T09:10:59Z</time>
      </trkpt>
      <trkpt lat="47.18725" lon="-1.59172">
        <ele>57</ele>
        <time>2022-05-08T09:11:01Z</time>
      </trkpt>
      <trkpt lat="47.18727" lon="-1.59153">
        <ele>57</ele>
        <time>2022-05-08T09:11:03Z</time>
      </trkpt>
      <trkpt lat="47.18729" lon="-1.59135">
        <ele>57</ele>
        <time>2022-05-08T09:11:05Z</time>
      </trkpt>
      <trkpt lat="47.18731" lon="-1.59117">
        <ele>57</ele>
        <time>2022-05-08T09:11:07Z</time>
      </trkpt>
      <trkpt lat="47.18733" lon="-1.59098">
        <ele>58</ele>
        <time>2022-05-08T09:11:09Z</time>
      </trkpt>
      <trkpt lat="47.18735" lon="-1.5908">
        <ele>58</ele>
        <time>2022-05-08T09:11:11Z</time>
      </trkpt>
      <trkpt lat="47.18737" lon="-1.59061">
        <ele>58</ele>
        <time>2022-05-08T09:11:13Z</time>
      </trkpt>
      <trkpt lat="47.18739" lon="-1.59042">
        <ele>58</ele>
        <time>2022-05-08T09:11:15Z</time>
      </trkpt>
      <trkpt lat="47.18741" lon="-1.59024">
        <ele>58</ele>
        <time>2022-05-08T09:11:17Z</time>
      </trkpt>
      <trkpt lat="47.18743" lon="-1.59005">
        <ele>58</ele>
        <time>2022-05-08T09:11:19Z</time>
      </trkpt>
      <trkpt lat="47.18745" lon="-1.58987">
        <ele>58</ele>
        <time>2022-05-08T09:11:21Z</time>
      </trkpt>
      <trkpt lat="47.18747" lon="-1.58969">
        <ele>59</ele>
        <time>2022-05-08T09:11:23Z</time>
      </trkpt>
      <trkpt lat="47.18748" lon="-1.58951">
        <ele>59</ele>
        <time>2022-05-08T09:11:25Z</time>
      </trkpt>
      <trkpt lat="47.1875" lon="-1.58933">
        <ele>59</ele>
        <time>2022-05-08T09:11:27Z</time>
      </trkpt>
      <trkpt lat="47.18752" lon="-1.58915">
        <ele>59</ele>
        <time>2022-05-08T09:11:29Z</time>
      </trkpt>
      <trkpt lat="47.18754" lon="-1.58897">
        <ele>60</ele>
        <time>2022-05-08T09:11:31Z</time>
      </trkpt>
      <trkpt lat="47.18756" lon="-1.58879">
        <ele>61</ele>
        <time>2022-05-08T09:11:33Z</time>
      </trkpt>
      <trkpt lat="47.18759" lon="-1.58861">
        <ele>60</ele>
        <time>2022-05-08T09:11:35Z</time>
      </trkpt>
      <trkpt lat="47.18761" lon="-1.58843">
        <ele>60</ele>
        <time>2022-05-08T09:11:37Z</time>
      </trkpt>
      <trkpt lat="47.18762" lon="-1.58825">
        <ele>60</ele>
        <time>2022-05-08T09:11:39Z</time>
      </trkpt>
      <trkpt lat="47.18763" lon="-1.58807">
        <ele>60</ele>
        <time>2022-05-08T09:11:41Z</time>
      </trkpt>
      <trkpt lat="47.18762" lon="-1.58789">
        <ele>60</ele>
        <time>2022-05-08T09:11:43Z</time>
      </trkpt>
      <trkpt lat="47.18759" lon="-1.58772">
        <ele>60</ele>
        <time>2022-05-08T09:11:45Z</time>
      </trkpt>
      <trkpt lat="47.18756" lon="-1.58754">
        <ele>60</ele>
        <time>2022-05-08T09:11:47Z</time>
      </trkpt>
      <trkpt lat="47.18758" lon="-1.58735">
        <ele>60</ele>
        <time>2022-05-08T09:11:49Z</time>
      </trkpt>
      <trkpt lat="47.18764" lon="-1.58718">
        <ele>60</ele>
        <time>2022-05-08T09:11:51Z</time>
      </trkpt>
      <trkpt lat="47.18773" lon="-1.58705">
        <ele>60</ele>
        <time>2022-05-08T09:11:53Z</time>
      </trkpt>
      <trkpt lat="47.18781" lon="-1.58692">
        <ele>60</ele>
        <time>2022-05-08T09:11:55Z</time>
      </trkpt>
      <trkpt lat="47.18786" lon="-1.58676">
        <ele>60</ele>
        <time>2022-05-08T09:11:57Z</time>
      </trkpt>
      <trkpt lat="47.1879" lon="-1.58658">
        <ele>59</ele>
        <time>2022-05-08T09:11:59Z</time>
      </trkpt>
      <trkpt lat="47.18794" lon="-1.58641">
        <ele>59</ele>
        <time>2022-05-08T09:12:01Z</time>
      </trkpt>
      <trkpt lat="47.18799" lon="-1.58624">
        <ele>59</ele>
        <time>2022-05-08T09:12:03Z</time>
      </trkpt>
      <trkpt lat="47.18803" lon="-1.58606">
        <ele>59</ele>
        <time>2022-05-08T09:12:05Z</time>
      </trkpt>
      <trkpt lat="47.18808" lon="-1.58589">
        <ele>59</ele>
        <time>2022-05-08T09:12:07Z</time>
      </trkpt>
      <trkpt lat="47.18812" lon="-1.58572">
        <ele>59</ele>
        <time>2022-05-08T09:12:09Z</time>
      </trkpt>
      <trkpt lat="47.18817" lon="-1.58556">
        <ele>59</ele>
        <time>2022-05-08T09:12:11Z</time>
      </trkpt>
      <trkpt lat="47.18823" lon="-1.58531">
        <ele>59</ele>
        <time>2022-05-08T09:12:14Z</time>
      </trkpt>
      <trkpt lat="47.18828" lon="-1.58515">
        <ele>59</ele>
        <time>2022-05-08T09:12:16Z</time>
      </trkpt>
      <trkpt lat="47.18835" lon="-1.58491">
        <ele>58</ele>
        <time>2022-05-08T09:12:19Z</time>
      </trkpt>
      <trkpt lat="47.18842" lon="-1.58466">
        <ele>59</ele>
        <time>2022-05-08T09:12:22Z</time>
      </trkpt>
      <trkpt lat="47.18847" lon="-1.58451">
        <ele>59</ele>
        <time>2022-05-08T09:12:24Z</time>
      </trkpt>
      <trkpt lat="47.18852" lon="-1.58434">
        <ele>59</ele>
        <time>2022-05-08T09:12:26Z</time>
      </trkpt>
      <trkpt lat="47.18857" lon="-1.58418">
        <ele>59</ele>
        <time>2022-05-08T09:12:28Z</time>
      </trkpt>
      <trkpt lat="47.18862" lon="-1.58402">
        <ele>59</ele>
        <time>2022-05-08T09:12:30Z</time>
      </trkpt>
      <trkpt lat="47.18867" lon="-1.58386">
        <ele>60</ele>
        <time>2022-05-08T09:12:32Z</time>
      </trkpt>
      <trkpt lat="47.18872" lon="-1.5837">
        <ele>60</ele>
        <time>2022-05-08T09:12:34Z</time>
      </trkpt>
      <trkpt lat="47.18878" lon="-1.58353">
        <ele>60</ele>
        <time>2022-05-08T09:12:36Z</time>
      </trkpt>
      <trkpt lat="47.18883" lon="-1.58338">
        <ele>60</ele>
        <time>2022-05-08T09:12:38Z</time>
      </trkpt>
      <trkpt lat="47.18889" lon="-1.58323">
        <ele>60</ele>
        <time>2022-05-08T09:12:40Z</time>
      </trkpt>
      <trkpt lat="47.18895" lon="-1.58308">
        <ele>60</ele>
        <time>2022-05-08T09:12:42Z</time>
      </trkpt>
      <trkpt lat="47.189" lon="-1.58292">
        <ele>61</ele>
        <time>2022-05-08T09:12:44Z</time>
      </trkpt>
      <trkpt lat="47.18905" lon="-1.58276">
        <ele>61</ele>
        <time>2022-05-08T09:12:46Z</time>
      </trkpt>
      <trkpt lat="47.18911" lon="-1.58259">
        <ele>61</ele>
        <time>2022-05-08T09:12:48Z</time>
      </trkpt>
      <trkpt lat="47.18917" lon="-1.58242">
        <ele>60</ele>
        <time>2022-05-08T09:12:50Z</time>
      </trkpt>
      <trkpt lat="47.18924" lon="-1.58225">
        <ele>60</ele>
        <time>2022-05-08T09:12:52Z</time>
      </trkpt>
      <trkpt lat="47.1893" lon="-1.58209">
        <ele>60</ele>
        <time>2022-05-08T09:12:54Z</time>
      </trkpt>
      <trkpt lat="47.18936" lon="-1.58192">
        <ele>60</ele>
        <time>2022-05-08T09:12:56Z</time>
      </trkpt>
      <trkpt lat="47.18942" lon="-1.58176">
        <ele>61</ele>
        <time>2022-05-08T09:12:58Z</time>
      </trkpt>
      <trkpt lat="47.18948" lon="-1.5816">
        <ele>60</ele>
        <time>2022-05-08T09:13:00Z</time>
      </trkpt>
      <trkpt lat="47.18953" lon="-1.58144">
        <ele>60</ele>
        <time>2022-05-08T09:13:02Z</time>
      </trkpt>
      <trkpt lat="47.18959" lon="-1.58128">
        <ele>61</ele>
        <time>2022-05-08T09:13:04Z</time>
      </trkpt>
      <trkpt lat="47.18965" lon="-1.58112">
        <ele>60</ele>
        <time>2022-05-08T09:13:06Z</time>
      </trkpt>
      <trkpt lat="47.18971" lon="-1.58095">
        <ele>60</ele>
        <time>2022-05-08T09:13:08Z</time>
      </trkpt>
      <trkpt lat="47.18977" lon="-1.58078">
        <ele>60</ele>
        <time>2022-05-08T09:13:10Z</time>
      </trkpt>
      <trkpt lat="47.18983" lon="-1.58061">
        <ele>59</ele>
        <time>2022-05-08T09:13:12Z</time>
      </trkpt>
      <trkpt lat="47.18989" lon="-1.58044">
        <ele>59</ele>
        <time>2022-05-08T09:13:14Z</time>
      </trkpt>
      <trkpt lat="47.18995" lon="-1.58027">
        <ele>59</ele>
        <time>2022-05-08T09:13:16Z</time>
      </trkpt>
      <trkpt lat="47.19" lon="-1.58011">
        <ele>60</ele>
        <time>2022-05-08T09:13:18Z</time>
      </trkpt>
      <trkpt lat="47.19006" lon="-1.57994">
        <ele>60</ele>
        <time>2022-05-08T09:13:20Z</time>
      </trkpt>
      <trkpt lat="47.19012" lon="-1.57978">
        <ele>60</ele>
        <time>2022-05-08T09:13:22Z</time>
      </trkpt>
      <trkpt lat="47.19017" lon="-1.57962">
        <ele>61</ele>
        <time>2022-05-08T09:13:24Z</time>
      </trkpt>
      <trkpt lat="47.19023" lon="-1.57945">
        <ele>61</ele>
        <time>2022-05-08T09:13:26Z</time>
      </trkpt>
      <trkpt lat="47.19029" lon="-1.57929">
        <ele>61</ele>
        <time>2022-05-08T09:13:28Z</time>
      </trkpt>
      <trkpt lat="47.19035" lon="-1.57912">
        <ele>61</ele>
        <time>2022-05-08T09:13:30Z</time>
      </trkpt>
      <trkpt lat="47.19041" lon="-1.57895">
        <ele>60</ele>
        <time>2022-05-08T09:13:32Z</time>
      </trkpt>
      <trkpt lat="47.19047" lon="-1.57879">
        <ele>60</ele>
        <time>2022-05-08T09:13:34Z</time>
      </trkpt>
      <trkpt lat="47.19053" lon="-1.57862">
        <ele>60</ele>
        <time>2022-05-08T09:13:36Z</time>
      </trkpt>
      <trkpt lat="47.19058" lon="-1.57847">
        <ele>60</ele>
        <time>2022-05-08T09:13:38Z</time>
      </trkpt>
      <trkpt lat="47.19064" lon="-1.5783">
        <ele>60</ele>
        <time>2022-05-08T09:13:40Z</time>
      </trkpt>
      <trkpt lat="47.1907" lon="-1.57813">
        <ele>61</ele>
        <time>2022-05-08T09:13:42Z</time>
      </trkpt>
      <trkpt lat="47.19076" lon="-1.57796">
        <ele>61</ele>
        <time>2022-05-08T09:13:44Z</time>
      </trkpt>
      <trkpt lat="47.19082" lon="-1.57779">
        <ele>60</ele>
        <time>2022-05-08T09:13:46Z</time>
      </trkpt>
      <trkpt lat="47.19088" lon="-1.57762">
        <ele>60</ele>
        <time>2022-05-08T09:13:48Z</time>
      </trkpt>
      <trkpt lat="47.19094" lon="-1.57745">
        <ele>59</ele>
        <time>2022-05-08T09:13:50Z</time>
      </trkpt>
      <trkpt lat="47.191" lon="-1.57728">
        <ele>60</ele>
        <time>2022-05-08T09:13:52Z</time>
      </trkpt>
      <trkpt lat="47.19106" lon="-1.57711">
        <ele>59</ele>
        <time>2022-05-08T09:13:54Z</time>
      </trkpt>
      <trkpt lat="47.19112" lon="-1.57694">
        <ele>59</ele>
        <time>2022-05-08T09:13:56Z</time>
      </trkpt>
      <trkpt lat="47.19118" lon="-1.57678">
        <ele>59</ele>
        <time>2022-05-08T09:13:58Z</time>
      </trkpt>
      <trkpt lat="47.19124" lon="-1.57661">
        <ele>59</ele>
        <time>2022-05-08T09:14:00Z</time>
      </trkpt>
      <trkpt lat="47.1913" lon="-1.57644">
        <ele>59</ele>
        <time>2022-05-08T09:14:02Z</time>
      </trkpt>
      <trkpt lat="47.19136" lon="-1.57628">
        <ele>59</ele>
        <time>2022-05-08T09:14:04Z</time>
      </trkpt>
      <trkpt lat="47.19142" lon="-1.57612">
        <ele>59</ele>
        <time>2022-05-08T09:14:06Z</time>
      </trkpt>
      <trkpt lat="47.19148" lon="-1.57594">
        <ele>59</ele>
        <time>2022-05-08T09:14:08Z</time>
      </trkpt>
      <trkpt lat="47.19154" lon="-1.57578">
        <ele>59</ele>
        <time>2022-05-08T09:14:10Z</time>
      </trkpt>
      <trkpt lat="47.19159" lon="-1.57562">
        <ele>60</ele>
        <time>2022-05-08T09:14:12Z</time>
      </trkpt>
      <trkpt lat="47.19166" lon="-1.57545">
        <ele>59</ele>
        <time>2022-05-08T09:14:14Z</time>
      </trkpt>
      <trkpt lat="47.19172" lon="-1.57528">
        <ele>60</ele>
        <time>2022-05-08T09:14:16Z</time>
      </trkpt>
      <trkpt lat="47.19177" lon="-1.57511">
        <ele>59</ele>
        <time>2022-05-08T09:14:18Z</time>
      </trkpt>
      <trkpt lat="47.19182" lon="-1.57495">
        <ele>59</ele>
        <time>2022-05-08T09:14:20Z</time>
      </trkpt>
      <trkpt lat="47.19187" lon="-1.57479">
        <ele>60</ele>
        <time>2022-05-08T09:14:22Z</time>
      </trkpt>
      <trkpt lat="47.19192" lon="-1.57462">
        <ele>60</ele>
        <time>2022-05-08T09:14:24Z</time>
      </trkpt>
      <trkpt lat="47.19197" lon="-1.57445">
        <ele>60</ele>
        <time>2022-05-08T09:14:26Z</time>
      </trkpt>
      <trkpt lat="47.19202" lon="-1.57427">
        <ele>60</ele>
        <time>2022-05-08T09:14:28Z</time>
      </trkpt>
      <trkpt lat="47.19207" lon="-1.5741">
        <ele>59</ele>
        <time>2022-05-08T09:14:30Z</time>
      </trkpt>
      <trkpt lat="47.19212" lon="-1.57392">
        <ele>59</ele>
        <time>2022-05-08T09:14:32Z</time>
      </trkpt>
      <trkpt lat="47.19217" lon="-1.57373">
        <ele>60</ele>
        <time>2022-05-08T09:14:34Z</time>
      </trkpt>
      <trkpt lat="47.19222" lon="-1.57355">
        <ele>61</ele>
        <time>2022-05-08T09:14:36Z</time>
      </trkpt>
      <trkpt lat="47.19226" lon="-1.57338">
        <ele>62</ele>
        <time>2022-05-08T09:14:38Z</time>
      </trkpt>
      <trkpt lat="47.1923" lon="-1.57319">
        <ele>62</ele>
        <time>2022-05-08T09:14:40Z</time>
      </trkpt>
      <trkpt lat="47.19233" lon="-1.573">
        <ele>62</ele>
        <time>2022-05-08T09:14:42Z</time>
      </trkpt>
      <trkpt lat="47.19235" lon="-1.57282">
        <ele>62</ele>
        <time>2022-05-08T09:14:44Z</time>
      </trkpt>
      <trkpt lat="47.19238" lon="-1.57263">
        <ele>62</ele>
        <time>2022-05-08T09:14:46Z</time>
      </trkpt>
      <trkpt lat="47.1924" lon="-1.57244">
        <ele>62</ele>
        <time>2022-05-08T09:14:48Z</time>
      </trkpt>
      <trkpt lat="47.19242" lon="-1.57225">
        <ele>63</ele>
        <time>2022-05-08T09:14:50Z</time>
      </trkpt>
      <trkpt lat="47.19245" lon="-1.57206">
        <ele>63</ele>
        <time>2022-05-08T09:14:52Z</time>
      </trkpt>
      <trkpt lat="47.19248" lon="-1.57187">
        <ele>62</ele>
        <time>2022-05-08T09:14:54Z</time>
      </trkpt>
      <trkpt lat="47.1925" lon="-1.57168">
        <ele>62</ele>
        <time>2022-05-08T09:14:56Z</time>
      </trkpt>
      <trkpt lat="47.19253" lon="-1.57149">
        <ele>62</ele>
        <time>2022-05-08T09:14:58Z</time>
      </trkpt>
      <trkpt lat="47.19256" lon="-1.5713">
        <ele>61</ele>
        <time>2022-05-08T09:15:00Z</time>
      </trkpt>
      <trkpt lat="47.19259" lon="-1.57111">
        <ele>59</ele>
        <time>2022-05-08T09:15:02Z</time>
      </trkpt>
      <trkpt lat="47.19261" lon="-1.57092">
        <ele>58</ele>
        <time>2022-05-08T09:15:04Z</time>
      </trkpt>
      <trkpt lat="47.19261" lon="-1.57073">
        <ele>58</ele>
        <time>2022-05-08T09:15:06Z</time>
      </trkpt>
      <trkpt lat="47.19257" lon="-1.57055">
        <ele>58</ele>
        <time>2022-05-08T09:15:08Z</time>
      </trkpt>
      <trkpt lat="47.19257" lon="-1.57035">
        <ele>57</ele>
        <time>2022-05-08T09:15:10Z</time>
      </trkpt>
      <trkpt lat="47.19266" lon="-1.57018">
        <ele>57</ele>
        <time>2022-05-08T09:15:12Z</time>
      </trkpt>
      <trkpt lat="47.19271" lon="-1.57001">
        <ele>57</ele>
        <time>2022-05-08T09:15:14Z</time>
      </trkpt>
      <trkpt lat="47.19273" lon="-1.56982">
        <ele>58</ele>
        <time>2022-05-08T09:15:16Z</time>
      </trkpt>
      <trkpt lat="47.19276" lon="-1.56963">
        <ele>57</ele>
        <time>2022-05-08T09:15:18Z</time>
      </trkpt>
      <trkpt lat="47.19278" lon="-1.56944">
        <ele>58</ele>
        <time>2022-05-08T09:15:20Z</time>
      </trkpt>
      <trkpt lat="47.19279" lon="-1.56927">
        <ele>58</ele>
        <time>2022-05-08T09:15:22Z</time>
      </trkpt>
      <trkpt lat="47.1928" lon="-1.56908">
        <ele>58</ele>
        <time>2022-05-08T09:15:24Z</time>
      </trkpt>
      <trkpt lat="47.19281" lon="-1.56891">
        <ele>58</ele>
        <time>2022-05-08T09:15:26Z</time>
      </trkpt>
      <trkpt lat="47.19283" lon="-1.56873">
        <ele>58</ele>
        <time>2022-05-08T09:15:28Z</time>
      </trkpt>
      <trkpt lat="47.19284" lon="-1.56855">
        <ele>58</ele>
        <time>2022-05-08T09:15:30Z</time>
      </trkpt>
      <trkpt lat="47.19286" lon="-1.56838">
        <ele>59</ele>
        <time>2022-05-08T09:15:32Z</time>
      </trkpt>
      <trkpt lat="47.19288" lon="-1.56819">
        <ele>59</ele>
        <time>2022-05-08T09:15:34Z</time>
      </trkpt>
      <trkpt lat="47.19288" lon="-1.56802">
        <ele>59</ele>
        <time>2022-05-08T09:15:36Z</time>
      </trkpt>
      <trkpt lat="47.19289" lon="-1.56784">
        <ele>60</ele>
        <time>2022-05-08T09:15:38Z</time>
      </trkpt>
      <trkpt lat="47.19289" lon="-1.56767">
        <ele>60</ele>
        <time>2022-05-08T09:15:40Z</time>
      </trkpt>
      <trkpt lat="47.19289" lon="-1.56749">
        <ele>60</ele>
        <time>2022-05-08T09:15:42Z</time>
      </trkpt>
      <trkpt lat="47.19289" lon="-1.56731">
        <ele>60</ele>
        <time>2022-05-08T09:15:44Z</time>
      </trkpt>
      <trkpt lat="47.19289" lon="-1.56714">
        <ele>60</ele>
        <time>2022-05-08T09:15:46Z</time>
      </trkpt>
      <trkpt lat="47.19289" lon="-1.56696">
        <ele>59</ele>
        <time>2022-05-08T09:15:48Z</time>
      </trkpt>
      <trkpt lat="47.19288" lon="-1.56679">
        <ele>59</ele>
        <time>2022-05-08T09:15:50Z</time>
      </trkpt>
      <trkpt lat="47.19287" lon="-1.56661">
        <ele>60</ele>
        <time>2022-05-08T09:15:52Z</time>
      </trkpt>
      <trkpt lat="47.19286" lon="-1.56642">
        <ele>59</ele>
        <time>2022-05-08T09:15:54Z</time>
      </trkpt>
      <trkpt lat="47.19284" lon="-1.56624">
        <ele>59</ele>
        <time>2022-05-08T09:15:56Z</time>
      </trkpt>
      <trkpt lat="47.19283" lon="-1.56605">
        <ele>59</ele>
        <time>2022-05-08T09:15:58Z</time>
      </trkpt>
      <trkpt lat="47.19281" lon="-1.56586">
        <ele>60</ele>
        <time>2022-05-08T09:16:00Z</time>
      </trkpt>
      <trkpt lat="47.19279" lon="-1.56567">
        <ele>59</ele>
        <time>2022-05-08T09:16:02Z</time>
      </trkpt>
      <trkpt lat="47.19277" lon="-1.56548">
        <ele>59</ele>
        <time>2022-05-08T09:16:04Z</time>
      </trkpt>
      <trkpt lat="47.19276" lon="-1.56529">
        <ele>59</ele>
        <time>2022-05-08T09:16:06Z</time>
      </trkpt>
      <trkpt lat="47.19273" lon="-1.5651">
        <ele>59</ele>
        <time>2022-05-08T09:16:08Z</time>
      </trkpt>
      <trkpt lat="47.19271" lon="-1.56491">
        <ele>59</ele>
        <time>2022-05-08T09:16:10Z</time>
      </trkpt>
      <trkpt lat="47.19269" lon="-1.56473">
        <ele>59</ele>
        <time>2022-05-08T09:16:12Z</time>
      </trkpt>
      <trkpt lat="47.19266" lon="-1.56454">
        <ele>59</ele>
        <time>2022-05-08T09:16:14Z</time>
      </trkpt>
      <trkpt lat="47.19265" lon="-1.56436">
        <ele>59</ele>
        <time>2022-05-08T09:16:16Z</time>
      </trkpt>
      <trkpt lat="47.19265" lon="-1.56417">
        <ele>58</ele>
        <time>2022-05-08T09:16:18Z</time>
      </trkpt>
      <trkpt lat="47.19264" lon="-1.56399">
        <ele>58</ele>
        <time>2022-05-08T09:16:20Z</time>
      </trkpt>
      <trkpt lat="47.19262" lon="-1.56381">
        <ele>59</ele>
        <time>2022-05-08T09:16:22Z</time>
      </trkpt>
      <trkpt lat="47.19259" lon="-1.56364">
        <ele>59</ele>
        <time>2022-05-08T09:16:24Z</time>
      </trkpt>
      <trkpt lat="47.19256" lon="-1.56347">
        <ele>59</ele>
        <time>2022-05-08T09:16:26Z</time>
      </trkpt>
      <trkpt lat="47.19251" lon="-1.56332">
        <ele>59</ele>
        <time>2022-05-08T09:16:28Z</time>
      </trkpt>
      <trkpt lat="47.19242" lon="-1.56321">
        <ele>59</ele>
        <time>2022-05-08T09:16:30Z</time>
      </trkpt>
      <trkpt lat="47.19235" lon="-1.56306">
        <ele>59</ele>
        <time>2022-05-08T09:16:32Z</time>
      </trkpt>
      <trkpt lat="47.19233" lon="-1.56288">
        <ele>59</ele>
        <time>2022-05-08T09:16:34Z</time>
      </trkpt>
      <trkpt lat="47.19236" lon="-1.5627">
        <ele>58</ele>
        <time>2022-05-08T09:16:36Z</time>
      </trkpt>
      <trkpt lat="47.19242" lon="-1.56254">
        <ele>58</ele>
        <time>2022-05-08T09:16:38Z</time>
      </trkpt>
      <trkpt lat="47.19245" lon="-1.56237">
        <ele>58</ele>
        <time>2022-05-08T09:16:40Z</time>
      </trkpt>
      <trkpt lat="47.19243" lon="-1.56218">
        <ele>58</ele>
        <time>2022-05-08T09:16:42Z</time>
      </trkpt>
      <trkpt lat="47.19243" lon="-1.562">
        <ele>58</ele>
        <time>2022-05-08T09:16:44Z</time>
      </trkpt>
      <trkpt lat="47.19243" lon="-1.56182">
        <ele>58</ele>
        <time>2022-05-08T09:16:46Z</time>
      </trkpt>
      <trkpt lat="47.19243" lon="-1.56164">
        <ele>59</ele>
        <time>2022-05-08T09:16:48Z</time>
      </trkpt>
      <trkpt lat="47.19243" lon="-1.56145">
        <ele>59</ele>
        <time>2022-05-08T09:16:50Z</time>
      </trkpt>
      <trkpt lat="47.19243" lon="-1.56127">
        <ele>59</ele>
        <time>2022-05-08T09:16:52Z</time>
      </trkpt>
      <trkpt lat="47.19242" lon="-1.56109">
        <ele>59</ele>
        <time>2022-05-08T09:16:54Z</time>
      </trkpt>
      <trkpt lat="47.19242" lon="-1.56092">
        <ele>59</ele>
        <time>2022-05-08T09:16:56Z</time>
      </trkpt>
      <trkpt lat="47.19241" lon="-1.56075">
        <ele>59</ele>
        <time>2022-05-08T09:16:58Z</time>
      </trkpt>
      <trkpt lat="47.1924" lon="-1.56057">
        <ele>58</ele>
        <time>2022-05-08T09:17:00Z</time>
      </trkpt>
      <trkpt lat="47.19239" lon="-1.56039">
        <ele>58</ele>
        <time>2022-05-08T09:17:02Z</time>
      </trkpt>
      <trkpt lat="47.19237" lon="-1.56021">
        <ele>58</ele>
        <time>2022-05-08T09:17:04Z</time>
      </trkpt>
      <trkpt lat="47.19236" lon="-1.56003">
        <ele>58</ele>
        <time>2022-05-08T09:17:06Z</time>
      </trkpt>
      <trkpt lat="47.19233" lon="-1.55985">
        <ele>58</ele>
        <time>2022-05-08T09:17:08Z</time>
      </trkpt>
      <trkpt lat="47.19231" lon="-1.55968">
        <ele>58</ele>
        <time>2022-05-08T09:17:10Z</time>
      </trkpt>
      <trkpt lat="47.19229" lon="-1.5595">
        <ele>58</ele>
        <time>2022-05-08T09:17:12Z</time>
      </trkpt>
      <trkpt lat="47.19227" lon="-1.55932">
        <ele>58</ele>
        <time>2022-05-08T09:17:14Z</time>
      </trkpt>
      <trkpt lat="47.19225" lon="-1.55914">
        <ele>58</ele>
        <time>2022-05-08T09:17:16Z</time>
      </trkpt>
      <trkpt lat="47.19223" lon="-1.55896">
        <ele>58</ele>
        <time>2022-05-08T09:17:18Z</time>
      </trkpt>
      <trkpt lat="47.19222" lon="-1.55878">
        <ele>59</ele>
        <time>2022-05-08T09:17:20Z</time>
      </trkpt>
      <trkpt lat="47.19221" lon="-1.55859">
        <ele>58</ele>
        <time>2022-05-08T09:17:22Z</time>
      </trkpt>
      <trkpt lat="47.1922" lon="-1.5584">
        <ele>58</ele>
        <time>2022-05-08T09:17:24Z</time>
      </trkpt>
      <trkpt lat="47.1922" lon="-1.55822">
        <ele>58</ele>
        <time>2022-05-08T09:17:26Z</time>
      </trkpt>
      <trkpt lat="47.19219" lon="-1.55804">
        <ele>58</ele>
        <time>2022-05-08T09:17:28Z</time>
      </trkpt>
      <trkpt lat="47.19219" lon="-1.55785">
        <ele>58</ele>
        <time>2022-05-08T09:17:30Z</time>
      </trkpt>
      <trkpt lat="47.19219" lon="-1.55766">
        <ele>58</ele>
        <time>2022-05-08T09:17:32Z</time>
      </trkpt>
      <trkpt lat="47.19218" lon="-1.55748">
        <ele>58</ele>
        <time>2022-05-08T09:17:34Z</time>
      </trkpt>
      <trkpt lat="47.19218" lon="-1.55729">
        <ele>58</ele>
        <time>2022-05-08T09:17:36Z</time>
      </trkpt>
      <trkpt lat="47.19219" lon="-1.5571">
        <ele>58</ele>
        <time>2022-05-08T09:17:38Z</time>
      </trkpt>
      <trkpt lat="47.19219" lon="-1.55692">
        <ele>58</ele>
        <time>2022-05-08T09:17:40Z</time>
      </trkpt>
      <trkpt lat="47.1922" lon="-1.55674">
        <ele>58</ele>
        <time>2022-05-08T09:17:42Z</time>
      </trkpt>
      <trkpt lat="47.19221" lon="-1.55656">
        <ele>58</ele>
        <time>2022-05-08T09:17:44Z</time>
      </trkpt>
      <trkpt lat="47.19221" lon="-1.55638">
        <ele>57</ele>
        <time>2022-05-08T09:17:46Z</time>
      </trkpt>
      <trkpt lat="47.19223" lon="-1.55619">
        <ele>57</ele>
        <time>2022-05-08T09:17:48Z</time>
      </trkpt>
      <trkpt lat="47.19224" lon="-1.55601">
        <ele>57</ele>
        <time>2022-05-08T09:17:50Z</time>
      </trkpt>
      <trkpt lat="47.19226" lon="-1.55583">
        <ele>57</ele>
        <time>2022-05-08T09:17:52Z</time>
      </trkpt>
      <trkpt lat="47.19227" lon="-1.55566">
        <ele>57</ele>
        <time>2022-05-08T09:17:54Z</time>
      </trkpt>
      <trkpt lat="47.19229" lon="-1.55548">
        <ele>58</ele>
        <time>2022-05-08T09:17:56Z</time>
      </trkpt>
      <trkpt lat="47.19231" lon="-1.5553">
        <ele>58</ele>
        <time>2022-05-08T09:17:58Z</time>
      </trkpt>
      <trkpt lat="47.19232" lon="-1.55512">
        <ele>58</ele>
        <time>2022-05-08T09:18:00Z</time>
      </trkpt>
      <trkpt lat="47.19232" lon="-1.55495">
        <ele>58</ele>
        <time>2022-05-08T09:18:02Z</time>
      </trkpt>
      <trkpt lat="47.19231" lon="-1.55477">
        <ele>59</ele>
        <time>2022-05-08T09:18:04Z</time>
      </trkpt>
      <trkpt lat="47.19226" lon="-1.55462">
        <ele>58</ele>
        <time>2022-05-08T09:18:06Z</time>
      </trkpt>
      <trkpt lat="47.19216" lon="-1.55448">
        <ele>58</ele>
        <time>2022-05-08T09:18:08Z</time>
      </trkpt>
      <trkpt lat="47.19214" lon="-1.55428">
        <ele>58</ele>
        <time>2022-05-08T09:18:10Z</time>
      </trkpt>
      <trkpt lat="47.19221" lon="-1.55411">
        <ele>58</ele>
        <time>2022-05-08T09:18:12Z</time>
      </trkpt>
      <trkpt lat="47.19231" lon="-1.55399">
        <ele>59</ele>
        <time>2022-05-08T09:18:14Z</time>
      </trkpt>
      <trkpt lat="47.19239" lon="-1.55387">
        <ele>59</ele>
        <time>2022-05-08T09:18:16Z</time>
      </trkpt>
      <trkpt lat="47.19246" lon="-1.55371">
        <ele>59</ele>
        <time>2022-05-08T09:18:18Z</time>
      </trkpt>
      <trkpt lat="47.19251" lon="-1.55353">
        <ele>59</ele>
        <time>2022-05-08T09:18:20Z</time>
      </trkpt>
      <trkpt lat="47.19255" lon="-1.55336">
        <ele>59</ele>
        <time>2022-05-08T09:18:22Z</time>
      </trkpt>
      <trkpt lat="47.19259" lon="-1.55318">
        <ele>59</ele>
        <time>2022-05-08T09:18:24Z</time>
      </trkpt>
      <trkpt lat="47.19264" lon="-1.553">
        <ele>59</ele>
        <time>2022-05-08T09:18:26Z</time>
      </trkpt>
      <trkpt lat="47.19267" lon="-1.55282">
        <ele>59</ele>
        <time>2022-05-08T09:18:28Z</time>
      </trkpt>
      <trkpt lat="47.19271" lon="-1.55264">
        <ele>58</ele>
        <time>2022-05-08T09:18:30Z</time>
      </trkpt>
      <trkpt lat="47.19275" lon="-1.55246">
        <ele>58</ele>
        <time>2022-05-08T09:18:32Z</time>
      </trkpt>
      <trkpt lat="47.19278" lon="-1.55227">
        <ele>59</ele>
        <time>2022-05-08T09:18:34Z</time>
      </trkpt>
      <trkpt lat="47.19282" lon="-1.5521">
        <ele>59</ele>
        <time>2022-05-08T09:18:36Z</time>
      </trkpt>
      <trkpt lat="47.19287" lon="-1.55193">
        <ele>59</ele>
        <time>2022-05-08T09:18:38Z</time>
      </trkpt>
      <trkpt lat="47.19291" lon="-1.55177">
        <ele>60</ele>
        <time>2022-05-08T09:18:40Z</time>
      </trkpt>
      <trkpt lat="47.19295" lon="-1.5516">
        <ele>60</ele>
        <time>2022-05-08T09:18:42Z</time>
      </trkpt>
      <trkpt lat="47.193" lon="-1.55143">
        <ele>60</ele>
        <time>2022-05-08T09:18:44Z</time>
      </trkpt>
      <trkpt lat="47.19304" lon="-1.55128">
        <ele>61</ele>
        <time>2022-05-08T09:18:46Z</time>
      </trkpt>
      <trkpt lat="47.19308" lon="-1.55112">
        <ele>61</ele>
        <time>2022-05-08T09:18:48Z</time>
      </trkpt>
      <trkpt lat="47.19312" lon="-1.55096">
        <ele>62</ele>
        <time>2022-05-08T09:18:50Z</time>
      </trkpt>
      <trkpt lat="47.19316" lon="-1.5508">
        <ele>62</ele>
        <time>2022-05-08T09:18:52Z</time>
      </trkpt>
      <trkpt lat="47.1932" lon="-1.55064">
        <ele>63</ele>
        <time>2022-05-08T09:18:54Z</time>
      </trkpt>
      <trkpt lat="47.19325" lon="-1.55047">
        <ele>63</ele>
        <time>2022-05-08T09:18:56Z</time>
      </trkpt>
      <trkpt lat="47.19329" lon="-1.5503">
        <ele>63</ele>
        <time>2022-05-08T09:18:58Z</time>
      </trkpt>
      <trkpt lat="47.19333" lon="-1.55014">
        <ele>64</ele>
        <time>2022-05-08T09:19:00Z</time>
      </trkpt>
      <trkpt lat="47.19337" lon="-1.54997">
        <ele>64</ele>
        <time>2022-05-08T09:19:02Z</time>
      </trkpt>
      <trkpt lat="47.19341" lon="-1.54981">
        <ele>65</ele>
        <time>2022-05-08T09:19:04Z</time>
      </trkpt>
      <trkpt lat="47.19345" lon="-1.54964">
        <ele>65</ele>
        <time>2022-05-08T09:19:06Z</time>
      </trkpt>
      <trkpt lat="47.1935" lon="-1.54947">
        <ele>65</ele>
        <time>2022-05-08T09:19:08Z</time>
      </trkpt>
      <trkpt lat="47.19354" lon="-1.54932">
        <ele>65</ele>
        <time>2022-05-08T09:19:10Z</time>
      </trkpt>
      <trkpt lat="47.19358" lon="-1.54915">
        <ele>65</ele>
        <time>2022-05-08T09:19:12Z</time>
      </trkpt>
      <trkpt lat="47.19363" lon="-1.54898">
        <ele>65</ele>
        <time>2022-05-08T09:19:14Z</time>
      </trkpt>
      <trkpt lat="47.19367" lon="-1.54881">
        <ele>64</ele>
        <time>2022-05-08T09:19:16Z</time>
      </trkpt>
      <trkpt lat="47.19371" lon="-1.54862">
        <ele>64</ele>
        <time>2022-05-08T09:19:18Z</time>
      </trkpt>
      <trkpt lat="47.19376" lon="-1.54844">
        <ele>64</ele>
        <time>2022-05-08T09:19:20Z</time>
      </trkpt>
      <trkpt lat="47.19379" lon="-1.54826">
        <ele>65</ele>
        <time>2022-05-08T09:19:22Z</time>
      </trkpt>
      <trkpt lat="47.19384" lon="-1.54806">
        <ele>65</ele>
        <time>2022-05-08T09:19:24Z</time>
      </trkpt>
      <trkpt lat="47.1939" lon="-1.54784">
        <ele>64</ele>
        <time>2022-05-08T09:19:26Z</time>
      </trkpt>
      <trkpt lat="47.19395" lon="-1.54762">
        <ele>63</ele>
        <time>2022-05-08T09:19:28Z</time>
      </trkpt>
      <trkpt lat="47.194" lon="-1.54741">
        <ele>63</ele>
        <time>2022-05-08T09:19:30Z</time>
      </trkpt>
      <trkpt lat="47.19405" lon="-1.54719">
        <ele>62</ele>
        <time>2022-05-08T09:19:32Z</time>
      </trkpt>
      <trkpt lat="47.1941" lon="-1.54698">
        <ele>61</ele>
        <time>2022-05-08T09:19:34Z</time>
      </trkpt>
      <trkpt lat="47.19415" lon="-1.54679">
        <ele>61</ele>
        <time>2022-05-08T09:19:36Z</time>
      </trkpt>
      <trkpt lat="47.19421" lon="-1.5466">
        <ele>62</ele>
        <time>2022-05-08T09:19:38Z</time>
      </trkpt>
      <trkpt lat="47.19426" lon="-1.54643">
        <ele>62</ele>
        <time>2022-05-08T09:19:40Z</time>
      </trkpt>
      <trkpt lat="47.1943" lon="-1.54627">
        <ele>61</ele>
        <time>2022-05-08T09:19:42Z</time>
      </trkpt>
      <trkpt lat="47.19428" lon="-1.54614">
        <ele>62</ele>
        <time>2022-05-08T09:19:44Z</time>
      </trkpt>
      <trkpt lat="47.19421" lon="-1.54601">
        <ele>62</ele>
        <time>2022-05-08T09:19:46Z</time>
      </trkpt>
      <trkpt lat="47.19421" lon="-1.54584">
        <ele>61</ele>
        <time>2022-05-08T09:19:48Z</time>
      </trkpt>
      <trkpt lat="47.19428" lon="-1.54569">
        <ele>61</ele>
        <time>2022-05-08T09:19:50Z</time>
      </trkpt>
      <trkpt lat="47.19438" lon="-1.54557">
        <ele>60</ele>
        <time>2022-05-08T09:19:52Z</time>
      </trkpt>
      <trkpt lat="47.19448" lon="-1.54546">
        <ele>60</ele>
        <time>2022-05-08T09:19:54Z</time>
      </trkpt>
      <trkpt lat="47.19454" lon="-1.54529">
        <ele>60</ele>
        <time>2022-05-08T09:19:56Z</time>
      </trkpt>
      <trkpt lat="47.19459" lon="-1.54513">
        <ele>60</ele>
        <time>2022-05-08T09:19:58Z</time>
      </trkpt>
      <trkpt lat="47.19465" lon="-1.54496">
        <ele>60</ele>
        <time>2022-05-08T09:20:00Z</time>
      </trkpt>
      <trkpt lat="47.1947" lon="-1.54481">
        <ele>60</ele>
        <time>2022-05-08T09:20:02Z</time>
      </trkpt>
      <trkpt lat="47.19475" lon="-1.54466">
        <ele>60</ele>
        <time>2022-05-08T09:20:04Z</time>
      </trkpt>
      <trkpt lat="47.19486" lon="-1.54457">
        <ele>60</ele>
        <time>2022-05-08T09:20:06Z</time>
      </trkpt>
      <trkpt lat="47.19497" lon="-1.54448">
        <ele>60</ele>
        <time>2022-05-08T09:20:08Z</time>
      </trkpt>
      <trkpt lat="47.19509" lon="-1.54439">
        <ele>59</ele>
        <time>2022-05-08T09:20:10Z</time>
      </trkpt>
      <trkpt lat="47.1952" lon="-1.54432">
        <ele>59</ele>
        <time>2022-05-08T09:20:12Z</time>
      </trkpt>
      <trkpt lat="47.19532" lon="-1.54422">
        <ele>59</ele>
        <time>2022-05-08T09:20:14Z</time>
      </trkpt>
      <trkpt lat="47.19544" lon="-1.54412">
        <ele>59</ele>
        <time>2022-05-08T09:20:16Z</time>
      </trkpt>
      <trkpt lat="47.19556" lon="-1.54403">
        <ele>59</ele>
        <time>2022-05-08T09:20:18Z</time>
      </trkpt>
      <trkpt lat="47.19569" lon="-1.54393">
        <ele>58</ele>
        <time>2022-05-08T09:20:20Z</time>
      </trkpt>
      <trkpt lat="47.19581" lon="-1.54383">
        <ele>58</ele>
        <time>2022-05-08T09:20:22Z</time>
      </trkpt>
      <trkpt lat="47.19593" lon="-1.54373">
        <ele>58</ele>
        <time>2022-05-08T09:20:24Z</time>
      </trkpt>
      <trkpt lat="47.19605" lon="-1.54361">
        <ele>57</ele>
        <time>2022-05-08T09:20:26Z</time>
      </trkpt>
      <trkpt lat="47.19615" lon="-1.54348">
        <ele>57</ele>
        <time>2022-05-08T09:20:28Z</time>
      </trkpt>
      <trkpt lat="47.19626" lon="-1.54334">
        <ele>56</ele>
        <time>2022-05-08T09:20:30Z</time>
      </trkpt>
      <trkpt lat="47.19636" lon="-1.5432">
        <ele>56</ele>
        <time>2022-05-08T09:20:32Z</time>
      </trkpt>
      <trkpt lat="47.19647" lon="-1.54308">
        <ele>56</ele>
        <time>2022-05-08T09:20:34Z</time>
      </trkpt>
      <trkpt lat="47.19658" lon="-1.54298">
        <ele>56</ele>
        <time>2022-05-08T09:20:36Z</time>
      </trkpt>
      <trkpt lat="47.19669" lon="-1.54289">
        <ele>57</ele>
        <time>2022-05-08T09:20:38Z</time>
      </trkpt>
      <trkpt lat="47.1968" lon="-1.54279">
        <ele>57</ele>
        <time>2022-05-08T09:20:40Z</time>
      </trkpt>
      <trkpt lat="47.19691" lon="-1.5427">
        <ele>58</ele>
        <time>2022-05-08T09:20:42Z</time>
      </trkpt>
      <trkpt lat="47.19703" lon="-1.54262">
        <ele>58</ele>
        <time>2022-05-08T09:20:44Z</time>
      </trkpt>
      <trkpt lat="47.19715" lon="-1.54253">
        <ele>57</ele>
        <time>2022-05-08T09:20:46Z</time>
      </trkpt>
      <trkpt lat="47.19727" lon="-1.54245">
        <ele>57</ele>
        <time>2022-05-08T09:20:48Z</time>
      </trkpt>
      <trkpt lat="47.19738" lon="-1.54236">
        <ele>58</ele>
        <time>2022-05-08T09:20:50Z</time>
      </trkpt>
      <trkpt lat="47.19747" lon="-1.54228">
        <ele>59</ele>
        <time>2022-05-08T09:20:52Z</time>
      </trkpt>
      <trkpt lat="47.19755" lon="-1.5422">
        <ele>59</ele>
        <time>2022-05-08T09:20:54Z</time>
      </trkpt>
      <trkpt lat="47.19763" lon="-1.54213">
        <ele>58</ele>
        <time>2022-05-08T09:20:56Z</time>
      </trkpt>
      <trkpt lat="47.19771" lon="-1.54203">
        <ele>59</ele>
        <time>2022-05-08T09:20:59Z</time>
      </trkpt>
      <trkpt lat="47.1978" lon="-1.54196">
        <ele>60</ele>
        <time>2022-05-08T09:21:04Z</time>
      </trkpt>
      <trkpt lat="47.19787" lon="-1.54178">
        <ele>60</ele>
        <time>2022-05-08T09:21:07Z</time>
      </trkpt>
      <trkpt lat="47.19792" lon="-1.54162">
        <ele>59</ele>
        <time>2022-05-08T09:21:09Z</time>
      </trkpt>
      <trkpt lat="47.19795" lon="-1.54145">
        <ele>60</ele>
        <time>2022-05-08T09:21:11Z</time>
      </trkpt>
      <trkpt lat="47.19799" lon="-1.54127">
        <ele>60</ele>
        <time>2022-05-08T09:21:13Z</time>
      </trkpt>
      <trkpt lat="47.19808" lon="-1.54113">
        <ele>60</ele>
        <time>2022-05-08T09:21:15Z</time>
      </trkpt>
      <trkpt lat="47.1982" lon="-1.54103">
        <ele>59</ele>
        <time>2022-05-08T09:21:17Z</time>
      </trkpt>
      <trkpt lat="47.1983" lon="-1.54088">
        <ele>58</ele>
        <time>2022-05-08T09:21:19Z</time>
      </trkpt>
      <trkpt lat="47.19837" lon="-1.54069">
        <ele>57</ele>
        <time>2022-05-08T09:21:21Z</time>
      </trkpt>
      <trkpt lat="47.19846" lon="-1.54052">
        <ele>57</ele>
        <time>2022-05-08T09:21:23Z</time>
      </trkpt>
      <trkpt lat="47.19852" lon="-1.54032">
        <ele>57</ele>
        <time>2022-05-08T09:21:25Z</time>
      </trkpt>
      <trkpt lat="47.19858" lon="-1.54013">
        <ele>58</ele>
        <time>2022-05-08T09:21:27Z</time>
      </trkpt>
      <trkpt lat="47.19864" lon="-1.53994">
        <ele>58</ele>
        <time>2022-05-08T09:21:29Z</time>
      </trkpt>
      <trkpt lat="47.1987" lon="-1.53974">
        <ele>59</ele>
        <time>2022-05-08T09:21:31Z</time>
      </trkpt>
      <trkpt lat="47.19876" lon="-1.53955">
        <ele>58</ele>
        <time>2022-05-08T09:21:33Z</time>
      </trkpt>
      <trkpt lat="47.19882" lon="-1.53936">
        <ele>59</ele>
        <time>2022-05-08T09:21:35Z</time>
      </trkpt>
      <trkpt lat="47.19887" lon="-1.53916">
        <ele>59</ele>
        <time>2022-05-08T09:21:37Z</time>
      </trkpt>
      <trkpt lat="47.19891" lon="-1.53897">
        <ele>59</ele>
        <time>2022-05-08T09:21:39Z</time>
      </trkpt>
      <trkpt lat="47.19895" lon="-1.53877">
        <ele>59</ele>
        <time>2022-05-08T09:21:41Z</time>
      </trkpt>
      <trkpt lat="47.199" lon="-1.53858">
        <ele>59</ele>
        <time>2022-05-08T09:21:43Z</time>
      </trkpt>
      <trkpt lat="47.19906" lon="-1.53839">
        <ele>59</ele>
        <time>2022-05-08T09:21:45Z</time>
      </trkpt>
      <trkpt lat="47.19911" lon="-1.5382">
        <ele>60</ele>
        <time>2022-05-08T09:21:47Z</time>
      </trkpt>
      <trkpt lat="47.19917" lon="-1.53802">
        <ele>59</ele>
        <time>2022-05-08T09:21:49Z</time>
      </trkpt>
      <trkpt lat="47.19921" lon="-1.53785">
        <ele>60</ele>
        <time>2022-05-08T09:21:51Z</time>
      </trkpt>
      <trkpt lat="47.19926" lon="-1.53766">
        <ele>61</ele>
        <time>2022-05-08T09:21:53Z</time>
      </trkpt>
      <trkpt lat="47.19928" lon="-1.53744">
        <ele>61</ele>
        <time>2022-05-08T09:21:55Z</time>
      </trkpt>
      <trkpt lat="47.19932" lon="-1.53721">
        <ele>61</ele>
        <time>2022-05-08T09:21:57Z</time>
      </trkpt>
      <trkpt lat="47.19935" lon="-1.53701">
        <ele>61</ele>
        <time>2022-05-08T09:21:59Z</time>
      </trkpt>
      <trkpt lat="47.19939" lon="-1.53682">
        <ele>61</ele>
        <time>2022-05-08T09:22:01Z</time>
      </trkpt>
      <trkpt lat="47.19943" lon="-1.53662">
        <ele>61</ele>
        <time>2022-05-08T09:22:03Z</time>
      </trkpt>
      <trkpt lat="47.19948" lon="-1.53643">
        <ele>61</ele>
        <time>2022-05-08T09:22:05Z</time>
      </trkpt>
      <trkpt lat="47.19952" lon="-1.53623">
        <ele>61</ele>
        <time>2022-05-08T09:22:07Z</time>
      </trkpt>
      <trkpt lat="47.19957" lon="-1.53604">
        <ele>61</ele>
        <time>2022-05-08T09:22:09Z</time>
      </trkpt>
      <trkpt lat="47.19962" lon="-1.53585">
        <ele>61</ele>
        <time>2022-05-08T09:22:11Z</time>
      </trkpt>
      <trkpt lat="47.19967" lon="-1.53566">
        <ele>61</ele>
        <time>2022-05-08T09:22:13Z</time>
      </trkpt>
      <trkpt lat="47.19972" lon="-1.53548">
        <ele>62</ele>
        <time>2022-05-08T09:22:15Z</time>
      </trkpt>
      <trkpt lat="47.19977" lon="-1.53529">
        <ele>62</ele>
        <time>2022-05-08T09:22:17Z</time>
      </trkpt>
      <trkpt lat="47.19982" lon="-1.5351">
        <ele>62</ele>
        <time>2022-05-08T09:22:19Z</time>
      </trkpt>
      <trkpt lat="47.19984" lon="-1.53492">
        <ele>61</ele>
        <time>2022-05-08T09:22:21Z</time>
      </trkpt>
      <trkpt lat="47.19989" lon="-1.53476">
        <ele>61</ele>
        <time>2022-05-08T09:22:23Z</time>
      </trkpt>
      <trkpt lat="47.20001" lon="-1.5347">
        <ele>60</ele>
        <time>2022-05-08T09:22:25Z</time>
      </trkpt>
      <trkpt lat="47.20015" lon="-1.53469">
        <ele>59</ele>
        <time>2022-05-08T09:22:27Z</time>
      </trkpt>
      <trkpt lat="47.20024" lon="-1.53456">
        <ele>58</ele>
        <time>2022-05-08T09:22:29Z</time>
      </trkpt>
      <trkpt lat="47.20031" lon="-1.53437">
        <ele>57</ele>
        <time>2022-05-08T09:22:31Z</time>
      </trkpt>
      <trkpt lat="47.20037" lon="-1.5342">
        <ele>57</ele>
        <time>2022-05-08T09:22:33Z</time>
      </trkpt>
      <trkpt lat="47.20043" lon="-1.53403">
        <ele>57</ele>
        <time>2022-05-08T09:22:35Z</time>
      </trkpt>
      <trkpt lat="47.2005" lon="-1.53387">
        <ele>58</ele>
        <time>2022-05-08T09:22:37Z</time>
      </trkpt>
      <trkpt lat="47.20056" lon="-1.53372">
        <ele>58</ele>
        <time>2022-05-08T09:22:39Z</time>
      </trkpt>
      <trkpt lat="47.2006" lon="-1.5336">
        <ele>57</ele>
        <time>2022-05-08T09:22:41Z</time>
      </trkpt>
      <trkpt lat="47.20072" lon="-1.53357">
        <ele>58</ele>
        <time>2022-05-08T09:22:47Z</time>
      </trkpt>
      <trkpt lat="47.20079" lon="-1.53348">
        <ele>60</ele>
        <time>2022-05-08T09:22:50Z</time>
      </trkpt>
      <trkpt lat="47.20084" lon="-1.53331">
        <ele>60</ele>
        <time>2022-05-08T09:22:52Z</time>
      </trkpt>
      <trkpt lat="47.2009" lon="-1.53313">
        <ele>61</ele>
        <time>2022-05-08T09:22:54Z</time>
      </trkpt>
      <trkpt lat="47.20096" lon="-1.53295">
        <ele>61</ele>
        <time>2022-05-08T09:22:56Z</time>
      </trkpt>
      <trkpt lat="47.20101" lon="-1.53276">
        <ele>63</ele>
        <time>2022-05-08T09:22:58Z</time>
      </trkpt>
      <trkpt lat="47.20107" lon="-1.53258">
        <ele>63</ele>
        <time>2022-05-08T09:23:00Z</time>
      </trkpt>
      <trkpt lat="47.20113" lon="-1.53239">
        <ele>62</ele>
        <time>2022-05-08T09:23:02Z</time>
      </trkpt>
      <trkpt lat="47.20118" lon="-1.53219">
        <ele>61</ele>
        <time>2022-05-08T09:23:04Z</time>
      </trkpt>
      <trkpt lat="47.20123" lon="-1.532">
        <ele>60</ele>
        <time>2022-05-08T09:23:06Z</time>
      </trkpt>
      <trkpt lat="47.20128" lon="-1.5318">
        <ele>60</ele>
        <time>2022-05-08T09:23:08Z</time>
      </trkpt>
      <trkpt lat="47.20133" lon="-1.53162">
        <ele>59</ele>
        <time>2022-05-08T09:23:10Z</time>
      </trkpt>
      <trkpt lat="47.2014" lon="-1.53145">
        <ele>59</ele>
        <time>2022-05-08T09:23:12Z</time>
      </trkpt>
      <trkpt lat="47.20147" lon="-1.53128">
        <ele>59</ele>
        <time>2022-05-08T09:23:14Z</time>
      </trkpt>
      <trkpt lat="47.20155" lon="-1.5311">
        <ele>58</ele>
        <time>2022-05-08T09:23:16Z</time>
      </trkpt>
      <trkpt lat="47.20163" lon="-1.53094">
        <ele>59</ele>
        <time>2022-05-08T09:23:18Z</time>
      </trkpt>
      <trkpt lat="47.2017" lon="-1.53078">
        <ele>59</ele>
        <time>2022-05-08T09:23:20Z</time>
      </trkpt>
      <trkpt lat="47.20178" lon="-1.53064">
        <ele>60</ele>
        <time>2022-05-08T09:23:22Z</time>
      </trkpt>
      <trkpt lat="47.20188" lon="-1.53051">
        <ele>60</ele>
        <time>2022-05-08T09:23:24Z</time>
      </trkpt>
      <trkpt lat="47.20198" lon="-1.53038">
        <ele>60</ele>
        <time>2022-05-08T09:23:26Z</time>
      </trkpt>
      <trkpt lat="47.20208" lon="-1.53027">
        <ele>59</ele>
        <time>2022-05-08T09:23:28Z</time>
      </trkpt>
      <trkpt lat="47.20218" lon="-1.53015">
        <ele>59</ele>
        <time>2022-05-08T09:23:30Z</time>
      </trkpt>
      <trkpt lat="47.20228" lon="-1.53001">
        <ele>59</ele>
        <time>2022-05-08T09:23:32Z</time>
      </trkpt>
      <trkpt lat="47.20237" lon="-1.52986">
        <ele>60</ele>
        <time>2022-05-08T09:23:34Z</time>
      </trkpt>
      <trkpt lat="47.20244" lon="-1.5297">
        <ele>60</ele>
        <time>2022-05-08T09:23:36Z</time>
      </trkpt>
      <trkpt lat="47.20253" lon="-1.52955">
        <ele>59</ele>
        <time>2022-05-08T09:23:38Z</time>
      </trkpt>
      <trkpt lat="47.20262" lon="-1.5294">
        <ele>59</ele>
        <time>2022-05-08T09:23:40Z</time>
      </trkpt>
      <trkpt lat="47.2027" lon="-1.52924">
        <ele>59</ele>
        <time>2022-05-08T09:23:42Z</time>
      </trkpt>
      <trkpt lat="47.20278" lon="-1.52908">
        <ele>58</ele>
        <time>2022-05-08T09:23:44Z</time>
      </trkpt>
      <trkpt lat="47.20284" lon="-1.52891">
        <ele>58</ele>
        <time>2022-05-08T09:23:46Z</time>
      </trkpt>
      <trkpt lat="47.20291" lon="-1.52872">
        <ele>59</ele>
        <time>2022-05-08T09:23:48Z</time>
      </trkpt>
      <trkpt lat="47.20298" lon="-1.52855">
        <ele>58</ele>
        <time>2022-05-08T09:23:50Z</time>
      </trkpt>
      <trkpt lat="47.20305" lon="-1.52838">
        <ele>59</ele>
        <time>2022-05-08T09:23:52Z</time>
      </trkpt>
      <trkpt lat="47.20313" lon="-1.52821">
        <ele>59</ele>
        <time>2022-05-08T09:23:54Z</time>
      </trkpt>
      <trkpt lat="47.20321" lon="-1.52806">
        <ele>60</ele>
        <time>2022-05-08T09:23:56Z</time>
      </trkpt>
      <trkpt lat="47.20329" lon="-1.5279">
        <ele>60</ele>
        <time>2022-05-08T09:23:58Z</time>
      </trkpt>
      <trkpt lat="47.20337" lon="-1.52774">
        <ele>60</ele>
        <time>2022-05-08T09:24:00Z</time>
      </trkpt>
      <trkpt lat="47.20345" lon="-1.52758">
        <ele>60</ele>
        <time>2022-05-08T09:24:02Z</time>
      </trkpt>
      <trkpt lat="47.20353" lon="-1.52741">
        <ele>60</ele>
        <time>2022-05-08T09:24:04Z</time>
      </trkpt>
      <trkpt lat="47.20361" lon="-1.52725">
        <ele>60</ele>
        <time>2022-05-08T09:24:06Z</time>
      </trkpt>
      <trkpt lat="47.2037" lon="-1.5271">
        <ele>60</ele>
        <time>2022-05-08T09:24:08Z</time>
      </trkpt>
      <trkpt lat="47.20379" lon="-1.52695">
        <ele>60</ele>
        <time>2022-05-08T09:24:10Z</time>
      </trkpt>
      <trkpt lat="47.20387" lon="-1.52679">
        <ele>59</ele>
        <time>2022-05-08T09:24:12Z</time>
      </trkpt>
      <trkpt lat="47.20394" lon="-1.52663">
        <ele>59</ele>
        <time>2022-05-08T09:24:14Z</time>
      </trkpt>
      <trkpt lat="47.20401" lon="-1.52646">
        <ele>58</ele>
        <time>2022-05-08T09:24:16Z</time>
      </trkpt>
      <trkpt lat="47.20407" lon="-1.5263">
        <ele>58</ele>
        <time>2022-05-08T09:24:18Z</time>
      </trkpt>
      <trkpt lat="47.20413" lon="-1.52613">
        <ele>58</ele>
        <time>2022-05-08T09:24:20Z</time>
      </trkpt>
      <trkpt lat="47.20419" lon="-1.52595">
        <ele>57</ele>
        <time>2022-05-08T09:24:22Z</time>
      </trkpt>
      <trkpt lat="47.20424" lon="-1.52577">
        <ele>57</ele>
        <time>2022-05-08T09:24:24Z</time>
      </trkpt>
      <trkpt lat="47.20429" lon="-1.52559">
        <ele>58</ele>
        <time>2022-05-08T09:24:26Z</time>
      </trkpt>
      <trkpt lat="47.20434" lon="-1.52542">
        <ele>57</ele>
        <time>2022-05-08T09:24:28Z</time>
      </trkpt>
      <trkpt lat="47.20441" lon="-1.52526">
        <ele>57</ele>
        <time>2022-05-08T09:24:30Z</time>
      </trkpt>
      <trkpt lat="47.20447" lon="-1.5251">
        <ele>57</ele>
        <time>2022-05-08T09:24:32Z</time>
      </trkpt>
      <trkpt lat="47.20452" lon="-1.52493">
        <ele>57</ele>
        <time>2022-05-08T09:24:34Z</time>
      </trkpt>
      <trkpt lat="47.20458" lon="-1.52477">
        <ele>57</ele>
        <time>2022-05-08T09:24:36Z</time>
      </trkpt>
      <trkpt lat="47.20464" lon="-1.52461">
        <ele>57</ele>
        <time>2022-05-08T09:24:38Z</time>
      </trkpt>
      <trkpt lat="47.20472" lon="-1.52445">
        <ele>57</ele>
        <time>2022-05-08T09:24:40Z</time>
      </trkpt>
      <trkpt lat="47.20479" lon="-1.5243">
        <ele>57</ele>
        <time>2022-05-08T09:24:42Z</time>
      </trkpt>
      <trkpt lat="47.20486" lon="-1.52413">
        <ele>56</ele>
        <time>2022-05-08T09:24:44Z</time>
      </trkpt>
      <trkpt lat="47.20492" lon="-1.52395">
        <ele>56</ele>
        <time>2022-05-08T09:24:46Z</time>
      </trkpt>
      <trkpt lat="47.20498" lon="-1.52376">
        <ele>55</ele>
        <time>2022-05-08T09:24:48Z</time>
      </trkpt>
      <trkpt lat="47.20501" lon="-1.52361">
        <ele>55</ele>
        <time>2022-05-08T09:24:50Z</time>
      </trkpt>
      <trkpt lat="47.20507" lon="-1.52339">
        <ele>56</ele>
        <time>2022-05-08T09:24:52Z</time>
      </trkpt>
      <trkpt lat="47.20513" lon="-1.52321">
        <ele>56</ele>
        <time>2022-05-08T09:24:54Z</time>
      </trkpt>
      <trkpt lat="47.20518" lon="-1.52306">
        <ele>57</ele>
        <time>2022-05-08T09:24:56Z</time>
      </trkpt>
      <trkpt lat="47.20521" lon="-1.5229">
        <ele>57</ele>
        <time>2022-05-08T09:24:58Z</time>
      </trkpt>
      <trkpt lat="47.20524" lon="-1.52273">
        <ele>57</ele>
        <time>2022-05-08T09:25:00Z</time>
      </trkpt>
      <trkpt lat="47.20531" lon="-1.52257">
        <ele>57</ele>
        <time>2022-05-08T09:25:02Z</time>
      </trkpt>
      <trkpt lat="47.20539" lon="-1.52242">
        <ele>57</ele>
        <time>2022-05-08T09:25:04Z</time>
      </trkpt>
      <trkpt lat="47.20547" lon="-1.52226">
        <ele>57</ele>
        <time>2022-05-08T09:25:06Z</time>
      </trkpt>
      <trkpt lat="47.20555" lon="-1.52211">
        <ele>57</ele>
        <time>2022-05-08T09:25:08Z</time>
      </trkpt>
      <trkpt lat="47.20563" lon="-1.52196">
        <ele>56</ele>
        <time>2022-05-08T09:25:10Z</time>
      </trkpt>
      <trkpt lat="47.20571" lon="-1.52181">
        <ele>56</ele>
        <time>2022-05-08T09:25:12Z</time>
      </trkpt>
      <trkpt lat="47.20579" lon="-1.52166">
        <ele>56</ele>
        <time>2022-05-08T09:25:14Z</time>
      </trkpt>
      <trkpt lat="47.20588" lon="-1.52151">
        <ele>56</ele>
        <time>2022-05-08T09:25:16Z</time>
      </trkpt>
      <trkpt lat="47.20596" lon="-1.52137">
        <ele>56</ele>
        <time>2022-05-08T09:25:18Z</time>
      </trkpt>
      <trkpt lat="47.20604" lon="-1.52121">
        <ele>56</ele>
        <time>2022-05-08T09:25:20Z</time>
      </trkpt>
      <trkpt lat="47.20613" lon="-1.52106">
        <ele>56</ele>
        <time>2022-05-08T09:25:22Z</time>
      </trkpt>
      <trkpt lat="47.20621" lon="-1.52091">
        <ele>55</ele>
        <time>2022-05-08T09:25:24Z</time>
      </trkpt>
      <trkpt lat="47.2063" lon="-1.52077">
        <ele>56</ele>
        <time>2022-05-08T09:25:26Z</time>
      </trkpt>
      <trkpt lat="47.20639" lon="-1.52062">
        <ele>56</ele>
        <time>2022-05-08T09:25:28Z</time>
      </trkpt>
      <trkpt lat="47.20648" lon="-1.52048">
        <ele>55</ele>
        <time>2022-05-08T09:25:30Z</time>
      </trkpt>
      <trkpt lat="47.20657" lon="-1.52034">
        <ele>55</ele>
        <time>2022-05-08T09:25:32Z</time>
      </trkpt>
      <trkpt lat="47.20665" lon="-1.52021">
        <ele>56</ele>
        <time>2022-05-08T09:25:34Z</time>
      </trkpt>
      <trkpt lat="47.20671" lon="-1.52007">
        <ele>56</ele>
        <time>2022-05-08T09:25:36Z</time>
      </trkpt>
      <trkpt lat="47.20677" lon="-1.51996">
        <ele>56</ele>
        <time>2022-05-08T09:25:38Z</time>
      </trkpt>
      <trkpt lat="47.20685" lon="-1.51983">
        <ele>57</ele>
        <time>2022-05-08T09:25:40Z</time>
      </trkpt>
      <trkpt lat="47.20693" lon="-1.51968">
        <ele>57</ele>
        <time>2022-05-08T09:25:42Z</time>
      </trkpt>
      <trkpt lat="47.20702" lon="-1.51953">
        <ele>58</ele>
        <time>2022-05-08T09:25:44Z</time>
      </trkpt>
      <trkpt lat="47.2071" lon="-1.51937">
        <ele>58</ele>
        <time>2022-05-08T09:25:46Z</time>
      </trkpt>
      <trkpt lat="47.20718" lon="-1.51921">
        <ele>57</ele>
        <time>2022-05-08T09:25:48Z</time>
      </trkpt>
      <trkpt lat="47.20725" lon="-1.51904">
        <ele>57</ele>
        <time>2022-05-08T09:25:50Z</time>
      </trkpt>
      <trkpt lat="47.20732" lon="-1.51887">
        <ele>57</ele>
        <time>2022-05-08T09:25:52Z</time>
      </trkpt>
      <trkpt lat="47.2074" lon="-1.51869">
        <ele>57</ele>
        <time>2022-05-08T09:25:54Z</time>
      </trkpt>
      <trkpt lat="47.20747" lon="-1.51853">
        <ele>57</ele>
        <time>2022-05-08T09:25:56Z</time>
      </trkpt>
      <trkpt lat="47.20753" lon="-1.51837">
        <ele>58</ele>
        <time>2022-05-08T09:25:58Z</time>
      </trkpt>
      <trkpt lat="47.20759" lon="-1.51819">
        <ele>58</ele>
        <time>2022-05-08T09:26:00Z</time>
      </trkpt>
      <trkpt lat="47.20763" lon="-1.518">
        <ele>58</ele>
        <time>2022-05-08T09:26:02Z</time>
      </trkpt>
      <trkpt lat="47.20767" lon="-1.5178">
        <ele>58</ele>
        <time>2022-05-08T09:26:04Z</time>
      </trkpt>
      <trkpt lat="47.20771" lon="-1.5176">
        <ele>58</ele>
        <time>2022-05-08T09:26:06Z</time>
      </trkpt>
      <trkpt lat="47.20776" lon="-1.51741">
        <ele>58</ele>
        <time>2022-05-08T09:26:08Z</time>
      </trkpt>
      <trkpt lat="47.20781" lon="-1.51722">
        <ele>58</ele>
        <time>2022-05-08T09:26:10Z</time>
      </trkpt>
      <trkpt lat="47.20786" lon="-1.51704">
        <ele>59</ele>
        <time>2022-05-08T09:26:12Z</time>
      </trkpt>
      <trkpt lat="47.20789" lon="-1.51686">
        <ele>58</ele>
        <time>2022-05-08T09:26:14Z</time>
      </trkpt>
      <trkpt lat="47.20792" lon="-1.51667">
        <ele>58</ele>
        <time>2022-05-08T09:26:16Z</time>
      </trkpt>
      <trkpt lat="47.20795" lon="-1.51648">
        <ele>58</ele>
        <time>2022-05-08T09:26:18Z</time>
      </trkpt>
      <trkpt lat="47.20799" lon="-1.51629">
        <ele>58</ele>
        <time>2022-05-08T09:26:20Z</time>
      </trkpt>
      <trkpt lat="47.20802" lon="-1.51611">
        <ele>58</ele>
        <time>2022-05-08T09:26:22Z</time>
      </trkpt>
      <trkpt lat="47.20804" lon="-1.51593">
        <ele>58</ele>
        <time>2022-05-08T09:26:24Z</time>
      </trkpt>
      <trkpt lat="47.20805" lon="-1.51573">
        <ele>58</ele>
        <time>2022-05-08T09:26:26Z</time>
      </trkpt>
      <trkpt lat="47.20806" lon="-1.51553">
        <ele>58</ele>
        <time>2022-05-08T09:26:28Z</time>
      </trkpt>
      <trkpt lat="47.20809" lon="-1.51534">
        <ele>58</ele>
        <time>2022-05-08T09:26:30Z</time>
      </trkpt>
      <trkpt lat="47.20812" lon="-1.51515">
        <ele>58</ele>
        <time>2022-05-08T09:26:32Z</time>
      </trkpt>
      <trkpt lat="47.20816" lon="-1.51496">
        <ele>58</ele>
        <time>2022-05-08T09:26:34Z</time>
      </trkpt>
      <trkpt lat="47.20819" lon="-1.51477">
        <ele>58</ele>
        <time>2022-05-08T09:26:36Z</time>
      </trkpt>
      <trkpt lat="47.20823" lon="-1.51458">
        <ele>58</ele>
        <time>2022-05-08T09:26:38Z</time>
      </trkpt>
      <trkpt lat="47.20826" lon="-1.51439">
        <ele>57</ele>
        <time>2022-05-08T09:26:40Z</time>
      </trkpt>
      <trkpt lat="47.20829" lon="-1.5142">
        <ele>57</ele>
        <time>2022-05-08T09:26:42Z</time>
      </trkpt>
      <trkpt lat="47.20833" lon="-1.51402">
        <ele>57</ele>
        <time>2022-05-08T09:26:44Z</time>
      </trkpt>
      <trkpt lat="47.20837" lon="-1.51383">
        <ele>57</ele>
        <time>2022-05-08T09:26:46Z</time>
      </trkpt>
      <trkpt lat="47.20842" lon="-1.51365">
        <ele>57</ele>
        <time>2022-05-08T09:26:48Z</time>
      </trkpt>
      <trkpt lat="47.20847" lon="-1.51348">
        <ele>57</ele>
        <time>2022-05-08T09:26:50Z</time>
      </trkpt>
      <trkpt lat="47.20852" lon="-1.51329">
        <ele>57</ele>
        <time>2022-05-08T09:26:52Z</time>
      </trkpt>
      <trkpt lat="47.20859" lon="-1.51311">
        <ele>57</ele>
        <time>2022-05-08T09:26:54Z</time>
      </trkpt>
      <trkpt lat="47.20867" lon="-1.51296">
        <ele>57</ele>
        <time>2022-05-08T09:26:56Z</time>
      </trkpt>
      <trkpt lat="47.20876" lon="-1.51279">
        <ele>57</ele>
        <time>2022-05-08T09:26:58Z</time>
      </trkpt>
      <trkpt lat="47.20883" lon="-1.51264">
        <ele>56</ele>
        <time>2022-05-08T09:27:00Z</time>
      </trkpt>
      <trkpt lat="47.20888" lon="-1.51248">
        <ele>57</ele>
        <time>2022-05-08T09:27:02Z</time>
      </trkpt>
      <trkpt lat="47.20895" lon="-1.5123">
        <ele>57</ele>
        <time>2022-05-08T09:27:04Z</time>
      </trkpt>
      <trkpt lat="47.20901" lon="-1.51212">
        <ele>57</ele>
        <time>2022-05-08T09:27:06Z</time>
      </trkpt>
      <trkpt lat="47.20907" lon="-1.51195">
        <ele>58</ele>
        <time>2022-05-08T09:27:08Z</time>
      </trkpt>
      <trkpt lat="47.20913" lon="-1.51178">
        <ele>58</ele>
        <time>2022-05-08T09:27:10Z</time>
      </trkpt>
      <trkpt lat="47.20918" lon="-1.51162">
        <ele>58</ele>
        <time>2022-05-08T09:27:12Z</time>
      </trkpt>
      <trkpt lat="47.20924" lon="-1.51145">
        <ele>57</ele>
        <time>2022-05-08T09:27:14Z</time>
      </trkpt>
      <trkpt lat="47.2093" lon="-1.51127">
        <ele>58</ele>
        <time>2022-05-08T09:27:16Z</time>
      </trkpt>
      <trkpt lat="47.20936" lon="-1.5111">
        <ele>58</ele>
        <time>2022-05-08T09:27:18Z</time>
      </trkpt>
      <trkpt lat="47.20941" lon="-1.51093">
        <ele>58</ele>
        <time>2022-05-08T09:27:20Z</time>
      </trkpt>
      <trkpt lat="47.20945" lon="-1.51076">
        <ele>58</ele>
        <time>2022-05-08T09:27:22Z</time>
      </trkpt>
      <trkpt lat="47.20947" lon="-1.51057">
        <ele>58</ele>
        <time>2022-05-08T09:27:24Z</time>
      </trkpt>
      <trkpt lat="47.2095" lon="-1.51038">
        <ele>58</ele>
        <time>2022-05-08T09:27:26Z</time>
      </trkpt>
      <trkpt lat="47.20954" lon="-1.5102">
        <ele>58</ele>
        <time>2022-05-08T09:27:28Z</time>
      </trkpt>
      <trkpt lat="47.2096" lon="-1.51005">
        <ele>58</ele>
        <time>2022-05-08T09:27:30Z</time>
      </trkpt>
      <trkpt lat="47.20964" lon="-1.50988">
        <ele>57</ele>
        <time>2022-05-08T09:27:32Z</time>
      </trkpt>
      <trkpt lat="47.20966" lon="-1.50969">
        <ele>57</ele>
        <time>2022-05-08T09:27:34Z</time>
      </trkpt>
      <trkpt lat="47.20968" lon="-1.5095">
        <ele>57</ele>
        <time>2022-05-08T09:27:36Z</time>
      </trkpt>
      <trkpt lat="47.2097" lon="-1.50931">
        <ele>57</ele>
        <time>2022-05-08T09:27:38Z</time>
      </trkpt>
      <trkpt lat="47.20972" lon="-1.50912">
        <ele>57</ele>
        <time>2022-05-08T09:27:40Z</time>
      </trkpt>
      <trkpt lat="47.20974" lon="-1.50893">
        <ele>57</ele>
        <time>2022-05-08T09:27:42Z</time>
      </trkpt>
      <trkpt lat="47.20977" lon="-1.50874">
        <ele>57</ele>
        <time>2022-05-08T09:27:44Z</time>
      </trkpt>
      <trkpt lat="47.20979" lon="-1.50854">
        <ele>57</ele>
        <time>2022-05-08T09:27:46Z</time>
      </trkpt>
      <trkpt lat="47.20981" lon="-1.50835">
        <ele>56</ele>
        <time>2022-05-08T09:27:48Z</time>
      </trkpt>
      <trkpt lat="47.20983" lon="-1.50816">
        <ele>57</ele>
        <time>2022-05-08T09:27:50Z</time>
      </trkpt>
      <trkpt lat="47.20985" lon="-1.50797">
        <ele>57</ele>
        <time>2022-05-08T09:27:52Z</time>
      </trkpt>
      <trkpt lat="47.20988" lon="-1.50779">
        <ele>57</ele>
        <time>2022-05-08T09:27:54Z</time>
      </trkpt>
      <trkpt lat="47.2099" lon="-1.50761">
        <ele>58</ele>
        <time>2022-05-08T09:27:56Z</time>
      </trkpt>
      <trkpt lat="47.20992" lon="-1.50742">
        <ele>58</ele>
        <time>2022-05-08T09:27:58Z</time>
      </trkpt>
      <trkpt lat="47.20993" lon="-1.50724">
        <ele>58</ele>
        <time>2022-05-08T09:28:00Z</time>
      </trkpt>
      <trkpt lat="47.20995" lon="-1.50705">
        <ele>58</ele>
        <time>2022-05-08T09:28:02Z</time>
      </trkpt>
      <trkpt lat="47.20997" lon="-1.50686">
        <ele>58</ele>
        <time>2022-05-08T09:28:04Z</time>
      </trkpt>
      <trkpt lat="47.20999" lon="-1.50667">
        <ele>58</ele>
        <time>2022-05-08T09:28:06Z</time>
      </trkpt>
      <trkpt lat="47.21" lon="-1.50647">
        <ele>57</ele>
        <time>2022-05-08T09:28:08Z</time>
      </trkpt>
      <trkpt lat="47.21001" lon="-1.50627">
        <ele>57</ele>
        <time>2022-05-08T09:28:10Z</time>
      </trkpt>
      <trkpt lat="47.21001" lon="-1.50608">
        <ele>57</ele>
        <time>2022-05-08T09:28:12Z</time>
      </trkpt>
      <trkpt lat="47.21002" lon="-1.50589">
        <ele>58</ele>
        <time>2022-05-08T09:28:14Z</time>
      </trkpt>
      <trkpt lat="47.21001" lon="-1.50569">
        <ele>58</ele>
        <time>2022-05-08T09:28:16Z</time>
      </trkpt>
      <trkpt lat="47.21001" lon="-1.5055">
        <ele>58</ele>
        <time>2022-05-08T09:28:18Z</time>
      </trkpt>
      <trkpt lat="47.21001" lon="-1.50532">
        <ele>58</ele>
        <time>2022-05-08T09:28:20Z</time>
      </trkpt>
      <trkpt lat="47.21" lon="-1.50514">
        <ele>58</ele>
        <time>2022-05-08T09:28:22Z</time>
      </trkpt>
      <trkpt lat="47.21" lon="-1.50495">
        <ele>59</ele>
        <time>2022-05-08T09:28:24Z</time>
      </trkpt>
      <trkpt lat="47.21" lon="-1.50476">
        <ele>59</ele>
        <time>2022-05-08T09:28:26Z</time>
      </trkpt>
      <trkpt lat="47.20999" lon="-1.50457">
        <ele>59</ele>
        <time>2022-05-08T09:28:28Z</time>
      </trkpt>
      <trkpt lat="47.20999" lon="-1.50438">
        <ele>59</ele>
        <time>2022-05-08T09:28:30Z</time>
      </trkpt>
      <trkpt lat="47.20999" lon="-1.50419">
        <ele>59</ele>
        <time>2022-05-08T09:28:32Z</time>
      </trkpt>
      <trkpt lat="47.20998" lon="-1.50399">
        <ele>58</ele>
        <time>2022-05-08T09:28:34Z</time>
      </trkpt>
      <trkpt lat="47.20998" lon="-1.5038">
        <ele>59</ele>
        <time>2022-05-08T09:28:36Z</time>
      </trkpt>
      <trkpt lat="47.20998" lon="-1.50361">
        <ele>58</ele>
        <time>2022-05-08T09:28:38Z</time>
      </trkpt>
      <trkpt lat="47.20998" lon="-1.50341">
        <ele>58</ele>
        <time>2022-05-08T09:28:40Z</time>
      </trkpt>
      <trkpt lat="47.20999" lon="-1.50322">
        <ele>58</ele>
        <time>2022-05-08T09:28:42Z</time>
      </trkpt>
      <trkpt lat="47.21" lon="-1.50303">
        <ele>58</ele>
        <time>2022-05-08T09:28:44Z</time>
      </trkpt>
      <trkpt lat="47.21001" lon="-1.50285">
        <ele>58</ele>
        <time>2022-05-08T09:28:46Z</time>
      </trkpt>
      <trkpt lat="47.21003" lon="-1.50267">
        <ele>58</ele>
        <time>2022-05-08T09:28:48Z</time>
      </trkpt>
      <trkpt lat="47.21009" lon="-1.50251">
        <ele>58</ele>
        <time>2022-05-08T09:28:50Z</time>
      </trkpt>
      <trkpt lat="47.21016" lon="-1.50238">
        <ele>57</ele>
        <time>2022-05-08T09:28:52Z</time>
      </trkpt>
      <trkpt lat="47.21017" lon="-1.5022">
        <ele>57</ele>
        <time>2022-05-08T09:28:54Z</time>
      </trkpt>
      <trkpt lat="47.21013" lon="-1.50205">
        <ele>57</ele>
        <time>2022-05-08T09:28:56Z</time>
      </trkpt>
      <trkpt lat="47.21014" lon="-1.50186">
        <ele>57</ele>
        <time>2022-05-08T09:28:58Z</time>
      </trkpt>
      <trkpt lat="47.21018" lon="-1.50168">
        <ele>57</ele>
        <time>2022-05-08T09:29:00Z</time>
      </trkpt>
      <trkpt lat="47.21021" lon="-1.5015">
        <ele>57</ele>
        <time>2022-05-08T09:29:02Z</time>
      </trkpt>
      <trkpt lat="47.21026" lon="-1.50133">
        <ele>58</ele>
        <time>2022-05-08T09:29:04Z</time>
      </trkpt>
      <trkpt lat="47.21029" lon="-1.50116">
        <ele>58</ele>
        <time>2022-05-08T09:29:06Z</time>
      </trkpt>
      <trkpt lat="47.21034" lon="-1.50099">
        <ele>58</ele>
        <time>2022-05-08T09:29:08Z</time>
      </trkpt>
      <trkpt lat="47.21038" lon="-1.50082">
        <ele>58</ele>
        <time>2022-05-08T09:29:10Z</time>
      </trkpt>
      <trkpt lat="47.21043" lon="-1.50064">
        <ele>58</ele>
        <time>2022-05-08T09:29:12Z</time>
      </trkpt>
      <trkpt lat="47.21047" lon="-1.50047">
        <ele>58</ele>
        <time>2022-05-08T09:29:14Z</time>
      </trkpt>
      <trkpt lat="47.21052" lon="-1.50029">
        <ele>58</ele>
        <time>2022-05-08T09:29:16Z</time>
      </trkpt>
      <trkpt lat="47.21056" lon="-1.5001">
        <ele>58</ele>
        <time>2022-05-08T09:29:18Z</time>
      </trkpt>
      <trkpt lat="47.21061" lon="-1.49992">
        <ele>58</ele>
        <time>2022-05-08T09:29:20Z</time>
      </trkpt>
      <trkpt lat="47.21065" lon="-1.49975">
        <ele>58</ele>
        <time>2022-05-08T09:29:22Z</time>
      </trkpt>
      <trkpt lat="47.2107" lon="-1.49958">
        <ele>58</ele>
        <time>2022-05-08T09:29:24Z</time>
      </trkpt>
      <trkpt lat="47.21074" lon="-1.49941">
        <ele>58</ele>
        <time>2022-05-08T09:29:26Z</time>
      </trkpt>
      <trkpt lat="47.21079" lon="-1.49923">
        <ele>58</ele>
        <time>2022-05-08T09:29:28Z</time>
      </trkpt>
      <trkpt lat="47.21084" lon="-1.49907">
        <ele>58</ele>
        <time>2022-05-08T09:29:30Z</time>
      </trkpt>
      <trkpt lat="47.2109" lon="-1.49891">
        <ele>58</ele>
        <time>2022-05-08T09:29:32Z</time>
      </trkpt>
      <trkpt lat="47.21096" lon="-1.49874">
        <ele>57</ele>
        <time>2022-05-08T09:29:34Z</time>
      </trkpt>
      <trkpt lat="47.21098" lon="-1.49855">
        <ele>57</ele>
        <time>2022-05-08T09:29:36Z</time>
      </trkpt>
      <trkpt lat="47.211" lon="-1.49837">
        <ele>56</ele>
        <time>2022-05-08T09:29:38Z</time>
      </trkpt>
      <trkpt lat="47.21104" lon="-1.49819">
        <ele>56</ele>
        <time>2022-05-08T09:29:40Z</time>
      </trkpt>
      <trkpt lat="47.21107" lon="-1.49801">
        <ele>56</ele>
        <time>2022-05-08T09:29:42Z</time>
      </trkpt>
      <trkpt lat="47.21109" lon="-1.49782">
        <ele>56</ele>
        <time>2022-05-08T09:29:44Z</time>
      </trkpt>
      <trkpt lat="47.21111" lon="-1.49763">
        <ele>56</ele>
        <time>2022-05-08T09:29:46Z</time>
      </trkpt>
      <trkpt lat="47.21114" lon="-1.49745">
        <ele>56</ele>
        <time>2022-05-08T09:29:48Z</time>
      </trkpt>
      <trkpt lat="47.21116" lon="-1.49726">
        <ele>56</ele>
        <time>2022-05-08T09:29:50Z</time>
      </trkpt>
      <trkpt lat="47.21117" lon="-1.49707">
        <ele>56</ele>
        <time>2022-05-08T09:29:52Z</time>
      </trkpt>
      <trkpt lat="47.21119" lon="-1.49689">
        <ele>57</ele>
        <time>2022-05-08T09:29:54Z</time>
      </trkpt>
      <trkpt lat="47.2112" lon="-1.4967">
        <ele>57</ele>
        <time>2022-05-08T09:29:56Z</time>
      </trkpt>
      <trkpt lat="47.21121" lon="-1.49651">
        <ele>57</ele>
        <time>2022-05-08T09:29:58Z</time>
      </trkpt>
      <trkpt lat="47.21123" lon="-1.49631">
        <ele>56</ele>
        <time>2022-05-08T09:30:00Z</time>
      </trkpt>
      <trkpt lat="47.21125" lon="-1.49612">
        <ele>56</ele>
        <time>2022-05-08T09:30:02Z</time>
      </trkpt>
      <trkpt lat="47.21131" lon="-1.49597">
        <ele>56</ele>
        <time>2022-05-08T09:30:04Z</time>
      </trkpt>
      <trkpt lat="47.21138" lon="-1.49581">
        <ele>55</ele>
        <time>2022-05-08T09:30:06Z</time>
      </trkpt>
      <trkpt lat="47.21137" lon="-1.49561">
        <ele>55</ele>
        <time>2022-05-08T09:30:08Z</time>
      </trkpt>
      <trkpt lat="47.2113" lon="-1.49544">
        <ele>55</ele>
        <time>2022-05-08T09:30:10Z</time>
      </trkpt>
      <trkpt lat="47.21127" lon="-1.49526">
        <ele>55</ele>
        <time>2022-05-08T09:30:12Z</time>
      </trkpt>
      <trkpt lat="47.21126" lon="-1.49507">
        <ele>55</ele>
        <time>2022-05-08T09:30:14Z</time>
      </trkpt>
      <trkpt lat="47.21127" lon="-1.49488">
        <ele>55</ele>
        <time>2022-05-08T09:30:16Z</time>
      </trkpt>
      <trkpt lat="47.21127" lon="-1.49469">
        <ele>55</ele>
        <time>2022-05-08T09:30:18Z</time>
      </trkpt>
      <trkpt lat="47.21127" lon="-1.4945">
        <ele>54</ele>
        <time>2022-05-08T09:30:20Z</time>
      </trkpt>
      <trkpt lat="47.21128" lon="-1.49431">
        <ele>54</ele>
        <time>2022-05-08T09:30:22Z</time>
      </trkpt>
      <trkpt lat="47.21129" lon="-1.49411">
        <ele>55</ele>
        <time>2022-05-08T09:30:24Z</time>
      </trkpt>
      <trkpt lat="47.2113" lon="-1.49391">
        <ele>54</ele>
        <time>2022-05-08T09:30:26Z</time>
      </trkpt>
      <trkpt lat="47.2113" lon="-1.49372">
        <ele>54</ele>
        <time>2022-05-08T09:30:28Z</time>
      </trkpt>
      <trkpt lat="47.21131" lon="-1.49353">
        <ele>54</ele>
        <time>2022-05-08T09:30:30Z</time>
      </trkpt>
      <trkpt lat="47.21132" lon="-1.49334">
        <ele>55</ele>
        <time>2022-05-08T09:30:32Z</time>
      </trkpt>
      <trkpt lat="47.21133" lon="-1.49315">
        <ele>54</ele>
        <time>2022-05-08T09:30:34Z</time>
      </trkpt>
      <trkpt lat="47.21134" lon="-1.49297">
        <ele>54</ele>
        <time>2022-05-08T09:30:36Z</time>
      </trkpt>
      <trkpt lat="47.21135" lon="-1.49278">
        <ele>54</ele>
        <time>2022-05-08T09:30:38Z</time>
      </trkpt>
      <trkpt lat="47.21136" lon="-1.49259">
        <ele>54</ele>
        <time>2022-05-08T09:30:40Z</time>
      </trkpt>
      <trkpt lat="47.21137" lon="-1.4924">
        <ele>54</ele>
        <time>2022-05-08T09:30:42Z</time>
      </trkpt>
      <trkpt lat="47.21139" lon="-1.49222">
        <ele>54</ele>
        <time>2022-05-08T09:30:44Z</time>
      </trkpt>
      <trkpt lat="47.21141" lon="-1.49203">
        <ele>54</ele>
        <time>2022-05-08T09:30:46Z</time>
      </trkpt>
      <trkpt lat="47.21142" lon="-1.49184">
        <ele>54</ele>
        <time>2022-05-08T09:30:48Z</time>
      </trkpt>
      <trkpt lat="47.21145" lon="-1.49166">
        <ele>54</ele>
        <time>2022-05-08T09:30:50Z</time>
      </trkpt>
      <trkpt lat="47.21148" lon="-1.49147">
        <ele>54</ele>
        <time>2022-05-08T09:30:52Z</time>
      </trkpt>
      <trkpt lat="47.21151" lon="-1.49129">
        <ele>54</ele>
        <time>2022-05-08T09:30:54Z</time>
      </trkpt>
      <trkpt lat="47.21154" lon="-1.49111">
        <ele>53</ele>
        <time>2022-05-08T09:30:56Z</time>
      </trkpt>
      <trkpt lat="47.21159" lon="-1.49094">
        <ele>53</ele>
        <time>2022-05-08T09:30:58Z</time>
      </trkpt>
      <trkpt lat="47.21163" lon="-1.49077">
        <ele>53</ele>
        <time>2022-05-08T09:31:00Z</time>
      </trkpt>
      <trkpt lat="47.21159" lon="-1.49059">
        <ele>52</ele>
        <time>2022-05-08T09:31:02Z</time>
      </trkpt>
      <trkpt lat="47.21154" lon="-1.49043">
        <ele>53</ele>
        <time>2022-05-08T09:31:04Z</time>
      </trkpt>
      <trkpt lat="47.21155" lon="-1.49026">
        <ele>54</ele>
        <time>2022-05-08T09:31:06Z</time>
      </trkpt>
      <trkpt lat="47.21158" lon="-1.49008">
        <ele>54</ele>
        <time>2022-05-08T09:31:08Z</time>
      </trkpt>
      <trkpt lat="47.21162" lon="-1.48988">
        <ele>54</ele>
        <time>2022-05-08T09:31:10Z</time>
      </trkpt>
      <trkpt lat="47.21165" lon="-1.4897">
        <ele>54</ele>
        <time>2022-05-08T09:31:12Z</time>
      </trkpt>
      <trkpt lat="47.21168" lon="-1.48952">
        <ele>54</ele>
        <time>2022-05-08T09:31:14Z</time>
      </trkpt>
      <trkpt lat="47.21172" lon="-1.48934">
        <ele>54</ele>
        <time>2022-05-08T09:31:16Z</time>
      </trkpt>
      <trkpt lat="47.21175" lon="-1.48915">
        <ele>54</ele>
        <time>2022-05-08T09:31:18Z</time>
      </trkpt>
      <trkpt lat="47.2118" lon="-1.48898">
        <ele>54</ele>
        <time>2022-05-08T09:31:20Z</time>
      </trkpt>
      <trkpt lat="47.21183" lon="-1.4888">
        <ele>54</ele>
        <time>2022-05-08T09:31:22Z</time>
      </trkpt>
      <trkpt lat="47.21187" lon="-1.48861">
        <ele>54</ele>
        <time>2022-05-08T09:31:24Z</time>
      </trkpt>
      <trkpt lat="47.2119" lon="-1.48842">
        <ele>53</ele>
        <time>2022-05-08T09:31:26Z</time>
      </trkpt>
      <trkpt lat="47.21193" lon="-1.48823">
        <ele>53</ele>
        <time>2022-05-08T09:31:28Z</time>
      </trkpt>
      <trkpt lat="47.21197" lon="-1.48804">
        <ele>54</ele>
        <time>2022-05-08T09:31:30Z</time>
      </trkpt>
      <trkpt lat="47.21201" lon="-1.48785">
        <ele>54</ele>
        <time>2022-05-08T09:31:32Z</time>
      </trkpt>
      <trkpt lat="47.21205" lon="-1.48767">
        <ele>54</ele>
        <time>2022-05-08T09:31:34Z</time>
      </trkpt>
      <trkpt lat="47.21209" lon="-1.48748">
        <ele>54</ele>
        <time>2022-05-08T09:31:36Z</time>
      </trkpt>
      <trkpt lat="47.21214" lon="-1.4873">
        <ele>54</ele>
        <time>2022-05-08T09:31:38Z</time>
      </trkpt>
      <trkpt lat="47.21218" lon="-1.4871">
        <ele>53</ele>
        <time>2022-05-08T09:31:40Z</time>
      </trkpt>
      <trkpt lat="47.21223" lon="-1.48692">
        <ele>54</ele>
        <time>2022-05-08T09:31:42Z</time>
      </trkpt>
      <trkpt lat="47.21228" lon="-1.48674">
        <ele>54</ele>
        <time>2022-05-08T09:31:44Z</time>
      </trkpt>
      <trkpt lat="47.21233" lon="-1.48656">
        <ele>54</ele>
        <time>2022-05-08T09:31:46Z</time>
      </trkpt>
      <trkpt lat="47.21239" lon="-1.48638">
        <ele>53</ele>
        <time>2022-05-08T09:31:48Z</time>
      </trkpt>
      <trkpt lat="47.21243" lon="-1.4862">
        <ele>53</ele>
        <time>2022-05-08T09:31:50Z</time>
      </trkpt>
      <trkpt lat="47.21248" lon="-1.48602">
        <ele>53</ele>
        <time>2022-05-08T09:31:52Z</time>
      </trkpt>
      <trkpt lat="47.21253" lon="-1.48584">
        <ele>52</ele>
        <time>2022-05-08T09:31:54Z</time>
      </trkpt>
      <trkpt lat="47.21258" lon="-1.48566">
        <ele>52</ele>
        <time>2022-05-08T09:31:56Z</time>
      </trkpt>
      <trkpt lat="47.21263" lon="-1.48549">
        <ele>52</ele>
        <time>2022-05-08T09:31:58Z</time>
      </trkpt>
      <trkpt lat="47.21268" lon="-1.48532">
        <ele>52</ele>
        <time>2022-05-08T09:32:00Z</time>
      </trkpt>
      <trkpt lat="47.21277" lon="-1.48518">
        <ele>52</ele>
        <time>2022-05-08T09:32:02Z</time>
      </trkpt>
      <trkpt lat="47.21288" lon="-1.48511">
        <ele>52</ele>
        <time>2022-05-08T09:32:04Z</time>
      </trkpt>
      <trkpt lat="47.21297" lon="-1.48498">
        <ele>53</ele>
        <time>2022-05-08T09:32:06Z</time>
      </trkpt>
      <trkpt lat="47.213" lon="-1.48478">
        <ele>53</ele>
        <time>2022-05-08T09:32:08Z</time>
      </trkpt>
      <trkpt lat="47.21303" lon="-1.48459">
        <ele>53</ele>
        <time>2022-05-08T09:32:10Z</time>
      </trkpt>
      <trkpt lat="47.21307" lon="-1.48441">
        <ele>54</ele>
        <time>2022-05-08T09:32:12Z</time>
      </trkpt>
      <trkpt lat="47.21312" lon="-1.48424">
        <ele>54</ele>
        <time>2022-05-08T09:32:14Z</time>
      </trkpt>
      <trkpt lat="47.21317" lon="-1.48407">
        <ele>54</ele>
        <time>2022-05-08T09:32:16Z</time>
      </trkpt>
      <trkpt lat="47.21322" lon="-1.48389">
        <ele>54</ele>
        <time>2022-05-08T09:32:18Z</time>
      </trkpt>
      <trkpt lat="47.21328" lon="-1.48372">
        <ele>54</ele>
        <time>2022-05-08T09:32:20Z</time>
      </trkpt>
      <trkpt lat="47.21333" lon="-1.48355">
        <ele>54</ele>
        <time>2022-05-08T09:32:22Z</time>
      </trkpt>
      <trkpt lat="47.21339" lon="-1.48338">
        <ele>54</ele>
        <time>2022-05-08T09:32:24Z</time>
      </trkpt>
      <trkpt lat="47.21344" lon="-1.48321">
        <ele>53</ele>
        <time>2022-05-08T09:32:26Z</time>
      </trkpt>
      <trkpt lat="47.2135" lon="-1.48304">
        <ele>53</ele>
        <time>2022-05-08T09:32:28Z</time>
      </trkpt>
      <trkpt lat="47.21356" lon="-1.48287">
        <ele>53</ele>
        <time>2022-05-08T09:32:30Z</time>
      </trkpt>
      <trkpt lat="47.21362" lon="-1.4827">
        <ele>53</ele>
        <time>2022-05-08T09:32:32Z</time>
      </trkpt>
      <trkpt lat="47.21368" lon="-1.48252">
        <ele>53</ele>
        <time>2022-05-08T09:32:34Z</time>
      </trkpt>
      <trkpt lat="47.21373" lon="-1.48234">
        <ele>53</ele>
        <time>2022-05-08T09:32:36Z</time>
      </trkpt>
      <trkpt lat="47.2138" lon="-1.48216">
        <ele>53</ele>
        <time>2022-05-08T09:32:38Z</time>
      </trkpt>
      <trkpt lat="47.21387" lon="-1.48199">
        <ele>53</ele>
        <time>2022-05-08T09:32:40Z</time>
      </trkpt>
      <trkpt lat="47.21395" lon="-1.48182">
        <ele>53</ele>
        <time>2022-05-08T09:32:42Z</time>
      </trkpt>
      <trkpt lat="47.21403" lon="-1.48165">
        <ele>53</ele>
        <time>2022-05-08T09:32:44Z</time>
      </trkpt>
      <trkpt lat="47.21411" lon="-1.48149">
        <ele>53</ele>
        <time>2022-05-08T09:32:46Z</time>
      </trkpt>
      <trkpt lat="47.21419" lon="-1.48134">
        <ele>53</ele>
        <time>2022-05-08T09:32:48Z</time>
      </trkpt>
      <trkpt lat="47.21428" lon="-1.48119">
        <ele>54</ele>
        <time>2022-05-08T09:32:50Z</time>
      </trkpt>
      <trkpt lat="47.21437" lon="-1.48103">
        <ele>54</ele>
        <time>2022-05-08T09:32:52Z</time>
      </trkpt>
      <trkpt lat="47.21446" lon="-1.48088">
        <ele>53</ele>
        <time>2022-05-08T09:32:54Z</time>
      </trkpt>
      <trkpt lat="47.21456" lon="-1.48073">
        <ele>53</ele>
        <time>2022-05-08T09:32:56Z</time>
      </trkpt>
      <trkpt lat="47.21465" lon="-1.48059">
        <ele>53</ele>
        <time>2022-05-08T09:32:58Z</time>
      </trkpt>
      <trkpt lat="47.21476" lon="-1.48046">
        <ele>53</ele>
        <time>2022-05-08T09:33:00Z</time>
      </trkpt>
      <trkpt lat="47.21486" lon="-1.48034">
        <ele>53</ele>
        <time>2022-05-08T09:33:02Z</time>
      </trkpt>
      <trkpt lat="47.21497" lon="-1.4802">
        <ele>53</ele>
        <time>2022-05-08T09:33:04Z</time>
      </trkpt>
      <trkpt lat="47.21508" lon="-1.48008">
        <ele>54</ele>
        <time>2022-05-08T09:33:06Z</time>
      </trkpt>
      <trkpt lat="47.21519" lon="-1.47996">
        <ele>54</ele>
        <time>2022-05-08T09:33:08Z</time>
      </trkpt>
      <trkpt lat="47.21529" lon="-1.47985">
        <ele>54</ele>
        <time>2022-05-08T09:33:10Z</time>
      </trkpt>
      <trkpt lat="47.21539" lon="-1.47974">
        <ele>55</ele>
        <time>2022-05-08T09:33:12Z</time>
      </trkpt>
      <trkpt lat="47.21549" lon="-1.47963">
        <ele>55</ele>
        <time>2022-05-08T09:33:14Z</time>
      </trkpt>
      <trkpt lat="47.2156" lon="-1.47952">
        <ele>55</ele>
        <time>2022-05-08T09:33:16Z</time>
      </trkpt>
      <trkpt lat="47.21571" lon="-1.47942">
        <ele>56</ele>
        <time>2022-05-08T09:33:18Z</time>
      </trkpt>
      <trkpt lat="47.21582" lon="-1.47931">
        <ele>56</ele>
        <time>2022-05-08T09:33:20Z</time>
      </trkpt>
      <trkpt lat="47.21594" lon="-1.47921">
        <ele>56</ele>
        <time>2022-05-08T09:33:22Z</time>
      </trkpt>
      <trkpt lat="47.21605" lon="-1.47911">
        <ele>56</ele>
        <time>2022-05-08T09:33:24Z</time>
      </trkpt>
      <trkpt lat="47.21616" lon="-1.479">
        <ele>56</ele>
        <time>2022-05-08T09:33:26Z</time>
      </trkpt>
      <trkpt lat="47.21627" lon="-1.4789">
        <ele>56</ele>
        <time>2022-05-08T09:33:28Z</time>
      </trkpt>
      <trkpt lat="47.21638" lon="-1.4788">
        <ele>57</ele>
        <time>2022-05-08T09:33:30Z</time>
      </trkpt>
      <trkpt lat="47.21649" lon="-1.47869">
        <ele>57</ele>
        <time>2022-05-08T09:33:32Z</time>
      </trkpt>
      <trkpt lat="47.2166" lon="-1.47859">
        <ele>57</ele>
        <time>2022-05-08T09:33:34Z</time>
      </trkpt>
      <trkpt lat="47.21671" lon="-1.47849">
        <ele>57</ele>
        <time>2022-05-08T09:33:36Z</time>
      </trkpt>
      <trkpt lat="47.21682" lon="-1.47839">
        <ele>57</ele>
        <time>2022-05-08T09:33:38Z</time>
      </trkpt>
      <trkpt lat="47.21692" lon="-1.47829">
        <ele>57</ele>
        <time>2022-05-08T09:33:40Z</time>
      </trkpt>
      <trkpt lat="47.21703" lon="-1.47818">
        <ele>57</ele>
        <time>2022-05-08T09:33:42Z</time>
      </trkpt>
      <trkpt lat="47.21714" lon="-1.47808">
        <ele>57</ele>
        <time>2022-05-08T09:33:44Z</time>
      </trkpt>
      <trkpt lat="47.21725" lon="-1.47798">
        <ele>57</ele>
        <time>2022-05-08T09:33:46Z</time>
      </trkpt>
      <trkpt lat="47.21735" lon="-1.47789">
        <ele>58</ele>
        <time>2022-05-08T09:33:48Z</time>
      </trkpt>
      <trkpt lat="47.21746" lon="-1.47779">
        <ele>58</ele>
        <time>2022-05-08T09:33:50Z</time>
      </trkpt>
      <trkpt lat="47.21756" lon="-1.4777">
        <ele>58</ele>
        <time>2022-05-08T09:33:52Z</time>
      </trkpt>
      <trkpt lat="47.21767" lon="-1.47761">
        <ele>57</ele>
        <time>2022-05-08T09:33:54Z</time>
      </trkpt>
      <trkpt lat="47.21778" lon="-1.47751">
        <ele>58</ele>
        <time>2022-05-08T09:33:56Z</time>
      </trkpt>
      <trkpt lat="47.2179" lon="-1.47742">
        <ele>58</ele>
        <time>2022-05-08T09:33:58Z</time>
      </trkpt>
      <trkpt lat="47.21801" lon="-1.47734">
        <ele>57</ele>
        <time>2022-05-08T09:34:00Z</time>
      </trkpt>
      <trkpt lat="47.21813" lon="-1.47725">
        <ele>57</ele>
        <time>2022-05-08T09:34:02Z</time>
      </trkpt>
      <trkpt lat="47.21825" lon="-1.47717">
        <ele>57</ele>
        <time>2022-05-08T09:34:04Z</time>
      </trkpt>
      <trkpt lat="47.21836" lon="-1.47707">
        <ele>57</ele>
        <time>2022-05-08T09:34:06Z</time>
      </trkpt>
      <trkpt lat="47.21847" lon="-1.47697">
        <ele>56</ele>
        <time>2022-05-08T09:34:08Z</time>
      </trkpt>
      <trkpt lat="47.21859" lon="-1.47686">
        <ele>56</ele>
        <time>2022-05-08T09:34:10Z</time>
      </trkpt>
      <trkpt lat="47.21871" lon="-1.47674">
        <ele>56</ele>
        <time>2022-05-08T09:34:12Z</time>
      </trkpt>
      <trkpt lat="47.21883" lon="-1.47664">
        <ele>56</ele>
        <time>2022-05-08T09:34:14Z</time>
      </trkpt>
      <trkpt lat="47.21895" lon="-1.47652">
        <ele>56</ele>
        <time>2022-05-08T09:34:16Z</time>
      </trkpt>
      <trkpt lat="47.21907" lon="-1.47641">
        <ele>55</ele>
        <time>2022-05-08T09:34:18Z</time>
      </trkpt>
      <trkpt lat="47.21918" lon="-1.4763">
        <ele>55</ele>
        <time>2022-05-08T09:34:20Z</time>
      </trkpt>
      <trkpt lat="47.2193" lon="-1.47619">
        <ele>55</ele>
        <time>2022-05-08T09:34:22Z</time>
      </trkpt>
      <trkpt lat="47.21941" lon="-1.47609">
        <ele>55</ele>
        <time>2022-05-08T09:34:24Z</time>
      </trkpt>
      <trkpt lat="47.21953" lon="-1.47599">
        <ele>55</ele>
        <time>2022-05-08T09:34:26Z</time>
      </trkpt>
      <trkpt lat="47.21964" lon="-1.47589">
        <ele>55</ele>
        <time>2022-05-08T09:34:28Z</time>
      </trkpt>
      <trkpt lat="47.21976" lon="-1.47579">
        <ele>55</ele>
        <time>2022-05-08T09:34:30Z</time>
      </trkpt>
      <trkpt lat="47.21988" lon="-1.47568">
        <ele>55</ele>
        <time>2022-05-08T09:34:32Z</time>
      </trkpt>
      <trkpt lat="47.21999" lon="-1.47557">
        <ele>55</ele>
        <time>2022-05-08T09:34:34Z</time>
      </trkpt>
      <trkpt lat="47.2201" lon="-1.47547">
        <ele>55</ele>
        <time>2022-05-08T09:34:36Z</time>
      </trkpt>
      <trkpt lat="47.22021" lon="-1.47535">
        <ele>54</ele>
        <time>2022-05-08T09:34:38Z</time>
      </trkpt>
      <trkpt lat="47.22032" lon="-1.47525">
        <ele>54</ele>
        <time>2022-05-08T09:34:40Z</time>
      </trkpt>
      <trkpt lat="47.22043" lon="-1.47515">
        <ele>54</ele>
        <time>2022-05-08T09:34:42Z</time>
      </trkpt>
      <trkpt lat="47.22054" lon="-1.47505">
        <ele>53</ele>
        <time>2022-05-08T09:34:44Z</time>
      </trkpt>
      <trkpt lat="47.22065" lon="-1.47495">
        <ele>53</ele>
        <time>2022-05-08T09:34:46Z</time>
      </trkpt>
      <trkpt lat="47.22076" lon="-1.47485">
        <ele>53</ele>
        <time>2022-05-08T09:34:48Z</time>
      </trkpt>
      <trkpt lat="47.22087" lon="-1.47475">
        <ele>53</ele>
        <time>2022-05-08T09:34:50Z</time>
      </trkpt>
      <trkpt lat="47.22097" lon="-1.47465">
        <ele>52</ele>
        <time>2022-05-08T09:34:52Z</time>
      </trkpt>
      <trkpt lat="47.22108" lon="-1.47456">
        <ele>52</ele>
        <time>2022-05-08T09:34:54Z</time>
      </trkpt>
      <trkpt lat="47.2212" lon="-1.47447">
        <ele>52</ele>
        <time>2022-05-08T09:34:56Z</time>
      </trkpt>
      <trkpt lat="47.2213" lon="-1.47438">
        <ele>52</ele>
        <time>2022-05-08T09:34:58Z</time>
      </trkpt>
      <trkpt lat="47.22141" lon="-1.47429">
        <ele>52</ele>
        <time>2022-05-08T09:35:00Z</time>
      </trkpt>
      <trkpt lat="47.22152" lon="-1.4742">
        <ele>52</ele>
        <time>2022-05-08T09:35:02Z</time>
      </trkpt>
      <trkpt lat="47.22163" lon="-1.47411">
        <ele>52</ele>
        <time>2022-05-08T09:35:04Z</time>
      </trkpt>
      <trkpt lat="47.22174" lon="-1.47401">
        <ele>52</ele>
        <time>2022-05-08T09:35:06Z</time>
      </trkpt>
      <trkpt lat="47.22185" lon="-1.47392">
        <ele>52</ele>
        <time>2022-05-08T09:35:08Z</time>
      </trkpt>
      <trkpt lat="47.22195" lon="-1.47383">
        <ele>52</ele>
        <time>2022-05-08T09:35:10Z</time>
      </trkpt>
      <trkpt lat="47.22206" lon="-1.47374">
        <ele>52</ele>
        <time>2022-05-08T09:35:12Z</time>
      </trkpt>
      <trkpt lat="47.22218" lon="-1.47365">
        <ele>52</ele>
        <time>2022-05-08T09:35:14Z</time>
      </trkpt>
      <trkpt lat="47.22229" lon="-1.47357">
        <ele>52</ele>
        <time>2022-05-08T09:35:16Z</time>
      </trkpt>
      <trkpt lat="47.22241" lon="-1.47349">
        <ele>51</ele>
        <time>2022-05-08T09:35:18Z</time>
      </trkpt>
      <trkpt lat="47.22253" lon="-1.47342">
        <ele>51</ele>
        <time>2022-05-08T09:35:20Z</time>
      </trkpt>
      <trkpt lat="47.22265" lon="-1.47335">
        <ele>52</ele>
        <time>2022-05-08T09:35:22Z</time>
      </trkpt>
      <trkpt lat="47.22276" lon="-1.47326">
        <ele>52</ele>
        <time>2022-05-08T09:35:24Z</time>
      </trkpt>
      <trkpt lat="47.22287" lon="-1.47317">
        <ele>52</ele>
        <time>2022-05-08T09:35:26Z</time>
      </trkpt>
      <trkpt lat="47.22298" lon="-1.47308">
        <ele>52</ele>
        <time>2022-05-08T09:35:28Z</time>
      </trkpt>
      <trkpt lat="47.22309" lon="-1.47299">
        <ele>52</ele>
        <time>2022-05-08T09:35:30Z</time>
      </trkpt>
      <trkpt lat="47.2232" lon="-1.4729">
        <ele>51</ele>
        <time>2022-05-08T09:35:32Z</time>
      </trkpt>
      <trkpt lat="47.22331" lon="-1.4728">
        <ele>52</ele>
        <time>2022-05-08T09:35:34Z</time>
      </trkpt>
      <trkpt lat="47.22342" lon="-1.47272">
        <ele>51</ele>
        <time>2022-05-08T09:35:36Z</time>
      </trkpt>
      <trkpt lat="47.22352" lon="-1.47262">
        <ele>52</ele>
        <time>2022-05-08T09:35:38Z</time>
      </trkpt>
      <trkpt lat="47.22363" lon="-1.47253">
        <ele>52</ele>
        <time>2022-05-08T09:35:40Z</time>
      </trkpt>
      <trkpt lat="47.22373" lon="-1.47244">
        <ele>52</ele>
        <time>2022-05-08T09:35:42Z</time>
      </trkpt>
      <trkpt lat="47.22383" lon="-1.47235">
        <ele>52</ele>
        <time>2022-05-08T09:35:44Z</time>
      </trkpt>
      <trkpt lat="47.22392" lon="-1.47225">
        <ele>52</ele>
        <time>2022-05-08T09:35:46Z</time>
      </trkpt>
      <trkpt lat="47.22401" lon="-1.47215">
        <ele>53</ele>
        <time>2022-05-08T09:35:48Z</time>
      </trkpt>
      <trkpt lat="47.2241" lon="-1.47205">
        <ele>53</ele>
        <time>2022-05-08T09:35:50Z</time>
      </trkpt>
      <trkpt lat="47.22419" lon="-1.47195">
        <ele>53</ele>
        <time>2022-05-08T09:35:52Z</time>
      </trkpt>
      <trkpt lat="47.22428" lon="-1.47184">
        <ele>53</ele>
        <time>2022-05-08T09:35:54Z</time>
      </trkpt>
      <trkpt lat="47.22438" lon="-1.47174">
        <ele>54</ele>
        <time>2022-05-08T09:35:56Z</time>
      </trkpt>
      <trkpt lat="47.22448" lon="-1.47165">
        <ele>54</ele>
        <time>2022-05-08T09:35:58Z</time>
      </trkpt>
      <trkpt lat="47.22458" lon="-1.47156">
        <ele>54</ele>
        <time>2022-05-08T09:36:00Z</time>
      </trkpt>
      <trkpt lat="47.22468" lon="-1.47148">
        <ele>54</ele>
        <time>2022-05-08T09:36:02Z</time>
      </trkpt>
      <trkpt lat="47.22479" lon="-1.47141">
        <ele>54</ele>
        <time>2022-05-08T09:36:04Z</time>
      </trkpt>
      <trkpt lat="47.2249" lon="-1.47135">
        <ele>54</ele>
        <time>2022-05-08T09:36:06Z</time>
      </trkpt>
      <trkpt lat="47.22502" lon="-1.4713">
        <ele>54</ele>
        <time>2022-05-08T09:36:08Z</time>
      </trkpt>
      <trkpt lat="47.22514" lon="-1.47127">
        <ele>54</ele>
        <time>2022-05-08T09:36:10Z</time>
      </trkpt>
      <trkpt lat="47.22526" lon="-1.47124">
        <ele>54</ele>
        <time>2022-05-08T09:36:12Z</time>
      </trkpt>
      <trkpt lat="47.22538" lon="-1.47121">
        <ele>54</ele>
        <time>2022-05-08T09:36:14Z</time>
      </trkpt>
      <trkpt lat="47.2255" lon="-1.47119">
        <ele>54</ele>
        <time>2022-05-08T09:36:16Z</time>
      </trkpt>
      <trkpt lat="47.22562" lon="-1.47115">
        <ele>54</ele>
        <time>2022-05-08T09:36:18Z</time>
      </trkpt>
      <trkpt lat="47.22575" lon="-1.47111">
        <ele>54</ele>
        <time>2022-05-08T09:36:20Z</time>
      </trkpt>
      <trkpt lat="47.22586" lon="-1.47104">
        <ele>53</ele>
        <time>2022-05-08T09:36:22Z</time>
      </trkpt>
      <trkpt lat="47.22597" lon="-1.47093">
        <ele>53</ele>
        <time>2022-05-08T09:36:24Z</time>
      </trkpt>
      <trkpt lat="47.22606" lon="-1.47079">
        <ele>53</ele>
        <time>2022-05-08T09:36:26Z</time>
      </trkpt>
      <trkpt lat="47.22614" lon="-1.47064">
        <ele>53</ele>
        <time>2022-05-08T09:36:28Z</time>
      </trkpt>
      <trkpt lat="47.22622" lon="-1.47048">
        <ele>53</ele>
        <time>2022-05-08T09:36:30Z</time>
      </trkpt>
      <trkpt lat="47.2263" lon="-1.47033">
        <ele>53</ele>
        <time>2022-05-08T09:36:32Z</time>
      </trkpt>
      <trkpt lat="47.22639" lon="-1.4702">
        <ele>53</ele>
        <time>2022-05-08T09:36:34Z</time>
      </trkpt>
      <trkpt lat="47.22648" lon="-1.47008">
        <ele>53</ele>
        <time>2022-05-08T09:36:36Z</time>
      </trkpt>
      <trkpt lat="47.22659" lon="-1.46997">
        <ele>53</ele>
        <time>2022-05-08T09:36:38Z</time>
      </trkpt>
      <trkpt lat="47.2267" lon="-1.46987">
        <ele>53</ele>
        <time>2022-05-08T09:36:40Z</time>
      </trkpt>
      <trkpt lat="47.22681" lon="-1.46978">
        <ele>53</ele>
        <time>2022-05-08T09:36:42Z</time>
      </trkpt>
      <trkpt lat="47.22692" lon="-1.46971">
        <ele>53</ele>
        <time>2022-05-08T09:36:44Z</time>
      </trkpt>
      <trkpt lat="47.22704" lon="-1.46964">
        <ele>53</ele>
        <time>2022-05-08T09:36:46Z</time>
      </trkpt>
      <trkpt lat="47.22717" lon="-1.46958">
        <ele>53</ele>
        <time>2022-05-08T09:36:48Z</time>
      </trkpt>
      <trkpt lat="47.22729" lon="-1.46955">
        <ele>53</ele>
        <time>2022-05-08T09:36:50Z</time>
      </trkpt>
      <trkpt lat="47.22741" lon="-1.46952">
        <ele>53</ele>
        <time>2022-05-08T09:36:52Z</time>
      </trkpt>
      <trkpt lat="47.22753" lon="-1.46951">
        <ele>53</ele>
        <time>2022-05-08T09:36:54Z</time>
      </trkpt>
      <trkpt lat="47.22766" lon="-1.46951">
        <ele>53</ele>
        <time>2022-05-08T09:36:56Z</time>
      </trkpt>
      <trkpt lat="47.22778" lon="-1.46952">
        <ele>53</ele>
        <time>2022-05-08T09:36:58Z</time>
      </trkpt>
      <trkpt lat="47.22791" lon="-1.46955">
        <ele>54</ele>
        <time>2022-05-08T09:37:00Z</time>
      </trkpt>
      <trkpt lat="47.22803" lon="-1.46958">
        <ele>53</ele>
        <time>2022-05-08T09:37:02Z</time>
      </trkpt>
      <trkpt lat="47.22815" lon="-1.46963">
        <ele>54</ele>
        <time>2022-05-08T09:37:04Z</time>
      </trkpt>
      <trkpt lat="47.22827" lon="-1.46969">
        <ele>54</ele>
        <time>2022-05-08T09:37:06Z</time>
      </trkpt>
      <trkpt lat="47.22839" lon="-1.46975">
        <ele>54</ele>
        <time>2022-05-08T09:37:08Z</time>
      </trkpt>
      <trkpt lat="47.22851" lon="-1.46981">
        <ele>54</ele>
        <time>2022-05-08T09:37:10Z</time>
      </trkpt>
      <trkpt lat="47.22863" lon="-1.46988">
        <ele>53</ele>
        <time>2022-05-08T09:37:12Z</time>
      </trkpt>
      <trkpt lat="47.22875" lon="-1.46994">
        <ele>53</ele>
        <time>2022-05-08T09:37:14Z</time>
      </trkpt>
      <trkpt lat="47.22888" lon="-1.47">
        <ele>53</ele>
        <time>2022-05-08T09:37:16Z</time>
      </trkpt>
      <trkpt lat="47.22901" lon="-1.46997">
        <ele>53</ele>
        <time>2022-05-08T09:37:18Z</time>
      </trkpt>
      <trkpt lat="47.22911" lon="-1.46982">
        <ele>53</ele>
        <time>2022-05-08T09:37:20Z</time>
      </trkpt>
      <trkpt lat="47.22915" lon="-1.46963">
        <ele>53</ele>
        <time>2022-05-08T09:37:22Z</time>
      </trkpt>
      <trkpt lat="47.22919" lon="-1.46944">
        <ele>54</ele>
        <time>2022-05-08T09:37:24Z</time>
      </trkpt>
      <trkpt lat="47.22923" lon="-1.46926">
        <ele>54</ele>
        <time>2022-05-08T09:37:26Z</time>
      </trkpt>
      <trkpt lat="47.22927" lon="-1.46909">
        <ele>53</ele>
        <time>2022-05-08T09:37:28Z</time>
      </trkpt>
      <trkpt lat="47.2293" lon="-1.46895">
        <ele>53</ele>
        <time>2022-05-08T09:37:30Z</time>
      </trkpt>
      <trkpt lat="47.22932" lon="-1.46875">
        <ele>55</ele>
        <time>2022-05-08T09:37:32Z</time>
      </trkpt>
      <trkpt lat="47.2294" lon="-1.46859">
        <ele>56</ele>
        <time>2022-05-08T09:37:34Z</time>
      </trkpt>
      <trkpt lat="47.22945" lon="-1.46843">
        <ele>56</ele>
        <time>2022-05-08T09:37:36Z</time>
      </trkpt>
      <trkpt lat="47.22952" lon="-1.46832">
        <ele>56</ele>
        <time>2022-05-08T09:37:38Z</time>
      </trkpt>
      <trkpt lat="47.22963" lon="-1.46823">
        <ele>55</ele>
        <time>2022-05-08T09:37:40Z</time>
      </trkpt>
      <trkpt lat="47.22971" lon="-1.46809">
        <ele>54</ele>
        <time>2022-05-08T09:37:42Z</time>
      </trkpt>
      <trkpt lat="47.22976" lon="-1.46793">
        <ele>55</ele>
        <time>2022-05-08T09:37:44Z</time>
      </trkpt>
      <trkpt lat="47.22982" lon="-1.4678">
        <ele>55</ele>
        <time>2022-05-08T09:37:46Z</time>
      </trkpt>
      <trkpt lat="47.22989" lon="-1.46769">
        <ele>55</ele>
        <time>2022-05-08T09:37:48Z</time>
      </trkpt>
      <trkpt lat="47.22999" lon="-1.4676">
        <ele>55</ele>
        <time>2022-05-08T09:37:50Z</time>
      </trkpt>
      <trkpt lat="47.23007" lon="-1.46753">
        <ele>56</ele>
        <time>2022-05-08T09:37:52Z</time>
      </trkpt>
      <trkpt lat="47.23017" lon="-1.46746">
        <ele>55</ele>
        <time>2022-05-08T09:37:54Z</time>
      </trkpt>
      <trkpt lat="47.23027" lon="-1.46742">
        <ele>55</ele>
        <time>2022-05-08T09:37:56Z</time>
      </trkpt>
      <trkpt lat="47.23038" lon="-1.46737">
        <ele>55</ele>
        <time>2022-05-08T09:37:58Z</time>
      </trkpt>
      <trkpt lat="47.23046" lon="-1.46731">
        <ele>55</ele>
        <time>2022-05-08T09:38:00Z</time>
      </trkpt>
      <trkpt lat="47.23051" lon="-1.46714">
        <ele>57</ele>
        <time>2022-05-08T09:38:03Z</time>
      </trkpt>
      <trkpt lat="47.23054" lon="-1.46695">
        <ele>59</ele>
        <time>2022-05-08T09:38:05Z</time>
      </trkpt>
      <trkpt lat="47.23058" lon="-1.46676">
        <ele>60</ele>
        <time>2022-05-08T09:38:07Z</time>
      </trkpt>
      <trkpt lat="47.23064" lon="-1.46657">
        <ele>60</ele>
        <time>2022-05-08T09:38:09Z</time>
      </trkpt>
      <trkpt lat="47.23069" lon="-1.4664">
        <ele>60</ele>
        <time>2022-05-08T09:38:11Z</time>
      </trkpt>
      <trkpt lat="47.23076" lon="-1.46626">
        <ele>58</ele>
        <time>2022-05-08T09:38:13Z</time>
      </trkpt>
      <trkpt lat="47.23085" lon="-1.46614">
        <ele>58</ele>
        <time>2022-05-08T09:38:15Z</time>
      </trkpt>
      <trkpt lat="47.23095" lon="-1.46602">
        <ele>57</ele>
        <time>2022-05-08T09:38:17Z</time>
      </trkpt>
      <trkpt lat="47.23106" lon="-1.4659">
        <ele>56</ele>
        <time>2022-05-08T09:38:19Z</time>
      </trkpt>
      <trkpt lat="47.23116" lon="-1.46579">
        <ele>56</ele>
        <time>2022-05-08T09:38:21Z</time>
      </trkpt>
      <trkpt lat="47.23126" lon="-1.46568">
        <ele>56</ele>
        <time>2022-05-08T09:38:23Z</time>
      </trkpt>
      <trkpt lat="47.23136" lon="-1.46557">
        <ele>56</ele>
        <time>2022-05-08T09:38:25Z</time>
      </trkpt>
      <trkpt lat="47.23145" lon="-1.46546">
        <ele>56</ele>
        <time>2022-05-08T09:38:27Z</time>
      </trkpt>
      <trkpt lat="47.23155" lon="-1.46534">
        <ele>56</ele>
        <time>2022-05-08T09:38:29Z</time>
      </trkpt>
      <trkpt lat="47.23165" lon="-1.46521">
        <ele>56</ele>
        <time>2022-05-08T09:38:31Z</time>
      </trkpt>
      <trkpt lat="47.23174" lon="-1.4651">
        <ele>56</ele>
        <time>2022-05-08T09:38:33Z</time>
      </trkpt>
      <trkpt lat="47.23183" lon="-1.46498">
        <ele>56</ele>
        <time>2022-05-08T09:38:35Z</time>
      </trkpt>
      <trkpt lat="47.23192" lon="-1.46487">
        <ele>56</ele>
        <time>2022-05-08T09:38:37Z</time>
      </trkpt>
      <trkpt lat="47.23202" lon="-1.46475">
        <ele>57</ele>
        <time>2022-05-08T09:38:39Z</time>
      </trkpt>
      <trkpt lat="47.23211" lon="-1.46462">
        <ele>57</ele>
        <time>2022-05-08T09:38:41Z</time>
      </trkpt>
      <trkpt lat="47.23221" lon="-1.4645">
        <ele>57</ele>
        <time>2022-05-08T09:38:43Z</time>
      </trkpt>
      <trkpt lat="47.2323" lon="-1.46438">
        <ele>57</ele>
        <time>2022-05-08T09:38:45Z</time>
      </trkpt>
      <trkpt lat="47.2324" lon="-1.46426">
        <ele>57</ele>
        <time>2022-05-08T09:38:47Z</time>
      </trkpt>
      <trkpt lat="47.23249" lon="-1.46414">
        <ele>57</ele>
        <time>2022-05-08T09:38:49Z</time>
      </trkpt>
      <trkpt lat="47.23259" lon="-1.46402">
        <ele>57</ele>
        <time>2022-05-08T09:38:51Z</time>
      </trkpt>
      <trkpt lat="47.23268" lon="-1.46391">
        <ele>57</ele>
        <time>2022-05-08T09:38:53Z</time>
      </trkpt>
      <trkpt lat="47.23277" lon="-1.46379">
        <ele>56</ele>
        <time>2022-05-08T09:38:55Z</time>
      </trkpt>
      <trkpt lat="47.23287" lon="-1.46368">
        <ele>57</ele>
        <time>2022-05-08T09:38:57Z</time>
      </trkpt>
      <trkpt lat="47.23296" lon="-1.46356">
        <ele>57</ele>
        <time>2022-05-08T09:38:59Z</time>
      </trkpt>
      <trkpt lat="47.23305" lon="-1.46343">
        <ele>57</ele>
        <time>2022-05-08T09:39:01Z</time>
      </trkpt>
      <trkpt lat="47.23313" lon="-1.4633">
        <ele>57</ele>
        <time>2022-05-08T09:39:03Z</time>
      </trkpt>
      <trkpt lat="47.23322" lon="-1.46317">
        <ele>57</ele>
        <time>2022-05-08T09:39:05Z</time>
      </trkpt>
      <trkpt lat="47.23332" lon="-1.46305">
        <ele>57</ele>
        <time>2022-05-08T09:39:07Z</time>
      </trkpt>
      <trkpt lat="47.23341" lon="-1.46293">
        <ele>57</ele>
        <time>2022-05-08T09:39:09Z</time>
      </trkpt>
      <trkpt lat="47.23351" lon="-1.46281">
        <ele>57</ele>
        <time>2022-05-08T09:39:11Z</time>
      </trkpt>
      <trkpt lat="47.2336" lon="-1.46269">
        <ele>57</ele>
        <time>2022-05-08T09:39:13Z</time>
      </trkpt>
      <trkpt lat="47.2337" lon="-1.46257">
        <ele>57</ele>
        <time>2022-05-08T09:39:15Z</time>
      </trkpt>
      <trkpt lat="47.2338" lon="-1.46245">
        <ele>57</ele>
        <time>2022-05-08T09:39:17Z</time>
      </trkpt>
      <trkpt lat="47.23389" lon="-1.46233">
        <ele>58</ele>
        <time>2022-05-08T09:39:19Z</time>
      </trkpt>
      <trkpt lat="47.23399" lon="-1.46221">
        <ele>58</ele>
        <time>2022-05-08T09:39:21Z</time>
      </trkpt>
      <trkpt lat="47.23408" lon="-1.46209">
        <ele>57</ele>
        <time>2022-05-08T09:39:23Z</time>
      </trkpt>
      <trkpt lat="47.23418" lon="-1.46196">
        <ele>58</ele>
        <time>2022-05-08T09:39:25Z</time>
      </trkpt>
      <trkpt lat="47.23428" lon="-1.46184">
        <ele>58</ele>
        <time>2022-05-08T09:39:27Z</time>
      </trkpt>
      <trkpt lat="47.23439" lon="-1.46173">
        <ele>57</ele>
        <time>2022-05-08T09:39:29Z</time>
      </trkpt>
      <trkpt lat="47.23449" lon="-1.46162">
        <ele>57</ele>
        <time>2022-05-08T09:39:31Z</time>
      </trkpt>
      <trkpt lat="47.2346" lon="-1.46152">
        <ele>57</ele>
        <time>2022-05-08T09:39:33Z</time>
      </trkpt>
      <trkpt lat="47.2347" lon="-1.46142">
        <ele>58</ele>
        <time>2022-05-08T09:39:35Z</time>
      </trkpt>
      <trkpt lat="47.23481" lon="-1.46132">
        <ele>58</ele>
        <time>2022-05-08T09:39:37Z</time>
      </trkpt>
      <trkpt lat="47.23491" lon="-1.46122">
        <ele>58</ele>
        <time>2022-05-08T09:39:39Z</time>
      </trkpt>
      <trkpt lat="47.23501" lon="-1.46111">
        <ele>59</ele>
        <time>2022-05-08T09:39:41Z</time>
      </trkpt>
      <trkpt lat="47.2351" lon="-1.46101">
        <ele>60</ele>
        <time>2022-05-08T09:39:43Z</time>
      </trkpt>
      <trkpt lat="47.2352" lon="-1.46092">
        <ele>59</ele>
        <time>2022-05-08T09:39:45Z</time>
      </trkpt>
      <trkpt lat="47.23531" lon="-1.46082">
        <ele>59</ele>
        <time>2022-05-08T09:39:47Z</time>
      </trkpt>
      <trkpt lat="47.23543" lon="-1.46072">
        <ele>58</ele>
        <time>2022-05-08T09:39:49Z</time>
      </trkpt>
      <trkpt lat="47.23554" lon="-1.46062">
        <ele>58</ele>
        <time>2022-05-08T09:39:51Z</time>
      </trkpt>
      <trkpt lat="47.23565" lon="-1.46055">
        <ele>59</ele>
        <time>2022-05-08T09:39:53Z</time>
      </trkpt>
      <trkpt lat="47.23578" lon="-1.4605">
        <ele>58</ele>
        <time>2022-05-08T09:39:55Z</time>
      </trkpt>
      <trkpt lat="47.23591" lon="-1.46038">
        <ele>58</ele>
        <time>2022-05-08T09:39:57Z</time>
      </trkpt>
      <trkpt lat="47.23603" lon="-1.46027">
        <ele>57</ele>
        <time>2022-05-08T09:39:59Z</time>
      </trkpt>
      <trkpt lat="47.23616" lon="-1.46019">
        <ele>57</ele>
        <time>2022-05-08T09:40:01Z</time>
      </trkpt>
      <trkpt lat="47.23629" lon="-1.46013">
        <ele>57</ele>
        <time>2022-05-08T09:40:03Z</time>
      </trkpt>
      <trkpt lat="47.23643" lon="-1.46008">
        <ele>57</ele>
        <time>2022-05-08T09:40:05Z</time>
      </trkpt>
      <trkpt lat="47.23656" lon="-1.46005">
        <ele>57</ele>
        <time>2022-05-08T09:40:07Z</time>
      </trkpt>
      <trkpt lat="47.23669" lon="-1.46001">
        <ele>57</ele>
        <time>2022-05-08T09:40:09Z</time>
      </trkpt>
      <trkpt lat="47.23683" lon="-1.45998">
        <ele>56</ele>
        <time>2022-05-08T09:40:11Z</time>
      </trkpt>
      <trkpt lat="47.23696" lon="-1.45996">
        <ele>56</ele>
        <time>2022-05-08T09:40:13Z</time>
      </trkpt>
      <trkpt lat="47.23708" lon="-1.45992">
        <ele>56</ele>
        <time>2022-05-08T09:40:15Z</time>
      </trkpt>
      <trkpt lat="47.23721" lon="-1.45989">
        <ele>55</ele>
        <time>2022-05-08T09:40:17Z</time>
      </trkpt>
      <trkpt lat="47.23733" lon="-1.45986">
        <ele>55</ele>
        <time>2022-05-08T09:40:19Z</time>
      </trkpt>
      <trkpt lat="47.23747" lon="-1.45982">
        <ele>55</ele>
        <time>2022-05-08T09:40:21Z</time>
      </trkpt>
      <trkpt lat="47.23759" lon="-1.45978">
        <ele>56</ele>
        <time>2022-05-08T09:40:23Z</time>
      </trkpt>
      <trkpt lat="47.23771" lon="-1.45974">
        <ele>56</ele>
        <time>2022-05-08T09:40:25Z</time>
      </trkpt>
      <trkpt lat="47.23783" lon="-1.45969">
        <ele>56</ele>
        <time>2022-05-08T09:40:27Z</time>
      </trkpt>
      <trkpt lat="47.23795" lon="-1.45966">
        <ele>56</ele>
        <time>2022-05-08T09:40:29Z</time>
      </trkpt>
      <trkpt lat="47.23807" lon="-1.45961">
        <ele>56</ele>
        <time>2022-05-08T09:40:31Z</time>
      </trkpt>
      <trkpt lat="47.23819" lon="-1.45957">
        <ele>57</ele>
        <time>2022-05-08T09:40:33Z</time>
      </trkpt>
      <trkpt lat="47.23832" lon="-1.45954">
        <ele>57</ele>
        <time>2022-05-08T09:40:35Z</time>
      </trkpt>
      <trkpt lat="47.23844" lon="-1.4595">
        <ele>57</ele>
        <time>2022-05-08T09:40:37Z</time>
      </trkpt>
      <trkpt lat="47.23857" lon="-1.45946">
        <ele>56</ele>
        <time>2022-05-08T09:40:39Z</time>
      </trkpt>
      <trkpt lat="47.2387" lon="-1.45943">
        <ele>56</ele>
        <time>2022-05-08T09:40:41Z</time>
      </trkpt>
      <trkpt lat="47.23883" lon="-1.4594">
        <ele>56</ele>
        <time>2022-05-08T09:40:43Z</time>
      </trkpt>
      <trkpt lat="47.23896" lon="-1.45936">
        <ele>56</ele>
        <time>2022-05-08T09:40:45Z</time>
      </trkpt>
      <trkpt lat="47.23909" lon="-1.45934">
        <ele>56</ele>
        <time>2022-05-08T09:40:47Z</time>
      </trkpt>
      <trkpt lat="47.23921" lon="-1.4593">
        <ele>56</ele>
        <time>2022-05-08T09:40:49Z</time>
      </trkpt>
      <trkpt lat="47.23934" lon="-1.45926">
        <ele>56</ele>
        <time>2022-05-08T09:40:51Z</time>
      </trkpt>
      <trkpt lat="47.23947" lon="-1.45921">
        <ele>56</ele>
        <time>2022-05-08T09:40:53Z</time>
      </trkpt>
      <trkpt lat="47.23957" lon="-1.45912">
        <ele>56</ele>
        <time>2022-05-08T09:40:55Z</time>
      </trkpt>
      <trkpt lat="47.23967" lon="-1.45899">
        <ele>56</ele>
        <time>2022-05-08T09:40:57Z</time>
      </trkpt>
      <trkpt lat="47.23976" lon="-1.45885">
        <ele>56</ele>
        <time>2022-05-08T09:40:59Z</time>
      </trkpt>
      <trkpt lat="47.23985" lon="-1.45871">
        <ele>56</ele>
        <time>2022-05-08T09:41:01Z</time>
      </trkpt>
      <trkpt lat="47.23994" lon="-1.45857">
        <ele>56</ele>
        <time>2022-05-08T09:41:03Z</time>
      </trkpt>
      <trkpt lat="47.24002" lon="-1.45843">
        <ele>56</ele>
        <time>2022-05-08T09:41:05Z</time>
      </trkpt>
      <trkpt lat="47.24011" lon="-1.45829">
        <ele>56</ele>
        <time>2022-05-08T09:41:07Z</time>
      </trkpt>
      <trkpt lat="47.2402" lon="-1.45816">
        <ele>56</ele>
        <time>2022-05-08T09:41:09Z</time>
      </trkpt>
      <trkpt lat="47.24028" lon="-1.45802">
        <ele>56</ele>
        <time>2022-05-08T09:41:11Z</time>
      </trkpt>
      <trkpt lat="47.24037" lon="-1.45789">
        <ele>56</ele>
        <time>2022-05-08T09:41:13Z</time>
      </trkpt>
      <trkpt lat="47.24046" lon="-1.45775">
        <ele>56</ele>
        <time>2022-05-08T09:41:15Z</time>
      </trkpt>
      <trkpt lat="47.24055" lon="-1.45761">
        <ele>56</ele>
        <time>2022-05-08T09:41:17Z</time>
      </trkpt>
      <trkpt lat="47.24063" lon="-1.45747">
        <ele>56</ele>
        <time>2022-05-08T09:41:19Z</time>
      </trkpt>
      <trkpt lat="47.24072" lon="-1.45733">
        <ele>57</ele>
        <time>2022-05-08T09:41:21Z</time>
      </trkpt>
      <trkpt lat="47.2408" lon="-1.4572">
        <ele>57</ele>
        <time>2022-05-08T09:41:23Z</time>
      </trkpt>
      <trkpt lat="47.24088" lon="-1.45707">
        <ele>57</ele>
        <time>2022-05-08T09:41:25Z</time>
      </trkpt>
      <trkpt lat="47.24097" lon="-1.45693">
        <ele>56</ele>
        <time>2022-05-08T09:41:27Z</time>
      </trkpt>
      <trkpt lat="47.24105" lon="-1.45679">
        <ele>56</ele>
        <time>2022-05-08T09:41:29Z</time>
      </trkpt>
      <trkpt lat="47.24112" lon="-1.45664">
        <ele>57</ele>
        <time>2022-05-08T09:41:31Z</time>
      </trkpt>
      <trkpt lat="47.2412" lon="-1.45649">
        <ele>57</ele>
        <time>2022-05-08T09:41:33Z</time>
      </trkpt>
      <trkpt lat="47.24126" lon="-1.45634">
        <ele>57</ele>
        <time>2022-05-08T09:41:35Z</time>
      </trkpt>
      <trkpt lat="47.24133" lon="-1.45617">
        <ele>57</ele>
        <time>2022-05-08T09:41:37Z</time>
      </trkpt>
      <trkpt lat="47.24139" lon="-1.45601">
        <ele>57</ele>
        <time>2022-05-08T09:41:39Z</time>
      </trkpt>
      <trkpt lat="47.24145" lon="-1.45584">
        <ele>57</ele>
        <time>2022-05-08T09:41:41Z</time>
      </trkpt>
      <trkpt lat="47.2415" lon="-1.45567">
        <ele>57</ele>
        <time>2022-05-08T09:41:43Z</time>
      </trkpt>
      <trkpt lat="47.24155" lon="-1.4555">
        <ele>57</ele>
        <time>2022-05-08T09:41:45Z</time>
      </trkpt>
      <trkpt lat="47.24161" lon="-1.45534">
        <ele>56</ele>
        <time>2022-05-08T09:41:47Z</time>
      </trkpt>
      <trkpt lat="47.24166" lon="-1.45517">
        <ele>56</ele>
        <time>2022-05-08T09:41:49Z</time>
      </trkpt>
      <trkpt lat="47.24171" lon="-1.455">
        <ele>57</ele>
        <time>2022-05-08T09:41:51Z</time>
      </trkpt>
      <trkpt lat="47.24175" lon="-1.45484">
        <ele>57</ele>
        <time>2022-05-08T09:41:53Z</time>
      </trkpt>
      <trkpt lat="47.24179" lon="-1.45468">
        <ele>57</ele>
        <time>2022-05-08T09:41:55Z</time>
      </trkpt>
      <trkpt lat="47.24184" lon="-1.45454">
        <ele>58</ele>
        <time>2022-05-08T09:41:57Z</time>
      </trkpt>
      <trkpt lat="47.24189" lon="-1.4544">
        <ele>57</ele>
        <time>2022-05-08T09:41:59Z</time>
      </trkpt>
      <trkpt lat="47.24195" lon="-1.45424">
        <ele>57</ele>
        <time>2022-05-08T09:42:01Z</time>
      </trkpt>
      <trkpt lat="47.24201" lon="-1.45407">
        <ele>56</ele>
        <time>2022-05-08T09:42:03Z</time>
      </trkpt>
      <trkpt lat="47.24207" lon="-1.45389">
        <ele>56</ele>
        <time>2022-05-08T09:42:05Z</time>
      </trkpt>
      <trkpt lat="47.24213" lon="-1.45371">
        <ele>56</ele>
        <time>2022-05-08T09:42:07Z</time>
      </trkpt>
      <trkpt lat="47.24218" lon="-1.45354">
        <ele>56</ele>
        <time>2022-05-08T09:42:09Z</time>
      </trkpt>
      <trkpt lat="47.24223" lon="-1.45338">
        <ele>56</ele>
        <time>2022-05-08T09:42:11Z</time>
      </trkpt>
      <trkpt lat="47.24229" lon="-1.45321">
        <ele>56</ele>
        <time>2022-05-08T09:42:13Z</time>
      </trkpt>
      <trkpt lat="47.24234" lon="-1.45305">
        <ele>56</ele>
        <time>2022-05-08T09:42:15Z</time>
      </trkpt>
      <trkpt lat="47.24239" lon="-1.45288">
        <ele>56</ele>
        <time>2022-05-08T09:42:17Z</time>
      </trkpt>
      <trkpt lat="47.24244" lon="-1.45272">
        <ele>55</ele>
        <time>2022-05-08T09:42:19Z</time>
      </trkpt>
      <trkpt lat="47.24251" lon="-1.45259">
        <ele>55</ele>
        <time>2022-05-08T09:42:21Z</time>
      </trkpt>
      <trkpt lat="47.24258" lon="-1.45244">
        <ele>55</ele>
        <time>2022-05-08T09:42:23Z</time>
      </trkpt>
      <trkpt lat="47.24261" lon="-1.45225">
        <ele>54</ele>
        <time>2022-05-08T09:42:25Z</time>
      </trkpt>
      <trkpt lat="47.24263" lon="-1.45205">
        <ele>54</ele>
        <time>2022-05-08T09:42:27Z</time>
      </trkpt>
      <trkpt lat="47.24264" lon="-1.45187">
        <ele>54</ele>
        <time>2022-05-08T09:42:29Z</time>
      </trkpt>
      <trkpt lat="47.24266" lon="-1.45171">
        <ele>54</ele>
        <time>2022-05-08T09:42:31Z</time>
      </trkpt>
      <trkpt lat="47.24268" lon="-1.45154">
        <ele>54</ele>
        <time>2022-05-08T09:42:33Z</time>
      </trkpt>
      <trkpt lat="47.2427" lon="-1.45137">
        <ele>54</ele>
        <time>2022-05-08T09:42:35Z</time>
      </trkpt>
      <trkpt lat="47.24273" lon="-1.45118">
        <ele>54</ele>
        <time>2022-05-08T09:42:37Z</time>
      </trkpt>
      <trkpt lat="47.24274" lon="-1.45098">
        <ele>54</ele>
        <time>2022-05-08T09:42:39Z</time>
      </trkpt>
      <trkpt lat="47.24274" lon="-1.45078">
        <ele>55</ele>
        <time>2022-05-08T09:42:41Z</time>
      </trkpt>
      <trkpt lat="47.24275" lon="-1.45057">
        <ele>54</ele>
        <time>2022-05-08T09:42:43Z</time>
      </trkpt>
      <trkpt lat="47.24278" lon="-1.45036">
        <ele>54</ele>
        <time>2022-05-08T09:42:45Z</time>
      </trkpt>
      <trkpt lat="47.24279" lon="-1.45015">
        <ele>54</ele>
        <time>2022-05-08T09:42:47Z</time>
      </trkpt>
      <trkpt lat="47.24281" lon="-1.44996">
        <ele>54</ele>
        <time>2022-05-08T09:42:49Z</time>
      </trkpt>
      <trkpt lat="47.24283" lon="-1.44979">
        <ele>54</ele>
        <time>2022-05-08T09:42:51Z</time>
      </trkpt>
      <trkpt lat="47.24285" lon="-1.44961">
        <ele>53</ele>
        <time>2022-05-08T09:42:53Z</time>
      </trkpt>
      <trkpt lat="47.24285" lon="-1.4494">
        <ele>53</ele>
        <time>2022-05-08T09:42:55Z</time>
      </trkpt>
      <trkpt lat="47.24287" lon="-1.4492">
        <ele>54</ele>
        <time>2022-05-08T09:42:57Z</time>
      </trkpt>
      <trkpt lat="47.24288" lon="-1.449">
        <ele>54</ele>
        <time>2022-05-08T09:42:59Z</time>
      </trkpt>
      <trkpt lat="47.2429" lon="-1.44881">
        <ele>54</ele>
        <time>2022-05-08T09:43:01Z</time>
      </trkpt>
      <trkpt lat="47.24291" lon="-1.44861">
        <ele>54</ele>
        <time>2022-05-08T09:43:03Z</time>
      </trkpt>
      <trkpt lat="47.24293" lon="-1.44841">
        <ele>54</ele>
        <time>2022-05-08T09:43:05Z</time>
      </trkpt>
      <trkpt lat="47.24295" lon="-1.44821">
        <ele>54</ele>
        <time>2022-05-08T09:43:07Z</time>
      </trkpt>
      <trkpt lat="47.24296" lon="-1.448">
        <ele>54</ele>
        <time>2022-05-08T09:43:09Z</time>
      </trkpt>
      <trkpt lat="47.24298" lon="-1.4478">
        <ele>54</ele>
        <time>2022-05-08T09:43:11Z</time>
      </trkpt>
      <trkpt lat="47.243" lon="-1.44761">
        <ele>54</ele>
        <time>2022-05-08T09:43:13Z</time>
      </trkpt>
      <trkpt lat="47.24301" lon="-1.44741">
        <ele>54</ele>
        <time>2022-05-08T09:43:15Z</time>
      </trkpt>
      <trkpt lat="47.24303" lon="-1.4472">
        <ele>54</ele>
        <time>2022-05-08T09:43:17Z</time>
      </trkpt>
      <trkpt lat="47.24304" lon="-1.44701">
        <ele>54</ele>
        <time>2022-05-08T09:43:19Z</time>
      </trkpt>
      <trkpt lat="47.24306" lon="-1.44681">
        <ele>54</ele>
        <time>2022-05-08T09:43:21Z</time>
      </trkpt>
      <trkpt lat="47.24307" lon="-1.44662">
        <ele>54</ele>
        <time>2022-05-08T09:43:23Z</time>
      </trkpt>
      <trkpt lat="47.24309" lon="-1.44643">
        <ele>54</ele>
        <time>2022-05-08T09:43:25Z</time>
      </trkpt>
      <trkpt lat="47.24312" lon="-1.44625">
        <ele>54</ele>
        <time>2022-05-08T09:43:27Z</time>
      </trkpt>
      <trkpt lat="47.24315" lon="-1.44606">
        <ele>54</ele>
        <time>2022-05-08T09:43:29Z</time>
      </trkpt>
      <trkpt lat="47.24316" lon="-1.44587">
        <ele>54</ele>
        <time>2022-05-08T09:43:31Z</time>
      </trkpt>
      <trkpt lat="47.24316" lon="-1.44568">
        <ele>54</ele>
        <time>2022-05-08T09:43:33Z</time>
      </trkpt>
      <trkpt lat="47.24317" lon="-1.44548">
        <ele>54</ele>
        <time>2022-05-08T09:43:35Z</time>
      </trkpt>
      <trkpt lat="47.24318" lon="-1.44528">
        <ele>53</ele>
        <time>2022-05-08T09:43:37Z</time>
      </trkpt>
      <trkpt lat="47.2432" lon="-1.4451">
        <ele>53</ele>
        <time>2022-05-08T09:43:39Z</time>
      </trkpt>
      <trkpt lat="47.24321" lon="-1.44492">
        <ele>53</ele>
        <time>2022-05-08T09:43:41Z</time>
      </trkpt>
      <trkpt lat="47.24323" lon="-1.44472">
        <ele>53</ele>
        <time>2022-05-08T09:43:43Z</time>
      </trkpt>
      <trkpt lat="47.24324" lon="-1.44454">
        <ele>53</ele>
        <time>2022-05-08T09:43:45Z</time>
      </trkpt>
      <trkpt lat="47.24325" lon="-1.44435">
        <ele>53</ele>
        <time>2022-05-08T09:43:47Z</time>
      </trkpt>
      <trkpt lat="47.24327" lon="-1.44416">
        <ele>53</ele>
        <time>2022-05-08T09:43:49Z</time>
      </trkpt>
      <trkpt lat="47.24328" lon="-1.44398">
        <ele>53</ele>
        <time>2022-05-08T09:43:51Z</time>
      </trkpt>
      <trkpt lat="47.2433" lon="-1.44378">
        <ele>53</ele>
        <time>2022-05-08T09:43:53Z</time>
      </trkpt>
      <trkpt lat="47.24331" lon="-1.44359">
        <ele>53</ele>
        <time>2022-05-08T09:43:55Z</time>
      </trkpt>
      <trkpt lat="47.24332" lon="-1.4434">
        <ele>53</ele>
        <time>2022-05-08T09:43:57Z</time>
      </trkpt>
      <trkpt lat="47.24334" lon="-1.44321">
        <ele>53</ele>
        <time>2022-05-08T09:43:59Z</time>
      </trkpt>
      <trkpt lat="47.24338" lon="-1.44302">
        <ele>53</ele>
        <time>2022-05-08T09:44:01Z</time>
      </trkpt>
      <trkpt lat="47.24342" lon="-1.44284">
        <ele>53</ele>
        <time>2022-05-08T09:44:03Z</time>
      </trkpt>
      <trkpt lat="47.24342" lon="-1.44265">
        <ele>53</ele>
        <time>2022-05-08T09:44:05Z</time>
      </trkpt>
      <trkpt lat="47.24341" lon="-1.44245">
        <ele>52</ele>
        <time>2022-05-08T09:44:07Z</time>
      </trkpt>
      <trkpt lat="47.24341" lon="-1.44226">
        <ele>53</ele>
        <time>2022-05-08T09:44:09Z</time>
      </trkpt>
      <trkpt lat="47.24344" lon="-1.44207">
        <ele>53</ele>
        <time>2022-05-08T09:44:11Z</time>
      </trkpt>
      <trkpt lat="47.24347" lon="-1.44188">
        <ele>53</ele>
        <time>2022-05-08T09:44:13Z</time>
      </trkpt>
      <trkpt lat="47.24353" lon="-1.4417">
        <ele>53</ele>
        <time>2022-05-08T09:44:15Z</time>
      </trkpt>
      <trkpt lat="47.24359" lon="-1.44152">
        <ele>53</ele>
        <time>2022-05-08T09:44:17Z</time>
      </trkpt>
      <trkpt lat="47.24365" lon="-1.44136">
        <ele>53</ele>
        <time>2022-05-08T09:44:19Z</time>
      </trkpt>
      <trkpt lat="47.24373" lon="-1.44122">
        <ele>53</ele>
        <time>2022-05-08T09:44:21Z</time>
      </trkpt>
      <trkpt lat="47.2438" lon="-1.44106">
        <ele>54</ele>
        <time>2022-05-08T09:44:23Z</time>
      </trkpt>
      <trkpt lat="47.24388" lon="-1.44092">
        <ele>54</ele>
        <time>2022-05-08T09:44:25Z</time>
      </trkpt>
      <trkpt lat="47.24396" lon="-1.44077">
        <ele>54</ele>
        <time>2022-05-08T09:44:27Z</time>
      </trkpt>
      <trkpt lat="47.24403" lon="-1.44062">
        <ele>54</ele>
        <time>2022-05-08T09:44:29Z</time>
      </trkpt>
      <trkpt lat="47.2441" lon="-1.44047">
        <ele>54</ele>
        <time>2022-05-08T09:44:31Z</time>
      </trkpt>
      <trkpt lat="47.24417" lon="-1.44033">
        <ele>54</ele>
        <time>2022-05-08T09:44:33Z</time>
      </trkpt>
      <trkpt lat="47.24424" lon="-1.44018">
        <ele>54</ele>
        <time>2022-05-08T09:44:35Z</time>
      </trkpt>
      <trkpt lat="47.24432" lon="-1.44004">
        <ele>54</ele>
        <time>2022-05-08T09:44:37Z</time>
      </trkpt>
      <trkpt lat="47.24442" lon="-1.43992">
        <ele>54</ele>
        <time>2022-05-08T09:44:39Z</time>
      </trkpt>
      <trkpt lat="47.24449" lon="-1.43978">
        <ele>54</ele>
        <time>2022-05-08T09:44:41Z</time>
      </trkpt>
      <trkpt lat="47.24455" lon="-1.43962">
        <ele>54</ele>
        <time>2022-05-08T09:44:43Z</time>
      </trkpt>
      <trkpt lat="47.2446" lon="-1.43946">
        <ele>54</ele>
        <time>2022-05-08T09:44:45Z</time>
      </trkpt>
      <trkpt lat="47.24467" lon="-1.4393">
        <ele>54</ele>
        <time>2022-05-08T09:44:47Z</time>
      </trkpt>
      <trkpt lat="47.24474" lon="-1.43914">
        <ele>53</ele>
        <time>2022-05-08T09:44:49Z</time>
      </trkpt>
      <trkpt lat="47.24481" lon="-1.43897">
        <ele>53</ele>
        <time>2022-05-08T09:44:51Z</time>
      </trkpt>
      <trkpt lat="47.24487" lon="-1.4388">
        <ele>53</ele>
        <time>2022-05-08T09:44:53Z</time>
      </trkpt>
      <trkpt lat="47.24492" lon="-1.43863">
        <ele>53</ele>
        <time>2022-05-08T09:44:55Z</time>
      </trkpt>
      <trkpt lat="47.24497" lon="-1.43846">
        <ele>53</ele>
        <time>2022-05-08T09:44:57Z</time>
      </trkpt>
      <trkpt lat="47.24502" lon="-1.43829">
        <ele>53</ele>
        <time>2022-05-08T09:44:59Z</time>
      </trkpt>
      <trkpt lat="47.24507" lon="-1.43812">
        <ele>53</ele>
        <time>2022-05-08T09:45:01Z</time>
      </trkpt>
      <trkpt lat="47.24512" lon="-1.43795">
        <ele>53</ele>
        <time>2022-05-08T09:45:03Z</time>
      </trkpt>
      <trkpt lat="47.24517" lon="-1.43779">
        <ele>53</ele>
        <time>2022-05-08T09:45:05Z</time>
      </trkpt>
      <trkpt lat="47.24522" lon="-1.43762">
        <ele>54</ele>
        <time>2022-05-08T09:45:07Z</time>
      </trkpt>
      <trkpt lat="47.24527" lon="-1.43745">
        <ele>54</ele>
        <time>2022-05-08T09:45:09Z</time>
      </trkpt>
      <trkpt lat="47.24532" lon="-1.43728">
        <ele>54</ele>
        <time>2022-05-08T09:45:11Z</time>
      </trkpt>
      <trkpt lat="47.24539" lon="-1.43712">
        <ele>54</ele>
        <time>2022-05-08T09:45:13Z</time>
      </trkpt>
      <trkpt lat="47.24548" lon="-1.437">
        <ele>54</ele>
        <time>2022-05-08T09:45:15Z</time>
      </trkpt>
      <trkpt lat="47.2456" lon="-1.43691">
        <ele>54</ele>
        <time>2022-05-08T09:45:17Z</time>
      </trkpt>
      <trkpt lat="47.24571" lon="-1.43681">
        <ele>54</ele>
        <time>2022-05-08T09:45:19Z</time>
      </trkpt>
      <trkpt lat="47.24581" lon="-1.43669">
        <ele>54</ele>
        <time>2022-05-08T09:45:21Z</time>
      </trkpt>
      <trkpt lat="47.2459" lon="-1.43656">
        <ele>54</ele>
        <time>2022-05-08T09:45:23Z</time>
      </trkpt>
      <trkpt lat="47.24599" lon="-1.43643">
        <ele>55</ele>
        <time>2022-05-08T09:45:25Z</time>
      </trkpt>
      <trkpt lat="47.24609" lon="-1.43632">
        <ele>55</ele>
        <time>2022-05-08T09:45:27Z</time>
      </trkpt>
      <trkpt lat="47.2462" lon="-1.43623">
        <ele>55</ele>
        <time>2022-05-08T09:45:29Z</time>
      </trkpt>
      <trkpt lat="47.24632" lon="-1.43614">
        <ele>56</ele>
        <time>2022-05-08T09:45:31Z</time>
      </trkpt>
      <trkpt lat="47.24642" lon="-1.43603">
        <ele>56</ele>
        <time>2022-05-08T09:45:33Z</time>
      </trkpt>
      <trkpt lat="47.24653" lon="-1.43592">
        <ele>56</ele>
        <time>2022-05-08T09:45:35Z</time>
      </trkpt>
      <trkpt lat="47.24663" lon="-1.43582">
        <ele>56</ele>
        <time>2022-05-08T09:45:37Z</time>
      </trkpt>
      <trkpt lat="47.24674" lon="-1.43573">
        <ele>56</ele>
        <time>2022-05-08T09:45:39Z</time>
      </trkpt>
      <trkpt lat="47.24684" lon="-1.43562">
        <ele>55</ele>
        <time>2022-05-08T09:45:41Z</time>
      </trkpt>
      <trkpt lat="47.24691" lon="-1.43545">
        <ele>55</ele>
        <time>2022-05-08T09:45:43Z</time>
      </trkpt>
      <trkpt lat="47.24697" lon="-1.43528">
        <ele>55</ele>
        <time>2022-05-08T09:45:45Z</time>
      </trkpt>
      <trkpt lat="47.24701" lon="-1.4351">
        <ele>55</ele>
        <time>2022-05-08T09:45:47Z</time>
      </trkpt>
      <trkpt lat="47.24707" lon="-1.43493">
        <ele>55</ele>
        <time>2022-05-08T09:45:49Z</time>
      </trkpt>
      <trkpt lat="47.24714" lon="-1.43477">
        <ele>55</ele>
        <time>2022-05-08T09:45:51Z</time>
      </trkpt>
      <trkpt lat="47.24721" lon="-1.43462">
        <ele>55</ele>
        <time>2022-05-08T09:45:53Z</time>
      </trkpt>
      <trkpt lat="47.24729" lon="-1.43448">
        <ele>56</ele>
        <time>2022-05-08T09:45:55Z</time>
      </trkpt>
      <trkpt lat="47.24737" lon="-1.43435">
        <ele>56</ele>
        <time>2022-05-08T09:45:57Z</time>
      </trkpt>
      <trkpt lat="47.24746" lon="-1.43421">
        <ele>56</ele>
        <time>2022-05-08T09:45:59Z</time>
      </trkpt>
      <trkpt lat="47.24755" lon="-1.43408">
        <ele>56</ele>
        <time>2022-05-08T09:46:01Z</time>
      </trkpt>
      <trkpt lat="47.24765" lon="-1.43396">
        <ele>56</ele>
        <time>2022-05-08T09:46:03Z</time>
      </trkpt>
      <trkpt lat="47.24775" lon="-1.43384">
        <ele>56</ele>
        <time>2022-05-08T09:46:05Z</time>
      </trkpt>
      <trkpt lat="47.24784" lon="-1.43374">
        <ele>57</ele>
        <time>2022-05-08T09:46:07Z</time>
      </trkpt>
      <trkpt lat="47.24793" lon="-1.43365">
        <ele>58</ele>
        <time>2022-05-08T09:46:09Z</time>
      </trkpt>
      <trkpt lat="47.24802" lon="-1.43357">
        <ele>58</ele>
        <time>2022-05-08T09:46:11Z</time>
      </trkpt>
      <trkpt lat="47.24813" lon="-1.43351">
        <ele>58</ele>
        <time>2022-05-08T09:46:13Z</time>
      </trkpt>
      <trkpt lat="47.24824" lon="-1.43344">
        <ele>58</ele>
        <time>2022-05-08T09:46:15Z</time>
      </trkpt>
      <trkpt lat="47.24834" lon="-1.43336">
        <ele>59</ele>
        <time>2022-05-08T09:46:17Z</time>
      </trkpt>
      <trkpt lat="47.24845" lon="-1.43329">
        <ele>59</ele>
        <time>2022-05-08T09:46:19Z</time>
      </trkpt>
      <trkpt lat="47.24856" lon="-1.43321">
        <ele>59</ele>
        <time>2022-05-08T09:46:21Z</time>
      </trkpt>
      <trkpt lat="47.24867" lon="-1.43314">
        <ele>59</ele>
        <time>2022-05-08T09:46:23Z</time>
      </trkpt>
      <trkpt lat="47.24878" lon="-1.43306">
        <ele>59</ele>
        <time>2022-05-08T09:46:25Z</time>
      </trkpt>
      <trkpt lat="47.24889" lon="-1.43299">
        <ele>59</ele>
        <time>2022-05-08T09:46:27Z</time>
      </trkpt>
      <trkpt lat="47.249" lon="-1.43292">
        <ele>59</ele>
        <time>2022-05-08T09:46:29Z</time>
      </trkpt>
      <trkpt lat="47.24911" lon="-1.43284">
        <ele>59</ele>
        <time>2022-05-08T09:46:31Z</time>
      </trkpt>
      <trkpt lat="47.24924" lon="-1.43276">
        <ele>58</ele>
        <time>2022-05-08T09:46:33Z</time>
      </trkpt>
      <trkpt lat="47.24936" lon="-1.43267">
        <ele>58</ele>
        <time>2022-05-08T09:46:35Z</time>
      </trkpt>
      <trkpt lat="47.24949" lon="-1.43259">
        <ele>57</ele>
        <time>2022-05-08T09:46:37Z</time>
      </trkpt>
      <trkpt lat="47.24961" lon="-1.43251">
        <ele>57</ele>
        <time>2022-05-08T09:46:39Z</time>
      </trkpt>
      <trkpt lat="47.24973" lon="-1.43244">
        <ele>58</ele>
        <time>2022-05-08T09:46:41Z</time>
      </trkpt>
      <trkpt lat="47.24985" lon="-1.43238">
        <ele>58</ele>
        <time>2022-05-08T09:46:43Z</time>
      </trkpt>
      <trkpt lat="47.24996" lon="-1.4323">
        <ele>58</ele>
        <time>2022-05-08T09:46:45Z</time>
      </trkpt>
      <trkpt lat="47.25007" lon="-1.43221">
        <ele>58</ele>
        <time>2022-05-08T09:46:47Z</time>
      </trkpt>
      <trkpt lat="47.25018" lon="-1.43212">
        <ele>58</ele>
        <time>2022-05-08T09:46:49Z</time>
      </trkpt>
      <trkpt lat="47.25029" lon="-1.43204">
        <ele>58</ele>
        <time>2022-05-08T09:46:51Z</time>
      </trkpt>
      <trkpt lat="47.25039" lon="-1.43194">
        <ele>58</ele>
        <time>2022-05-08T09:46:53Z</time>
      </trkpt>
      <trkpt lat="47.2505" lon="-1.43185">
        <ele>58</ele>
        <time>2022-05-08T09:46:55Z</time>
      </trkpt>
      <trkpt lat="47.2506" lon="-1.43174">
        <ele>57</ele>
        <time>2022-05-08T09:46:57Z</time>
      </trkpt>
      <trkpt lat="47.2507" lon="-1.43161">
        <ele>57</ele>
        <time>2022-05-08T09:46:59Z</time>
      </trkpt>
      <trkpt lat="47.25079" lon="-1.43149">
        <ele>58</ele>
        <time>2022-05-08T09:47:01Z</time>
      </trkpt>
      <trkpt lat="47.25088" lon="-1.43138">
        <ele>58</ele>
        <time>2022-05-08T09:47:03Z</time>
      </trkpt>
      <trkpt lat="47.25098" lon="-1.43125">
        <ele>58</ele>
        <time>2022-05-08T09:47:05Z</time>
      </trkpt>
      <trkpt lat="47.25108" lon="-1.43112">
        <ele>58</ele>
        <time>2022-05-08T09:47:07Z</time>
      </trkpt>
      <trkpt lat="47.25117" lon="-1.43101">
        <ele>58</ele>
        <time>2022-05-08T09:47:09Z</time>
      </trkpt>
      <trkpt lat="47.25127" lon="-1.43089">
        <ele>58</ele>
        <time>2022-05-08T09:47:11Z</time>
      </trkpt>
      <trkpt lat="47.25137" lon="-1.43077">
        <ele>58</ele>
        <time>2022-05-08T09:47:13Z</time>
      </trkpt>
      <trkpt lat="47.25146" lon="-1.43065">
        <ele>58</ele>
        <time>2022-05-08T09:47:15Z</time>
      </trkpt>
      <trkpt lat="47.25155" lon="-1.43055">
        <ele>58</ele>
        <time>2022-05-08T09:47:17Z</time>
      </trkpt>
      <trkpt lat="47.25165" lon="-1.43045">
        <ele>58</ele>
        <time>2022-05-08T09:47:19Z</time>
      </trkpt>
      <trkpt lat="47.25176" lon="-1.43032">
        <ele>58</ele>
        <time>2022-05-08T09:47:21Z</time>
      </trkpt>
      <trkpt lat="47.25186" lon="-1.4302">
        <ele>57</ele>
        <time>2022-05-08T09:47:23Z</time>
      </trkpt>
      <trkpt lat="47.25196" lon="-1.43007">
        <ele>57</ele>
        <time>2022-05-08T09:47:25Z</time>
      </trkpt>
      <trkpt lat="47.25206" lon="-1.42996">
        <ele>57</ele>
        <time>2022-05-08T09:47:27Z</time>
      </trkpt>
      <trkpt lat="47.25217" lon="-1.42986">
        <ele>57</ele>
        <time>2022-05-08T09:47:29Z</time>
      </trkpt>
      <trkpt lat="47.25229" lon="-1.42978">
        <ele>57</ele>
        <time>2022-05-08T09:47:31Z</time>
      </trkpt>
      <trkpt lat="47.2524" lon="-1.4297">
        <ele>57</ele>
        <time>2022-05-08T09:47:33Z</time>
      </trkpt>
      <trkpt lat="47.25252" lon="-1.42963">
        <ele>57</ele>
        <time>2022-05-08T09:47:35Z</time>
      </trkpt>
      <trkpt lat="47.25263" lon="-1.42956">
        <ele>58</ele>
        <time>2022-05-08T09:47:37Z</time>
      </trkpt>
      <trkpt lat="47.25275" lon="-1.42949">
        <ele>58</ele>
        <time>2022-05-08T09:47:39Z</time>
      </trkpt>
      <trkpt lat="47.25286" lon="-1.42943">
        <ele>58</ele>
        <time>2022-05-08T09:47:41Z</time>
      </trkpt>
      <trkpt lat="47.25297" lon="-1.42937">
        <ele>57</ele>
        <time>2022-05-08T09:47:43Z</time>
      </trkpt>
      <trkpt lat="47.25309" lon="-1.4293">
        <ele>57</ele>
        <time>2022-05-08T09:47:45Z</time>
      </trkpt>
      <trkpt lat="47.2532" lon="-1.42923">
        <ele>57</ele>
        <time>2022-05-08T09:47:47Z</time>
      </trkpt>
      <trkpt lat="47.25331" lon="-1.42917">
        <ele>58</ele>
        <time>2022-05-08T09:47:49Z</time>
      </trkpt>
      <trkpt lat="47.25342" lon="-1.42911">
        <ele>58</ele>
        <time>2022-05-08T09:47:51Z</time>
      </trkpt>
      <trkpt lat="47.25354" lon="-1.42905">
        <ele>58</ele>
        <time>2022-05-08T09:47:53Z</time>
      </trkpt>
      <trkpt lat="47.25366" lon="-1.42898">
        <ele>57</ele>
        <time>2022-05-08T09:47:55Z</time>
      </trkpt>
      <trkpt lat="47.25377" lon="-1.4289">
        <ele>57</ele>
        <time>2022-05-08T09:47:57Z</time>
      </trkpt>
      <trkpt lat="47.25388" lon="-1.42883">
        <ele>57</ele>
        <time>2022-05-08T09:47:59Z</time>
      </trkpt>
      <trkpt lat="47.25399" lon="-1.42875">
        <ele>57</ele>
        <time>2022-05-08T09:48:01Z</time>
      </trkpt>
      <trkpt lat="47.25409" lon="-1.42868">
        <ele>57</ele>
        <time>2022-05-08T09:48:03Z</time>
      </trkpt>
      <trkpt lat="47.2542" lon="-1.42861">
        <ele>57</ele>
        <time>2022-05-08T09:48:05Z</time>
      </trkpt>
      <trkpt lat="47.25431" lon="-1.42853">
        <ele>57</ele>
        <time>2022-05-08T09:48:07Z</time>
      </trkpt>
      <trkpt lat="47.25442" lon="-1.42846">
        <ele>57</ele>
        <time>2022-05-08T09:48:09Z</time>
      </trkpt>
      <trkpt lat="47.25453" lon="-1.42838">
        <ele>57</ele>
        <time>2022-05-08T09:48:11Z</time>
      </trkpt>
      <trkpt lat="47.25464" lon="-1.42831">
        <ele>57</ele>
        <time>2022-05-08T09:48:13Z</time>
      </trkpt>
      <trkpt lat="47.25475" lon="-1.42822">
        <ele>56</ele>
        <time>2022-05-08T09:48:15Z</time>
      </trkpt>
      <trkpt lat="47.25486" lon="-1.42814">
        <ele>56</ele>
        <time>2022-05-08T09:48:17Z</time>
      </trkpt>
      <trkpt lat="47.25496" lon="-1.42805">
        <ele>56</ele>
        <time>2022-05-08T09:48:19Z</time>
      </trkpt>
      <trkpt lat="47.25507" lon="-1.42796">
        <ele>56</ele>
        <time>2022-05-08T09:48:21Z</time>
      </trkpt>
      <trkpt lat="47.25518" lon="-1.42788">
        <ele>56</ele>
        <time>2022-05-08T09:48:23Z</time>
      </trkpt>
      <trkpt lat="47.25528" lon="-1.42779">
        <ele>56</ele>
        <time>2022-05-08T09:48:25Z</time>
      </trkpt>
      <trkpt lat="47.25538" lon="-1.42771">
        <ele>56</ele>
        <time>2022-05-08T09:48:27Z</time>
      </trkpt>
      <trkpt lat="47.25548" lon="-1.42762">
        <ele>57</ele>
        <time>2022-05-08T09:48:29Z</time>
      </trkpt>
      <trkpt lat="47.25558" lon="-1.42754">
        <ele>57</ele>
        <time>2022-05-08T09:48:31Z</time>
      </trkpt>
      <trkpt lat="47.25569" lon="-1.42745">
        <ele>57</ele>
        <time>2022-05-08T09:48:33Z</time>
      </trkpt>
      <trkpt lat="47.2558" lon="-1.42738">
        <ele>57</ele>
        <time>2022-05-08T09:48:35Z</time>
      </trkpt>
      <trkpt lat="47.2559" lon="-1.42729">
        <ele>58</ele>
        <time>2022-05-08T09:48:37Z</time>
      </trkpt>
      <trkpt lat="47.256" lon="-1.4272">
        <ele>57</ele>
        <time>2022-05-08T09:48:39Z</time>
      </trkpt>
      <trkpt lat="47.25611" lon="-1.42711">
        <ele>58</ele>
        <time>2022-05-08T09:48:41Z</time>
      </trkpt>
      <trkpt lat="47.25621" lon="-1.42703">
        <ele>58</ele>
        <time>2022-05-08T09:48:43Z</time>
      </trkpt>
      <trkpt lat="47.25632" lon="-1.42695">
        <ele>57</ele>
        <time>2022-05-08T09:48:45Z</time>
      </trkpt>
      <trkpt lat="47.25643" lon="-1.42686">
        <ele>57</ele>
        <time>2022-05-08T09:48:47Z</time>
      </trkpt>
      <trkpt lat="47.25654" lon="-1.42677">
        <ele>57</ele>
        <time>2022-05-08T09:48:49Z</time>
      </trkpt>
      <trkpt lat="47.25663" lon="-1.42668">
        <ele>58</ele>
        <time>2022-05-08T09:48:51Z</time>
      </trkpt>
      <trkpt lat="47.25671" lon="-1.42659">
        <ele>59</ele>
        <time>2022-05-08T09:48:53Z</time>
      </trkpt>
      <trkpt lat="47.25679" lon="-1.42652">
        <ele>59</ele>
        <time>2022-05-08T09:48:55Z</time>
      </trkpt>
      <trkpt lat="47.25689" lon="-1.42645">
        <ele>59</ele>
        <time>2022-05-08T09:48:57Z</time>
      </trkpt>
      <trkpt lat="47.257" lon="-1.42643">
        <ele>59</ele>
        <time>2022-05-08T09:48:59Z</time>
      </trkpt>
      <trkpt lat="47.25712" lon="-1.42643">
        <ele>58</ele>
        <time>2022-05-08T09:49:01Z</time>
      </trkpt>
      <trkpt lat="47.25726" lon="-1.42643">
        <ele>57</ele>
        <time>2022-05-08T09:49:03Z</time>
      </trkpt>
      <trkpt lat="47.25738" lon="-1.42639">
        <ele>57</ele>
        <time>2022-05-08T09:49:05Z</time>
      </trkpt>
      <trkpt lat="47.25745" lon="-1.42629">
        <ele>58</ele>
        <time>2022-05-08T09:49:07Z</time>
      </trkpt>
      <trkpt lat="47.25752" lon="-1.42612">
        <ele>59</ele>
        <time>2022-05-08T09:49:09Z</time>
      </trkpt>
      <trkpt lat="47.25759" lon="-1.42599">
        <ele>60</ele>
        <time>2022-05-08T09:49:11Z</time>
      </trkpt>
      <trkpt lat="47.25768" lon="-1.42585">
        <ele>58</ele>
        <time>2022-05-08T09:49:13Z</time>
      </trkpt>
      <trkpt lat="47.2578" lon="-1.42573">
        <ele>58</ele>
        <time>2022-05-08T09:49:15Z</time>
      </trkpt>
      <trkpt lat="47.25792" lon="-1.42564">
        <ele>58</ele>
        <time>2022-05-08T09:49:17Z</time>
      </trkpt>
      <trkpt lat="47.25804" lon="-1.42555">
        <ele>59</ele>
        <time>2022-05-08T09:49:19Z</time>
      </trkpt>
      <trkpt lat="47.25815" lon="-1.42545">
        <ele>59</ele>
        <time>2022-05-08T09:49:21Z</time>
      </trkpt>
      <trkpt lat="47.25826" lon="-1.42536">
        <ele>59</ele>
        <time>2022-05-08T09:49:23Z</time>
      </trkpt>
      <trkpt lat="47.25837" lon="-1.42527">
        <ele>59</ele>
        <time>2022-05-08T09:49:25Z</time>
      </trkpt>
      <trkpt lat="47.25848" lon="-1.42518">
        <ele>58</ele>
        <time>2022-05-08T09:49:27Z</time>
      </trkpt>
      <trkpt lat="47.25859" lon="-1.4251">
        <ele>58</ele>
        <time>2022-05-08T09:49:29Z</time>
      </trkpt>
      <trkpt lat="47.25871" lon="-1.42502">
        <ele>58</ele>
        <time>2022-05-08T09:49:31Z</time>
      </trkpt>
      <trkpt lat="47.25884" lon="-1.42494">
        <ele>58</ele>
        <time>2022-05-08T09:49:33Z</time>
      </trkpt>
      <trkpt lat="47.25895" lon="-1.42483">
        <ele>58</ele>
        <time>2022-05-08T09:49:35Z</time>
      </trkpt>
      <trkpt lat="47.25905" lon="-1.42471">
        <ele>58</ele>
        <time>2022-05-08T09:49:37Z</time>
      </trkpt>
      <trkpt lat="47.25915" lon="-1.42457">
        <ele>58</ele>
        <time>2022-05-08T09:49:39Z</time>
      </trkpt>
      <trkpt lat="47.25925" lon="-1.42444">
        <ele>58</ele>
        <time>2022-05-08T09:49:41Z</time>
      </trkpt>
      <trkpt lat="47.25935" lon="-1.42431">
        <ele>58</ele>
        <time>2022-05-08T09:49:43Z</time>
      </trkpt>
      <trkpt lat="47.25945" lon="-1.42418">
        <ele>57</ele>
        <time>2022-05-08T09:49:45Z</time>
      </trkpt>
      <trkpt lat="47.25955" lon="-1.42405">
        <ele>58</ele>
        <time>2022-05-08T09:49:47Z</time>
      </trkpt>
      <trkpt lat="47.25965" lon="-1.42393">
        <ele>57</ele>
        <time>2022-05-08T09:49:49Z</time>
      </trkpt>
      <trkpt lat="47.25975" lon="-1.42382">
        <ele>57</ele>
        <time>2022-05-08T09:49:51Z</time>
      </trkpt>
      <trkpt lat="47.25986" lon="-1.4237">
        <ele>56</ele>
        <time>2022-05-08T09:49:53Z</time>
      </trkpt>
      <trkpt lat="47.25996" lon="-1.42357">
        <ele>56</ele>
        <time>2022-05-08T09:49:55Z</time>
      </trkpt>
      <trkpt lat="47.26006" lon="-1.42345">
        <ele>56</ele>
        <time>2022-05-08T09:49:57Z</time>
      </trkpt>
      <trkpt lat="47.26015" lon="-1.42332">
        <ele>56</ele>
        <time>2022-05-08T09:49:59Z</time>
      </trkpt>
      <trkpt lat="47.26024" lon="-1.42318">
        <ele>56</ele>
        <time>2022-05-08T09:50:01Z</time>
      </trkpt>
      <trkpt lat="47.26034" lon="-1.42305">
        <ele>56</ele>
        <time>2022-05-08T09:50:03Z</time>
      </trkpt>
      <trkpt lat="47.26043" lon="-1.42292">
        <ele>56</ele>
        <time>2022-05-08T09:50:05Z</time>
      </trkpt>
      <trkpt lat="47.26053" lon="-1.4228">
        <ele>56</ele>
        <time>2022-05-08T09:50:07Z</time>
      </trkpt>
      <trkpt lat="47.26063" lon="-1.42268">
        <ele>56</ele>
        <time>2022-05-08T09:50:09Z</time>
      </trkpt>
      <trkpt lat="47.26072" lon="-1.42255">
        <ele>56</ele>
        <time>2022-05-08T09:50:11Z</time>
      </trkpt>
      <trkpt lat="47.26082" lon="-1.42243">
        <ele>56</ele>
        <time>2022-05-08T09:50:13Z</time>
      </trkpt>
      <trkpt lat="47.26091" lon="-1.42231">
        <ele>56</ele>
        <time>2022-05-08T09:50:15Z</time>
      </trkpt>
      <trkpt lat="47.261" lon="-1.4222">
        <ele>56</ele>
        <time>2022-05-08T09:50:17Z</time>
      </trkpt>
      <trkpt lat="47.2611" lon="-1.42208">
        <ele>56</ele>
        <time>2022-05-08T09:50:19Z</time>
      </trkpt>
      <trkpt lat="47.26119" lon="-1.42195">
        <ele>56</ele>
        <time>2022-05-08T09:50:21Z</time>
      </trkpt>
      <trkpt lat="47.26128" lon="-1.42183">
        <ele>56</ele>
        <time>2022-05-08T09:50:23Z</time>
      </trkpt>
      <trkpt lat="47.26137" lon="-1.4217">
        <ele>56</ele>
        <time>2022-05-08T09:50:25Z</time>
      </trkpt>
      <trkpt lat="47.26144" lon="-1.42157">
        <ele>56</ele>
        <time>2022-05-08T09:50:27Z</time>
      </trkpt>
      <trkpt lat="47.26151" lon="-1.42144">
        <ele>57</ele>
        <time>2022-05-08T09:50:29Z</time>
      </trkpt>
      <trkpt lat="47.26157" lon="-1.42131">
        <ele>58</ele>
        <time>2022-05-08T09:50:31Z</time>
      </trkpt>
      <trkpt lat="47.26163" lon="-1.42119">
        <ele>59</ele>
        <time>2022-05-08T09:50:33Z</time>
      </trkpt>
      <trkpt lat="47.26172" lon="-1.42107">
        <ele>58</ele>
        <time>2022-05-08T09:50:35Z</time>
      </trkpt>
      <trkpt lat="47.2618" lon="-1.42093">
        <ele>58</ele>
        <time>2022-05-08T09:50:37Z</time>
      </trkpt>
      <trkpt lat="47.26189" lon="-1.42078">
        <ele>58</ele>
        <time>2022-05-08T09:50:39Z</time>
      </trkpt>
      <trkpt lat="47.26201" lon="-1.42071">
        <ele>57</ele>
        <time>2022-05-08T09:50:41Z</time>
      </trkpt>
      <trkpt lat="47.2621" lon="-1.42059">
        <ele>56</ele>
        <time>2022-05-08T09:50:43Z</time>
      </trkpt>
      <trkpt lat="47.26217" lon="-1.4204">
        <ele>56</ele>
        <time>2022-05-08T09:50:45Z</time>
      </trkpt>
      <trkpt lat="47.26224" lon="-1.42024">
        <ele>56</ele>
        <time>2022-05-08T09:50:47Z</time>
      </trkpt>
      <trkpt lat="47.26231" lon="-1.42008">
        <ele>56</ele>
        <time>2022-05-08T09:50:49Z</time>
      </trkpt>
      <trkpt lat="47.2624" lon="-1.41993">
        <ele>55</ele>
        <time>2022-05-08T09:50:51Z</time>
      </trkpt>
      <trkpt lat="47.26248" lon="-1.41978">
        <ele>55</ele>
        <time>2022-05-08T09:50:53Z</time>
      </trkpt>
      <trkpt lat="47.26257" lon="-1.41963">
        <ele>55</ele>
        <time>2022-05-08T09:50:55Z</time>
      </trkpt>
      <trkpt lat="47.26266" lon="-1.41949">
        <ele>55</ele>
        <time>2022-05-08T09:50:57Z</time>
      </trkpt>
      <trkpt lat="47.26274" lon="-1.41935">
        <ele>55</ele>
        <time>2022-05-08T09:50:59Z</time>
      </trkpt>
      <trkpt lat="47.26283" lon="-1.41921">
        <ele>55</ele>
        <time>2022-05-08T09:51:01Z</time>
      </trkpt>
      <trkpt lat="47.2629" lon="-1.41907">
        <ele>55</ele>
        <time>2022-05-08T09:51:03Z</time>
      </trkpt>
      <trkpt lat="47.26298" lon="-1.41893">
        <ele>56</ele>
        <time>2022-05-08T09:51:05Z</time>
      </trkpt>
      <trkpt lat="47.26306" lon="-1.41879">
        <ele>56</ele>
        <time>2022-05-08T09:51:07Z</time>
      </trkpt>
      <trkpt lat="47.26315" lon="-1.41865">
        <ele>56</ele>
        <time>2022-05-08T09:51:09Z</time>
      </trkpt>
      <trkpt lat="47.26323" lon="-1.41851">
        <ele>56</ele>
        <time>2022-05-08T09:51:11Z</time>
      </trkpt>
      <trkpt lat="47.26331" lon="-1.41837">
        <ele>56</ele>
        <time>2022-05-08T09:51:13Z</time>
      </trkpt>
      <trkpt lat="47.26339" lon="-1.41823">
        <ele>56</ele>
        <time>2022-05-08T09:51:15Z</time>
      </trkpt>
      <trkpt lat="47.26347" lon="-1.41809">
        <ele>57</ele>
        <time>2022-05-08T09:51:17Z</time>
      </trkpt>
      <trkpt lat="47.26356" lon="-1.41794">
        <ele>56</ele>
        <time>2022-05-08T09:51:19Z</time>
      </trkpt>
      <trkpt lat="47.26364" lon="-1.4178">
        <ele>56</ele>
        <time>2022-05-08T09:51:21Z</time>
      </trkpt>
      <trkpt lat="47.26372" lon="-1.41766">
        <ele>56</ele>
        <time>2022-05-08T09:51:23Z</time>
      </trkpt>
      <trkpt lat="47.2638" lon="-1.41753">
        <ele>56</ele>
        <time>2022-05-08T09:51:25Z</time>
      </trkpt>
      <trkpt lat="47.26388" lon="-1.41739">
        <ele>55</ele>
        <time>2022-05-08T09:51:27Z</time>
      </trkpt>
      <trkpt lat="47.26396" lon="-1.41725">
        <ele>55</ele>
        <time>2022-05-08T09:51:29Z</time>
      </trkpt>
      <trkpt lat="47.26404" lon="-1.41711">
        <ele>55</ele>
        <time>2022-05-08T09:51:31Z</time>
      </trkpt>
      <trkpt lat="47.26412" lon="-1.41697">
        <ele>55</ele>
        <time>2022-05-08T09:51:33Z</time>
      </trkpt>
      <trkpt lat="47.2642" lon="-1.41684">
        <ele>55</ele>
        <time>2022-05-08T09:51:35Z</time>
      </trkpt>
      <trkpt lat="47.26428" lon="-1.4167">
        <ele>56</ele>
        <time>2022-05-08T09:51:37Z</time>
      </trkpt>
      <trkpt lat="47.26437" lon="-1.41656">
        <ele>55</ele>
        <time>2022-05-08T09:51:39Z</time>
      </trkpt>
      <trkpt lat="47.26445" lon="-1.41642">
        <ele>55</ele>
        <time>2022-05-08T09:51:41Z</time>
      </trkpt>
      <trkpt lat="47.26454" lon="-1.41627">
        <ele>55</ele>
        <time>2022-05-08T09:51:43Z</time>
      </trkpt>
      <trkpt lat="47.26462" lon="-1.41612">
        <ele>56</ele>
        <time>2022-05-08T09:51:45Z</time>
      </trkpt>
      <trkpt lat="47.2647" lon="-1.41597">
        <ele>56</ele>
        <time>2022-05-08T09:51:47Z</time>
      </trkpt>
      <trkpt lat="47.26478" lon="-1.41583">
        <ele>56</ele>
        <time>2022-05-08T09:51:49Z</time>
      </trkpt>
      <trkpt lat="47.26485" lon="-1.4157">
        <ele>57</ele>
        <time>2022-05-08T09:51:51Z</time>
      </trkpt>
      <trkpt lat="47.26493" lon="-1.41556">
        <ele>57</ele>
        <time>2022-05-08T09:51:53Z</time>
      </trkpt>
      <trkpt lat="47.26501" lon="-1.41543">
        <ele>57</ele>
        <time>2022-05-08T09:51:55Z</time>
      </trkpt>
      <trkpt lat="47.26509" lon="-1.41529">
        <ele>57</ele>
        <time>2022-05-08T09:51:57Z</time>
      </trkpt>
      <trkpt lat="47.26517" lon="-1.41515">
        <ele>57</ele>
        <time>2022-05-08T09:51:59Z</time>
      </trkpt>
      <trkpt lat="47.26525" lon="-1.41502">
        <ele>57</ele>
        <time>2022-05-08T09:52:01Z</time>
      </trkpt>
      <trkpt lat="47.26533" lon="-1.41489">
        <ele>57</ele>
        <time>2022-05-08T09:52:03Z</time>
      </trkpt>
      <trkpt lat="47.26542" lon="-1.41478">
        <ele>57</ele>
        <time>2022-05-08T09:52:05Z</time>
      </trkpt>
      <trkpt lat="47.26551" lon="-1.41465">
        <ele>57</ele>
        <time>2022-05-08T09:52:07Z</time>
      </trkpt>
      <trkpt lat="47.26559" lon="-1.41451">
        <ele>57</ele>
        <time>2022-05-08T09:52:09Z</time>
      </trkpt>
      <trkpt lat="47.26565" lon="-1.41435">
        <ele>57</ele>
        <time>2022-05-08T09:52:11Z</time>
      </trkpt>
      <trkpt lat="47.26572" lon="-1.4142">
        <ele>57</ele>
        <time>2022-05-08T09:52:13Z</time>
      </trkpt>
      <trkpt lat="47.26579" lon="-1.41405">
        <ele>57</ele>
        <time>2022-05-08T09:52:15Z</time>
      </trkpt>
      <trkpt lat="47.26585" lon="-1.4139">
        <ele>57</ele>
        <time>2022-05-08T09:52:17Z</time>
      </trkpt>
      <trkpt lat="47.26591" lon="-1.41374">
        <ele>57</ele>
        <time>2022-05-08T09:52:19Z</time>
      </trkpt>
      <trkpt lat="47.26597" lon="-1.41358">
        <ele>57</ele>
        <time>2022-05-08T09:52:21Z</time>
      </trkpt>
      <trkpt lat="47.26603" lon="-1.41343">
        <ele>57</ele>
        <time>2022-05-08T09:52:23Z</time>
      </trkpt>
      <trkpt lat="47.2661" lon="-1.41328">
        <ele>57</ele>
        <time>2022-05-08T09:52:25Z</time>
      </trkpt>
      <trkpt lat="47.26618" lon="-1.41315">
        <ele>57</ele>
        <time>2022-05-08T09:52:27Z</time>
      </trkpt>
      <trkpt lat="47.26625" lon="-1.41303">
        <ele>57</ele>
        <time>2022-05-08T09:52:29Z</time>
      </trkpt>
      <trkpt lat="47.26632" lon="-1.41292">
        <ele>57</ele>
        <time>2022-05-08T09:52:31Z</time>
      </trkpt>
      <trkpt lat="47.2664" lon="-1.41283">
        <ele>57</ele>
        <time>2022-05-08T09:52:33Z</time>
      </trkpt>
      <trkpt lat="47.26647" lon="-1.41273">
        <ele>57</ele>
        <time>2022-05-08T09:52:35Z</time>
      </trkpt>
      <trkpt lat="47.26655" lon="-1.41261">
        <ele>57</ele>
        <time>2022-05-08T09:52:37Z</time>
      </trkpt>
      <trkpt lat="47.26663" lon="-1.41246">
        <ele>57</ele>
        <time>2022-05-08T09:52:39Z</time>
      </trkpt>
      <trkpt lat="47.26672" lon="-1.41231">
        <ele>57</ele>
        <time>2022-05-08T09:52:41Z</time>
      </trkpt>
      <trkpt lat="47.26682" lon="-1.41217">
        <ele>57</ele>
        <time>2022-05-08T09:52:43Z</time>
      </trkpt>
      <trkpt lat="47.26693" lon="-1.41205">
        <ele>57</ele>
        <time>2022-05-08T09:52:45Z</time>
      </trkpt>
      <trkpt lat="47.26704" lon="-1.41193">
        <ele>57</ele>
        <time>2022-05-08T09:52:47Z</time>
      </trkpt>
      <trkpt lat="47.26713" lon="-1.41181">
        <ele>57</ele>
        <time>2022-05-08T09:52:49Z</time>
      </trkpt>
      <trkpt lat="47.26723" lon="-1.41169">
        <ele>57</ele>
        <time>2022-05-08T09:52:51Z</time>
      </trkpt>
      <trkpt lat="47.26733" lon="-1.41156">
        <ele>57</ele>
        <time>2022-05-08T09:52:53Z</time>
      </trkpt>
      <trkpt lat="47.26744" lon="-1.41145">
        <ele>57</ele>
        <time>2022-05-08T09:52:55Z</time>
      </trkpt>
      <trkpt lat="47.26754" lon="-1.41133">
        <ele>57</ele>
        <time>2022-05-08T09:52:57Z</time>
      </trkpt>
      <trkpt lat="47.26763" lon="-1.4112">
        <ele>57</ele>
        <time>2022-05-08T09:52:59Z</time>
      </trkpt>
      <trkpt lat="47.2677" lon="-1.41104">
        <ele>57</ele>
        <time>2022-05-08T09:53:01Z</time>
      </trkpt>
      <trkpt lat="47.26775" lon="-1.41086">
        <ele>56</ele>
        <time>2022-05-08T09:53:03Z</time>
      </trkpt>
      <trkpt lat="47.2678" lon="-1.41069">
        <ele>56</ele>
        <time>2022-05-08T09:53:05Z</time>
      </trkpt>
      <trkpt lat="47.26786" lon="-1.41053">
        <ele>57</ele>
        <time>2022-05-08T09:53:07Z</time>
      </trkpt>
      <trkpt lat="47.26795" lon="-1.41029">
        <ele>56</ele>
        <time>2022-05-08T09:53:10Z</time>
      </trkpt>
      <trkpt lat="47.26804" lon="-1.41014">
        <ele>56</ele>
        <time>2022-05-08T09:53:12Z</time>
      </trkpt>
      <trkpt lat="47.26814" lon="-1.41002">
        <ele>56</ele>
        <time>2022-05-08T09:53:14Z</time>
      </trkpt>
      <trkpt lat="47.26824" lon="-1.4099">
        <ele>57</ele>
        <time>2022-05-08T09:53:16Z</time>
      </trkpt>
      <trkpt lat="47.2683" lon="-1.40976">
        <ele>57</ele>
        <time>2022-05-08T09:53:18Z</time>
      </trkpt>
      <trkpt lat="47.26839" lon="-1.40954">
        <ele>58</ele>
        <time>2022-05-08T09:53:21Z</time>
      </trkpt>
      <trkpt lat="47.26846" lon="-1.40941">
        <ele>59</ele>
        <time>2022-05-08T09:53:23Z</time>
      </trkpt>
      <trkpt lat="47.26855" lon="-1.4093">
        <ele>59</ele>
        <time>2022-05-08T09:53:25Z</time>
      </trkpt>
      <trkpt lat="47.26865" lon="-1.40917">
        <ele>58</ele>
        <time>2022-05-08T09:53:27Z</time>
      </trkpt>
      <trkpt lat="47.26872" lon="-1.40901">
        <ele>58</ele>
        <time>2022-05-08T09:53:29Z</time>
      </trkpt>
      <trkpt lat="47.26877" lon="-1.40881">
        <ele>56</ele>
        <time>2022-05-08T09:53:31Z</time>
      </trkpt>
      <trkpt lat="47.26887" lon="-1.40865">
        <ele>56</ele>
        <time>2022-05-08T09:53:33Z</time>
      </trkpt>
      <trkpt lat="47.26896" lon="-1.4085">
        <ele>57</ele>
        <time>2022-05-08T09:53:35Z</time>
      </trkpt>
      <trkpt lat="47.26903" lon="-1.40836">
        <ele>57</ele>
        <time>2022-05-08T09:53:37Z</time>
      </trkpt>
      <trkpt lat="47.2691" lon="-1.40823">
        <ele>58</ele>
        <time>2022-05-08T09:53:39Z</time>
      </trkpt>
      <trkpt lat="47.26918" lon="-1.40808">
        <ele>58</ele>
        <time>2022-05-08T09:53:41Z</time>
      </trkpt>
      <trkpt lat="47.26925" lon="-1.40793">
        <ele>57</ele>
        <time>2022-05-08T09:53:43Z</time>
      </trkpt>
      <trkpt lat="47.26929" lon="-1.40776">
        <ele>57</ele>
        <time>2022-05-08T09:53:45Z</time>
      </trkpt>
      <trkpt lat="47.2693" lon="-1.40758">
        <ele>57</ele>
        <time>2022-05-08T09:53:47Z</time>
      </trkpt>
      <trkpt lat="47.26931" lon="-1.40741">
        <ele>57</ele>
        <time>2022-05-08T09:53:49Z</time>
      </trkpt>
      <trkpt lat="47.26931" lon="-1.40722">
        <ele>57</ele>
        <time>2022-05-08T09:53:51Z</time>
      </trkpt>
      <trkpt lat="47.26931" lon="-1.40703">
        <ele>57</ele>
        <time>2022-05-08T09:53:53Z</time>
      </trkpt>
      <trkpt lat="47.26932" lon="-1.40685">
        <ele>57</ele>
        <time>2022-05-08T09:53:55Z</time>
      </trkpt>
      <trkpt lat="47.26935" lon="-1.40667">
        <ele>57</ele>
        <time>2022-05-08T09:53:57Z</time>
      </trkpt>
      <trkpt lat="47.26936" lon="-1.4065">
        <ele>57</ele>
        <time>2022-05-08T09:53:59Z</time>
      </trkpt>
      <trkpt lat="47.26938" lon="-1.40632">
        <ele>57</ele>
        <time>2022-05-08T09:54:01Z</time>
      </trkpt>
      <trkpt lat="47.26941" lon="-1.40614">
        <ele>57</ele>
        <time>2022-05-08T09:54:03Z</time>
      </trkpt>
      <trkpt lat="47.26944" lon="-1.40596">
        <ele>57</ele>
        <time>2022-05-08T09:54:05Z</time>
      </trkpt>
      <trkpt lat="47.26949" lon="-1.40579">
        <ele>57</ele>
        <time>2022-05-08T09:54:07Z</time>
      </trkpt>
      <trkpt lat="47.26955" lon="-1.40562">
        <ele>57</ele>
        <time>2022-05-08T09:54:09Z</time>
      </trkpt>
      <trkpt lat="47.26961" lon="-1.40547">
        <ele>58</ele>
        <time>2022-05-08T09:54:11Z</time>
      </trkpt>
      <trkpt lat="47.26969" lon="-1.40533">
        <ele>58</ele>
        <time>2022-05-08T09:54:13Z</time>
      </trkpt>
      <trkpt lat="47.26977" lon="-1.4052">
        <ele>57</ele>
        <time>2022-05-08T09:54:15Z</time>
      </trkpt>
      <trkpt lat="47.26986" lon="-1.40506">
        <ele>57</ele>
        <time>2022-05-08T09:54:17Z</time>
      </trkpt>
      <trkpt lat="47.26994" lon="-1.40493">
        <ele>57</ele>
        <time>2022-05-08T09:54:19Z</time>
      </trkpt>
      <trkpt lat="47.27002" lon="-1.40479">
        <ele>57</ele>
        <time>2022-05-08T09:54:21Z</time>
      </trkpt>
      <trkpt lat="47.2701" lon="-1.40466">
        <ele>57</ele>
        <time>2022-05-08T09:54:23Z</time>
      </trkpt>
      <trkpt lat="47.27018" lon="-1.40453">
        <ele>57</ele>
        <time>2022-05-08T09:54:25Z</time>
      </trkpt>
      <trkpt lat="47.27027" lon="-1.4044">
        <ele>57</ele>
        <time>2022-05-08T09:54:27Z</time>
      </trkpt>
      <trkpt lat="47.27035" lon="-1.40427">
        <ele>57</ele>
        <time>2022-05-08T09:54:29Z</time>
      </trkpt>
      <trkpt lat="47.27044" lon="-1.40414">
        <ele>58</ele>
        <time>2022-05-08T09:54:31Z</time>
      </trkpt>
      <trkpt lat="47.27052" lon="-1.40401">
        <ele>58</ele>
        <time>2022-05-08T09:54:33Z</time>
      </trkpt>
      <trkpt lat="47.27061" lon="-1.40387">
        <ele>58</ele>
        <time>2022-05-08T09:54:35Z</time>
      </trkpt>
      <trkpt lat="47.27069" lon="-1.40374">
        <ele>58</ele>
        <time>2022-05-08T09:54:37Z</time>
      </trkpt>
      <trkpt lat="47.27078" lon="-1.40361">
        <ele>57</ele>
        <time>2022-05-08T09:54:39Z</time>
      </trkpt>
      <trkpt lat="47.27087" lon="-1.40347">
        <ele>57</ele>
        <time>2022-05-08T09:54:41Z</time>
      </trkpt>
      <trkpt lat="47.27095" lon="-1.40334">
        <ele>58</ele>
        <time>2022-05-08T09:54:43Z</time>
      </trkpt>
      <trkpt lat="47.27104" lon="-1.40321">
        <ele>58</ele>
        <time>2022-05-08T09:54:45Z</time>
      </trkpt>
      <trkpt lat="47.27112" lon="-1.40308">
        <ele>58</ele>
        <time>2022-05-08T09:54:47Z</time>
      </trkpt>
      <trkpt lat="47.27121" lon="-1.40295">
        <ele>58</ele>
        <time>2022-05-08T09:54:49Z</time>
      </trkpt>
      <trkpt lat="47.27129" lon="-1.40281">
        <ele>58</ele>
        <time>2022-05-08T09:54:51Z</time>
      </trkpt>
      <trkpt lat="47.27137" lon="-1.40267">
        <ele>58</ele>
        <time>2022-05-08T09:54:53Z</time>
      </trkpt>
      <trkpt lat="47.27146" lon="-1.40254">
        <ele>58</ele>
        <time>2022-05-08T09:54:55Z</time>
      </trkpt>
      <trkpt lat="47.27154" lon="-1.40241">
        <ele>59</ele>
        <time>2022-05-08T09:54:57Z</time>
      </trkpt>
      <trkpt lat="47.27162" lon="-1.40228">
        <ele>59</ele>
        <time>2022-05-08T09:54:59Z</time>
      </trkpt>
      <trkpt lat="47.2717" lon="-1.40216">
        <ele>59</ele>
        <time>2022-05-08T09:55:01Z</time>
      </trkpt>
      <trkpt lat="47.27178" lon="-1.40203">
        <ele>59</ele>
        <time>2022-05-08T09:55:03Z</time>
      </trkpt>
      <trkpt lat="47.27186" lon="-1.40192">
        <ele>59</ele>
        <time>2022-05-08T09:55:05Z</time>
      </trkpt>
      <trkpt lat="47.27195" lon="-1.40182">
        <ele>59</ele>
        <time>2022-05-08T09:55:07Z</time>
      </trkpt>
      <trkpt lat="47.27203" lon="-1.4017">
        <ele>59</ele>
        <time>2022-05-08T09:55:09Z</time>
      </trkpt>
      <trkpt lat="47.2721" lon="-1.40156">
        <ele>59</ele>
        <time>2022-05-08T09:55:11Z</time>
      </trkpt>
      <trkpt lat="47.27217" lon="-1.40142">
        <ele>59</ele>
        <time>2022-05-08T09:55:13Z</time>
      </trkpt>
      <trkpt lat="47.27224" lon="-1.40129">
        <ele>59</ele>
        <time>2022-05-08T09:55:15Z</time>
      </trkpt>
      <trkpt lat="47.27233" lon="-1.40116">
        <ele>59</ele>
        <time>2022-05-08T09:55:17Z</time>
      </trkpt>
      <trkpt lat="47.27241" lon="-1.40105">
        <ele>59</ele>
        <time>2022-05-08T09:55:19Z</time>
      </trkpt>
      <trkpt lat="47.27249" lon="-1.40093">
        <ele>59</ele>
        <time>2022-05-08T09:55:21Z</time>
      </trkpt>
      <trkpt lat="47.27257" lon="-1.4008">
        <ele>59</ele>
        <time>2022-05-08T09:55:23Z</time>
      </trkpt>
      <trkpt lat="47.27265" lon="-1.40067">
        <ele>59</ele>
        <time>2022-05-08T09:55:25Z</time>
      </trkpt>
      <trkpt lat="47.27273" lon="-1.40054">
        <ele>59</ele>
        <time>2022-05-08T09:55:27Z</time>
      </trkpt>
      <trkpt lat="47.27281" lon="-1.40042">
        <ele>59</ele>
        <time>2022-05-08T09:55:29Z</time>
      </trkpt>
      <trkpt lat="47.27289" lon="-1.40029">
        <ele>59</ele>
        <time>2022-05-08T09:55:31Z</time>
      </trkpt>
      <trkpt lat="47.27297" lon="-1.40016">
        <ele>59</ele>
        <time>2022-05-08T09:55:33Z</time>
      </trkpt>
      <trkpt lat="47.27306" lon="-1.40002">
        <ele>59</ele>
        <time>2022-05-08T09:55:35Z</time>
      </trkpt>
      <trkpt lat="47.27314" lon="-1.39989">
        <ele>59</ele>
        <time>2022-05-08T09:55:37Z</time>
      </trkpt>
      <trkpt lat="47.27322" lon="-1.39976">
        <ele>60</ele>
        <time>2022-05-08T09:55:39Z</time>
      </trkpt>
      <trkpt lat="47.2733" lon="-1.39962">
        <ele>60</ele>
        <time>2022-05-08T09:55:41Z</time>
      </trkpt>
      <trkpt lat="47.27339" lon="-1.39949">
        <ele>60</ele>
        <time>2022-05-08T09:55:43Z</time>
      </trkpt>
      <trkpt lat="47.27347" lon="-1.39936">
        <ele>60</ele>
        <time>2022-05-08T09:55:45Z</time>
      </trkpt>
      <trkpt lat="47.27356" lon="-1.39922">
        <ele>59</ele>
        <time>2022-05-08T09:55:47Z</time>
      </trkpt>
      <trkpt lat="47.27364" lon="-1.39908">
        <ele>59</ele>
        <time>2022-05-08T09:55:49Z</time>
      </trkpt>
      <trkpt lat="47.27373" lon="-1.39895">
        <ele>59</ele>
        <time>2022-05-08T09:55:51Z</time>
      </trkpt>
      <trkpt lat="47.27383" lon="-1.39886">
        <ele>58</ele>
        <time>2022-05-08T09:55:53Z</time>
      </trkpt>
      <trkpt lat="47.27398" lon="-1.39887">
        <ele>58</ele>
        <time>2022-05-08T09:55:55Z</time>
      </trkpt>
      <trkpt lat="47.27411" lon="-1.3989">
        <ele>58</ele>
        <time>2022-05-08T09:55:57Z</time>
      </trkpt>
      <trkpt lat="47.27422" lon="-1.39887">
        <ele>58</ele>
        <time>2022-05-08T09:55:59Z</time>
      </trkpt>
      <trkpt lat="47.27427" lon="-1.39874">
        <ele>58</ele>
        <time>2022-05-08T09:56:01Z</time>
      </trkpt>
      <trkpt lat="47.27431" lon="-1.39856">
        <ele>58</ele>
        <time>2022-05-08T09:56:03Z</time>
      </trkpt>
      <trkpt lat="47.27435" lon="-1.39837">
        <ele>57</ele>
        <time>2022-05-08T09:56:05Z</time>
      </trkpt>
      <trkpt lat="47.27441" lon="-1.3982">
        <ele>57</ele>
        <time>2022-05-08T09:56:07Z</time>
      </trkpt>
      <trkpt lat="47.27448" lon="-1.39802">
        <ele>57</ele>
        <time>2022-05-08T09:56:09Z</time>
      </trkpt>
      <trkpt lat="47.27456" lon="-1.39786">
        <ele>57</ele>
        <time>2022-05-08T09:56:11Z</time>
      </trkpt>
      <trkpt lat="47.27465" lon="-1.39768">
        <ele>57</ele>
        <time>2022-05-08T09:56:13Z</time>
      </trkpt>
      <trkpt lat="47.27473" lon="-1.39752">
        <ele>57</ele>
        <time>2022-05-08T09:56:15Z</time>
      </trkpt>
      <trkpt lat="47.2748" lon="-1.39738">
        <ele>58</ele>
        <time>2022-05-08T09:56:17Z</time>
      </trkpt>
      <trkpt lat="47.27486" lon="-1.39722">
        <ele>58</ele>
        <time>2022-05-08T09:56:19Z</time>
      </trkpt>
      <trkpt lat="47.27494" lon="-1.39707">
        <ele>57</ele>
        <time>2022-05-08T09:56:21Z</time>
      </trkpt>
      <trkpt lat="47.27503" lon="-1.39693">
        <ele>57</ele>
        <time>2022-05-08T09:56:23Z</time>
      </trkpt>
      <trkpt lat="47.27512" lon="-1.3968">
        <ele>57</ele>
        <time>2022-05-08T09:56:25Z</time>
      </trkpt>
      <trkpt lat="47.27521" lon="-1.39666">
        <ele>58</ele>
        <time>2022-05-08T09:56:27Z</time>
      </trkpt>
      <trkpt lat="47.2753" lon="-1.39652">
        <ele>58</ele>
        <time>2022-05-08T09:56:29Z</time>
      </trkpt>
      <trkpt lat="47.27539" lon="-1.39638">
        <ele>58</ele>
        <time>2022-05-08T09:56:31Z</time>
      </trkpt>
      <trkpt lat="47.27548" lon="-1.39625">
        <ele>58</ele>
        <time>2022-05-08T09:56:33Z</time>
      </trkpt>
      <trkpt lat="47.27556" lon="-1.39611">
        <ele>57</ele>
        <time>2022-05-08T09:56:35Z</time>
      </trkpt>
      <trkpt lat="47.27565" lon="-1.39598">
        <ele>58</ele>
        <time>2022-05-08T09:56:37Z</time>
      </trkpt>
      <trkpt lat="47.27573" lon="-1.39584">
        <ele>58</ele>
        <time>2022-05-08T09:56:39Z</time>
      </trkpt>
      <trkpt lat="47.27581" lon="-1.3957">
        <ele>58</ele>
        <time>2022-05-08T09:56:41Z</time>
      </trkpt>
      <trkpt lat="47.27589" lon="-1.39557">
        <ele>58</ele>
        <time>2022-05-08T09:56:43Z</time>
      </trkpt>
      <trkpt lat="47.27598" lon="-1.39544">
        <ele>58</ele>
        <time>2022-05-08T09:56:45Z</time>
      </trkpt>
      <trkpt lat="47.27607" lon="-1.3953">
        <ele>58</ele>
        <time>2022-05-08T09:56:47Z</time>
      </trkpt>
      <trkpt lat="47.27618" lon="-1.39521">
        <ele>57</ele>
        <time>2022-05-08T09:56:49Z</time>
      </trkpt>
      <trkpt lat="47.27626" lon="-1.39511">
        <ele>57</ele>
        <time>2022-05-08T09:56:51Z</time>
      </trkpt>
      <trkpt lat="47.27633" lon="-1.39496">
        <ele>57</ele>
        <time>2022-05-08T09:56:53Z</time>
      </trkpt>
      <trkpt lat="47.2764" lon="-1.39481">
        <ele>57</ele>
        <time>2022-05-08T09:56:55Z</time>
      </trkpt>
      <trkpt lat="47.27648" lon="-1.39466">
        <ele>57</ele>
        <time>2022-05-08T09:56:57Z</time>
      </trkpt>
      <trkpt lat="47.27656" lon="-1.39453">
        <ele>57</ele>
        <time>2022-05-08T09:56:59Z</time>
      </trkpt>
      <trkpt lat="47.27664" lon="-1.39439">
        <ele>57</ele>
        <time>2022-05-08T09:57:01Z</time>
      </trkpt>
      <trkpt lat="47.27672" lon="-1.39425">
        <ele>57</ele>
        <time>2022-05-08T09:57:03Z</time>
      </trkpt>
      <trkpt lat="47.2768" lon="-1.39411">
        <ele>57</ele>
        <time>2022-05-08T09:57:05Z</time>
      </trkpt>
      <trkpt lat="47.27687" lon="-1.39396">
        <ele>57</ele>
        <time>2022-05-08T09:57:07Z</time>
      </trkpt>
      <trkpt lat="47.27693" lon="-1.39381">
        <ele>57</ele>
        <time>2022-05-08T09:57:09Z</time>
      </trkpt>
      <trkpt lat="47.277" lon="-1.39366">
        <ele>57</ele>
        <time>2022-05-08T09:57:11Z</time>
      </trkpt>
      <trkpt lat="47.27707" lon="-1.39351">
        <ele>57</ele>
        <time>2022-05-08T09:57:13Z</time>
      </trkpt>
      <trkpt lat="47.27715" lon="-1.39336">
        <ele>58</ele>
        <time>2022-05-08T09:57:15Z</time>
      </trkpt>
      <trkpt lat="47.27722" lon="-1.3932">
        <ele>58</ele>
        <time>2022-05-08T09:57:17Z</time>
      </trkpt>
      <trkpt lat="47.27729" lon="-1.39304">
        <ele>58</ele>
        <time>2022-05-08T09:57:19Z</time>
      </trkpt>
      <trkpt lat="47.27736" lon="-1.39288">
        <ele>58</ele>
        <time>2022-05-08T09:57:21Z</time>
      </trkpt>
      <trkpt lat="47.27743" lon="-1.39273">
        <ele>58</ele>
        <time>2022-05-08T09:57:23Z</time>
      </trkpt>
      <trkpt lat="47.27751" lon="-1.39258">
        <ele>58</ele>
        <time>2022-05-08T09:57:25Z</time>
      </trkpt>
      <trkpt lat="47.27758" lon="-1.39242">
        <ele>58</ele>
        <time>2022-05-08T09:57:27Z</time>
      </trkpt>
      <trkpt lat="47.27765" lon="-1.39227">
        <ele>58</ele>
        <time>2022-05-08T09:57:29Z</time>
      </trkpt>
      <trkpt lat="47.27772" lon="-1.39211">
        <ele>58</ele>
        <time>2022-05-08T09:57:31Z</time>
      </trkpt>
      <trkpt lat="47.2778" lon="-1.39196">
        <ele>58</ele>
        <time>2022-05-08T09:57:33Z</time>
      </trkpt>
      <trkpt lat="47.27787" lon="-1.39181">
        <ele>58</ele>
        <time>2022-05-08T09:57:35Z</time>
      </trkpt>
      <trkpt lat="47.27796" lon="-1.39167">
        <ele>58</ele>
        <time>2022-05-08T09:57:37Z</time>
      </trkpt>
      <trkpt lat="47.27804" lon="-1.39153">
        <ele>58</ele>
        <time>2022-05-08T09:57:39Z</time>
      </trkpt>
      <trkpt lat="47.27813" lon="-1.39139">
        <ele>59</ele>
        <time>2022-05-08T09:57:41Z</time>
      </trkpt>
      <trkpt lat="47.27821" lon="-1.39124">
        <ele>59</ele>
        <time>2022-05-08T09:57:43Z</time>
      </trkpt>
      <trkpt lat="47.2783" lon="-1.3911">
        <ele>59</ele>
        <time>2022-05-08T09:57:45Z</time>
      </trkpt>
      <trkpt lat="47.27839" lon="-1.39096">
        <ele>59</ele>
        <time>2022-05-08T09:57:47Z</time>
      </trkpt>
      <trkpt lat="47.27847" lon="-1.39082">
        <ele>58</ele>
        <time>2022-05-08T09:57:49Z</time>
      </trkpt>
      <trkpt lat="47.27856" lon="-1.39068">
        <ele>59</ele>
        <time>2022-05-08T09:57:51Z</time>
      </trkpt>
      <trkpt lat="47.27865" lon="-1.39053">
        <ele>59</ele>
        <time>2022-05-08T09:57:53Z</time>
      </trkpt>
      <trkpt lat="47.27873" lon="-1.39039">
        <ele>59</ele>
        <time>2022-05-08T09:57:55Z</time>
      </trkpt>
      <trkpt lat="47.27881" lon="-1.39025">
        <ele>59</ele>
        <time>2022-05-08T09:57:57Z</time>
      </trkpt>
      <trkpt lat="47.27889" lon="-1.39012">
        <ele>59</ele>
        <time>2022-05-08T09:57:59Z</time>
      </trkpt>
      <trkpt lat="47.27899" lon="-1.39">
        <ele>59</ele>
        <time>2022-05-08T09:58:01Z</time>
      </trkpt>
      <trkpt lat="47.27908" lon="-1.38987">
        <ele>59</ele>
        <time>2022-05-08T09:58:03Z</time>
      </trkpt>
      <trkpt lat="47.27916" lon="-1.38973">
        <ele>58</ele>
        <time>2022-05-08T09:58:05Z</time>
      </trkpt>
      <trkpt lat="47.27923" lon="-1.38958">
        <ele>59</ele>
        <time>2022-05-08T09:58:07Z</time>
      </trkpt>
      <trkpt lat="47.27932" lon="-1.38945">
        <ele>58</ele>
        <time>2022-05-08T09:58:09Z</time>
      </trkpt>
      <trkpt lat="47.27941" lon="-1.38931">
        <ele>58</ele>
        <time>2022-05-08T09:58:11Z</time>
      </trkpt>
      <trkpt lat="47.2795" lon="-1.38918">
        <ele>58</ele>
        <time>2022-05-08T09:58:13Z</time>
      </trkpt>
      <trkpt lat="47.27959" lon="-1.38904">
        <ele>58</ele>
        <time>2022-05-08T09:58:15Z</time>
      </trkpt>
      <trkpt lat="47.27967" lon="-1.38891">
        <ele>58</ele>
        <time>2022-05-08T09:58:17Z</time>
      </trkpt>
      <trkpt lat="47.27976" lon="-1.38878">
        <ele>58</ele>
        <time>2022-05-08T09:58:19Z</time>
      </trkpt>
      <trkpt lat="47.27985" lon="-1.38866">
        <ele>58</ele>
        <time>2022-05-08T09:58:21Z</time>
      </trkpt>
      <trkpt lat="47.27995" lon="-1.38854">
        <ele>58</ele>
        <time>2022-05-08T09:58:23Z</time>
      </trkpt>
      <trkpt lat="47.28005" lon="-1.38844">
        <ele>58</ele>
        <time>2022-05-08T09:58:25Z</time>
      </trkpt>
      <trkpt lat="47.28015" lon="-1.38833">
        <ele>58</ele>
        <time>2022-05-08T09:58:27Z</time>
      </trkpt>
      <trkpt lat="47.28026" lon="-1.38824">
        <ele>58</ele>
        <time>2022-05-08T09:58:29Z</time>
      </trkpt>
      <trkpt lat="47.28036" lon="-1.38814">
        <ele>58</ele>
        <time>2022-05-08T09:58:31Z</time>
      </trkpt>
      <trkpt lat="47.28047" lon="-1.38806">
        <ele>58</ele>
        <time>2022-05-08T09:58:33Z</time>
      </trkpt>
      <trkpt lat="47.28059" lon="-1.38799">
        <ele>57</ele>
        <time>2022-05-08T09:58:35Z</time>
      </trkpt>
      <trkpt lat="47.28069" lon="-1.38789">
        <ele>56</ele>
        <time>2022-05-08T09:58:37Z</time>
      </trkpt>
      <trkpt lat="47.28081" lon="-1.38782">
        <ele>55</ele>
        <time>2022-05-08T09:58:39Z</time>
      </trkpt>
      <trkpt lat="47.28094" lon="-1.3878">
        <ele>55</ele>
        <time>2022-05-08T09:58:41Z</time>
      </trkpt>
      <trkpt lat="47.28105" lon="-1.38772">
        <ele>55</ele>
        <time>2022-05-08T09:58:43Z</time>
      </trkpt>
      <trkpt lat="47.28116" lon="-1.38765">
        <ele>54</ele>
        <time>2022-05-08T09:58:45Z</time>
      </trkpt>
      <trkpt lat="47.28128" lon="-1.38757">
        <ele>54</ele>
        <time>2022-05-08T09:58:47Z</time>
      </trkpt>
      <trkpt lat="47.28138" lon="-1.38748">
        <ele>54</ele>
        <time>2022-05-08T09:58:49Z</time>
      </trkpt>
      <trkpt lat="47.28148" lon="-1.38738">
        <ele>54</ele>
        <time>2022-05-08T09:58:51Z</time>
      </trkpt>
      <trkpt lat="47.28158" lon="-1.38729">
        <ele>53</ele>
        <time>2022-05-08T09:58:53Z</time>
      </trkpt>
      <trkpt lat="47.28168" lon="-1.38718">
        <ele>53</ele>
        <time>2022-05-08T09:58:55Z</time>
      </trkpt>
      <trkpt lat="47.28175" lon="-1.38704">
        <ele>53</ele>
        <time>2022-05-08T09:58:57Z</time>
      </trkpt>
      <trkpt lat="47.28179" lon="-1.38688">
        <ele>53</ele>
        <time>2022-05-08T09:58:59Z</time>
      </trkpt>
      <trkpt lat="47.28182" lon="-1.3867">
        <ele>54</ele>
        <time>2022-05-08T09:59:01Z</time>
      </trkpt>
      <trkpt lat="47.28187" lon="-1.38653">
        <ele>54</ele>
        <time>2022-05-08T09:59:03Z</time>
      </trkpt>
      <trkpt lat="47.28193" lon="-1.38637">
        <ele>54</ele>
        <time>2022-05-08T09:59:05Z</time>
      </trkpt>
      <trkpt lat="47.28197" lon="-1.3862">
        <ele>54</ele>
        <time>2022-05-08T09:59:07Z</time>
      </trkpt>
      <trkpt lat="47.28199" lon="-1.38603">
        <ele>55</ele>
        <time>2022-05-08T09:59:09Z</time>
      </trkpt>
      <trkpt lat="47.282" lon="-1.38585">
        <ele>55</ele>
        <time>2022-05-08T09:59:11Z</time>
      </trkpt>
      <trkpt lat="47.282" lon="-1.38567">
        <ele>55</ele>
        <time>2022-05-08T09:59:13Z</time>
      </trkpt>
      <trkpt lat="47.28202" lon="-1.38548">
        <ele>55</ele>
        <time>2022-05-08T09:59:15Z</time>
      </trkpt>
      <trkpt lat="47.28204" lon="-1.38531">
        <ele>55</ele>
        <time>2022-05-08T09:59:17Z</time>
      </trkpt>
      <trkpt lat="47.28208" lon="-1.38514">
        <ele>56</ele>
        <time>2022-05-08T09:59:19Z</time>
      </trkpt>
      <trkpt lat="47.28214" lon="-1.38498">
        <ele>56</ele>
        <time>2022-05-08T09:59:21Z</time>
      </trkpt>
      <trkpt lat="47.28221" lon="-1.38482">
        <ele>57</ele>
        <time>2022-05-08T09:59:23Z</time>
      </trkpt>
      <trkpt lat="47.28228" lon="-1.38465">
        <ele>57</ele>
        <time>2022-05-08T09:59:25Z</time>
      </trkpt>
      <trkpt lat="47.28235" lon="-1.38448">
        <ele>57</ele>
        <time>2022-05-08T09:59:27Z</time>
      </trkpt>
      <trkpt lat="47.28241" lon="-1.38434">
        <ele>57</ele>
        <time>2022-05-08T09:59:29Z</time>
      </trkpt>
      <trkpt lat="47.28248" lon="-1.38418">
        <ele>57</ele>
        <time>2022-05-08T09:59:31Z</time>
      </trkpt>
      <trkpt lat="47.28256" lon="-1.384">
        <ele>57</ele>
        <time>2022-05-08T09:59:33Z</time>
      </trkpt>
      <trkpt lat="47.28263" lon="-1.38383">
        <ele>57</ele>
        <time>2022-05-08T09:59:35Z</time>
      </trkpt>
      <trkpt lat="47.28271" lon="-1.38366">
        <ele>58</ele>
        <time>2022-05-08T09:59:37Z</time>
      </trkpt>
      <trkpt lat="47.28278" lon="-1.3835">
        <ele>58</ele>
        <time>2022-05-08T09:59:39Z</time>
      </trkpt>
      <trkpt lat="47.28286" lon="-1.38333">
        <ele>57</ele>
        <time>2022-05-08T09:59:41Z</time>
      </trkpt>
      <trkpt lat="47.28294" lon="-1.38318">
        <ele>57</ele>
        <time>2022-05-08T09:59:43Z</time>
      </trkpt>
      <trkpt lat="47.28302" lon="-1.38304">
        <ele>57</ele>
        <time>2022-05-08T09:59:45Z</time>
      </trkpt>
      <trkpt lat="47.28311" lon="-1.3829">
        <ele>57</ele>
        <time>2022-05-08T09:59:47Z</time>
      </trkpt>
      <trkpt lat="47.2832" lon="-1.38277">
        <ele>57</ele>
        <time>2022-05-08T09:59:49Z</time>
      </trkpt>
      <trkpt lat="47.2833" lon="-1.38265">
        <ele>56</ele>
        <time>2022-05-08T09:59:51Z</time>
      </trkpt>
      <trkpt lat="47.28339" lon="-1.38252">
        <ele>56</ele>
        <time>2022-05-08T09:59:53Z</time>
      </trkpt>
      <trkpt lat="47.28347" lon="-1.38236">
        <ele>55</ele>
        <time>2022-05-08T09:59:55Z</time>
      </trkpt>
      <trkpt lat="47.28352" lon="-1.38218">
        <ele>55</ele>
        <time>2022-05-08T09:59:57Z</time>
      </trkpt>
      <trkpt lat="47.28354" lon="-1.38201">
        <ele>55</ele>
        <time>2022-05-08T09:59:59Z</time>
      </trkpt>
      <trkpt lat="47.28358" lon="-1.38184">
        <ele>56</ele>
        <time>2022-05-08T10:00:01Z</time>
      </trkpt>
      <trkpt lat="47.28363" lon="-1.38168">
        <ele>56</ele>
        <time>2022-05-08T10:00:03Z</time>
      </trkpt>
      <trkpt lat="47.28368" lon="-1.38152">
        <ele>56</ele>
        <time>2022-05-08T10:00:05Z</time>
      </trkpt>
      <trkpt lat="47.28374" lon="-1.38136">
        <ele>56</ele>
        <time>2022-05-08T10:00:07Z</time>
      </trkpt>
      <trkpt lat="47.28383" lon="-1.38123">
        <ele>57</ele>
        <time>2022-05-08T10:00:09Z</time>
      </trkpt>
      <trkpt lat="47.28391" lon="-1.3811">
        <ele>57</ele>
        <time>2022-05-08T10:00:11Z</time>
      </trkpt>
      <trkpt lat="47.284" lon="-1.38099">
        <ele>57</ele>
        <time>2022-05-08T10:00:13Z</time>
      </trkpt>
      <trkpt lat="47.28409" lon="-1.38088">
        <ele>57</ele>
        <time>2022-05-08T10:00:15Z</time>
      </trkpt>
      <trkpt lat="47.28419" lon="-1.38077">
        <ele>57</ele>
        <time>2022-05-08T10:00:17Z</time>
      </trkpt>
      <trkpt lat="47.28428" lon="-1.38066">
        <ele>57</ele>
        <time>2022-05-08T10:00:19Z</time>
      </trkpt>
      <trkpt lat="47.28438" lon="-1.38055">
        <ele>56</ele>
        <time>2022-05-08T10:00:21Z</time>
      </trkpt>
      <trkpt lat="47.28447" lon="-1.38045">
        <ele>57</ele>
        <time>2022-05-08T10:00:23Z</time>
      </trkpt>
      <trkpt lat="47.28456" lon="-1.38035">
        <ele>57</ele>
        <time>2022-05-08T10:00:25Z</time>
      </trkpt>
      <trkpt lat="47.28466" lon="-1.38026">
        <ele>56</ele>
        <time>2022-05-08T10:00:27Z</time>
      </trkpt>
      <trkpt lat="47.28477" lon="-1.38025">
        <ele>55</ele>
        <time>2022-05-08T10:00:29Z</time>
      </trkpt>
      <trkpt lat="47.28488" lon="-1.38023">
        <ele>55</ele>
        <time>2022-05-08T10:00:32Z</time>
      </trkpt>
      <trkpt lat="47.28495" lon="-1.38016">
        <ele>55</ele>
        <time>2022-05-08T10:00:34Z</time>
      </trkpt>
      <trkpt lat="47.28503" lon="-1.38007">
        <ele>55</ele>
        <time>2022-05-08T10:00:36Z</time>
      </trkpt>
      <trkpt lat="47.28512" lon="-1.37998">
        <ele>55</ele>
        <time>2022-05-08T10:00:38Z</time>
      </trkpt>
      <trkpt lat="47.28522" lon="-1.37987">
        <ele>54</ele>
        <time>2022-05-08T10:00:40Z</time>
      </trkpt>
      <trkpt lat="47.28527" lon="-1.37975">
        <ele>54</ele>
        <time>2022-05-08T10:00:42Z</time>
      </trkpt>
      <trkpt lat="47.28528" lon="-1.37956">
        <ele>55</ele>
        <time>2022-05-08T10:00:45Z</time>
      </trkpt>
      <trkpt lat="47.28536" lon="-1.37944">
        <ele>55</ele>
        <time>2022-05-08T10:00:47Z</time>
      </trkpt>
      <trkpt lat="47.28545" lon="-1.37931">
        <ele>55</ele>
        <time>2022-05-08T10:00:49Z</time>
      </trkpt>
      <trkpt lat="47.28554" lon="-1.37921">
        <ele>55</ele>
        <time>2022-05-08T10:00:51Z</time>
      </trkpt>
      <trkpt lat="47.28564" lon="-1.3791">
        <ele>54</ele>
        <time>2022-05-08T10:00:53Z</time>
      </trkpt>
      <trkpt lat="47.28573" lon="-1.37899">
        <ele>54</ele>
        <time>2022-05-08T10:00:55Z</time>
      </trkpt>
      <trkpt lat="47.28583" lon="-1.37888">
        <ele>55</ele>
        <time>2022-05-08T10:00:57Z</time>
      </trkpt>
      <trkpt lat="47.28592" lon="-1.37877">
        <ele>55</ele>
        <time>2022-05-08T10:00:59Z</time>
      </trkpt>
      <trkpt lat="47.28601" lon="-1.37866">
        <ele>55</ele>
        <time>2022-05-08T10:01:01Z</time>
      </trkpt>
      <trkpt lat="47.2861" lon="-1.37855">
        <ele>55</ele>
        <time>2022-05-08T10:01:03Z</time>
      </trkpt>
      <trkpt lat="47.28619" lon="-1.37844">
        <ele>55</ele>
        <time>2022-05-08T10:01:05Z</time>
      </trkpt>
      <trkpt lat="47.28628" lon="-1.37833">
        <ele>55</ele>
        <time>2022-05-08T10:01:07Z</time>
      </trkpt>
      <trkpt lat="47.28638" lon="-1.37823">
        <ele>56</ele>
        <time>2022-05-08T10:01:09Z</time>
      </trkpt>
      <trkpt lat="47.28648" lon="-1.37812">
        <ele>56</ele>
        <time>2022-05-08T10:01:11Z</time>
      </trkpt>
      <trkpt lat="47.28657" lon="-1.37801">
        <ele>56</ele>
        <time>2022-05-08T10:01:13Z</time>
      </trkpt>
      <trkpt lat="47.28667" lon="-1.3779">
        <ele>56</ele>
        <time>2022-05-08T10:01:15Z</time>
      </trkpt>
      <trkpt lat="47.28676" lon="-1.3778">
        <ele>56</ele>
        <time>2022-05-08T10:01:17Z</time>
      </trkpt>
      <trkpt lat="47.28684" lon="-1.37769">
        <ele>56</ele>
        <time>2022-05-08T10:01:19Z</time>
      </trkpt>
      <trkpt lat="47.28693" lon="-1.37758">
        <ele>56</ele>
        <time>2022-05-08T10:01:21Z</time>
      </trkpt>
      <trkpt lat="47.28703" lon="-1.37749">
        <ele>56</ele>
        <time>2022-05-08T10:01:23Z</time>
      </trkpt>
      <trkpt lat="47.28713" lon="-1.3774">
        <ele>56</ele>
        <time>2022-05-08T10:01:25Z</time>
      </trkpt>
      <trkpt lat="47.28723" lon="-1.37729">
        <ele>56</ele>
        <time>2022-05-08T10:01:27Z</time>
      </trkpt>
      <trkpt lat="47.28732" lon="-1.37717">
        <ele>55</ele>
        <time>2022-05-08T10:01:29Z</time>
      </trkpt>
      <trkpt lat="47.2874" lon="-1.37705">
        <ele>56</ele>
        <time>2022-05-08T10:01:31Z</time>
      </trkpt>
      <trkpt lat="47.2875" lon="-1.37693">
        <ele>55</ele>
        <time>2022-05-08T10:01:33Z</time>
      </trkpt>
      <trkpt lat="47.28759" lon="-1.37682">
        <ele>55</ele>
        <time>2022-05-08T10:01:35Z</time>
      </trkpt>
      <trkpt lat="47.28769" lon="-1.37671">
        <ele>55</ele>
        <time>2022-05-08T10:01:37Z</time>
      </trkpt>
      <trkpt lat="47.28778" lon="-1.37661">
        <ele>55</ele>
        <time>2022-05-08T10:01:39Z</time>
      </trkpt>
      <trkpt lat="47.28788" lon="-1.37652">
        <ele>56</ele>
        <time>2022-05-08T10:01:41Z</time>
      </trkpt>
      <trkpt lat="47.28798" lon="-1.37644">
        <ele>56</ele>
        <time>2022-05-08T10:01:43Z</time>
      </trkpt>
      <trkpt lat="47.28809" lon="-1.37633">
        <ele>55</ele>
        <time>2022-05-08T10:01:45Z</time>
      </trkpt>
      <trkpt lat="47.28818" lon="-1.37622">
        <ele>55</ele>
        <time>2022-05-08T10:01:47Z</time>
      </trkpt>
      <trkpt lat="47.28826" lon="-1.37612">
        <ele>55</ele>
        <time>2022-05-08T10:01:49Z</time>
      </trkpt>
      <trkpt lat="47.28838" lon="-1.37607">
        <ele>56</ele>
        <time>2022-05-08T10:01:52Z</time>
      </trkpt>
      <trkpt lat="47.28848" lon="-1.37598">
        <ele>54</ele>
        <time>2022-05-08T10:01:55Z</time>
      </trkpt>
      <trkpt lat="47.2885" lon="-1.37583">
        <ele>56</ele>
        <time>2022-05-08T10:01:57Z</time>
      </trkpt>
      <trkpt lat="47.28853" lon="-1.37564">
        <ele>57</ele>
        <time>2022-05-08T10:01:59Z</time>
      </trkpt>
      <trkpt lat="47.28858" lon="-1.37545">
        <ele>57</ele>
        <time>2022-05-08T10:02:01Z</time>
      </trkpt>
      <trkpt lat="47.28864" lon="-1.37527">
        <ele>56</ele>
        <time>2022-05-08T10:02:03Z</time>
      </trkpt>
      <trkpt lat="47.2887" lon="-1.37509">
        <ele>55</ele>
        <time>2022-05-08T10:02:05Z</time>
      </trkpt>
      <trkpt lat="47.28873" lon="-1.3749">
        <ele>54</ele>
        <time>2022-05-08T10:02:07Z</time>
      </trkpt>
      <trkpt lat="47.2888" lon="-1.37472">
        <ele>54</ele>
        <time>2022-05-08T10:02:09Z</time>
      </trkpt>
      <trkpt lat="47.28885" lon="-1.37455">
        <ele>53</ele>
        <time>2022-05-08T10:02:11Z</time>
      </trkpt>
      <trkpt lat="47.2889" lon="-1.37437">
        <ele>53</ele>
        <time>2022-05-08T10:02:13Z</time>
      </trkpt>
      <trkpt lat="47.28895" lon="-1.3742">
        <ele>54</ele>
        <time>2022-05-08T10:02:15Z</time>
      </trkpt>
      <trkpt lat="47.289" lon="-1.37403">
        <ele>54</ele>
        <time>2022-05-08T10:02:17Z</time>
      </trkpt>
      <trkpt lat="47.28905" lon="-1.37387">
        <ele>55</ele>
        <time>2022-05-08T10:02:19Z</time>
      </trkpt>
      <trkpt lat="47.2891" lon="-1.37371">
        <ele>55</ele>
        <time>2022-05-08T10:02:21Z</time>
      </trkpt>
      <trkpt lat="47.28915" lon="-1.37354">
        <ele>55</ele>
        <time>2022-05-08T10:02:23Z</time>
      </trkpt>
      <trkpt lat="47.2892" lon="-1.37338">
        <ele>54</ele>
        <time>2022-05-08T10:02:25Z</time>
      </trkpt>
      <trkpt lat="47.28926" lon="-1.37323">
        <ele>55</ele>
        <time>2022-05-08T10:02:27Z</time>
      </trkpt>
      <trkpt lat="47.28932" lon="-1.37306">
        <ele>55</ele>
        <time>2022-05-08T10:02:29Z</time>
      </trkpt>
      <trkpt lat="47.28936" lon="-1.3729">
        <ele>55</ele>
        <time>2022-05-08T10:02:31Z</time>
      </trkpt>
      <trkpt lat="47.28941" lon="-1.37274">
        <ele>55</ele>
        <time>2022-05-08T10:02:33Z</time>
      </trkpt>
      <trkpt lat="47.28946" lon="-1.37257">
        <ele>55</ele>
        <time>2022-05-08T10:02:35Z</time>
      </trkpt>
      <trkpt lat="47.28952" lon="-1.3724">
        <ele>55</ele>
        <time>2022-05-08T10:02:37Z</time>
      </trkpt>
      <trkpt lat="47.28958" lon="-1.37224">
        <ele>55</ele>
        <time>2022-05-08T10:02:39Z</time>
      </trkpt>
      <trkpt lat="47.28963" lon="-1.37207">
        <ele>55</ele>
        <time>2022-05-08T10:02:41Z</time>
      </trkpt>
      <trkpt lat="47.28969" lon="-1.37189">
        <ele>55</ele>
        <time>2022-05-08T10:02:43Z</time>
      </trkpt>
      <trkpt lat="47.28976" lon="-1.37172">
        <ele>55</ele>
        <time>2022-05-08T10:02:45Z</time>
      </trkpt>
      <trkpt lat="47.28983" lon="-1.37156">
        <ele>56</ele>
        <time>2022-05-08T10:02:47Z</time>
      </trkpt>
      <trkpt lat="47.2899" lon="-1.3714">
        <ele>56</ele>
        <time>2022-05-08T10:02:49Z</time>
      </trkpt>
      <trkpt lat="47.28996" lon="-1.37123">
        <ele>56</ele>
        <time>2022-05-08T10:02:51Z</time>
      </trkpt>
      <trkpt lat="47.29003" lon="-1.37108">
        <ele>56</ele>
        <time>2022-05-08T10:02:53Z</time>
      </trkpt>
      <trkpt lat="47.2901" lon="-1.37093">
        <ele>56</ele>
        <time>2022-05-08T10:02:55Z</time>
      </trkpt>
      <trkpt lat="47.29017" lon="-1.37078">
        <ele>56</ele>
        <time>2022-05-08T10:02:57Z</time>
      </trkpt>
      <trkpt lat="47.29024" lon="-1.37064">
        <ele>57</ele>
        <time>2022-05-08T10:02:59Z</time>
      </trkpt>
      <trkpt lat="47.29031" lon="-1.37049">
        <ele>57</ele>
        <time>2022-05-08T10:03:01Z</time>
      </trkpt>
      <trkpt lat="47.29038" lon="-1.37034">
        <ele>57</ele>
        <time>2022-05-08T10:03:03Z</time>
      </trkpt>
      <trkpt lat="47.29046" lon="-1.37019">
        <ele>57</ele>
        <time>2022-05-08T10:03:05Z</time>
      </trkpt>
      <trkpt lat="47.29053" lon="-1.37005">
        <ele>58</ele>
        <time>2022-05-08T10:03:07Z</time>
      </trkpt>
      <trkpt lat="47.29059" lon="-1.36993">
        <ele>60</ele>
        <time>2022-05-08T10:03:09Z</time>
      </trkpt>
      <trkpt lat="47.29068" lon="-1.36976">
        <ele>60</ele>
        <time>2022-05-08T10:03:12Z</time>
      </trkpt>
      <trkpt lat="47.29074" lon="-1.36964">
        <ele>60</ele>
        <time>2022-05-08T10:03:14Z</time>
      </trkpt>
      <trkpt lat="47.29076" lon="-1.36947">
        <ele>60</ele>
        <time>2022-05-08T10:03:16Z</time>
      </trkpt>
      <trkpt lat="47.2908" lon="-1.36932">
        <ele>60</ele>
        <time>2022-05-08T10:03:18Z</time>
      </trkpt>
      <trkpt lat="47.29088" lon="-1.36917">
        <ele>60</ele>
        <time>2022-05-08T10:03:20Z</time>
      </trkpt>
      <trkpt lat="47.29096" lon="-1.36902">
        <ele>60</ele>
        <time>2022-05-08T10:03:22Z</time>
      </trkpt>
      <trkpt lat="47.29104" lon="-1.36887">
        <ele>60</ele>
        <time>2022-05-08T10:03:24Z</time>
      </trkpt>
      <trkpt lat="47.29112" lon="-1.36872">
        <ele>60</ele>
        <time>2022-05-08T10:03:26Z</time>
      </trkpt>
      <trkpt lat="47.29119" lon="-1.36857">
        <ele>60</ele>
        <time>2022-05-08T10:03:28Z</time>
      </trkpt>
      <trkpt lat="47.29127" lon="-1.36842">
        <ele>60</ele>
        <time>2022-05-08T10:03:30Z</time>
      </trkpt>
      <trkpt lat="47.29134" lon="-1.36828">
        <ele>60</ele>
        <time>2022-05-08T10:03:32Z</time>
      </trkpt>
      <trkpt lat="47.29142" lon="-1.36813">
        <ele>60</ele>
        <time>2022-05-08T10:03:34Z</time>
      </trkpt>
      <trkpt lat="47.29149" lon="-1.36799">
        <ele>60</ele>
        <time>2022-05-08T10:03:36Z</time>
      </trkpt>
      <trkpt lat="47.29157" lon="-1.36785">
        <ele>60</ele>
        <time>2022-05-08T10:03:38Z</time>
      </trkpt>
      <trkpt lat="47.29164" lon="-1.3677">
        <ele>60</ele>
        <time>2022-05-08T10:03:40Z</time>
      </trkpt>
      <trkpt lat="47.29171" lon="-1.36756">
        <ele>61</ele>
        <time>2022-05-08T10:03:42Z</time>
      </trkpt>
      <trkpt lat="47.29179" lon="-1.36742">
        <ele>61</ele>
        <time>2022-05-08T10:03:44Z</time>
      </trkpt>
      <trkpt lat="47.29186" lon="-1.36728">
        <ele>61</ele>
        <time>2022-05-08T10:03:46Z</time>
      </trkpt>
      <trkpt lat="47.29193" lon="-1.36714">
        <ele>61</ele>
        <time>2022-05-08T10:03:48Z</time>
      </trkpt>
      <trkpt lat="47.292" lon="-1.367">
        <ele>61</ele>
        <time>2022-05-08T10:03:50Z</time>
      </trkpt>
      <trkpt lat="47.29208" lon="-1.36686">
        <ele>61</ele>
        <time>2022-05-08T10:03:52Z</time>
      </trkpt>
      <trkpt lat="47.29215" lon="-1.36672">
        <ele>61</ele>
        <time>2022-05-08T10:03:54Z</time>
      </trkpt>
      <trkpt lat="47.29222" lon="-1.36658">
        <ele>60</ele>
        <time>2022-05-08T10:03:56Z</time>
      </trkpt>
      <trkpt lat="47.29229" lon="-1.36644">
        <ele>61</ele>
        <time>2022-05-08T10:03:58Z</time>
      </trkpt>
      <trkpt lat="47.29236" lon="-1.3663">
        <ele>61</ele>
        <time>2022-05-08T10:04:00Z</time>
      </trkpt>
      <trkpt lat="47.29243" lon="-1.36617">
        <ele>61</ele>
        <time>2022-05-08T10:04:02Z</time>
      </trkpt>
      <trkpt lat="47.2925" lon="-1.36604">
        <ele>61</ele>
        <time>2022-05-08T10:04:04Z</time>
      </trkpt>
      <trkpt lat="47.29257" lon="-1.3659">
        <ele>61</ele>
        <time>2022-05-08T10:04:06Z</time>
      </trkpt>
      <trkpt lat="47.29264" lon="-1.36576">
        <ele>61</ele>
        <time>2022-05-08T10:04:08Z</time>
      </trkpt>
      <trkpt lat="47.29272" lon="-1.36562">
        <ele>61</ele>
        <time>2022-05-08T10:04:10Z</time>
      </trkpt>
      <trkpt lat="47.29279" lon="-1.36549">
        <ele>61</ele>
        <time>2022-05-08T10:04:12Z</time>
      </trkpt>
      <trkpt lat="47.29287" lon="-1.36535">
        <ele>61</ele>
        <time>2022-05-08T10:04:14Z</time>
      </trkpt>
      <trkpt lat="47.29294" lon="-1.36521">
        <ele>61</ele>
        <time>2022-05-08T10:04:16Z</time>
      </trkpt>
      <trkpt lat="47.29301" lon="-1.36506">
        <ele>61</ele>
        <time>2022-05-08T10:04:18Z</time>
      </trkpt>
      <trkpt lat="47.29308" lon="-1.36492">
        <ele>60</ele>
        <time>2022-05-08T10:04:20Z</time>
      </trkpt>
      <trkpt lat="47.29316" lon="-1.36478">
        <ele>60</ele>
        <time>2022-05-08T10:04:22Z</time>
      </trkpt>
      <trkpt lat="47.29323" lon="-1.36464">
        <ele>60</ele>
        <time>2022-05-08T10:04:24Z</time>
      </trkpt>
      <trkpt lat="47.2933" lon="-1.3645">
        <ele>60</ele>
        <time>2022-05-08T10:04:26Z</time>
      </trkpt>
      <trkpt lat="47.29337" lon="-1.36435">
        <ele>60</ele>
        <time>2022-05-08T10:04:28Z</time>
      </trkpt>
      <trkpt lat="47.29344" lon="-1.36421">
        <ele>60</ele>
        <time>2022-05-08T10:04:30Z</time>
      </trkpt>
      <trkpt lat="47.29352" lon="-1.36407">
        <ele>60</ele>
        <time>2022-05-08T10:04:32Z</time>
      </trkpt>
      <trkpt lat="47.2936" lon="-1.36393">
        <ele>60</ele>
        <time>2022-05-08T10:04:34Z</time>
      </trkpt>
      <trkpt lat="47.29367" lon="-1.36379">
        <ele>60</ele>
        <time>2022-05-08T10:04:36Z</time>
      </trkpt>
      <trkpt lat="47.29374" lon="-1.36365">
        <ele>60</ele>
        <time>2022-05-08T10:04:38Z</time>
      </trkpt>
      <trkpt lat="47.29382" lon="-1.3635">
        <ele>60</ele>
        <time>2022-05-08T10:04:40Z</time>
      </trkpt>
      <trkpt lat="47.29389" lon="-1.36336">
        <ele>60</ele>
        <time>2022-05-08T10:04:42Z</time>
      </trkpt>
      <trkpt lat="47.29396" lon="-1.36322">
        <ele>60</ele>
        <time>2022-05-08T10:04:44Z</time>
      </trkpt>
      <trkpt lat="47.29403" lon="-1.36308">
        <ele>60</ele>
        <time>2022-05-08T10:04:46Z</time>
      </trkpt>
      <trkpt lat="47.2941" lon="-1.36294">
        <ele>60</ele>
        <time>2022-05-08T10:04:48Z</time>
      </trkpt>
      <trkpt lat="47.29418" lon="-1.36281">
        <ele>60</ele>
        <time>2022-05-08T10:04:50Z</time>
      </trkpt>
      <trkpt lat="47.29425" lon="-1.36267">
        <ele>60</ele>
        <time>2022-05-08T10:04:52Z</time>
      </trkpt>
      <trkpt lat="47.29432" lon="-1.36254">
        <ele>60</ele>
        <time>2022-05-08T10:04:54Z</time>
      </trkpt>
      <trkpt lat="47.29439" lon="-1.36239">
        <ele>60</ele>
        <time>2022-05-08T10:04:56Z</time>
      </trkpt>
      <trkpt lat="47.29447" lon="-1.36225">
        <ele>60</ele>
        <time>2022-05-08T10:04:58Z</time>
      </trkpt>
      <trkpt lat="47.29454" lon="-1.36211">
        <ele>60</ele>
        <time>2022-05-08T10:05:00Z</time>
      </trkpt>
      <trkpt lat="47.29462" lon="-1.36196">
        <ele>60</ele>
        <time>2022-05-08T10:05:02Z</time>
      </trkpt>
      <trkpt lat="47.29469" lon="-1.36182">
        <ele>60</ele>
        <time>2022-05-08T10:05:04Z</time>
      </trkpt>
      <trkpt lat="47.29476" lon="-1.36168">
        <ele>60</ele>
        <time>2022-05-08T10:05:06Z</time>
      </trkpt>
      <trkpt lat="47.29484" lon="-1.36154">
        <ele>59</ele>
        <time>2022-05-08T10:05:08Z</time>
      </trkpt>
      <trkpt lat="47.29491" lon="-1.3614">
        <ele>60</ele>
        <time>2022-05-08T10:05:10Z</time>
      </trkpt>
      <trkpt lat="47.29498" lon="-1.36126">
        <ele>60</ele>
        <time>2022-05-08T10:05:12Z</time>
      </trkpt>
      <trkpt lat="47.29506" lon="-1.36112">
        <ele>60</ele>
        <time>2022-05-08T10:05:14Z</time>
      </trkpt>
      <trkpt lat="47.29513" lon="-1.36097">
        <ele>60</ele>
        <time>2022-05-08T10:05:16Z</time>
      </trkpt>
      <trkpt lat="47.2952" lon="-1.36083">
        <ele>60</ele>
        <time>2022-05-08T10:05:18Z</time>
      </trkpt>
      <trkpt lat="47.29528" lon="-1.36068">
        <ele>60</ele>
        <time>2022-05-08T10:05:20Z</time>
      </trkpt>
      <trkpt lat="47.29535" lon="-1.36055">
        <ele>60</ele>
        <time>2022-05-08T10:05:22Z</time>
      </trkpt>
      <trkpt lat="47.29542" lon="-1.3604">
        <ele>60</ele>
        <time>2022-05-08T10:05:24Z</time>
      </trkpt>
      <trkpt lat="47.29549" lon="-1.36026">
        <ele>60</ele>
        <time>2022-05-08T10:05:26Z</time>
      </trkpt>
      <trkpt lat="47.29557" lon="-1.36012">
        <ele>60</ele>
        <time>2022-05-08T10:05:28Z</time>
      </trkpt>
      <trkpt lat="47.29564" lon="-1.35998">
        <ele>60</ele>
        <time>2022-05-08T10:05:30Z</time>
      </trkpt>
      <trkpt lat="47.29571" lon="-1.35984">
        <ele>60</ele>
        <time>2022-05-08T10:05:32Z</time>
      </trkpt>
      <trkpt lat="47.29579" lon="-1.3597">
        <ele>60</ele>
        <time>2022-05-08T10:05:34Z</time>
      </trkpt>
      <trkpt lat="47.29586" lon="-1.35955">
        <ele>60</ele>
        <time>2022-05-08T10:05:36Z</time>
      </trkpt>
      <trkpt lat="47.29593" lon="-1.3594">
        <ele>59</ele>
        <time>2022-05-08T10:05:38Z</time>
      </trkpt>
      <trkpt lat="47.29601" lon="-1.35925">
        <ele>59</ele>
        <time>2022-05-08T10:05:40Z</time>
      </trkpt>
      <trkpt lat="47.29608" lon="-1.3591">
        <ele>59</ele>
        <time>2022-05-08T10:05:42Z</time>
      </trkpt>
      <trkpt lat="47.29616" lon="-1.35895">
        <ele>59</ele>
        <time>2022-05-08T10:05:44Z</time>
      </trkpt>
      <trkpt lat="47.29624" lon="-1.3588">
        <ele>59</ele>
        <time>2022-05-08T10:05:46Z</time>
      </trkpt>
      <trkpt lat="47.29632" lon="-1.35866">
        <ele>59</ele>
        <time>2022-05-08T10:05:48Z</time>
      </trkpt>
      <trkpt lat="47.29639" lon="-1.3585">
        <ele>59</ele>
        <time>2022-05-08T10:05:50Z</time>
      </trkpt>
      <trkpt lat="47.29647" lon="-1.35835">
        <ele>59</ele>
        <time>2022-05-08T10:05:52Z</time>
      </trkpt>
      <trkpt lat="47.29655" lon="-1.3582">
        <ele>59</ele>
        <time>2022-05-08T10:05:54Z</time>
      </trkpt>
      <trkpt lat="47.29663" lon="-1.35805">
        <ele>59</ele>
        <time>2022-05-08T10:05:56Z</time>
      </trkpt>
      <trkpt lat="47.29671" lon="-1.3579">
        <ele>59</ele>
        <time>2022-05-08T10:05:58Z</time>
      </trkpt>
      <trkpt lat="47.29679" lon="-1.35774">
        <ele>59</ele>
        <time>2022-05-08T10:06:00Z</time>
      </trkpt>
      <trkpt lat="47.29686" lon="-1.35759">
        <ele>59</ele>
        <time>2022-05-08T10:06:02Z</time>
      </trkpt>
      <trkpt lat="47.29694" lon="-1.35744">
        <ele>59</ele>
        <time>2022-05-08T10:06:04Z</time>
      </trkpt>
      <trkpt lat="47.29702" lon="-1.35729">
        <ele>59</ele>
        <time>2022-05-08T10:06:06Z</time>
      </trkpt>
      <trkpt lat="47.29709" lon="-1.35715">
        <ele>59</ele>
        <time>2022-05-08T10:06:08Z</time>
      </trkpt>
      <trkpt lat="47.29717" lon="-1.35701">
        <ele>59</ele>
        <time>2022-05-08T10:06:10Z</time>
      </trkpt>
      <trkpt lat="47.29724" lon="-1.35687">
        <ele>59</ele>
        <time>2022-05-08T10:06:12Z</time>
      </trkpt>
      <trkpt lat="47.29731" lon="-1.35672">
        <ele>59</ele>
        <time>2022-05-08T10:06:14Z</time>
      </trkpt>
      <trkpt lat="47.29739" lon="-1.35657">
        <ele>60</ele>
        <time>2022-05-08T10:06:16Z</time>
      </trkpt>
      <trkpt lat="47.29746" lon="-1.35642">
        <ele>59</ele>
        <time>2022-05-08T10:06:18Z</time>
      </trkpt>
      <trkpt lat="47.29754" lon="-1.35628">
        <ele>59</ele>
        <time>2022-05-08T10:06:20Z</time>
      </trkpt>
      <trkpt lat="47.29761" lon="-1.35614">
        <ele>59</ele>
        <time>2022-05-08T10:06:22Z</time>
      </trkpt>
      <trkpt lat="47.29768" lon="-1.356">
        <ele>59</ele>
        <time>2022-05-08T10:06:24Z</time>
      </trkpt>
      <trkpt lat="47.29776" lon="-1.35585">
        <ele>59</ele>
        <time>2022-05-08T10:06:26Z</time>
      </trkpt>
      <trkpt lat="47.29783" lon="-1.35571">
        <ele>59</ele>
        <time>2022-05-08T10:06:28Z</time>
      </trkpt>
      <trkpt lat="47.2979" lon="-1.35557">
        <ele>59</ele>
        <time>2022-05-08T10:06:30Z</time>
      </trkpt>
      <trkpt lat="47.29797" lon="-1.35544">
        <ele>59</ele>
        <time>2022-05-08T10:06:32Z</time>
      </trkpt>
      <trkpt lat="47.29804" lon="-1.3553">
        <ele>59</ele>
        <time>2022-05-08T10:06:34Z</time>
      </trkpt>
      <trkpt lat="47.29811" lon="-1.35517">
        <ele>59</ele>
        <time>2022-05-08T10:06:36Z</time>
      </trkpt>
      <trkpt lat="47.29818" lon="-1.35504">
        <ele>59</ele>
        <time>2022-05-08T10:06:38Z</time>
      </trkpt>
      <trkpt lat="47.29825" lon="-1.3549">
        <ele>59</ele>
        <time>2022-05-08T10:06:40Z</time>
      </trkpt>
      <trkpt lat="47.29832" lon="-1.35476">
        <ele>59</ele>
        <time>2022-05-08T10:06:42Z</time>
      </trkpt>
      <trkpt lat="47.29839" lon="-1.35463">
        <ele>59</ele>
        <time>2022-05-08T10:06:44Z</time>
      </trkpt>
      <trkpt lat="47.29846" lon="-1.3545">
        <ele>59</ele>
        <time>2022-05-08T10:06:46Z</time>
      </trkpt>
      <trkpt lat="47.29853" lon="-1.35436">
        <ele>59</ele>
        <time>2022-05-08T10:06:48Z</time>
      </trkpt>
      <trkpt lat="47.2986" lon="-1.35422">
        <ele>58</ele>
        <time>2022-05-08T10:06:50Z</time>
      </trkpt>
      <trkpt lat="47.29868" lon="-1.35408">
        <ele>58</ele>
        <time>2022-05-08T10:06:52Z</time>
      </trkpt>
      <trkpt lat="47.29874" lon="-1.35394">
        <ele>58</ele>
        <time>2022-05-08T10:06:54Z</time>
      </trkpt>
      <trkpt lat="47.29881" lon="-1.35381">
        <ele>58</ele>
        <time>2022-05-08T10:06:56Z</time>
      </trkpt>
      <trkpt lat="47.29888" lon="-1.35368">
        <ele>58</ele>
        <time>2022-05-08T10:06:58Z</time>
      </trkpt>
      <trkpt lat="47.29895" lon="-1.35356">
        <ele>58</ele>
        <time>2022-05-08T10:07:00Z</time>
      </trkpt>
      <trkpt lat="47.29902" lon="-1.35342">
        <ele>58</ele>
        <time>2022-05-08T10:07:02Z</time>
      </trkpt>
      <trkpt lat="47.29909" lon="-1.35329">
        <ele>58</ele>
        <time>2022-05-08T10:07:04Z</time>
      </trkpt>
      <trkpt lat="47.29915" lon="-1.35315">
        <ele>58</ele>
        <time>2022-05-08T10:07:06Z</time>
      </trkpt>
      <trkpt lat="47.29922" lon="-1.35302">
        <ele>58</ele>
        <time>2022-05-08T10:07:08Z</time>
      </trkpt>
      <trkpt lat="47.29929" lon="-1.35289">
        <ele>58</ele>
        <time>2022-05-08T10:07:10Z</time>
      </trkpt>
      <trkpt lat="47.29936" lon="-1.35276">
        <ele>58</ele>
        <time>2022-05-08T10:07:12Z</time>
      </trkpt>
      <trkpt lat="47.29943" lon="-1.35263">
        <ele>58</ele>
        <time>2022-05-08T10:07:14Z</time>
      </trkpt>
      <trkpt lat="47.29949" lon="-1.35249">
        <ele>58</ele>
        <time>2022-05-08T10:07:16Z</time>
      </trkpt>
      <trkpt lat="47.29956" lon="-1.35236">
        <ele>59</ele>
        <time>2022-05-08T10:07:18Z</time>
      </trkpt>
      <trkpt lat="47.29963" lon="-1.35223">
        <ele>58</ele>
        <time>2022-05-08T10:07:20Z</time>
      </trkpt>
      <trkpt lat="47.2997" lon="-1.3521">
        <ele>58</ele>
        <time>2022-05-08T10:07:22Z</time>
      </trkpt>
      <trkpt lat="47.29977" lon="-1.35197">
        <ele>58</ele>
        <time>2022-05-08T10:07:24Z</time>
      </trkpt>
      <trkpt lat="47.29983" lon="-1.35183">
        <ele>58</ele>
        <time>2022-05-08T10:07:26Z</time>
      </trkpt>
      <trkpt lat="47.2999" lon="-1.3517">
        <ele>58</ele>
        <time>2022-05-08T10:07:28Z</time>
      </trkpt>
      <trkpt lat="47.29997" lon="-1.35156">
        <ele>58</ele>
        <time>2022-05-08T10:07:30Z</time>
      </trkpt>
      <trkpt lat="47.30004" lon="-1.35143">
        <ele>58</ele>
        <time>2022-05-08T10:07:32Z</time>
      </trkpt>
      <trkpt lat="47.30011" lon="-1.3513">
        <ele>59</ele>
        <time>2022-05-08T10:07:34Z</time>
      </trkpt>
      <trkpt lat="47.30018" lon="-1.35116">
        <ele>59</ele>
        <time>2022-05-08T10:07:36Z</time>
      </trkpt>
      <trkpt lat="47.30025" lon="-1.35101">
        <ele>59</ele>
        <time>2022-05-08T10:07:38Z</time>
      </trkpt>
      <trkpt lat="47.30032" lon="-1.35086">
        <ele>59</ele>
        <time>2022-05-08T10:07:40Z</time>
      </trkpt>
      <trkpt lat="47.30038" lon="-1.35071">
        <ele>59</ele>
        <time>2022-05-08T10:07:42Z</time>
      </trkpt>
      <trkpt lat="47.30044" lon="-1.35056">
        <ele>59</ele>
        <time>2022-05-08T10:07:44Z</time>
      </trkpt>
      <trkpt lat="47.3005" lon="-1.35042">
        <ele>59</ele>
        <time>2022-05-08T10:07:46Z</time>
      </trkpt>
      <trkpt lat="47.30055" lon="-1.35027">
        <ele>59</ele>
        <time>2022-05-08T10:07:48Z</time>
      </trkpt>
      <trkpt lat="47.30061" lon="-1.35011">
        <ele>59</ele>
        <time>2022-05-08T10:07:50Z</time>
      </trkpt>
      <trkpt lat="47.30066" lon="-1.34995">
        <ele>59</ele>
        <time>2022-05-08T10:07:52Z</time>
      </trkpt>
      <trkpt lat="47.30071" lon="-1.34979">
        <ele>59</ele>
        <time>2022-05-08T10:07:54Z</time>
      </trkpt>
      <trkpt lat="47.30075" lon="-1.34962">
        <ele>59</ele>
        <time>2022-05-08T10:07:56Z</time>
      </trkpt>
      <trkpt lat="47.30079" lon="-1.34946">
        <ele>59</ele>
        <time>2022-05-08T10:07:58Z</time>
      </trkpt>
      <trkpt lat="47.30083" lon="-1.34928">
        <ele>59</ele>
        <time>2022-05-08T10:08:00Z</time>
      </trkpt>
      <trkpt lat="47.30087" lon="-1.3491">
        <ele>59</ele>
        <time>2022-05-08T10:08:02Z</time>
      </trkpt>
      <trkpt lat="47.3009" lon="-1.34893">
        <ele>59</ele>
        <time>2022-05-08T10:08:04Z</time>
      </trkpt>
      <trkpt lat="47.30093" lon="-1.34875">
        <ele>59</ele>
        <time>2022-05-08T10:08:06Z</time>
      </trkpt>
      <trkpt lat="47.30096" lon="-1.34856">
        <ele>59</ele>
        <time>2022-05-08T10:08:08Z</time>
      </trkpt>
      <trkpt lat="47.30097" lon="-1.34838">
        <ele>58</ele>
        <time>2022-05-08T10:08:10Z</time>
      </trkpt>
      <trkpt lat="47.30099" lon="-1.34819">
        <ele>59</ele>
        <time>2022-05-08T10:08:12Z</time>
      </trkpt>
      <trkpt lat="47.301" lon="-1.34801">
        <ele>59</ele>
        <time>2022-05-08T10:08:14Z</time>
      </trkpt>
      <trkpt lat="47.30101" lon="-1.34783">
        <ele>59</ele>
        <time>2022-05-08T10:08:16Z</time>
      </trkpt>
      <trkpt lat="47.30101" lon="-1.34764">
        <ele>59</ele>
        <time>2022-05-08T10:08:18Z</time>
      </trkpt>
      <trkpt lat="47.30101" lon="-1.34747">
        <ele>59</ele>
        <time>2022-05-08T10:08:20Z</time>
      </trkpt>
      <trkpt lat="47.30101" lon="-1.34729">
        <ele>59</ele>
        <time>2022-05-08T10:08:22Z</time>
      </trkpt>
      <trkpt lat="47.301" lon="-1.34711">
        <ele>59</ele>
        <time>2022-05-08T10:08:24Z</time>
      </trkpt>
      <trkpt lat="47.301" lon="-1.34694">
        <ele>59</ele>
        <time>2022-05-08T10:08:26Z</time>
      </trkpt>
      <trkpt lat="47.30099" lon="-1.34677">
        <ele>59</ele>
        <time>2022-05-08T10:08:28Z</time>
      </trkpt>
      <trkpt lat="47.30098" lon="-1.34661">
        <ele>60</ele>
        <time>2022-05-08T10:08:30Z</time>
      </trkpt>
      <trkpt lat="47.30097" lon="-1.34646">
        <ele>60</ele>
        <time>2022-05-08T10:08:32Z</time>
      </trkpt>
      <trkpt lat="47.30095" lon="-1.34627">
        <ele>60</ele>
        <time>2022-05-08T10:08:35Z</time>
      </trkpt>
      <trkpt lat="47.30093" lon="-1.34609">
        <ele>60</ele>
        <time>2022-05-08T10:08:38Z</time>
      </trkpt>
      <trkpt lat="47.30099" lon="-1.3459">
        <ele>59</ele>
        <time>2022-05-08T10:08:41Z</time>
      </trkpt>
      <trkpt lat="47.30102" lon="-1.34574">
        <ele>59</ele>
        <time>2022-05-08T10:08:43Z</time>
      </trkpt>
      <trkpt lat="47.30105" lon="-1.34556">
        <ele>59</ele>
        <time>2022-05-08T10:08:45Z</time>
      </trkpt>
      <trkpt lat="47.30105" lon="-1.3454">
        <ele>58</ele>
        <time>2022-05-08T10:08:47Z</time>
      </trkpt>
      <trkpt lat="47.30099" lon="-1.34526">
        <ele>58</ele>
        <time>2022-05-08T10:08:49Z</time>
      </trkpt>
      <trkpt lat="47.30091" lon="-1.34512">
        <ele>57</ele>
        <time>2022-05-08T10:08:51Z</time>
      </trkpt>
      <trkpt lat="47.30084" lon="-1.34496">
        <ele>57</ele>
        <time>2022-05-08T10:08:53Z</time>
      </trkpt>
      <trkpt lat="47.3008" lon="-1.34479">
        <ele>57</ele>
        <time>2022-05-08T10:08:55Z</time>
      </trkpt>
      <trkpt lat="47.30077" lon="-1.34461">
        <ele>57</ele>
        <time>2022-05-08T10:08:57Z</time>
      </trkpt>
      <trkpt lat="47.30073" lon="-1.34443">
        <ele>56</ele>
        <time>2022-05-08T10:08:59Z</time>
      </trkpt>
      <trkpt lat="47.3007" lon="-1.34425">
        <ele>57</ele>
        <time>2022-05-08T10:09:01Z</time>
      </trkpt>
      <trkpt lat="47.30066" lon="-1.34408">
        <ele>57</ele>
        <time>2022-05-08T10:09:03Z</time>
      </trkpt>
      <trkpt lat="47.30063" lon="-1.3439">
        <ele>57</ele>
        <time>2022-05-08T10:09:05Z</time>
      </trkpt>
      <trkpt lat="47.3006" lon="-1.34371">
        <ele>57</ele>
        <time>2022-05-08T10:09:07Z</time>
      </trkpt>
      <trkpt lat="47.30057" lon="-1.34354">
        <ele>57</ele>
        <time>2022-05-08T10:09:09Z</time>
      </trkpt>
      <trkpt lat="47.30054" lon="-1.34337">
        <ele>57</ele>
        <time>2022-05-08T10:09:11Z</time>
      </trkpt>
      <trkpt lat="47.3005" lon="-1.3432">
        <ele>57</ele>
        <time>2022-05-08T10:09:13Z</time>
      </trkpt>
      <trkpt lat="47.30046" lon="-1.34303">
        <ele>57</ele>
        <time>2022-05-08T10:09:15Z</time>
      </trkpt>
      <trkpt lat="47.30043" lon="-1.34286">
        <ele>57</ele>
        <time>2022-05-08T10:09:17Z</time>
      </trkpt>
      <trkpt lat="47.3004" lon="-1.34269">
        <ele>57</ele>
        <time>2022-05-08T10:09:19Z</time>
      </trkpt>
      <trkpt lat="47.30036" lon="-1.34252">
        <ele>57</ele>
        <time>2022-05-08T10:09:21Z</time>
      </trkpt>
      <trkpt lat="47.30033" lon="-1.34234">
        <ele>57</ele>
        <time>2022-05-08T10:09:23Z</time>
      </trkpt>
      <trkpt lat="47.3003" lon="-1.34216">
        <ele>57</ele>
        <time>2022-05-08T10:09:25Z</time>
      </trkpt>
      <trkpt lat="47.30026" lon="-1.34199">
        <ele>57</ele>
        <time>2022-05-08T10:09:27Z</time>
      </trkpt>
      <trkpt lat="47.30023" lon="-1.34182">
        <ele>57</ele>
        <time>2022-05-08T10:09:29Z</time>
      </trkpt>
      <trkpt lat="47.30019" lon="-1.34165">
        <ele>58</ele>
        <time>2022-05-08T10:09:31Z</time>
      </trkpt>
      <trkpt lat="47.30016" lon="-1.34149">
        <ele>58</ele>
        <time>2022-05-08T10:09:33Z</time>
      </trkpt>
      <trkpt lat="47.30015" lon="-1.34131">
        <ele>57</ele>
        <time>2022-05-08T10:09:35Z</time>
      </trkpt>
      <trkpt lat="47.30019" lon="-1.34118">
        <ele>57</ele>
        <time>2022-05-08T10:09:37Z</time>
      </trkpt>
      <trkpt lat="47.30028" lon="-1.3411">
        <ele>57</ele>
        <time>2022-05-08T10:09:39Z</time>
      </trkpt>
      <trkpt lat="47.3004" lon="-1.34104">
        <ele>57</ele>
        <time>2022-05-08T10:09:41Z</time>
      </trkpt>
      <trkpt lat="47.30051" lon="-1.341">
        <ele>56</ele>
        <time>2022-05-08T10:09:43Z</time>
      </trkpt>
      <trkpt lat="47.30064" lon="-1.34102">
        <ele>56</ele>
        <time>2022-05-08T10:09:45Z</time>
      </trkpt>
      <trkpt lat="47.30074" lon="-1.34112">
        <ele>56</ele>
        <time>2022-05-08T10:09:47Z</time>
      </trkpt>
      <trkpt lat="47.30083" lon="-1.34122">
        <ele>56</ele>
        <time>2022-05-08T10:09:49Z</time>
      </trkpt>
      <trkpt lat="47.30091" lon="-1.34133">
        <ele>57</ele>
        <time>2022-05-08T10:09:51Z</time>
      </trkpt>
      <trkpt lat="47.30098" lon="-1.34141">
        <ele>57</ele>
        <time>2022-05-08T10:09:53Z</time>
      </trkpt>
      <trkpt lat="47.30108" lon="-1.34135">
        <ele>58</ele>
        <time>2022-05-08T10:09:56Z</time>
      </trkpt>
      <trkpt lat="47.30111" lon="-1.34119">
        <ele>58</ele>
        <time>2022-05-08T10:09:58Z</time>
      </trkpt>
      <trkpt lat="47.30114" lon="-1.34103">
        <ele>58</ele>
        <time>2022-05-08T10:10:00Z</time>
      </trkpt>
      <trkpt lat="47.30119" lon="-1.34087">
        <ele>59</ele>
        <time>2022-05-08T10:10:02Z</time>
      </trkpt>
      <trkpt lat="47.30126" lon="-1.34073">
        <ele>59</ele>
        <time>2022-05-08T10:10:04Z</time>
      </trkpt>
      <trkpt lat="47.30136" lon="-1.34063">
        <ele>59</ele>
        <time>2022-05-08T10:10:06Z</time>
      </trkpt>
      <trkpt lat="47.30145" lon="-1.34055">
        <ele>59</ele>
        <time>2022-05-08T10:10:08Z</time>
      </trkpt>
      <trkpt lat="47.30155" lon="-1.34046">
        <ele>59</ele>
        <time>2022-05-08T10:10:10Z</time>
      </trkpt>
      <trkpt lat="47.30166" lon="-1.34036">
        <ele>60</ele>
        <time>2022-05-08T10:10:12Z</time>
      </trkpt>
      <trkpt lat="47.30176" lon="-1.34026">
        <ele>60</ele>
        <time>2022-05-08T10:10:14Z</time>
      </trkpt>
      <trkpt lat="47.30186" lon="-1.34017">
        <ele>61</ele>
        <time>2022-05-08T10:10:16Z</time>
      </trkpt>
      <trkpt lat="47.30195" lon="-1.34007">
        <ele>61</ele>
        <time>2022-05-08T10:10:18Z</time>
      </trkpt>
      <trkpt lat="47.30204" lon="-1.33998">
        <ele>62</ele>
        <time>2022-05-08T10:10:20Z</time>
      </trkpt>
      <trkpt lat="47.30216" lon="-1.33992">
        <ele>62</ele>
        <time>2022-05-08T10:10:23Z</time>
      </trkpt>
      <trkpt lat="47.30225" lon="-1.34005">
        <ele>63</ele>
        <time>2022-05-08T10:10:26Z</time>
      </trkpt>
      <trkpt lat="47.30231" lon="-1.34022">
        <ele>63</ele>
        <time>2022-05-08T10:10:28Z</time>
      </trkpt>
      <trkpt lat="47.30236" lon="-1.3404">
        <ele>63</ele>
        <time>2022-05-08T10:10:30Z</time>
      </trkpt>
      <trkpt lat="47.30241" lon="-1.34057">
        <ele>63</ele>
        <time>2022-05-08T10:10:32Z</time>
      </trkpt>
      <trkpt lat="47.30246" lon="-1.34073">
        <ele>62</ele>
        <time>2022-05-08T10:10:34Z</time>
      </trkpt>
      <trkpt lat="47.30252" lon="-1.34088">
        <ele>62</ele>
        <time>2022-05-08T10:10:36Z</time>
      </trkpt>
      <trkpt lat="47.30259" lon="-1.34099">
        <ele>61</ele>
        <time>2022-05-08T10:10:38Z</time>
      </trkpt>
      <trkpt lat="47.30272" lon="-1.34093">
        <ele>60</ele>
        <time>2022-05-08T10:10:41Z</time>
      </trkpt>
      <trkpt lat="47.3028" lon="-1.34082">
        <ele>61</ele>
        <time>2022-05-08T10:10:43Z</time>
      </trkpt>
      <trkpt lat="47.30289" lon="-1.34072">
        <ele>60</ele>
        <time>2022-05-08T10:10:45Z</time>
      </trkpt>
      <trkpt lat="47.30299" lon="-1.34061">
        <ele>60</ele>
        <time>2022-05-08T10:10:47Z</time>
      </trkpt>
      <trkpt lat="47.30309" lon="-1.34053">
        <ele>59</ele>
        <time>2022-05-08T10:10:49Z</time>
      </trkpt>
      <trkpt lat="47.30318" lon="-1.34042">
        <ele>59</ele>
        <time>2022-05-08T10:10:51Z</time>
      </trkpt>
      <trkpt lat="47.30327" lon="-1.34029">
        <ele>59</ele>
        <time>2022-05-08T10:10:53Z</time>
      </trkpt>
      <trkpt lat="47.30334" lon="-1.34017">
        <ele>59</ele>
        <time>2022-05-08T10:10:55Z</time>
      </trkpt>
      <trkpt lat="47.30341" lon="-1.34004">
        <ele>59</ele>
        <time>2022-05-08T10:10:57Z</time>
      </trkpt>
      <trkpt lat="47.30348" lon="-1.33993">
        <ele>59</ele>
        <time>2022-05-08T10:10:59Z</time>
      </trkpt>
      <trkpt lat="47.30354" lon="-1.3398">
        <ele>58</ele>
        <time>2022-05-08T10:11:01Z</time>
      </trkpt>
      <trkpt lat="47.3036" lon="-1.33967">
        <ele>58</ele>
        <time>2022-05-08T10:11:03Z</time>
      </trkpt>
      <trkpt lat="47.30372" lon="-1.33958">
        <ele>57</ele>
        <time>2022-05-08T10:11:06Z</time>
      </trkpt>
      <trkpt lat="47.30382" lon="-1.33955">
        <ele>57</ele>
        <time>2022-05-08T10:11:08Z</time>
      </trkpt>
      <trkpt lat="47.30389" lon="-1.33945">
        <ele>57</ele>
        <time>2022-05-08T10:11:10Z</time>
      </trkpt>
      <trkpt lat="47.30397" lon="-1.33933">
        <ele>57</ele>
        <time>2022-05-08T10:11:12Z</time>
      </trkpt>
      <trkpt lat="47.30405" lon="-1.33921">
        <ele>57</ele>
        <time>2022-05-08T10:11:14Z</time>
      </trkpt>
      <trkpt lat="47.30414" lon="-1.33908">
        <ele>58</ele>
        <time>2022-05-08T10:11:16Z</time>
      </trkpt>
      <trkpt lat="47.30423" lon="-1.33896">
        <ele>58</ele>
        <time>2022-05-08T10:11:18Z</time>
      </trkpt>
      <trkpt lat="47.30433" lon="-1.33885">
        <ele>59</ele>
        <time>2022-05-08T10:11:20Z</time>
      </trkpt>
      <trkpt lat="47.30444" lon="-1.33875">
        <ele>58</ele>
        <time>2022-05-08T10:11:22Z</time>
      </trkpt>
      <trkpt lat="47.30453" lon="-1.33864">
        <ele>59</ele>
        <time>2022-05-08T10:11:24Z</time>
      </trkpt>
      <trkpt lat="47.30463" lon="-1.33854">
        <ele>60</ele>
        <time>2022-05-08T10:11:26Z</time>
      </trkpt>
      <trkpt lat="47.30473" lon="-1.33845">
        <ele>60</ele>
        <time>2022-05-08T10:11:28Z</time>
      </trkpt>
      <trkpt lat="47.30484" lon="-1.33836">
        <ele>59</ele>
        <time>2022-05-08T10:11:30Z</time>
      </trkpt>
      <trkpt lat="47.30495" lon="-1.33828">
        <ele>58</ele>
        <time>2022-05-08T10:11:32Z</time>
      </trkpt>
      <trkpt lat="47.30506" lon="-1.33819">
        <ele>58</ele>
        <time>2022-05-08T10:11:34Z</time>
      </trkpt>
      <trkpt lat="47.30518" lon="-1.33811">
        <ele>57</ele>
        <time>2022-05-08T10:11:36Z</time>
      </trkpt>
      <trkpt lat="47.30529" lon="-1.33804">
        <ele>58</ele>
        <time>2022-05-08T10:11:38Z</time>
      </trkpt>
      <trkpt lat="47.3054" lon="-1.33797">
        <ele>58</ele>
        <time>2022-05-08T10:11:40Z</time>
      </trkpt>
      <trkpt lat="47.30551" lon="-1.3379">
        <ele>58</ele>
        <time>2022-05-08T10:11:42Z</time>
      </trkpt>
      <trkpt lat="47.30562" lon="-1.33784">
        <ele>57</ele>
        <time>2022-05-08T10:11:44Z</time>
      </trkpt>
      <trkpt lat="47.30574" lon="-1.33778">
        <ele>57</ele>
        <time>2022-05-08T10:11:46Z</time>
      </trkpt>
      <trkpt lat="47.30585" lon="-1.33773">
        <ele>57</ele>
        <time>2022-05-08T10:11:48Z</time>
      </trkpt>
      <trkpt lat="47.30596" lon="-1.3377">
        <ele>57</ele>
        <time>2022-05-08T10:11:50Z</time>
      </trkpt>
      <trkpt lat="47.30608" lon="-1.33765">
        <ele>57</ele>
        <time>2022-05-08T10:11:52Z</time>
      </trkpt>
      <trkpt lat="47.3062" lon="-1.33762">
        <ele>58</ele>
        <time>2022-05-08T10:11:54Z</time>
      </trkpt>
      <trkpt lat="47.30632" lon="-1.33759">
        <ele>57</ele>
        <time>2022-05-08T10:11:56Z</time>
      </trkpt>
      <trkpt lat="47.30643" lon="-1.33755">
        <ele>58</ele>
        <time>2022-05-08T10:11:58Z</time>
      </trkpt>
      <trkpt lat="47.30655" lon="-1.33749">
        <ele>57</ele>
        <time>2022-05-08T10:12:00Z</time>
      </trkpt>
      <trkpt lat="47.30666" lon="-1.33743">
        <ele>58</ele>
        <time>2022-05-08T10:12:02Z</time>
      </trkpt>
      <trkpt lat="47.30677" lon="-1.33734">
        <ele>58</ele>
        <time>2022-05-08T10:12:04Z</time>
      </trkpt>
      <trkpt lat="47.30687" lon="-1.33725">
        <ele>58</ele>
        <time>2022-05-08T10:12:06Z</time>
      </trkpt>
      <trkpt lat="47.30697" lon="-1.33713">
        <ele>59</ele>
        <time>2022-05-08T10:12:08Z</time>
      </trkpt>
      <trkpt lat="47.30705" lon="-1.33699">
        <ele>59</ele>
        <time>2022-05-08T10:12:10Z</time>
      </trkpt>
      <trkpt lat="47.30711" lon="-1.33684">
        <ele>59</ele>
        <time>2022-05-08T10:12:12Z</time>
      </trkpt>
      <trkpt lat="47.30717" lon="-1.33669">
        <ele>60</ele>
        <time>2022-05-08T10:12:14Z</time>
      </trkpt>
      <trkpt lat="47.30722" lon="-1.33652">
        <ele>59</ele>
        <time>2022-05-08T10:12:16Z</time>
      </trkpt>
      <trkpt lat="47.30725" lon="-1.33635">
        <ele>59</ele>
        <time>2022-05-08T10:12:18Z</time>
      </trkpt>
      <trkpt lat="47.30722" lon="-1.33618">
        <ele>59</ele>
        <time>2022-05-08T10:12:20Z</time>
      </trkpt>
      <trkpt lat="47.30716" lon="-1.336">
        <ele>59</ele>
        <time>2022-05-08T10:12:22Z</time>
      </trkpt>
      <trkpt lat="47.30711" lon="-1.33584">
        <ele>59</ele>
        <time>2022-05-08T10:12:24Z</time>
      </trkpt>
      <trkpt lat="47.30705" lon="-1.33567">
        <ele>58</ele>
        <time>2022-05-08T10:12:26Z</time>
      </trkpt>
      <trkpt lat="47.30699" lon="-1.33551">
        <ele>58</ele>
        <time>2022-05-08T10:12:28Z</time>
      </trkpt>
      <trkpt lat="47.30694" lon="-1.33535">
        <ele>58</ele>
        <time>2022-05-08T10:12:30Z</time>
      </trkpt>
      <trkpt lat="47.30689" lon="-1.33519">
        <ele>58</ele>
        <time>2022-05-08T10:12:32Z</time>
      </trkpt>
      <trkpt lat="47.30684" lon="-1.33503">
        <ele>58</ele>
        <time>2022-05-08T10:12:34Z</time>
      </trkpt>
      <trkpt lat="47.30678" lon="-1.33487">
        <ele>58</ele>
        <time>2022-05-08T10:12:36Z</time>
      </trkpt>
      <trkpt lat="47.30673" lon="-1.3347">
        <ele>58</ele>
        <time>2022-05-08T10:12:38Z</time>
      </trkpt>
      <trkpt lat="47.30668" lon="-1.33454">
        <ele>59</ele>
        <time>2022-05-08T10:12:40Z</time>
      </trkpt>
      <trkpt lat="47.30662" lon="-1.33438">
        <ele>59</ele>
        <time>2022-05-08T10:12:42Z</time>
      </trkpt>
      <trkpt lat="47.30657" lon="-1.33422">
        <ele>59</ele>
        <time>2022-05-08T10:12:44Z</time>
      </trkpt>
      <trkpt lat="47.30651" lon="-1.33406">
        <ele>59</ele>
        <time>2022-05-08T10:12:46Z</time>
      </trkpt>
      <trkpt lat="47.30646" lon="-1.3339">
        <ele>59</ele>
        <time>2022-05-08T10:12:48Z</time>
      </trkpt>
      <trkpt lat="47.3064" lon="-1.33375">
        <ele>59</ele>
        <time>2022-05-08T10:12:50Z</time>
      </trkpt>
      <trkpt lat="47.30634" lon="-1.33359">
        <ele>59</ele>
        <time>2022-05-08T10:12:52Z</time>
      </trkpt>
      <trkpt lat="47.30628" lon="-1.33344">
        <ele>59</ele>
        <time>2022-05-08T10:12:54Z</time>
      </trkpt>
      <trkpt lat="47.30621" lon="-1.33328">
        <ele>59</ele>
        <time>2022-05-08T10:12:56Z</time>
      </trkpt>
      <trkpt lat="47.30616" lon="-1.33313">
        <ele>59</ele>
        <time>2022-05-08T10:12:58Z</time>
      </trkpt>
      <trkpt lat="47.30613" lon="-1.33295">
        <ele>59</ele>
        <time>2022-05-08T10:13:00Z</time>
      </trkpt>
      <trkpt lat="47.30614" lon="-1.33278">
        <ele>59</ele>
        <time>2022-05-08T10:13:02Z</time>
      </trkpt>
      <trkpt lat="47.30621" lon="-1.33253">
        <ele>60</ele>
        <time>2022-05-08T10:13:05Z</time>
      </trkpt>
      <trkpt lat="47.30632" lon="-1.33233">
        <ele>59</ele>
        <time>2022-05-08T10:13:08Z</time>
      </trkpt>
      <trkpt lat="47.30642" lon="-1.33225">
        <ele>59</ele>
        <time>2022-05-08T10:13:10Z</time>
      </trkpt>
      <trkpt lat="47.30654" lon="-1.33222">
        <ele>58</ele>
        <time>2022-05-08T10:13:12Z</time>
      </trkpt>
      <trkpt lat="47.30665" lon="-1.33218">
        <ele>57</ele>
        <time>2022-05-08T10:13:14Z</time>
      </trkpt>
      <trkpt lat="47.30676" lon="-1.33214">
        <ele>56</ele>
        <time>2022-05-08T10:13:16Z</time>
      </trkpt>
      <trkpt lat="47.30687" lon="-1.33211">
        <ele>56</ele>
        <time>2022-05-08T10:13:18Z</time>
      </trkpt>
      <trkpt lat="47.30704" lon="-1.33205">
        <ele>55</ele>
        <time>2022-05-08T10:13:21Z</time>
      </trkpt>
      <trkpt lat="47.30714" lon="-1.33201">
        <ele>55</ele>
        <time>2022-05-08T10:13:23Z</time>
      </trkpt>
      <trkpt lat="47.30725" lon="-1.33197">
        <ele>55</ele>
        <time>2022-05-08T10:13:25Z</time>
      </trkpt>
      <trkpt lat="47.30737" lon="-1.33192">
        <ele>55</ele>
        <time>2022-05-08T10:13:27Z</time>
      </trkpt>
      <trkpt lat="47.30748" lon="-1.33188">
        <ele>55</ele>
        <time>2022-05-08T10:13:29Z</time>
      </trkpt>
      <trkpt lat="47.30759" lon="-1.33183">
        <ele>55</ele>
        <time>2022-05-08T10:13:31Z</time>
      </trkpt>
      <trkpt lat="47.30769" lon="-1.33179">
        <ele>55</ele>
        <time>2022-05-08T10:13:33Z</time>
      </trkpt>
      <trkpt lat="47.3078" lon="-1.33175">
        <ele>55</ele>
        <time>2022-05-08T10:13:35Z</time>
      </trkpt>
      <trkpt lat="47.3079" lon="-1.33171">
        <ele>55</ele>
        <time>2022-05-08T10:13:37Z</time>
      </trkpt>
      <trkpt lat="47.30801" lon="-1.33165">
        <ele>55</ele>
        <time>2022-05-08T10:13:39Z</time>
      </trkpt>
      <trkpt lat="47.30812" lon="-1.33161">
        <ele>55</ele>
        <time>2022-05-08T10:13:41Z</time>
      </trkpt>
      <trkpt lat="47.30823" lon="-1.33156">
        <ele>55</ele>
        <time>2022-05-08T10:13:43Z</time>
      </trkpt>
      <trkpt lat="47.30834" lon="-1.33151">
        <ele>55</ele>
        <time>2022-05-08T10:13:45Z</time>
      </trkpt>
      <trkpt lat="47.30844" lon="-1.33146">
        <ele>56</ele>
        <time>2022-05-08T10:13:47Z</time>
      </trkpt>
      <trkpt lat="47.30855" lon="-1.33141">
        <ele>56</ele>
        <time>2022-05-08T10:13:49Z</time>
      </trkpt>
      <trkpt lat="47.30866" lon="-1.33137">
        <ele>56</ele>
        <time>2022-05-08T10:13:51Z</time>
      </trkpt>
      <trkpt lat="47.30876" lon="-1.33132">
        <ele>57</ele>
        <time>2022-05-08T10:13:53Z</time>
      </trkpt>
      <trkpt lat="47.30887" lon="-1.33128">
        <ele>57</ele>
        <time>2022-05-08T10:13:55Z</time>
      </trkpt>
      <trkpt lat="47.30897" lon="-1.33124">
        <ele>57</ele>
        <time>2022-05-08T10:13:57Z</time>
      </trkpt>
      <trkpt lat="47.30909" lon="-1.33119">
        <ele>57</ele>
        <time>2022-05-08T10:13:59Z</time>
      </trkpt>
      <trkpt lat="47.3092" lon="-1.33114">
        <ele>57</ele>
        <time>2022-05-08T10:14:01Z</time>
      </trkpt>
      <trkpt lat="47.30931" lon="-1.3311">
        <ele>57</ele>
        <time>2022-05-08T10:14:03Z</time>
      </trkpt>
      <trkpt lat="47.30942" lon="-1.33105">
        <ele>57</ele>
        <time>2022-05-08T10:14:05Z</time>
      </trkpt>
      <trkpt lat="47.30953" lon="-1.331">
        <ele>57</ele>
        <time>2022-05-08T10:14:07Z</time>
      </trkpt>
      <trkpt lat="47.30964" lon="-1.33095">
        <ele>56</ele>
        <time>2022-05-08T10:14:09Z</time>
      </trkpt>
      <trkpt lat="47.30975" lon="-1.3309">
        <ele>56</ele>
        <time>2022-05-08T10:14:11Z</time>
      </trkpt>
      <trkpt lat="47.30986" lon="-1.33085">
        <ele>56</ele>
        <time>2022-05-08T10:14:13Z</time>
      </trkpt>
      <trkpt lat="47.30998" lon="-1.33081">
        <ele>56</ele>
        <time>2022-05-08T10:14:15Z</time>
      </trkpt>
      <trkpt lat="47.31009" lon="-1.33076">
        <ele>56</ele>
        <time>2022-05-08T10:14:17Z</time>
      </trkpt>
      <trkpt lat="47.3102" lon="-1.33071">
        <ele>56</ele>
        <time>2022-05-08T10:14:19Z</time>
      </trkpt>
      <trkpt lat="47.31032" lon="-1.33067">
        <ele>56</ele>
        <time>2022-05-08T10:14:21Z</time>
      </trkpt>
      <trkpt lat="47.31043" lon="-1.33062">
        <ele>56</ele>
        <time>2022-05-08T10:14:23Z</time>
      </trkpt>
      <trkpt lat="47.31054" lon="-1.33057">
        <ele>56</ele>
        <time>2022-05-08T10:14:25Z</time>
      </trkpt>
      <trkpt lat="47.31065" lon="-1.33052">
        <ele>56</ele>
        <time>2022-05-08T10:14:27Z</time>
      </trkpt>
      <trkpt lat="47.31076" lon="-1.33048">
        <ele>56</ele>
        <time>2022-05-08T10:14:29Z</time>
      </trkpt>
      <trkpt lat="47.31087" lon="-1.33043">
        <ele>56</ele>
        <time>2022-05-08T10:14:31Z</time>
      </trkpt>
      <trkpt lat="47.31098" lon="-1.33038">
        <ele>56</ele>
        <time>2022-05-08T10:14:33Z</time>
      </trkpt>
      <trkpt lat="47.31109" lon="-1.33033">
        <ele>56</ele>
        <time>2022-05-08T10:14:35Z</time>
      </trkpt>
      <trkpt lat="47.3112" lon="-1.33029">
        <ele>56</ele>
        <time>2022-05-08T10:14:37Z</time>
      </trkpt>
      <trkpt lat="47.31131" lon="-1.33025">
        <ele>56</ele>
        <time>2022-05-08T10:14:39Z</time>
      </trkpt>
      <trkpt lat="47.31141" lon="-1.33021">
        <ele>56</ele>
        <time>2022-05-08T10:14:41Z</time>
      </trkpt>
      <trkpt lat="47.31152" lon="-1.33017">
        <ele>56</ele>
        <time>2022-05-08T10:14:43Z</time>
      </trkpt>
      <trkpt lat="47.31162" lon="-1.33013">
        <ele>56</ele>
        <time>2022-05-08T10:14:45Z</time>
      </trkpt>
      <trkpt lat="47.31173" lon="-1.3301">
        <ele>55</ele>
        <time>2022-05-08T10:14:47Z</time>
      </trkpt>
      <trkpt lat="47.31184" lon="-1.33006">
        <ele>55</ele>
        <time>2022-05-08T10:14:49Z</time>
      </trkpt>
      <trkpt lat="47.31195" lon="-1.33001">
        <ele>55</ele>
        <time>2022-05-08T10:14:51Z</time>
      </trkpt>
      <trkpt lat="47.31206" lon="-1.32997">
        <ele>55</ele>
        <time>2022-05-08T10:14:53Z</time>
      </trkpt>
      <trkpt lat="47.31218" lon="-1.32992">
        <ele>55</ele>
        <time>2022-05-08T10:14:55Z</time>
      </trkpt>
      <trkpt lat="47.31229" lon="-1.32987">
        <ele>55</ele>
        <time>2022-05-08T10:14:57Z</time>
      </trkpt>
      <trkpt lat="47.3124" lon="-1.32981">
        <ele>55</ele>
        <time>2022-05-08T10:14:59Z</time>
      </trkpt>
      <trkpt lat="47.3125" lon="-1.32975">
        <ele>54</ele>
        <time>2022-05-08T10:15:01Z</time>
      </trkpt>
      <trkpt lat="47.3126" lon="-1.32967">
        <ele>54</ele>
        <time>2022-05-08T10:15:03Z</time>
      </trkpt>
      <trkpt lat="47.3127" lon="-1.3296">
        <ele>54</ele>
        <time>2022-05-08T10:15:05Z</time>
      </trkpt>
      <trkpt lat="47.3128" lon="-1.32952">
        <ele>54</ele>
        <time>2022-05-08T10:15:07Z</time>
      </trkpt>
      <trkpt lat="47.31289" lon="-1.32943">
        <ele>55</ele>
        <time>2022-05-08T10:15:09Z</time>
      </trkpt>
      <trkpt lat="47.31299" lon="-1.32935">
        <ele>56</ele>
        <time>2022-05-08T10:15:11Z</time>
      </trkpt>
      <trkpt lat="47.31308" lon="-1.32927">
        <ele>56</ele>
        <time>2022-05-08T10:15:13Z</time>
      </trkpt>
      <trkpt lat="47.31317" lon="-1.32919">
        <ele>56</ele>
        <time>2022-05-08T10:15:15Z</time>
      </trkpt>
      <trkpt lat="47.31327" lon="-1.3291">
        <ele>56</ele>
        <time>2022-05-08T10:15:17Z</time>
      </trkpt>
      <trkpt lat="47.31337" lon="-1.32901">
        <ele>56</ele>
        <time>2022-05-08T10:15:19Z</time>
      </trkpt>
      <trkpt lat="47.31347" lon="-1.32893">
        <ele>55</ele>
        <time>2022-05-08T10:15:21Z</time>
      </trkpt>
      <trkpt lat="47.31357" lon="-1.32884">
        <ele>55</ele>
        <time>2022-05-08T10:15:23Z</time>
      </trkpt>
      <trkpt lat="47.31367" lon="-1.32876">
        <ele>56</ele>
        <time>2022-05-08T10:15:25Z</time>
      </trkpt>
      <trkpt lat="47.31377" lon="-1.32867">
        <ele>55</ele>
        <time>2022-05-08T10:15:27Z</time>
      </trkpt>
      <trkpt lat="47.31388" lon="-1.32859">
        <ele>55</ele>
        <time>2022-05-08T10:15:29Z</time>
      </trkpt>
      <trkpt lat="47.31398" lon="-1.3285">
        <ele>55</ele>
        <time>2022-05-08T10:15:31Z</time>
      </trkpt>
      <trkpt lat="47.31408" lon="-1.32842">
        <ele>56</ele>
        <time>2022-05-08T10:15:33Z</time>
      </trkpt>
      <trkpt lat="47.31418" lon="-1.32834">
        <ele>55</ele>
        <time>2022-05-08T10:15:35Z</time>
      </trkpt>
      <trkpt lat="47.31428" lon="-1.32825">
        <ele>55</ele>
        <time>2022-05-08T10:15:37Z</time>
      </trkpt>
      <trkpt lat="47.31438" lon="-1.32816">
        <ele>55</ele>
        <time>2022-05-08T10:15:39Z</time>
      </trkpt>
      <trkpt lat="47.31449" lon="-1.32808">
        <ele>55</ele>
        <time>2022-05-08T10:15:41Z</time>
      </trkpt>
      <trkpt lat="47.31459" lon="-1.328">
        <ele>55</ele>
        <time>2022-05-08T10:15:43Z</time>
      </trkpt>
      <trkpt lat="47.31469" lon="-1.32792">
        <ele>56</ele>
        <time>2022-05-08T10:15:45Z</time>
      </trkpt>
      <trkpt lat="47.31479" lon="-1.32785">
        <ele>56</ele>
        <time>2022-05-08T10:15:47Z</time>
      </trkpt>
      <trkpt lat="47.31487" lon="-1.32776">
        <ele>56</ele>
        <time>2022-05-08T10:15:49Z</time>
      </trkpt>
      <trkpt lat="47.31496" lon="-1.32766">
        <ele>57</ele>
        <time>2022-05-08T10:15:51Z</time>
      </trkpt>
      <trkpt lat="47.31504" lon="-1.32756">
        <ele>58</ele>
        <time>2022-05-08T10:15:53Z</time>
      </trkpt>
      <trkpt lat="47.31512" lon="-1.32746">
        <ele>58</ele>
        <time>2022-05-08T10:15:55Z</time>
      </trkpt>
      <trkpt lat="47.3152" lon="-1.32736">
        <ele>58</ele>
        <time>2022-05-08T10:15:57Z</time>
      </trkpt>
      <trkpt lat="47.31529" lon="-1.32727">
        <ele>59</ele>
        <time>2022-05-08T10:15:59Z</time>
      </trkpt>
      <trkpt lat="47.31537" lon="-1.32716">
        <ele>59</ele>
        <time>2022-05-08T10:16:01Z</time>
      </trkpt>
      <trkpt lat="47.31545" lon="-1.32705">
        <ele>59</ele>
        <time>2022-05-08T10:16:03Z</time>
      </trkpt>
      <trkpt lat="47.31553" lon="-1.32695">
        <ele>59</ele>
        <time>2022-05-08T10:16:05Z</time>
      </trkpt>
      <trkpt lat="47.31562" lon="-1.32684">
        <ele>60</ele>
        <time>2022-05-08T10:16:07Z</time>
      </trkpt>
      <trkpt lat="47.3157" lon="-1.32673">
        <ele>60</ele>
        <time>2022-05-08T10:16:09Z</time>
      </trkpt>
      <trkpt lat="47.31579" lon="-1.32663">
        <ele>59</ele>
        <time>2022-05-08T10:16:11Z</time>
      </trkpt>
      <trkpt lat="47.31589" lon="-1.32651">
        <ele>59</ele>
        <time>2022-05-08T10:16:13Z</time>
      </trkpt>
      <trkpt lat="47.31597" lon="-1.32639">
        <ele>59</ele>
        <time>2022-05-08T10:16:15Z</time>
      </trkpt>
      <trkpt lat="47.31606" lon="-1.32627">
        <ele>60</ele>
        <time>2022-05-08T10:16:17Z</time>
      </trkpt>
      <trkpt lat="47.31614" lon="-1.32614">
        <ele>60</ele>
        <time>2022-05-08T10:16:19Z</time>
      </trkpt>
      <trkpt lat="47.31622" lon="-1.32602">
        <ele>60</ele>
        <time>2022-05-08T10:16:21Z</time>
      </trkpt>
      <trkpt lat="47.31629" lon="-1.32588">
        <ele>60</ele>
        <time>2022-05-08T10:16:23Z</time>
      </trkpt>
      <trkpt lat="47.31636" lon="-1.32575">
        <ele>60</ele>
        <time>2022-05-08T10:16:25Z</time>
      </trkpt>
      <trkpt lat="47.31643" lon="-1.32561">
        <ele>60</ele>
        <time>2022-05-08T10:16:27Z</time>
      </trkpt>
      <trkpt lat="47.3165" lon="-1.32548">
        <ele>60</ele>
        <time>2022-05-08T10:16:29Z</time>
      </trkpt>
      <trkpt lat="47.31657" lon="-1.32534">
        <ele>60</ele>
        <time>2022-05-08T10:16:31Z</time>
      </trkpt>
      <trkpt lat="47.31663" lon="-1.3252">
        <ele>60</ele>
        <time>2022-05-08T10:16:33Z</time>
      </trkpt>
      <trkpt lat="47.31669" lon="-1.32506">
        <ele>60</ele>
        <time>2022-05-08T10:16:35Z</time>
      </trkpt>
      <trkpt lat="47.31674" lon="-1.32492">
        <ele>60</ele>
        <time>2022-05-08T10:16:37Z</time>
      </trkpt>
      <trkpt lat="47.31679" lon="-1.32477">
        <ele>59</ele>
        <time>2022-05-08T10:16:39Z</time>
      </trkpt>
      <trkpt lat="47.31683" lon="-1.3246">
        <ele>60</ele>
        <time>2022-05-08T10:16:41Z</time>
      </trkpt>
      <trkpt lat="47.31685" lon="-1.32444">
        <ele>59</ele>
        <time>2022-05-08T10:16:43Z</time>
      </trkpt>
      <trkpt lat="47.31685" lon="-1.32427">
        <ele>59</ele>
        <time>2022-05-08T10:16:45Z</time>
      </trkpt>
      <trkpt lat="47.31687" lon="-1.3241">
        <ele>59</ele>
        <time>2022-05-08T10:16:47Z</time>
      </trkpt>
      <trkpt lat="47.31688" lon="-1.32393">
        <ele>59</ele>
        <time>2022-05-08T10:16:49Z</time>
      </trkpt>
      <trkpt lat="47.31691" lon="-1.32377">
        <ele>59</ele>
        <time>2022-05-08T10:16:51Z</time>
      </trkpt>
      <trkpt lat="47.31693" lon="-1.32361">
        <ele>59</ele>
        <time>2022-05-08T10:16:53Z</time>
      </trkpt>
      <trkpt lat="47.31696" lon="-1.32344">
        <ele>59</ele>
        <time>2022-05-08T10:16:55Z</time>
      </trkpt>
      <trkpt lat="47.317" lon="-1.32327">
        <ele>59</ele>
        <time>2022-05-08T10:16:57Z</time>
      </trkpt>
      <trkpt lat="47.31703" lon="-1.3231">
        <ele>59</ele>
        <time>2022-05-08T10:16:59Z</time>
      </trkpt>
      <trkpt lat="47.31707" lon="-1.32294">
        <ele>59</ele>
        <time>2022-05-08T10:17:01Z</time>
      </trkpt>
      <trkpt lat="47.31711" lon="-1.32277">
        <ele>59</ele>
        <time>2022-05-08T10:17:03Z</time>
      </trkpt>
      <trkpt lat="47.31714" lon="-1.32261">
        <ele>59</ele>
        <time>2022-05-08T10:17:05Z</time>
      </trkpt>
      <trkpt lat="47.31718" lon="-1.32244">
        <ele>59</ele>
        <time>2022-05-08T10:17:07Z</time>
      </trkpt>
      <trkpt lat="47.3172" lon="-1.32227">
        <ele>59</ele>
        <time>2022-05-08T10:17:09Z</time>
      </trkpt>
      <trkpt lat="47.31722" lon="-1.3221">
        <ele>59</ele>
        <time>2022-05-08T10:17:11Z</time>
      </trkpt>
      <trkpt lat="47.31723" lon="-1.32193">
        <ele>59</ele>
        <time>2022-05-08T10:17:13Z</time>
      </trkpt>
      <trkpt lat="47.31725" lon="-1.32176">
        <ele>59</ele>
        <time>2022-05-08T10:17:15Z</time>
      </trkpt>
      <trkpt lat="47.31728" lon="-1.32159">
        <ele>59</ele>
        <time>2022-05-08T10:17:17Z</time>
      </trkpt>
      <trkpt lat="47.31731" lon="-1.32144">
        <ele>59</ele>
        <time>2022-05-08T10:17:19Z</time>
      </trkpt>
      <trkpt lat="47.31736" lon="-1.32129">
        <ele>59</ele>
        <time>2022-05-08T10:17:21Z</time>
      </trkpt>
      <trkpt lat="47.3174" lon="-1.32115">
        <ele>60</ele>
        <time>2022-05-08T10:17:23Z</time>
      </trkpt>
      <trkpt lat="47.31745" lon="-1.32101">
        <ele>60</ele>
        <time>2022-05-08T10:17:25Z</time>
      </trkpt>
      <trkpt lat="47.3175" lon="-1.32087">
        <ele>60</ele>
        <time>2022-05-08T10:17:27Z</time>
      </trkpt>
      <trkpt lat="47.31756" lon="-1.32073">
        <ele>60</ele>
        <time>2022-05-08T10:17:29Z</time>
      </trkpt>
      <trkpt lat="47.31761" lon="-1.32059">
        <ele>60</ele>
        <time>2022-05-08T10:17:31Z</time>
      </trkpt>
      <trkpt lat="47.31766" lon="-1.32045">
        <ele>60</ele>
        <time>2022-05-08T10:17:33Z</time>
      </trkpt>
      <trkpt lat="47.31771" lon="-1.32031">
        <ele>60</ele>
        <time>2022-05-08T10:17:35Z</time>
      </trkpt>
      <trkpt lat="47.31777" lon="-1.32017">
        <ele>60</ele>
        <time>2022-05-08T10:17:37Z</time>
      </trkpt>
      <trkpt lat="47.31782" lon="-1.32001">
        <ele>60</ele>
        <time>2022-05-08T10:17:39Z</time>
      </trkpt>
      <trkpt lat="47.31788" lon="-1.31986">
        <ele>59</ele>
        <time>2022-05-08T10:17:41Z</time>
      </trkpt>
      <trkpt lat="47.31793" lon="-1.31971">
        <ele>59</ele>
        <time>2022-05-08T10:17:43Z</time>
      </trkpt>
      <trkpt lat="47.31797" lon="-1.31958">
        <ele>60</ele>
        <time>2022-05-08T10:17:45Z</time>
      </trkpt>
      <trkpt lat="47.31803" lon="-1.31947">
        <ele>60</ele>
        <time>2022-05-08T10:17:48Z</time>
      </trkpt>
      <trkpt lat="47.31817" lon="-1.31951">
        <ele>60</ele>
        <time>2022-05-08T10:17:51Z</time>
      </trkpt>
      <trkpt lat="47.31829" lon="-1.3196">
        <ele>59</ele>
        <time>2022-05-08T10:17:53Z</time>
      </trkpt>
      <trkpt lat="47.31841" lon="-1.31968">
        <ele>58</ele>
        <time>2022-05-08T10:17:55Z</time>
      </trkpt>
      <trkpt lat="47.31854" lon="-1.31977">
        <ele>57</ele>
        <time>2022-05-08T10:17:57Z</time>
      </trkpt>
      <trkpt lat="47.31867" lon="-1.31986">
        <ele>57</ele>
        <time>2022-05-08T10:17:59Z</time>
      </trkpt>
      <trkpt lat="47.3188" lon="-1.31993">
        <ele>57</ele>
        <time>2022-05-08T10:18:01Z</time>
      </trkpt>
      <trkpt lat="47.31893" lon="-1.32">
        <ele>56</ele>
        <time>2022-05-08T10:18:03Z</time>
      </trkpt>
      <trkpt lat="47.31905" lon="-1.32005">
        <ele>56</ele>
        <time>2022-05-08T10:18:05Z</time>
      </trkpt>
      <trkpt lat="47.31918" lon="-1.32009">
        <ele>56</ele>
        <time>2022-05-08T10:18:07Z</time>
      </trkpt>
      <trkpt lat="47.3193" lon="-1.32012">
        <ele>56</ele>
        <time>2022-05-08T10:18:09Z</time>
      </trkpt>
      <trkpt lat="47.31941" lon="-1.32013">
        <ele>56</ele>
        <time>2022-05-08T10:18:11Z</time>
      </trkpt>
      <trkpt lat="47.3195" lon="-1.32008">
        <ele>58</ele>
        <time>2022-05-08T10:18:13Z</time>
      </trkpt>
      <trkpt lat="47.31961" lon="-1.31999">
        <ele>59</ele>
        <time>2022-05-08T10:18:15Z</time>
      </trkpt>
      <trkpt lat="47.31972" lon="-1.31987">
        <ele>60</ele>
        <time>2022-05-08T10:18:17Z</time>
      </trkpt>
      <trkpt lat="47.3198" lon="-1.31969">
        <ele>61</ele>
        <time>2022-05-08T10:18:19Z</time>
      </trkpt>
      <trkpt lat="47.31987" lon="-1.31952">
        <ele>61</ele>
        <time>2022-05-08T10:18:21Z</time>
      </trkpt>
      <trkpt lat="47.31993" lon="-1.31935">
        <ele>61</ele>
        <time>2022-05-08T10:18:23Z</time>
      </trkpt>
      <trkpt lat="47.32" lon="-1.31918">
        <ele>60</ele>
        <time>2022-05-08T10:18:25Z</time>
      </trkpt>
      <trkpt lat="47.32006" lon="-1.31901">
        <ele>60</ele>
        <time>2022-05-08T10:18:27Z</time>
      </trkpt>
      <trkpt lat="47.32011" lon="-1.31884">
        <ele>61</ele>
        <time>2022-05-08T10:18:29Z</time>
      </trkpt>
      <trkpt lat="47.32017" lon="-1.31866">
        <ele>62</ele>
        <time>2022-05-08T10:18:31Z</time>
      </trkpt>
      <trkpt lat="47.32023" lon="-1.31849">
        <ele>62</ele>
        <time>2022-05-08T10:18:33Z</time>
      </trkpt>
      <trkpt lat="47.32028" lon="-1.31832">
        <ele>62</ele>
        <time>2022-05-08T10:18:35Z</time>
      </trkpt>
      <trkpt lat="47.32034" lon="-1.31816">
        <ele>61</ele>
        <time>2022-05-08T10:18:37Z</time>
      </trkpt>
      <trkpt lat="47.32039" lon="-1.318">
        <ele>61</ele>
        <time>2022-05-08T10:18:39Z</time>
      </trkpt>
      <trkpt lat="47.32045" lon="-1.31783">
        <ele>61</ele>
        <time>2022-05-08T10:18:41Z</time>
      </trkpt>
      <trkpt lat="47.32051" lon="-1.31766">
        <ele>60</ele>
        <time>2022-05-08T10:18:43Z</time>
      </trkpt>
      <trkpt lat="47.32057" lon="-1.3175">
        <ele>60</ele>
        <time>2022-05-08T10:18:45Z</time>
      </trkpt>
      <trkpt lat="47.32064" lon="-1.31734">
        <ele>60</ele>
        <time>2022-05-08T10:18:47Z</time>
      </trkpt>
      <trkpt lat="47.32073" lon="-1.31718">
        <ele>60</ele>
        <time>2022-05-08T10:18:49Z</time>
      </trkpt>
      <trkpt lat="47.32081" lon="-1.31703">
        <ele>59</ele>
        <time>2022-05-08T10:18:51Z</time>
      </trkpt>
      <trkpt lat="47.3209" lon="-1.31689">
        <ele>59</ele>
        <time>2022-05-08T10:18:53Z</time>
      </trkpt>
      <trkpt lat="47.32098" lon="-1.31674">
        <ele>60</ele>
        <time>2022-05-08T10:18:55Z</time>
      </trkpt>
      <trkpt lat="47.32106" lon="-1.31661">
        <ele>61</ele>
        <time>2022-05-08T10:18:57Z</time>
      </trkpt>
      <trkpt lat="47.32115" lon="-1.31647">
        <ele>61</ele>
        <time>2022-05-08T10:18:59Z</time>
      </trkpt>
      <trkpt lat="47.32124" lon="-1.31632">
        <ele>61</ele>
        <time>2022-05-08T10:19:01Z</time>
      </trkpt>
      <trkpt lat="47.32133" lon="-1.31618">
        <ele>62</ele>
        <time>2022-05-08T10:19:03Z</time>
      </trkpt>
      <trkpt lat="47.32142" lon="-1.31606">
        <ele>62</ele>
        <time>2022-05-08T10:19:05Z</time>
      </trkpt>
      <trkpt lat="47.3215" lon="-1.31591">
        <ele>62</ele>
        <time>2022-05-08T10:19:07Z</time>
      </trkpt>
      <trkpt lat="47.3216" lon="-1.31577">
        <ele>61</ele>
        <time>2022-05-08T10:19:09Z</time>
      </trkpt>
      <trkpt lat="47.32168" lon="-1.31562">
        <ele>61</ele>
        <time>2022-05-08T10:19:11Z</time>
      </trkpt>
      <trkpt lat="47.32177" lon="-1.31548">
        <ele>61</ele>
        <time>2022-05-08T10:19:13Z</time>
      </trkpt>
      <trkpt lat="47.32185" lon="-1.31533">
        <ele>61</ele>
        <time>2022-05-08T10:19:15Z</time>
      </trkpt>
      <trkpt lat="47.32194" lon="-1.31518">
        <ele>61</ele>
        <time>2022-05-08T10:19:17Z</time>
      </trkpt>
      <trkpt lat="47.32202" lon="-1.31505">
        <ele>60</ele>
        <time>2022-05-08T10:19:19Z</time>
      </trkpt>
      <trkpt lat="47.32211" lon="-1.3149">
        <ele>61</ele>
        <time>2022-05-08T10:19:21Z</time>
      </trkpt>
      <trkpt lat="47.3222" lon="-1.31476">
        <ele>61</ele>
        <time>2022-05-08T10:19:23Z</time>
      </trkpt>
      <trkpt lat="47.32229" lon="-1.3146">
        <ele>62</ele>
        <time>2022-05-08T10:19:25Z</time>
      </trkpt>
      <trkpt lat="47.32238" lon="-1.31447">
        <ele>61</ele>
        <time>2022-05-08T10:19:27Z</time>
      </trkpt>
      <trkpt lat="47.32246" lon="-1.31434">
        <ele>61</ele>
        <time>2022-05-08T10:19:29Z</time>
      </trkpt>
      <trkpt lat="47.32255" lon="-1.31422">
        <ele>62</ele>
        <time>2022-05-08T10:19:31Z</time>
      </trkpt>
      <trkpt lat="47.32264" lon="-1.31409">
        <ele>62</ele>
        <time>2022-05-08T10:19:33Z</time>
      </trkpt>
      <trkpt lat="47.32273" lon="-1.31395">
        <ele>62</ele>
        <time>2022-05-08T10:19:35Z</time>
      </trkpt>
      <trkpt lat="47.32282" lon="-1.31382">
        <ele>62</ele>
        <time>2022-05-08T10:19:37Z</time>
      </trkpt>
      <trkpt lat="47.32291" lon="-1.31368">
        <ele>62</ele>
        <time>2022-05-08T10:19:39Z</time>
      </trkpt>
      <trkpt lat="47.32299" lon="-1.31355">
        <ele>62</ele>
        <time>2022-05-08T10:19:41Z</time>
      </trkpt>
      <trkpt lat="47.32308" lon="-1.31341">
        <ele>61</ele>
        <time>2022-05-08T10:19:43Z</time>
      </trkpt>
      <trkpt lat="47.32318" lon="-1.31327">
        <ele>61</ele>
        <time>2022-05-08T10:19:45Z</time>
      </trkpt>
      <trkpt lat="47.32327" lon="-1.31313">
        <ele>61</ele>
        <time>2022-05-08T10:19:47Z</time>
      </trkpt>
      <trkpt lat="47.32336" lon="-1.31299">
        <ele>61</ele>
        <time>2022-05-08T10:19:49Z</time>
      </trkpt>
      <trkpt lat="47.32345" lon="-1.31286">
        <ele>61</ele>
        <time>2022-05-08T10:19:51Z</time>
      </trkpt>
      <trkpt lat="47.32354" lon="-1.31271">
        <ele>61</ele>
        <time>2022-05-08T10:19:53Z</time>
      </trkpt>
      <trkpt lat="47.32362" lon="-1.31257">
        <ele>60</ele>
        <time>2022-05-08T10:19:55Z</time>
      </trkpt>
      <trkpt lat="47.3237" lon="-1.31241">
        <ele>60</ele>
        <time>2022-05-08T10:19:57Z</time>
      </trkpt>
      <trkpt lat="47.32377" lon="-1.31225">
        <ele>59</ele>
        <time>2022-05-08T10:19:59Z</time>
      </trkpt>
      <trkpt lat="47.32383" lon="-1.31209">
        <ele>59</ele>
        <time>2022-05-08T10:20:01Z</time>
      </trkpt>
      <trkpt lat="47.32388" lon="-1.31193">
        <ele>59</ele>
        <time>2022-05-08T10:20:03Z</time>
      </trkpt>
      <trkpt lat="47.32393" lon="-1.31177">
        <ele>58</ele>
        <time>2022-05-08T10:20:05Z</time>
      </trkpt>
      <trkpt lat="47.32398" lon="-1.31161">
        <ele>59</ele>
        <time>2022-05-08T10:20:07Z</time>
      </trkpt>
      <trkpt lat="47.32403" lon="-1.31144">
        <ele>59</ele>
        <time>2022-05-08T10:20:09Z</time>
      </trkpt>
      <trkpt lat="47.32409" lon="-1.31127">
        <ele>59</ele>
        <time>2022-05-08T10:20:11Z</time>
      </trkpt>
      <trkpt lat="47.32415" lon="-1.3111">
        <ele>59</ele>
        <time>2022-05-08T10:20:13Z</time>
      </trkpt>
      <trkpt lat="47.3242" lon="-1.31094">
        <ele>59</ele>
        <time>2022-05-08T10:20:15Z</time>
      </trkpt>
      <trkpt lat="47.32425" lon="-1.31077">
        <ele>59</ele>
        <time>2022-05-08T10:20:17Z</time>
      </trkpt>
      <trkpt lat="47.3243" lon="-1.3106">
        <ele>58</ele>
        <time>2022-05-08T10:20:19Z</time>
      </trkpt>
      <trkpt lat="47.32435" lon="-1.31044">
        <ele>58</ele>
        <time>2022-05-08T10:20:21Z</time>
      </trkpt>
      <trkpt lat="47.3244" lon="-1.31027">
        <ele>59</ele>
        <time>2022-05-08T10:20:23Z</time>
      </trkpt>
      <trkpt lat="47.32445" lon="-1.3101">
        <ele>59</ele>
        <time>2022-05-08T10:20:25Z</time>
      </trkpt>
      <trkpt lat="47.32449" lon="-1.30992">
        <ele>59</ele>
        <time>2022-05-08T10:20:27Z</time>
      </trkpt>
      <trkpt lat="47.32454" lon="-1.30974">
        <ele>60</ele>
        <time>2022-05-08T10:20:29Z</time>
      </trkpt>
      <trkpt lat="47.32459" lon="-1.30957">
        <ele>60</ele>
        <time>2022-05-08T10:20:31Z</time>
      </trkpt>
      <trkpt lat="47.32465" lon="-1.3094">
        <ele>58</ele>
        <time>2022-05-08T10:20:33Z</time>
      </trkpt>
      <trkpt lat="47.32471" lon="-1.30924">
        <ele>58</ele>
        <time>2022-05-08T10:20:35Z</time>
      </trkpt>
      <trkpt lat="47.32477" lon="-1.30907">
        <ele>58</ele>
        <time>2022-05-08T10:20:37Z</time>
      </trkpt>
      <trkpt lat="47.32482" lon="-1.30892">
        <ele>59</ele>
        <time>2022-05-08T10:20:39Z</time>
      </trkpt>
      <trkpt lat="47.32488" lon="-1.30875">
        <ele>59</ele>
        <time>2022-05-08T10:20:41Z</time>
      </trkpt>
      <trkpt lat="47.32495" lon="-1.30859">
        <ele>59</ele>
        <time>2022-05-08T10:20:43Z</time>
      </trkpt>
      <trkpt lat="47.32501" lon="-1.30842">
        <ele>59</ele>
        <time>2022-05-08T10:20:45Z</time>
      </trkpt>
      <trkpt lat="47.32506" lon="-1.30825">
        <ele>58</ele>
        <time>2022-05-08T10:20:47Z</time>
      </trkpt>
      <trkpt lat="47.32512" lon="-1.3081">
        <ele>58</ele>
        <time>2022-05-08T10:20:49Z</time>
      </trkpt>
      <trkpt lat="47.32518" lon="-1.30794">
        <ele>57</ele>
        <time>2022-05-08T10:20:51Z</time>
      </trkpt>
      <trkpt lat="47.32524" lon="-1.30779">
        <ele>57</ele>
        <time>2022-05-08T10:20:53Z</time>
      </trkpt>
      <trkpt lat="47.3253" lon="-1.30765">
        <ele>58</ele>
        <time>2022-05-08T10:20:55Z</time>
      </trkpt>
      <trkpt lat="47.32535" lon="-1.30751">
        <ele>58</ele>
        <time>2022-05-08T10:20:57Z</time>
      </trkpt>
      <trkpt lat="47.32541" lon="-1.30738">
        <ele>59</ele>
        <time>2022-05-08T10:20:59Z</time>
      </trkpt>
      <trkpt lat="47.32547" lon="-1.30723">
        <ele>60</ele>
        <time>2022-05-08T10:21:01Z</time>
      </trkpt>
      <trkpt lat="47.32554" lon="-1.30707">
        <ele>60</ele>
        <time>2022-05-08T10:21:03Z</time>
      </trkpt>
      <trkpt lat="47.32561" lon="-1.30692">
        <ele>60</ele>
        <time>2022-05-08T10:21:05Z</time>
      </trkpt>
      <trkpt lat="47.32568" lon="-1.30677">
        <ele>60</ele>
        <time>2022-05-08T10:21:07Z</time>
      </trkpt>
      <trkpt lat="47.32574" lon="-1.30663">
        <ele>60</ele>
        <time>2022-05-08T10:21:09Z</time>
      </trkpt>
      <trkpt lat="47.32581" lon="-1.30647">
        <ele>59</ele>
        <time>2022-05-08T10:21:11Z</time>
      </trkpt>
      <trkpt lat="47.32588" lon="-1.30632">
        <ele>59</ele>
        <time>2022-05-08T10:21:13Z</time>
      </trkpt>
      <trkpt lat="47.32594" lon="-1.30616">
        <ele>59</ele>
        <time>2022-05-08T10:21:15Z</time>
      </trkpt>
      <trkpt lat="47.32601" lon="-1.30601">
        <ele>59</ele>
        <time>2022-05-08T10:21:17Z</time>
      </trkpt>
      <trkpt lat="47.32608" lon="-1.30585">
        <ele>59</ele>
        <time>2022-05-08T10:21:19Z</time>
      </trkpt>
      <trkpt lat="47.32615" lon="-1.30568">
        <ele>59</ele>
        <time>2022-05-08T10:21:21Z</time>
      </trkpt>
      <trkpt lat="47.32622" lon="-1.30552">
        <ele>59</ele>
        <time>2022-05-08T10:21:23Z</time>
      </trkpt>
      <trkpt lat="47.32629" lon="-1.30536">
        <ele>58</ele>
        <time>2022-05-08T10:21:25Z</time>
      </trkpt>
      <trkpt lat="47.32637" lon="-1.3052">
        <ele>59</ele>
        <time>2022-05-08T10:21:27Z</time>
      </trkpt>
      <trkpt lat="47.32644" lon="-1.30504">
        <ele>58</ele>
        <time>2022-05-08T10:21:29Z</time>
      </trkpt>
      <trkpt lat="47.32651" lon="-1.30488">
        <ele>58</ele>
        <time>2022-05-08T10:21:31Z</time>
      </trkpt>
      <trkpt lat="47.32659" lon="-1.30472">
        <ele>58</ele>
        <time>2022-05-08T10:21:33Z</time>
      </trkpt>
      <trkpt lat="47.32666" lon="-1.30455">
        <ele>58</ele>
        <time>2022-05-08T10:21:35Z</time>
      </trkpt>
      <trkpt lat="47.32674" lon="-1.30439">
        <ele>57</ele>
        <time>2022-05-08T10:21:37Z</time>
      </trkpt>
      <trkpt lat="47.3268" lon="-1.30421">
        <ele>57</ele>
        <time>2022-05-08T10:21:39Z</time>
      </trkpt>
      <trkpt lat="47.32684" lon="-1.30403">
        <ele>57</ele>
        <time>2022-05-08T10:21:41Z</time>
      </trkpt>
      <trkpt lat="47.32686" lon="-1.30383">
        <ele>56</ele>
        <time>2022-05-08T10:21:43Z</time>
      </trkpt>
      <trkpt lat="47.32684" lon="-1.30365">
        <ele>56</ele>
        <time>2022-05-08T10:21:45Z</time>
      </trkpt>
      <trkpt lat="47.32678" lon="-1.30349">
        <ele>56</ele>
        <time>2022-05-08T10:21:47Z</time>
      </trkpt>
      <trkpt lat="47.32671" lon="-1.30333">
        <ele>56</ele>
        <time>2022-05-08T10:21:49Z</time>
      </trkpt>
      <trkpt lat="47.32665" lon="-1.30318">
        <ele>57</ele>
        <time>2022-05-08T10:21:51Z</time>
      </trkpt>
      <trkpt lat="47.32658" lon="-1.30302">
        <ele>58</ele>
        <time>2022-05-08T10:21:53Z</time>
      </trkpt>
      <trkpt lat="47.3265" lon="-1.30287">
        <ele>59</ele>
        <time>2022-05-08T10:21:55Z</time>
      </trkpt>
      <trkpt lat="47.32644" lon="-1.30271">
        <ele>59</ele>
        <time>2022-05-08T10:21:57Z</time>
      </trkpt>
      <trkpt lat="47.32639" lon="-1.30255">
        <ele>59</ele>
        <time>2022-05-08T10:21:59Z</time>
      </trkpt>
      <trkpt lat="47.32643" lon="-1.30241">
        <ele>59</ele>
        <time>2022-05-08T10:22:01Z</time>
      </trkpt>
      <trkpt lat="47.32653" lon="-1.30229">
        <ele>59</ele>
        <time>2022-05-08T10:22:03Z</time>
      </trkpt>
      <trkpt lat="47.32661" lon="-1.30214">
        <ele>59</ele>
        <time>2022-05-08T10:22:05Z</time>
      </trkpt>
      <trkpt lat="47.3267" lon="-1.30201">
        <ele>59</ele>
        <time>2022-05-08T10:22:07Z</time>
      </trkpt>
      <trkpt lat="47.32678" lon="-1.30188">
        <ele>59</ele>
        <time>2022-05-08T10:22:09Z</time>
      </trkpt>
      <trkpt lat="47.32685" lon="-1.30175">
        <ele>59</ele>
        <time>2022-05-08T10:22:11Z</time>
      </trkpt>
      <trkpt lat="47.32694" lon="-1.30162">
        <ele>60</ele>
        <time>2022-05-08T10:22:13Z</time>
      </trkpt>
      <trkpt lat="47.32703" lon="-1.30148">
        <ele>60</ele>
        <time>2022-05-08T10:22:15Z</time>
      </trkpt>
      <trkpt lat="47.32712" lon="-1.30135">
        <ele>60</ele>
        <time>2022-05-08T10:22:17Z</time>
      </trkpt>
      <trkpt lat="47.3272" lon="-1.30122">
        <ele>60</ele>
        <time>2022-05-08T10:22:19Z</time>
      </trkpt>
      <trkpt lat="47.32728" lon="-1.30108">
        <ele>60</ele>
        <time>2022-05-08T10:22:21Z</time>
      </trkpt>
      <trkpt lat="47.32736" lon="-1.30094">
        <ele>60</ele>
        <time>2022-05-08T10:22:23Z</time>
      </trkpt>
      <trkpt lat="47.32743" lon="-1.3008">
        <ele>60</ele>
        <time>2022-05-08T10:22:25Z</time>
      </trkpt>
      <trkpt lat="47.3275" lon="-1.30065">
        <ele>60</ele>
        <time>2022-05-08T10:22:27Z</time>
      </trkpt>
      <trkpt lat="47.32758" lon="-1.3005">
        <ele>60</ele>
        <time>2022-05-08T10:22:29Z</time>
      </trkpt>
      <trkpt lat="47.32765" lon="-1.30035">
        <ele>60</ele>
        <time>2022-05-08T10:22:31Z</time>
      </trkpt>
      <trkpt lat="47.32772" lon="-1.3002">
        <ele>60</ele>
        <time>2022-05-08T10:22:33Z</time>
      </trkpt>
      <trkpt lat="47.3278" lon="-1.30005">
        <ele>60</ele>
        <time>2022-05-08T10:22:35Z</time>
      </trkpt>
      <trkpt lat="47.32787" lon="-1.29991">
        <ele>59</ele>
        <time>2022-05-08T10:22:37Z</time>
      </trkpt>
      <trkpt lat="47.32794" lon="-1.29976">
        <ele>59</ele>
        <time>2022-05-08T10:22:39Z</time>
      </trkpt>
      <trkpt lat="47.32801" lon="-1.29961">
        <ele>59</ele>
        <time>2022-05-08T10:22:41Z</time>
      </trkpt>
      <trkpt lat="47.32809" lon="-1.29946">
        <ele>59</ele>
        <time>2022-05-08T10:22:43Z</time>
      </trkpt>
      <trkpt lat="47.32817" lon="-1.2993">
        <ele>59</ele>
        <time>2022-05-08T10:22:45Z</time>
      </trkpt>
      <trkpt lat="47.32825" lon="-1.29915">
        <ele>59</ele>
        <time>2022-05-08T10:22:47Z</time>
      </trkpt>
      <trkpt lat="47.32833" lon="-1.29901">
        <ele>59</ele>
        <time>2022-05-08T10:22:49Z</time>
      </trkpt>
      <trkpt lat="47.32841" lon="-1.29888">
        <ele>59</ele>
        <time>2022-05-08T10:22:51Z</time>
      </trkpt>
      <trkpt lat="47.32848" lon="-1.29874">
        <ele>59</ele>
        <time>2022-05-08T10:22:53Z</time>
      </trkpt>
      <trkpt lat="47.32856" lon="-1.2986">
        <ele>60</ele>
        <time>2022-05-08T10:22:55Z</time>
      </trkpt>
      <trkpt lat="47.32863" lon="-1.29846">
        <ele>59</ele>
        <time>2022-05-08T10:22:57Z</time>
      </trkpt>
      <trkpt lat="47.32871" lon="-1.29832">
        <ele>59</ele>
        <time>2022-05-08T10:22:59Z</time>
      </trkpt>
      <trkpt lat="47.32879" lon="-1.29819">
        <ele>59</ele>
        <time>2022-05-08T10:23:01Z</time>
      </trkpt>
      <trkpt lat="47.32887" lon="-1.29805">
        <ele>58</ele>
        <time>2022-05-08T10:23:03Z</time>
      </trkpt>
      <trkpt lat="47.32895" lon="-1.2979">
        <ele>57</ele>
        <time>2022-05-08T10:23:05Z</time>
      </trkpt>
      <trkpt lat="47.32903" lon="-1.29776">
        <ele>57</ele>
        <time>2022-05-08T10:23:07Z</time>
      </trkpt>
      <trkpt lat="47.3291" lon="-1.29762">
        <ele>57</ele>
        <time>2022-05-08T10:23:09Z</time>
      </trkpt>
      <trkpt lat="47.32917" lon="-1.29748">
        <ele>57</ele>
        <time>2022-05-08T10:23:11Z</time>
      </trkpt>
      <trkpt lat="47.32925" lon="-1.29734">
        <ele>57</ele>
        <time>2022-05-08T10:23:13Z</time>
      </trkpt>
      <trkpt lat="47.32932" lon="-1.2972">
        <ele>58</ele>
        <time>2022-05-08T10:23:15Z</time>
      </trkpt>
      <trkpt lat="47.3294" lon="-1.29706">
        <ele>58</ele>
        <time>2022-05-08T10:23:17Z</time>
      </trkpt>
      <trkpt lat="47.32948" lon="-1.29693">
        <ele>58</ele>
        <time>2022-05-08T10:23:19Z</time>
      </trkpt>
      <trkpt lat="47.32957" lon="-1.2968">
        <ele>58</ele>
        <time>2022-05-08T10:23:21Z</time>
      </trkpt>
      <trkpt lat="47.32965" lon="-1.29667">
        <ele>58</ele>
        <time>2022-05-08T10:23:23Z</time>
      </trkpt>
      <trkpt lat="47.32973" lon="-1.29653">
        <ele>58</ele>
        <time>2022-05-08T10:23:25Z</time>
      </trkpt>
      <trkpt lat="47.32987" lon="-1.29634">
        <ele>57</ele>
        <time>2022-05-08T10:23:28Z</time>
      </trkpt>
      <trkpt lat="47.32999" lon="-1.29613">
        <ele>57</ele>
        <time>2022-05-08T10:23:31Z</time>
      </trkpt>
      <trkpt lat="47.33006" lon="-1.29599">
        <ele>57</ele>
        <time>2022-05-08T10:23:33Z</time>
      </trkpt>
      <trkpt lat="47.33018" lon="-1.29577">
        <ele>57</ele>
        <time>2022-05-08T10:23:36Z</time>
      </trkpt>
      <trkpt lat="47.33026" lon="-1.29561">
        <ele>58</ele>
        <time>2022-05-08T10:23:38Z</time>
      </trkpt>
      <trkpt lat="47.33034" lon="-1.29546">
        <ele>58</ele>
        <time>2022-05-08T10:23:40Z</time>
      </trkpt>
      <trkpt lat="47.33043" lon="-1.29531">
        <ele>58</ele>
        <time>2022-05-08T10:23:42Z</time>
      </trkpt>
      <trkpt lat="47.33051" lon="-1.29516">
        <ele>59</ele>
        <time>2022-05-08T10:23:44Z</time>
      </trkpt>
      <trkpt lat="47.3306" lon="-1.29502">
        <ele>59</ele>
        <time>2022-05-08T10:23:46Z</time>
      </trkpt>
      <trkpt lat="47.33068" lon="-1.29488">
        <ele>59</ele>
        <time>2022-05-08T10:23:48Z</time>
      </trkpt>
      <trkpt lat="47.33077" lon="-1.29475">
        <ele>59</ele>
        <time>2022-05-08T10:23:50Z</time>
      </trkpt>
      <trkpt lat="47.33085" lon="-1.29461">
        <ele>60</ele>
        <time>2022-05-08T10:23:52Z</time>
      </trkpt>
      <trkpt lat="47.33094" lon="-1.29449">
        <ele>60</ele>
        <time>2022-05-08T10:23:54Z</time>
      </trkpt>
      <trkpt lat="47.33103" lon="-1.29436">
        <ele>61</ele>
        <time>2022-05-08T10:23:56Z</time>
      </trkpt>
      <trkpt lat="47.33112" lon="-1.29423">
        <ele>61</ele>
        <time>2022-05-08T10:23:58Z</time>
      </trkpt>
      <trkpt lat="47.33122" lon="-1.29409">
        <ele>61</ele>
        <time>2022-05-08T10:24:00Z</time>
      </trkpt>
      <trkpt lat="47.3313" lon="-1.29396">
        <ele>61</ele>
        <time>2022-05-08T10:24:02Z</time>
      </trkpt>
      <trkpt lat="47.33139" lon="-1.29383">
        <ele>61</ele>
        <time>2022-05-08T10:24:04Z</time>
      </trkpt>
      <trkpt lat="47.33146" lon="-1.2937">
        <ele>62</ele>
        <time>2022-05-08T10:24:06Z</time>
      </trkpt>
      <trkpt lat="47.3315" lon="-1.29355">
        <ele>61</ele>
        <time>2022-05-08T10:24:08Z</time>
      </trkpt>
      <trkpt lat="47.33147" lon="-1.29342">
        <ele>61</ele>
        <time>2022-05-08T10:24:10Z</time>
      </trkpt>
      <trkpt lat="47.33139" lon="-1.29336">
        <ele>60</ele>
        <time>2022-05-08T10:24:12Z</time>
      </trkpt>
      <trkpt lat="47.3313" lon="-1.29322">
        <ele>61</ele>
        <time>2022-05-08T10:24:15Z</time>
      </trkpt>
      <trkpt lat="47.33127" lon="-1.29303">
        <ele>62</ele>
        <time>2022-05-08T10:24:18Z</time>
      </trkpt>
      <trkpt lat="47.33128" lon="-1.2929">
        <ele>63</ele>
        <time>2022-05-08T10:24:20Z</time>
      </trkpt>
      <trkpt lat="47.33131" lon="-1.29277">
        <ele>63</ele>
        <time>2022-05-08T10:24:22Z</time>
      </trkpt>
      <trkpt lat="47.33137" lon="-1.29264">
        <ele>63</ele>
        <time>2022-05-08T10:24:24Z</time>
      </trkpt>
      <trkpt lat="47.33144" lon="-1.29252">
        <ele>63</ele>
        <time>2022-05-08T10:24:26Z</time>
      </trkpt>
      <trkpt lat="47.33151" lon="-1.29238">
        <ele>63</ele>
        <time>2022-05-08T10:24:28Z</time>
      </trkpt>
      <trkpt lat="47.33157" lon="-1.29224">
        <ele>64</ele>
        <time>2022-05-08T10:24:30Z</time>
      </trkpt>
      <trkpt lat="47.33166" lon="-1.29213">
        <ele>64</ele>
        <time>2022-05-08T10:24:32Z</time>
      </trkpt>
      <trkpt lat="47.33169" lon="-1.29198">
        <ele>63</ele>
        <time>2022-05-08T10:24:34Z</time>
      </trkpt>
      <trkpt lat="47.3317" lon="-1.2918">
        <ele>63</ele>
        <time>2022-05-08T10:24:36Z</time>
      </trkpt>
      <trkpt lat="47.33175" lon="-1.29166">
        <ele>62</ele>
        <time>2022-05-08T10:24:38Z</time>
      </trkpt>
      <trkpt lat="47.33185" lon="-1.29156">
        <ele>62</ele>
        <time>2022-05-08T10:24:40Z</time>
      </trkpt>
      <trkpt lat="47.33195" lon="-1.29147">
        <ele>62</ele>
        <time>2022-05-08T10:24:42Z</time>
      </trkpt>
      <trkpt lat="47.33208" lon="-1.29144">
        <ele>62</ele>
        <time>2022-05-08T10:24:44Z</time>
      </trkpt>
      <trkpt lat="47.3322" lon="-1.29152">
        <ele>62</ele>
        <time>2022-05-08T10:24:46Z</time>
      </trkpt>
      <trkpt lat="47.33233" lon="-1.2916">
        <ele>62</ele>
        <time>2022-05-08T10:24:48Z</time>
      </trkpt>
      <trkpt lat="47.33247" lon="-1.29167">
        <ele>61</ele>
        <time>2022-05-08T10:24:50Z</time>
      </trkpt>
      <trkpt lat="47.3326" lon="-1.29174">
        <ele>61</ele>
        <time>2022-05-08T10:24:52Z</time>
      </trkpt>
      <trkpt lat="47.33273" lon="-1.29183">
        <ele>62</ele>
        <time>2022-05-08T10:24:54Z</time>
      </trkpt>
      <trkpt lat="47.33287" lon="-1.29192">
        <ele>62</ele>
        <time>2022-05-08T10:24:56Z</time>
      </trkpt>
      <trkpt lat="47.33299" lon="-1.29201">
        <ele>60</ele>
        <time>2022-05-08T10:24:58Z</time>
      </trkpt>
      <trkpt lat="47.33311" lon="-1.29211">
        <ele>60</ele>
        <time>2022-05-08T10:25:00Z</time>
      </trkpt>
      <trkpt lat="47.33322" lon="-1.2922">
        <ele>60</ele>
        <time>2022-05-08T10:25:02Z</time>
      </trkpt>
      <trkpt lat="47.33333" lon="-1.29229">
        <ele>60</ele>
        <time>2022-05-08T10:25:04Z</time>
      </trkpt>
      <trkpt lat="47.33343" lon="-1.29238">
        <ele>59</ele>
        <time>2022-05-08T10:25:06Z</time>
      </trkpt>
      <trkpt lat="47.33354" lon="-1.29249">
        <ele>59</ele>
        <time>2022-05-08T10:25:08Z</time>
      </trkpt>
      <trkpt lat="47.33364" lon="-1.29263">
        <ele>58</ele>
        <time>2022-05-08T10:25:10Z</time>
      </trkpt>
      <trkpt lat="47.33373" lon="-1.29278">
        <ele>58</ele>
        <time>2022-05-08T10:25:12Z</time>
      </trkpt>
      <trkpt lat="47.3338" lon="-1.29291">
        <ele>58</ele>
        <time>2022-05-08T10:25:14Z</time>
      </trkpt>
      <trkpt lat="47.33388" lon="-1.29305">
        <ele>58</ele>
        <time>2022-05-08T10:25:16Z</time>
      </trkpt>
      <trkpt lat="47.33395" lon="-1.29319">
        <ele>57</ele>
        <time>2022-05-08T10:25:18Z</time>
      </trkpt>
      <trkpt lat="47.33402" lon="-1.29334">
        <ele>56</ele>
        <time>2022-05-08T10:25:20Z</time>
      </trkpt>
      <trkpt lat="47.33408" lon="-1.29349">
        <ele>57</ele>
        <time>2022-05-08T10:25:22Z</time>
      </trkpt>
      <trkpt lat="47.33409" lon="-1.29364">
        <ele>57</ele>
        <time>2022-05-08T10:25:24Z</time>
      </trkpt>
      <trkpt lat="47.33414" lon="-1.2938">
        <ele>57</ele>
        <time>2022-05-08T10:25:27Z</time>
      </trkpt>
      <trkpt lat="47.33424" lon="-1.29385">
        <ele>57</ele>
        <time>2022-05-08T10:25:29Z</time>
      </trkpt>
      <trkpt lat="47.33435" lon="-1.29393">
        <ele>57</ele>
        <time>2022-05-08T10:25:31Z</time>
      </trkpt>
      <trkpt lat="47.33445" lon="-1.29402">
        <ele>56</ele>
        <time>2022-05-08T10:25:33Z</time>
      </trkpt>
      <trkpt lat="47.33456" lon="-1.29411">
        <ele>56</ele>
        <time>2022-05-08T10:25:35Z</time>
      </trkpt>
      <trkpt lat="47.33467" lon="-1.29419">
        <ele>56</ele>
        <time>2022-05-08T10:25:37Z</time>
      </trkpt>
      <trkpt lat="47.33478" lon="-1.29428">
        <ele>56</ele>
        <time>2022-05-08T10:25:39Z</time>
      </trkpt>
      <trkpt lat="47.33488" lon="-1.29437">
        <ele>56</ele>
        <time>2022-05-08T10:25:41Z</time>
      </trkpt>
      <trkpt lat="47.33499" lon="-1.29445">
        <ele>56</ele>
        <time>2022-05-08T10:25:43Z</time>
      </trkpt>
      <trkpt lat="47.3351" lon="-1.29454">
        <ele>56</ele>
        <time>2022-05-08T10:25:45Z</time>
      </trkpt>
      <trkpt lat="47.33521" lon="-1.29464">
        <ele>55</ele>
        <time>2022-05-08T10:25:47Z</time>
      </trkpt>
      <trkpt lat="47.33533" lon="-1.29473">
        <ele>55</ele>
        <time>2022-05-08T10:25:49Z</time>
      </trkpt>
      <trkpt lat="47.33544" lon="-1.29481">
        <ele>56</ele>
        <time>2022-05-08T10:25:51Z</time>
      </trkpt>
      <trkpt lat="47.33554" lon="-1.2949">
        <ele>56</ele>
        <time>2022-05-08T10:25:53Z</time>
      </trkpt>
      <trkpt lat="47.33565" lon="-1.29499">
        <ele>56</ele>
        <time>2022-05-08T10:25:55Z</time>
      </trkpt>
      <trkpt lat="47.33575" lon="-1.29507">
        <ele>56</ele>
        <time>2022-05-08T10:25:57Z</time>
      </trkpt>
      <trkpt lat="47.33586" lon="-1.29515">
        <ele>56</ele>
        <time>2022-05-08T10:25:59Z</time>
      </trkpt>
      <trkpt lat="47.33596" lon="-1.29524">
        <ele>56</ele>
        <time>2022-05-08T10:26:01Z</time>
      </trkpt>
      <trkpt lat="47.33606" lon="-1.29532">
        <ele>56</ele>
        <time>2022-05-08T10:26:03Z</time>
      </trkpt>
      <trkpt lat="47.33616" lon="-1.2954">
        <ele>56</ele>
        <time>2022-05-08T10:26:05Z</time>
      </trkpt>
      <trkpt lat="47.33627" lon="-1.29546">
        <ele>56</ele>
        <time>2022-05-08T10:26:07Z</time>
      </trkpt>
      <trkpt lat="47.33638" lon="-1.29547">
        <ele>56</ele>
        <time>2022-05-08T10:26:09Z</time>
      </trkpt>
      <trkpt lat="47.33646" lon="-1.2954">
        <ele>57</ele>
        <time>2022-05-08T10:26:11Z</time>
      </trkpt>
      <trkpt lat="47.33649" lon="-1.29522">
        <ele>57</ele>
        <time>2022-05-08T10:26:14Z</time>
      </trkpt>
      <trkpt lat="47.33654" lon="-1.29503">
        <ele>58</ele>
        <time>2022-05-08T10:26:16Z</time>
      </trkpt>
      <trkpt lat="47.33657" lon="-1.29483">
        <ele>59</ele>
        <time>2022-05-08T10:26:18Z</time>
      </trkpt>
      <trkpt lat="47.3366" lon="-1.29464">
        <ele>60</ele>
        <time>2022-05-08T10:26:20Z</time>
      </trkpt>
      <trkpt lat="47.33665" lon="-1.29447">
        <ele>60</ele>
        <time>2022-05-08T10:26:22Z</time>
      </trkpt>
      <trkpt lat="47.33672" lon="-1.29431">
        <ele>60</ele>
        <time>2022-05-08T10:26:24Z</time>
      </trkpt>
      <trkpt lat="47.33679" lon="-1.29413">
        <ele>60</ele>
        <time>2022-05-08T10:26:26Z</time>
      </trkpt>
      <trkpt lat="47.33686" lon="-1.29396">
        <ele>60</ele>
        <time>2022-05-08T10:26:28Z</time>
      </trkpt>
      <trkpt lat="47.33692" lon="-1.29378">
        <ele>61</ele>
        <time>2022-05-08T10:26:30Z</time>
      </trkpt>
      <trkpt lat="47.33698" lon="-1.29361">
        <ele>61</ele>
        <time>2022-05-08T10:26:32Z</time>
      </trkpt>
      <trkpt lat="47.33703" lon="-1.29344">
        <ele>61</ele>
        <time>2022-05-08T10:26:34Z</time>
      </trkpt>
      <trkpt lat="47.33708" lon="-1.29328">
        <ele>61</ele>
        <time>2022-05-08T10:26:36Z</time>
      </trkpt>
      <trkpt lat="47.33712" lon="-1.29311">
        <ele>62</ele>
        <time>2022-05-08T10:26:38Z</time>
      </trkpt>
      <trkpt lat="47.33717" lon="-1.29293">
        <ele>61</ele>
        <time>2022-05-08T10:26:40Z</time>
      </trkpt>
      <trkpt lat="47.33722" lon="-1.29276">
        <ele>61</ele>
        <time>2022-05-08T10:26:42Z</time>
      </trkpt>
      <trkpt lat="47.33727" lon="-1.29259">
        <ele>60</ele>
        <time>2022-05-08T10:26:44Z</time>
      </trkpt>
      <trkpt lat="47.33731" lon="-1.29242">
        <ele>60</ele>
        <time>2022-05-08T10:26:46Z</time>
      </trkpt>
      <trkpt lat="47.33734" lon="-1.29224">
        <ele>59</ele>
        <time>2022-05-08T10:26:48Z</time>
      </trkpt>
      <trkpt lat="47.33737" lon="-1.29206">
        <ele>59</ele>
        <time>2022-05-08T10:26:50Z</time>
      </trkpt>
      <trkpt lat="47.33742" lon="-1.29189">
        <ele>59</ele>
        <time>2022-05-08T10:26:52Z</time>
      </trkpt>
      <trkpt lat="47.33746" lon="-1.29172">
        <ele>59</ele>
        <time>2022-05-08T10:26:54Z</time>
      </trkpt>
      <trkpt lat="47.3375" lon="-1.29156">
        <ele>60</ele>
        <time>2022-05-08T10:26:56Z</time>
      </trkpt>
      <trkpt lat="47.33752" lon="-1.2914">
        <ele>60</ele>
        <time>2022-05-08T10:26:58Z</time>
      </trkpt>
      <trkpt lat="47.33752" lon="-1.2912">
        <ele>61</ele>
        <time>2022-05-08T10:27:00Z</time>
      </trkpt>
      <trkpt lat="47.33752" lon="-1.29101">
        <ele>62</ele>
        <time>2022-05-08T10:27:02Z</time>
      </trkpt>
      <trkpt lat="47.33753" lon="-1.29084">
        <ele>63</ele>
        <time>2022-05-08T10:27:04Z</time>
      </trkpt>
      <trkpt lat="47.33752" lon="-1.29066">
        <ele>62</ele>
        <time>2022-05-08T10:27:06Z</time>
      </trkpt>
      <trkpt lat="47.33752" lon="-1.29047">
        <ele>61</ele>
        <time>2022-05-08T10:27:08Z</time>
      </trkpt>
      <trkpt lat="47.33753" lon="-1.2903">
        <ele>61</ele>
        <time>2022-05-08T10:27:10Z</time>
      </trkpt>
      <trkpt lat="47.33754" lon="-1.29013">
        <ele>61</ele>
        <time>2022-05-08T10:27:12Z</time>
      </trkpt>
      <trkpt lat="47.33753" lon="-1.28997">
        <ele>61</ele>
        <time>2022-05-08T10:27:14Z</time>
      </trkpt>
      <trkpt lat="47.33754" lon="-1.28981">
        <ele>62</ele>
        <time>2022-05-08T10:27:16Z</time>
      </trkpt>
      <trkpt lat="47.33754" lon="-1.28964">
        <ele>62</ele>
        <time>2022-05-08T10:27:18Z</time>
      </trkpt>
      <trkpt lat="47.33754" lon="-1.28947">
        <ele>63</ele>
        <time>2022-05-08T10:27:20Z</time>
      </trkpt>
      <trkpt lat="47.33756" lon="-1.28932">
        <ele>63</ele>
        <time>2022-05-08T10:27:22Z</time>
      </trkpt>
      <trkpt lat="47.3376" lon="-1.28916">
        <ele>63</ele>
        <time>2022-05-08T10:27:24Z</time>
      </trkpt>
      <trkpt lat="47.33765" lon="-1.28902">
        <ele>64</ele>
        <time>2022-05-08T10:27:26Z</time>
      </trkpt>
      <trkpt lat="47.3377" lon="-1.28886">
        <ele>64</ele>
        <time>2022-05-08T10:27:28Z</time>
      </trkpt>
      <trkpt lat="47.33769" lon="-1.28869">
        <ele>64</ele>
        <time>2022-05-08T10:27:30Z</time>
      </trkpt>
      <trkpt lat="47.33767" lon="-1.2885">
        <ele>65</ele>
        <time>2022-05-08T10:27:32Z</time>
      </trkpt>
      <trkpt lat="47.33767" lon="-1.28831">
        <ele>65</ele>
        <time>2022-05-08T10:27:34Z</time>
      </trkpt>
      <trkpt lat="47.33767" lon="-1.28813">
        <ele>66</ele>
        <time>2022-05-08T10:27:36Z</time>
      </trkpt>
      <trkpt lat="47.33769" lon="-1.28792">
        <ele>66</ele>
        <time>2022-05-08T10:27:38Z</time>
      </trkpt>
      <trkpt lat="47.33773" lon="-1.28773">
        <ele>65</ele>
        <time>2022-05-08T10:27:40Z</time>
      </trkpt>
      <trkpt lat="47.33774" lon="-1.28753">
        <ele>65</ele>
        <time>2022-05-08T10:27:42Z</time>
      </trkpt>
      <trkpt lat="47.33775" lon="-1.28733">
        <ele>64</ele>
        <time>2022-05-08T10:27:44Z</time>
      </trkpt>
      <trkpt lat="47.33776" lon="-1.28714">
        <ele>64</ele>
        <time>2022-05-08T10:27:46Z</time>
      </trkpt>
      <trkpt lat="47.3378" lon="-1.28695">
        <ele>64</ele>
        <time>2022-05-08T10:27:48Z</time>
      </trkpt>
      <trkpt lat="47.33785" lon="-1.28679">
        <ele>63</ele>
        <time>2022-05-08T10:27:50Z</time>
      </trkpt>
      <trkpt lat="47.33788" lon="-1.28664">
        <ele>63</ele>
        <time>2022-05-08T10:27:52Z</time>
      </trkpt>
      <trkpt lat="47.33789" lon="-1.28647">
        <ele>62</ele>
        <time>2022-05-08T10:27:54Z</time>
      </trkpt>
      <trkpt lat="47.33792" lon="-1.2863">
        <ele>62</ele>
        <time>2022-05-08T10:27:56Z</time>
      </trkpt>
      <trkpt lat="47.33795" lon="-1.28613">
        <ele>62</ele>
        <time>2022-05-08T10:27:58Z</time>
      </trkpt>
      <trkpt lat="47.33799" lon="-1.28597">
        <ele>62</ele>
        <time>2022-05-08T10:28:00Z</time>
      </trkpt>
      <trkpt lat="47.33805" lon="-1.28585">
        <ele>63</ele>
        <time>2022-05-08T10:28:02Z</time>
      </trkpt>
      <trkpt lat="47.33811" lon="-1.28575">
        <ele>63</ele>
        <time>2022-05-08T10:28:04Z</time>
      </trkpt>
      <trkpt lat="47.3381" lon="-1.28561">
        <ele>62</ele>
        <time>2022-05-08T10:28:06Z</time>
      </trkpt>
      <trkpt lat="47.33805" lon="-1.28547">
        <ele>63</ele>
        <time>2022-05-08T10:28:08Z</time>
      </trkpt>
      <trkpt lat="47.33801" lon="-1.28534">
        <ele>62</ele>
        <time>2022-05-08T10:28:10Z</time>
      </trkpt>
      <trkpt lat="47.33802" lon="-1.28519">
        <ele>62</ele>
        <time>2022-05-08T10:28:12Z</time>
      </trkpt>
      <trkpt lat="47.33804" lon="-1.28502">
        <ele>61</ele>
        <time>2022-05-08T10:28:14Z</time>
      </trkpt>
      <trkpt lat="47.33806" lon="-1.28484">
        <ele>60</ele>
        <time>2022-05-08T10:28:16Z</time>
      </trkpt>
      <trkpt lat="47.33808" lon="-1.28465">
        <ele>60</ele>
        <time>2022-05-08T10:28:18Z</time>
      </trkpt>
      <trkpt lat="47.33809" lon="-1.28446">
        <ele>60</ele>
        <time>2022-05-08T10:28:20Z</time>
      </trkpt>
      <trkpt lat="47.33811" lon="-1.28428">
        <ele>60</ele>
        <time>2022-05-08T10:28:22Z</time>
      </trkpt>
      <trkpt lat="47.33813" lon="-1.2841">
        <ele>60</ele>
        <time>2022-05-08T10:28:24Z</time>
      </trkpt>
      <trkpt lat="47.33815" lon="-1.28392">
        <ele>60</ele>
        <time>2022-05-08T10:28:26Z</time>
      </trkpt>
      <trkpt lat="47.33818" lon="-1.28375">
        <ele>60</ele>
        <time>2022-05-08T10:28:28Z</time>
      </trkpt>
      <trkpt lat="47.33821" lon="-1.28357">
        <ele>59</ele>
        <time>2022-05-08T10:28:30Z</time>
      </trkpt>
      <trkpt lat="47.33824" lon="-1.2834">
        <ele>59</ele>
        <time>2022-05-08T10:28:32Z</time>
      </trkpt>
      <trkpt lat="47.33826" lon="-1.28323">
        <ele>59</ele>
        <time>2022-05-08T10:28:34Z</time>
      </trkpt>
      <trkpt lat="47.33829" lon="-1.28305">
        <ele>59</ele>
        <time>2022-05-08T10:28:36Z</time>
      </trkpt>
      <trkpt lat="47.33833" lon="-1.28285">
        <ele>59</ele>
        <time>2022-05-08T10:28:38Z</time>
      </trkpt>
      <trkpt lat="47.33837" lon="-1.28267">
        <ele>58</ele>
        <time>2022-05-08T10:28:40Z</time>
      </trkpt>
      <trkpt lat="47.33841" lon="-1.28249">
        <ele>58</ele>
        <time>2022-05-08T10:28:42Z</time>
      </trkpt>
      <trkpt lat="47.33844" lon="-1.28231">
        <ele>57</ele>
        <time>2022-05-08T10:28:44Z</time>
      </trkpt>
      <trkpt lat="47.33846" lon="-1.28212">
        <ele>56</ele>
        <time>2022-05-08T10:28:46Z</time>
      </trkpt>
      <trkpt lat="47.33849" lon="-1.28192">
        <ele>56</ele>
        <time>2022-05-08T10:28:48Z</time>
      </trkpt>
      <trkpt lat="47.33852" lon="-1.28174">
        <ele>56</ele>
        <time>2022-05-08T10:28:50Z</time>
      </trkpt>
      <trkpt lat="47.33853" lon="-1.28156">
        <ele>56</ele>
        <time>2022-05-08T10:28:52Z</time>
      </trkpt>
      <trkpt lat="47.33856" lon="-1.28138">
        <ele>56</ele>
        <time>2022-05-08T10:28:54Z</time>
      </trkpt>
      <trkpt lat="47.33857" lon="-1.28121">
        <ele>56</ele>
        <time>2022-05-08T10:28:56Z</time>
      </trkpt>
      <trkpt lat="47.33859" lon="-1.28104">
        <ele>56</ele>
        <time>2022-05-08T10:28:58Z</time>
      </trkpt>
      <trkpt lat="47.33862" lon="-1.28085">
        <ele>56</ele>
        <time>2022-05-08T10:29:00Z</time>
      </trkpt>
      <trkpt lat="47.33864" lon="-1.28066">
        <ele>57</ele>
        <time>2022-05-08T10:29:02Z</time>
      </trkpt>
      <trkpt lat="47.33866" lon="-1.28049">
        <ele>57</ele>
        <time>2022-05-08T10:29:04Z</time>
      </trkpt>
      <trkpt lat="47.33869" lon="-1.28032">
        <ele>56</ele>
        <time>2022-05-08T10:29:06Z</time>
      </trkpt>
      <trkpt lat="47.33869" lon="-1.28014">
        <ele>56</ele>
        <time>2022-05-08T10:29:08Z</time>
      </trkpt>
      <trkpt lat="47.3387" lon="-1.27996">
        <ele>56</ele>
        <time>2022-05-08T10:29:10Z</time>
      </trkpt>
      <trkpt lat="47.33872" lon="-1.27977">
        <ele>56</ele>
        <time>2022-05-08T10:29:12Z</time>
      </trkpt>
      <trkpt lat="47.33873" lon="-1.27958">
        <ele>56</ele>
        <time>2022-05-08T10:29:14Z</time>
      </trkpt>
      <trkpt lat="47.33873" lon="-1.27939">
        <ele>56</ele>
        <time>2022-05-08T10:29:16Z</time>
      </trkpt>
      <trkpt lat="47.33873" lon="-1.2792">
        <ele>55</ele>
        <time>2022-05-08T10:29:18Z</time>
      </trkpt>
      <trkpt lat="47.33874" lon="-1.27902">
        <ele>56</ele>
        <time>2022-05-08T10:29:20Z</time>
      </trkpt>
      <trkpt lat="47.33874" lon="-1.27884">
        <ele>56</ele>
        <time>2022-05-08T10:29:22Z</time>
      </trkpt>
      <trkpt lat="47.33874" lon="-1.27866">
        <ele>57</ele>
        <time>2022-05-08T10:29:24Z</time>
      </trkpt>
      <trkpt lat="47.33875" lon="-1.27849">
        <ele>57</ele>
        <time>2022-05-08T10:29:26Z</time>
      </trkpt>
      <trkpt lat="47.33877" lon="-1.27833">
        <ele>56</ele>
        <time>2022-05-08T10:29:28Z</time>
      </trkpt>
      <trkpt lat="47.33877" lon="-1.27818">
        <ele>56</ele>
        <time>2022-05-08T10:29:30Z</time>
      </trkpt>
      <trkpt lat="47.33878" lon="-1.27804">
        <ele>56</ele>
        <time>2022-05-08T10:29:32Z</time>
      </trkpt>
      <trkpt lat="47.33872" lon="-1.27789">
        <ele>56</ele>
        <time>2022-05-08T10:29:35Z</time>
      </trkpt>
      <trkpt lat="47.33863" lon="-1.27785">
        <ele>57</ele>
        <time>2022-05-08T10:29:37Z</time>
      </trkpt>
      <trkpt lat="47.33852" lon="-1.27782">
        <ele>57</ele>
        <time>2022-05-08T10:29:39Z</time>
      </trkpt>
      <trkpt lat="47.3384" lon="-1.27778">
        <ele>58</ele>
        <time>2022-05-08T10:29:41Z</time>
      </trkpt>
      <trkpt lat="47.33829" lon="-1.27775">
        <ele>58</ele>
        <time>2022-05-08T10:29:43Z</time>
      </trkpt>
      <trkpt lat="47.33817" lon="-1.27772">
        <ele>58</ele>
        <time>2022-05-08T10:29:45Z</time>
      </trkpt>
      <trkpt lat="47.33804" lon="-1.2777">
        <ele>59</ele>
        <time>2022-05-08T10:29:47Z</time>
      </trkpt>
      <trkpt lat="47.33792" lon="-1.27766">
        <ele>58</ele>
        <time>2022-05-08T10:29:49Z</time>
      </trkpt>
      <trkpt lat="47.3378" lon="-1.27761">
        <ele>59</ele>
        <time>2022-05-08T10:29:51Z</time>
      </trkpt>
      <trkpt lat="47.33769" lon="-1.27757">
        <ele>59</ele>
        <time>2022-05-08T10:29:53Z</time>
      </trkpt>
      <trkpt lat="47.3376" lon="-1.27754">
        <ele>60</ele>
        <time>2022-05-08T10:29:55Z</time>
      </trkpt>
      <trkpt lat="47.33747" lon="-1.27751">
        <ele>61</ele>
        <time>2022-05-08T10:29:58Z</time>
      </trkpt>
      <trkpt lat="47.33739" lon="-1.27744">
        <ele>62</ele>
        <time>2022-05-08T10:30:01Z</time>
      </trkpt>
      <trkpt lat="47.33737" lon="-1.2773">
        <ele>62</ele>
        <time>2022-05-08T10:30:14Z</time>
      </trkpt>
      <trkpt lat="47.33745" lon="-1.27724">
        <ele>62</ele>
        <time>2022-05-08T10:30:16Z</time>
      </trkpt>
      <trkpt lat="47.33755" lon="-1.27721">
        <ele>62</ele>
        <time>2022-05-08T10:30:18Z</time>
      </trkpt>
      <trkpt lat="47.33765" lon="-1.27725">
        <ele>63</ele>
        <time>2022-05-08T10:30:20Z</time>
      </trkpt>
      <trkpt lat="47.33773" lon="-1.27736">
        <ele>62</ele>
        <time>2022-05-08T10:30:22Z</time>
      </trkpt>
      <trkpt lat="47.33782" lon="-1.27743">
        <ele>62</ele>
        <time>2022-05-08T10:30:24Z</time>
      </trkpt>
      <trkpt lat="47.33793" lon="-1.27746">
        <ele>62</ele>
        <time>2022-05-08T10:30:26Z</time>
      </trkpt>
      <trkpt lat="47.33804" lon="-1.27749">
        <ele>62</ele>
        <time>2022-05-08T10:30:28Z</time>
      </trkpt>
      <trkpt lat="47.33815" lon="-1.27753">
        <ele>62</ele>
        <time>2022-05-08T10:30:30Z</time>
      </trkpt>
      <trkpt lat="47.33826" lon="-1.27756">
        <ele>63</ele>
        <time>2022-05-08T10:30:32Z</time>
      </trkpt>
      <trkpt lat="47.33836" lon="-1.2776">
        <ele>63</ele>
        <time>2022-05-08T10:30:34Z</time>
      </trkpt>
      <trkpt lat="47.33847" lon="-1.27763">
        <ele>63</ele>
        <time>2022-05-08T10:30:36Z</time>
      </trkpt>
      <trkpt lat="47.33859" lon="-1.27767">
        <ele>63</ele>
        <time>2022-05-08T10:30:38Z</time>
      </trkpt>
      <trkpt lat="47.3387" lon="-1.27771">
        <ele>63</ele>
        <time>2022-05-08T10:30:40Z</time>
      </trkpt>
      <trkpt lat="47.33881" lon="-1.27774">
        <ele>63</ele>
        <time>2022-05-08T10:30:42Z</time>
      </trkpt>
      <trkpt lat="47.33891" lon="-1.27777">
        <ele>63</ele>
        <time>2022-05-08T10:30:44Z</time>
      </trkpt>
      <trkpt lat="47.33902" lon="-1.2778">
        <ele>63</ele>
        <time>2022-05-08T10:30:46Z</time>
      </trkpt>
      <trkpt lat="47.33912" lon="-1.27783">
        <ele>63</ele>
        <time>2022-05-08T10:30:48Z</time>
      </trkpt>
      <trkpt lat="47.33923" lon="-1.27787">
        <ele>63</ele>
        <time>2022-05-08T10:30:50Z</time>
      </trkpt>
      <trkpt lat="47.33934" lon="-1.2779">
        <ele>63</ele>
        <time>2022-05-08T10:30:52Z</time>
      </trkpt>
      <trkpt lat="47.33944" lon="-1.27793">
        <ele>64</ele>
        <time>2022-05-08T10:30:54Z</time>
      </trkpt>
      <trkpt lat="47.33955" lon="-1.27796">
        <ele>64</ele>
        <time>2022-05-08T10:30:56Z</time>
      </trkpt>
      <trkpt lat="47.33966" lon="-1.278">
        <ele>64</ele>
        <time>2022-05-08T10:30:58Z</time>
      </trkpt>
      <trkpt lat="47.33977" lon="-1.27803">
        <ele>64</ele>
        <time>2022-05-08T10:31:00Z</time>
      </trkpt>
      <trkpt lat="47.33987" lon="-1.27807">
        <ele>65</ele>
        <time>2022-05-08T10:31:02Z</time>
      </trkpt>
      <trkpt lat="47.33998" lon="-1.2781">
        <ele>65</ele>
        <time>2022-05-08T10:31:04Z</time>
      </trkpt>
      <trkpt lat="47.34009" lon="-1.27813">
        <ele>65</ele>
        <time>2022-05-08T10:31:06Z</time>
      </trkpt>
      <trkpt lat="47.3402" lon="-1.27817">
        <ele>65</ele>
        <time>2022-05-08T10:31:08Z</time>
      </trkpt>
      <trkpt lat="47.34031" lon="-1.2782">
        <ele>64</ele>
        <time>2022-05-08T10:31:10Z</time>
      </trkpt>
      <trkpt lat="47.34042" lon="-1.27824">
        <ele>64</ele>
        <time>2022-05-08T10:31:12Z</time>
      </trkpt>
      <trkpt lat="47.34053" lon="-1.27827">
        <ele>64</ele>
        <time>2022-05-08T10:31:14Z</time>
      </trkpt>
      <trkpt lat="47.34064" lon="-1.27831">
        <ele>64</ele>
        <time>2022-05-08T10:31:16Z</time>
      </trkpt>
      <trkpt lat="47.34075" lon="-1.27834">
        <ele>64</ele>
        <time>2022-05-08T10:31:18Z</time>
      </trkpt>
      <trkpt lat="47.34086" lon="-1.27837">
        <ele>64</ele>
        <time>2022-05-08T10:31:20Z</time>
      </trkpt>
      <trkpt lat="47.34097" lon="-1.27841">
        <ele>64</ele>
        <time>2022-05-08T10:31:22Z</time>
      </trkpt>
      <trkpt lat="47.34108" lon="-1.27845">
        <ele>64</ele>
        <time>2022-05-08T10:31:24Z</time>
      </trkpt>
      <trkpt lat="47.34119" lon="-1.27848">
        <ele>64</ele>
        <time>2022-05-08T10:31:26Z</time>
      </trkpt>
      <trkpt lat="47.3413" lon="-1.27852">
        <ele>64</ele>
        <time>2022-05-08T10:31:28Z</time>
      </trkpt>
      <trkpt lat="47.34141" lon="-1.27855">
        <ele>64</ele>
        <time>2022-05-08T10:31:30Z</time>
      </trkpt>
      <trkpt lat="47.34152" lon="-1.27858">
        <ele>64</ele>
        <time>2022-05-08T10:31:32Z</time>
      </trkpt>
      <trkpt lat="47.34163" lon="-1.27862">
        <ele>64</ele>
        <time>2022-05-08T10:31:34Z</time>
      </trkpt>
      <trkpt lat="47.34174" lon="-1.27866">
        <ele>64</ele>
        <time>2022-05-08T10:31:36Z</time>
      </trkpt>
      <trkpt lat="47.34186" lon="-1.27869">
        <ele>64</ele>
        <time>2022-05-08T10:31:38Z</time>
      </trkpt>
      <trkpt lat="47.34197" lon="-1.27873">
        <ele>64</ele>
        <time>2022-05-08T10:31:40Z</time>
      </trkpt>
      <trkpt lat="47.34208" lon="-1.27876">
        <ele>64</ele>
        <time>2022-05-08T10:31:42Z</time>
      </trkpt>
      <trkpt lat="47.34219" lon="-1.2788">
        <ele>64</ele>
        <time>2022-05-08T10:31:44Z</time>
      </trkpt>
      <trkpt lat="47.34231" lon="-1.27884">
        <ele>64</ele>
        <time>2022-05-08T10:31:46Z</time>
      </trkpt>
      <trkpt lat="47.34242" lon="-1.27887">
        <ele>64</ele>
        <time>2022-05-08T10:31:48Z</time>
      </trkpt>
      <trkpt lat="47.34253" lon="-1.2789">
        <ele>64</ele>
        <time>2022-05-08T10:31:50Z</time>
      </trkpt>
      <trkpt lat="47.34265" lon="-1.27894">
        <ele>64</ele>
        <time>2022-05-08T10:31:52Z</time>
      </trkpt>
      <trkpt lat="47.34277" lon="-1.27897">
        <ele>64</ele>
        <time>2022-05-08T10:31:54Z</time>
      </trkpt>
      <trkpt lat="47.34288" lon="-1.27901">
        <ele>65</ele>
        <time>2022-05-08T10:31:56Z</time>
      </trkpt>
      <trkpt lat="47.343" lon="-1.27905">
        <ele>65</ele>
        <time>2022-05-08T10:31:58Z</time>
      </trkpt>
      <trkpt lat="47.34311" lon="-1.27909">
        <ele>65</ele>
        <time>2022-05-08T10:32:00Z</time>
      </trkpt>
      <trkpt lat="47.34322" lon="-1.27912">
        <ele>64</ele>
        <time>2022-05-08T10:32:02Z</time>
      </trkpt>
      <trkpt lat="47.34334" lon="-1.27916">
        <ele>64</ele>
        <time>2022-05-08T10:32:04Z</time>
      </trkpt>
      <trkpt lat="47.34345" lon="-1.27919">
        <ele>64</ele>
        <time>2022-05-08T10:32:06Z</time>
      </trkpt>
      <trkpt lat="47.34357" lon="-1.27923">
        <ele>64</ele>
        <time>2022-05-08T10:32:08Z</time>
      </trkpt>
      <trkpt lat="47.34369" lon="-1.27926">
        <ele>64</ele>
        <time>2022-05-08T10:32:10Z</time>
      </trkpt>
      <trkpt lat="47.3438" lon="-1.2793">
        <ele>64</ele>
        <time>2022-05-08T10:32:12Z</time>
      </trkpt>
      <trkpt lat="47.34392" lon="-1.27934">
        <ele>63</ele>
        <time>2022-05-08T10:32:14Z</time>
      </trkpt>
      <trkpt lat="47.34405" lon="-1.27939">
        <ele>63</ele>
        <time>2022-05-08T10:32:16Z</time>
      </trkpt>
      <trkpt lat="47.34417" lon="-1.27945">
        <ele>63</ele>
        <time>2022-05-08T10:32:18Z</time>
      </trkpt>
      <trkpt lat="47.34429" lon="-1.27952">
        <ele>64</ele>
        <time>2022-05-08T10:32:20Z</time>
      </trkpt>
      <trkpt lat="47.3444" lon="-1.27959">
        <ele>64</ele>
        <time>2022-05-08T10:32:22Z</time>
      </trkpt>
      <trkpt lat="47.34451" lon="-1.27968">
        <ele>65</ele>
        <time>2022-05-08T10:32:24Z</time>
      </trkpt>
      <trkpt lat="47.34461" lon="-1.27978">
        <ele>65</ele>
        <time>2022-05-08T10:32:26Z</time>
      </trkpt>
      <trkpt lat="47.3447" lon="-1.27989">
        <ele>65</ele>
        <time>2022-05-08T10:32:28Z</time>
      </trkpt>
      <trkpt lat="47.3448" lon="-1.28002">
        <ele>65</ele>
        <time>2022-05-08T10:32:30Z</time>
      </trkpt>
      <trkpt lat="47.34488" lon="-1.28017">
        <ele>64</ele>
        <time>2022-05-08T10:32:32Z</time>
      </trkpt>
      <trkpt lat="47.34497" lon="-1.28033">
        <ele>64</ele>
        <time>2022-05-08T10:32:34Z</time>
      </trkpt>
      <trkpt lat="47.34505" lon="-1.28052">
        <ele>63</ele>
        <time>2022-05-08T10:32:36Z</time>
      </trkpt>
      <trkpt lat="47.34512" lon="-1.28072">
        <ele>62</ele>
        <time>2022-05-08T10:32:38Z</time>
      </trkpt>
      <trkpt lat="47.34517" lon="-1.28093">
        <ele>62</ele>
        <time>2022-05-08T10:32:40Z</time>
      </trkpt>
      <trkpt lat="47.34522" lon="-1.28117">
        <ele>62</ele>
        <time>2022-05-08T10:32:42Z</time>
      </trkpt>
      <trkpt lat="47.34525" lon="-1.28141">
        <ele>62</ele>
        <time>2022-05-08T10:32:44Z</time>
      </trkpt>
      <trkpt lat="47.34527" lon="-1.28164">
        <ele>62</ele>
        <time>2022-05-08T10:32:46Z</time>
      </trkpt>
      <trkpt lat="47.34527" lon="-1.28188">
        <ele>62</ele>
        <time>2022-05-08T10:32:48Z</time>
      </trkpt>
      <trkpt lat="47.34526" lon="-1.2821">
        <ele>63</ele>
        <time>2022-05-08T10:32:50Z</time>
      </trkpt>
      <trkpt lat="47.34524" lon="-1.28232">
        <ele>63</ele>
        <time>2022-05-08T10:32:52Z</time>
      </trkpt>
      <trkpt lat="47.34521" lon="-1.28254">
        <ele>63</ele>
        <time>2022-05-08T10:32:54Z</time>
      </trkpt>
      <trkpt lat="47.34519" lon="-1.28275">
        <ele>63</ele>
        <time>2022-05-08T10:32:56Z</time>
      </trkpt>
      <trkpt lat="47.34517" lon="-1.28297">
        <ele>63</ele>
        <time>2022-05-08T10:32:58Z</time>
      </trkpt>
      <trkpt lat="47.34515" lon="-1.28319">
        <ele>63</ele>
        <time>2022-05-08T10:33:00Z</time>
      </trkpt>
      <trkpt lat="47.34514" lon="-1.2834">
        <ele>63</ele>
        <time>2022-05-08T10:33:02Z</time>
      </trkpt>
      <trkpt lat="47.34514" lon="-1.28361">
        <ele>63</ele>
        <time>2022-05-08T10:33:04Z</time>
      </trkpt>
      <trkpt lat="47.34516" lon="-1.28382">
        <ele>63</ele>
        <time>2022-05-08T10:33:06Z</time>
      </trkpt>
      <trkpt lat="47.34519" lon="-1.28403">
        <ele>63</ele>
        <time>2022-05-08T10:33:08Z</time>
      </trkpt>
      <trkpt lat="47.34524" lon="-1.28422">
        <ele>63</ele>
        <time>2022-05-08T10:33:10Z</time>
      </trkpt>
      <trkpt lat="47.3453" lon="-1.28442">
        <ele>63</ele>
        <time>2022-05-08T10:33:12Z</time>
      </trkpt>
      <trkpt lat="47.34536" lon="-1.28459">
        <ele>64</ele>
        <time>2022-05-08T10:33:14Z</time>
      </trkpt>
      <trkpt lat="47.34544" lon="-1.28476">
        <ele>64</ele>
        <time>2022-05-08T10:33:16Z</time>
      </trkpt>
      <trkpt lat="47.34553" lon="-1.2849">
        <ele>63</ele>
        <time>2022-05-08T10:33:18Z</time>
      </trkpt>
      <trkpt lat="47.34561" lon="-1.28504">
        <ele>63</ele>
        <time>2022-05-08T10:33:20Z</time>
      </trkpt>
      <trkpt lat="47.34571" lon="-1.28516">
        <ele>64</ele>
        <time>2022-05-08T10:33:22Z</time>
      </trkpt>
      <trkpt lat="47.34581" lon="-1.28528">
        <ele>64</ele>
        <time>2022-05-08T10:33:24Z</time>
      </trkpt>
      <trkpt lat="47.34591" lon="-1.28538">
        <ele>64</ele>
        <time>2022-05-08T10:33:26Z</time>
      </trkpt>
      <trkpt lat="47.34602" lon="-1.28548">
        <ele>64</ele>
        <time>2022-05-08T10:33:28Z</time>
      </trkpt>
      <trkpt lat="47.34613" lon="-1.28556">
        <ele>64</ele>
        <time>2022-05-08T10:33:30Z</time>
      </trkpt>
      <trkpt lat="47.34623" lon="-1.28565">
        <ele>65</ele>
        <time>2022-05-08T10:33:32Z</time>
      </trkpt>
      <trkpt lat="47.34633" lon="-1.28573">
        <ele>65</ele>
        <time>2022-05-08T10:33:34Z</time>
      </trkpt>
      <trkpt lat="47.34642" lon="-1.2858">
        <ele>65</ele>
        <time>2022-05-08T10:33:36Z</time>
      </trkpt>
      <trkpt lat="47.34651" lon="-1.28589">
        <ele>66</ele>
        <time>2022-05-08T10:33:39Z</time>
      </trkpt>
      <trkpt lat="47.34652" lon="-1.28603">
        <ele>66</ele>
        <time>2022-05-08T10:33:42Z</time>
      </trkpt>
      <trkpt lat="47.34642" lon="-1.28615">
        <ele>66</ele>
        <time>2022-05-08T10:33:44Z</time>
      </trkpt>
      <trkpt lat="47.34634" lon="-1.2863">
        <ele>65</ele>
        <time>2022-05-08T10:33:46Z</time>
      </trkpt>
      <trkpt lat="47.34625" lon="-1.28646">
        <ele>64</ele>
        <time>2022-05-08T10:33:48Z</time>
      </trkpt>
      <trkpt lat="47.34613" lon="-1.28672">
        <ele>64</ele>
        <time>2022-05-08T10:33:51Z</time>
      </trkpt>
      <trkpt lat="47.34604" lon="-1.28689">
        <ele>64</ele>
        <time>2022-05-08T10:33:53Z</time>
      </trkpt>
      <trkpt lat="47.34594" lon="-1.28715">
        <ele>63</ele>
        <time>2022-05-08T10:33:56Z</time>
      </trkpt>
      <trkpt lat="47.34589" lon="-1.28734">
        <ele>62</ele>
        <time>2022-05-08T10:33:58Z</time>
      </trkpt>
      <trkpt lat="47.34584" lon="-1.28753">
        <ele>62</ele>
        <time>2022-05-08T10:34:00Z</time>
      </trkpt>
      <trkpt lat="47.34578" lon="-1.28772">
        <ele>62</ele>
        <time>2022-05-08T10:34:02Z</time>
      </trkpt>
      <trkpt lat="47.34572" lon="-1.28791">
        <ele>62</ele>
        <time>2022-05-08T10:34:04Z</time>
      </trkpt>
      <trkpt lat="47.34566" lon="-1.28811">
        <ele>62</ele>
        <time>2022-05-08T10:34:06Z</time>
      </trkpt>
      <trkpt lat="47.34561" lon="-1.2883">
        <ele>61</ele>
        <time>2022-05-08T10:34:08Z</time>
      </trkpt>
      <trkpt lat="47.34557" lon="-1.28848">
        <ele>62</ele>
        <time>2022-05-08T10:34:10Z</time>
      </trkpt>
      <trkpt lat="47.34554" lon="-1.28866">
        <ele>63</ele>
        <time>2022-05-08T10:34:12Z</time>
      </trkpt>
      <trkpt lat="47.34549" lon="-1.28882">
        <ele>64</ele>
        <time>2022-05-08T10:34:14Z</time>
      </trkpt>
      <trkpt lat="47.34543" lon="-1.28897">
        <ele>64</ele>
        <time>2022-05-08T10:34:16Z</time>
      </trkpt>
      <trkpt lat="47.34538" lon="-1.28908">
        <ele>65</ele>
        <time>2022-05-08T10:34:18Z</time>
      </trkpt>
      <trkpt lat="47.34532" lon="-1.28921">
        <ele>65</ele>
        <time>2022-05-08T10:34:20Z</time>
      </trkpt>
      <trkpt lat="47.34526" lon="-1.28935">
        <ele>66</ele>
        <time>2022-05-08T10:34:22Z</time>
      </trkpt>
      <trkpt lat="47.34519" lon="-1.28948">
        <ele>66</ele>
        <time>2022-05-08T10:34:24Z</time>
      </trkpt>
      <trkpt lat="47.34512" lon="-1.28961">
        <ele>67</ele>
        <time>2022-05-08T10:34:26Z</time>
      </trkpt>
      <trkpt lat="47.34504" lon="-1.28975">
        <ele>67</ele>
        <time>2022-05-08T10:34:28Z</time>
      </trkpt>
      <trkpt lat="47.34497" lon="-1.2899">
        <ele>66</ele>
        <time>2022-05-08T10:34:30Z</time>
      </trkpt>
      <trkpt lat="47.3449" lon="-1.29007">
        <ele>65</ele>
        <time>2022-05-08T10:34:32Z</time>
      </trkpt>
      <trkpt lat="47.34483" lon="-1.29026">
        <ele>64</ele>
        <time>2022-05-08T10:34:34Z</time>
      </trkpt>
      <trkpt lat="47.34477" lon="-1.29046">
        <ele>63</ele>
        <time>2022-05-08T10:34:36Z</time>
      </trkpt>
      <trkpt lat="47.34472" lon="-1.29067">
        <ele>62</ele>
        <time>2022-05-08T10:34:38Z</time>
      </trkpt>
      <trkpt lat="47.34467" lon="-1.29084">
        <ele>62</ele>
        <time>2022-05-08T10:34:40Z</time>
      </trkpt>
      <trkpt lat="47.34464" lon="-1.29098">
        <ele>61</ele>
        <time>2022-05-08T10:34:42Z</time>
      </trkpt>
      <trkpt lat="47.34461" lon="-1.29111">
        <ele>61</ele>
        <time>2022-05-08T10:34:44Z</time>
      </trkpt>
      <trkpt lat="47.34455" lon="-1.29126">
        <ele>61</ele>
        <time>2022-05-08T10:34:47Z</time>
      </trkpt>
      <trkpt lat="47.34446" lon="-1.2913">
        <ele>61</ele>
        <time>2022-05-08T10:34:49Z</time>
      </trkpt>
      <trkpt lat="47.34441" lon="-1.29143">
        <ele>61</ele>
        <time>2022-05-08T10:34:51Z</time>
      </trkpt>
      <trkpt lat="47.3444" lon="-1.2916">
        <ele>61</ele>
        <time>2022-05-08T10:34:53Z</time>
      </trkpt>
      <trkpt lat="47.34441" lon="-1.29177">
        <ele>61</ele>
        <time>2022-05-08T10:34:55Z</time>
      </trkpt>
      <trkpt lat="47.34441" lon="-1.29195">
        <ele>61</ele>
        <time>2022-05-08T10:34:57Z</time>
      </trkpt>
      <trkpt lat="47.34441" lon="-1.29215">
        <ele>61</ele>
        <time>2022-05-08T10:34:59Z</time>
      </trkpt>
      <trkpt lat="47.34441" lon="-1.29236">
        <ele>60</ele>
        <time>2022-05-08T10:35:01Z</time>
      </trkpt>
      <trkpt lat="47.34441" lon="-1.29257">
        <ele>60</ele>
        <time>2022-05-08T10:35:03Z</time>
      </trkpt>
      <trkpt lat="47.34442" lon="-1.29279">
        <ele>60</ele>
        <time>2022-05-08T10:35:05Z</time>
      </trkpt>
      <trkpt lat="47.34442" lon="-1.293">
        <ele>59</ele>
        <time>2022-05-08T10:35:07Z</time>
      </trkpt>
      <trkpt lat="47.34443" lon="-1.29322">
        <ele>59</ele>
        <time>2022-05-08T10:35:09Z</time>
      </trkpt>
      <trkpt lat="47.34443" lon="-1.29343">
        <ele>59</ele>
        <time>2022-05-08T10:35:11Z</time>
      </trkpt>
      <trkpt lat="47.34444" lon="-1.29363">
        <ele>59</ele>
        <time>2022-05-08T10:35:13Z</time>
      </trkpt>
      <trkpt lat="47.34445" lon="-1.29384">
        <ele>59</ele>
        <time>2022-05-08T10:35:15Z</time>
      </trkpt>
      <trkpt lat="47.34446" lon="-1.29404">
        <ele>58</ele>
        <time>2022-05-08T10:35:17Z</time>
      </trkpt>
      <trkpt lat="47.34445" lon="-1.29422">
        <ele>59</ele>
        <time>2022-05-08T10:35:19Z</time>
      </trkpt>
      <trkpt lat="47.34444" lon="-1.29442">
        <ele>59</ele>
        <time>2022-05-08T10:35:21Z</time>
      </trkpt>
      <trkpt lat="47.34441" lon="-1.29462">
        <ele>59</ele>
        <time>2022-05-08T10:35:23Z</time>
      </trkpt>
      <trkpt lat="47.34438" lon="-1.29482">
        <ele>58</ele>
        <time>2022-05-08T10:35:25Z</time>
      </trkpt>
      <trkpt lat="47.34435" lon="-1.29502">
        <ele>58</ele>
        <time>2022-05-08T10:35:27Z</time>
      </trkpt>
      <trkpt lat="47.34433" lon="-1.29522">
        <ele>58</ele>
        <time>2022-05-08T10:35:29Z</time>
      </trkpt>
      <trkpt lat="47.34429" lon="-1.29542">
        <ele>58</ele>
        <time>2022-05-08T10:35:31Z</time>
      </trkpt>
      <trkpt lat="47.34426" lon="-1.29562">
        <ele>58</ele>
        <time>2022-05-08T10:35:33Z</time>
      </trkpt>
      <trkpt lat="47.34424" lon="-1.29581">
        <ele>58</ele>
        <time>2022-05-08T10:35:35Z</time>
      </trkpt>
      <trkpt lat="47.34421" lon="-1.29601">
        <ele>58</ele>
        <time>2022-05-08T10:35:37Z</time>
      </trkpt>
      <trkpt lat="47.34418" lon="-1.29621">
        <ele>58</ele>
        <time>2022-05-08T10:35:39Z</time>
      </trkpt>
      <trkpt lat="47.34413" lon="-1.29639">
        <ele>58</ele>
        <time>2022-05-08T10:35:41Z</time>
      </trkpt>
      <trkpt lat="47.34407" lon="-1.29656">
        <ele>58</ele>
        <time>2022-05-08T10:35:43Z</time>
      </trkpt>
      <trkpt lat="47.344" lon="-1.29671">
        <ele>58</ele>
        <time>2022-05-08T10:35:45Z</time>
      </trkpt>
      <trkpt lat="47.34392" lon="-1.29687">
        <ele>58</ele>
        <time>2022-05-08T10:35:47Z</time>
      </trkpt>
      <trkpt lat="47.34383" lon="-1.29704">
        <ele>57</ele>
        <time>2022-05-08T10:35:49Z</time>
      </trkpt>
      <trkpt lat="47.34375" lon="-1.2972">
        <ele>58</ele>
        <time>2022-05-08T10:35:51Z</time>
      </trkpt>
      <trkpt lat="47.34367" lon="-1.29737">
        <ele>58</ele>
        <time>2022-05-08T10:35:53Z</time>
      </trkpt>
      <trkpt lat="47.34358" lon="-1.29754">
        <ele>58</ele>
        <time>2022-05-08T10:35:55Z</time>
      </trkpt>
      <trkpt lat="47.34351" lon="-1.29771">
        <ele>58</ele>
        <time>2022-05-08T10:35:57Z</time>
      </trkpt>
      <trkpt lat="47.34342" lon="-1.29787">
        <ele>58</ele>
        <time>2022-05-08T10:35:59Z</time>
      </trkpt>
      <trkpt lat="47.34335" lon="-1.29804">
        <ele>58</ele>
        <time>2022-05-08T10:36:01Z</time>
      </trkpt>
      <trkpt lat="47.34328" lon="-1.2982">
        <ele>58</ele>
        <time>2022-05-08T10:36:03Z</time>
      </trkpt>
      <trkpt lat="47.34321" lon="-1.29838">
        <ele>58</ele>
        <time>2022-05-08T10:36:05Z</time>
      </trkpt>
      <trkpt lat="47.34315" lon="-1.29855">
        <ele>58</ele>
        <time>2022-05-08T10:36:07Z</time>
      </trkpt>
      <trkpt lat="47.34309" lon="-1.29872">
        <ele>58</ele>
        <time>2022-05-08T10:36:09Z</time>
      </trkpt>
      <trkpt lat="47.34303" lon="-1.29889">
        <ele>58</ele>
        <time>2022-05-08T10:36:11Z</time>
      </trkpt>
      <trkpt lat="47.34297" lon="-1.29906">
        <ele>58</ele>
        <time>2022-05-08T10:36:13Z</time>
      </trkpt>
      <trkpt lat="47.34292" lon="-1.29923">
        <ele>59</ele>
        <time>2022-05-08T10:36:15Z</time>
      </trkpt>
      <trkpt lat="47.34287" lon="-1.2994">
        <ele>59</ele>
        <time>2022-05-08T10:36:17Z</time>
      </trkpt>
      <trkpt lat="47.34281" lon="-1.29957">
        <ele>58</ele>
        <time>2022-05-08T10:36:19Z</time>
      </trkpt>
      <trkpt lat="47.34277" lon="-1.29974">
        <ele>59</ele>
        <time>2022-05-08T10:36:21Z</time>
      </trkpt>
      <trkpt lat="47.34273" lon="-1.29991">
        <ele>59</ele>
        <time>2022-05-08T10:36:23Z</time>
      </trkpt>
      <trkpt lat="47.3427" lon="-1.30008">
        <ele>59</ele>
        <time>2022-05-08T10:36:25Z</time>
      </trkpt>
      <trkpt lat="47.34265" lon="-1.30025">
        <ele>58</ele>
        <time>2022-05-08T10:36:27Z</time>
      </trkpt>
      <trkpt lat="47.34261" lon="-1.30044">
        <ele>58</ele>
        <time>2022-05-08T10:36:29Z</time>
      </trkpt>
      <trkpt lat="47.34258" lon="-1.30062">
        <ele>58</ele>
        <time>2022-05-08T10:36:31Z</time>
      </trkpt>
      <trkpt lat="47.34254" lon="-1.3008">
        <ele>57</ele>
        <time>2022-05-08T10:36:33Z</time>
      </trkpt>
      <trkpt lat="47.34249" lon="-1.30097">
        <ele>57</ele>
        <time>2022-05-08T10:36:35Z</time>
      </trkpt>
      <trkpt lat="47.34245" lon="-1.30114">
        <ele>57</ele>
        <time>2022-05-08T10:36:37Z</time>
      </trkpt>
      <trkpt lat="47.3424" lon="-1.30132">
        <ele>57</ele>
        <time>2022-05-08T10:36:39Z</time>
      </trkpt>
      <trkpt lat="47.34235" lon="-1.30148">
        <ele>57</ele>
        <time>2022-05-08T10:36:41Z</time>
      </trkpt>
      <trkpt lat="47.3423" lon="-1.30164">
        <ele>57</ele>
        <time>2022-05-08T10:36:43Z</time>
      </trkpt>
      <trkpt lat="47.34225" lon="-1.30181">
        <ele>57</ele>
        <time>2022-05-08T10:36:45Z</time>
      </trkpt>
      <trkpt lat="47.3422" lon="-1.30197">
        <ele>57</ele>
        <time>2022-05-08T10:36:47Z</time>
      </trkpt>
      <trkpt lat="47.34215" lon="-1.30211">
        <ele>57</ele>
        <time>2022-05-08T10:36:49Z</time>
      </trkpt>
      <trkpt lat="47.3421" lon="-1.30226">
        <ele>56</ele>
        <time>2022-05-08T10:36:51Z</time>
      </trkpt>
      <trkpt lat="47.34203" lon="-1.30242">
        <ele>56</ele>
        <time>2022-05-08T10:36:53Z</time>
      </trkpt>
      <trkpt lat="47.34197" lon="-1.30258">
        <ele>56</ele>
        <time>2022-05-08T10:36:55Z</time>
      </trkpt>
      <trkpt lat="47.34191" lon="-1.30273">
        <ele>56</ele>
        <time>2022-05-08T10:36:57Z</time>
      </trkpt>
      <trkpt lat="47.34185" lon="-1.30289">
        <ele>57</ele>
        <time>2022-05-08T10:36:59Z</time>
      </trkpt>
      <trkpt lat="47.34179" lon="-1.30303">
        <ele>58</ele>
        <time>2022-05-08T10:37:01Z</time>
      </trkpt>
      <trkpt lat="47.34173" lon="-1.30317">
        <ele>58</ele>
        <time>2022-05-08T10:37:03Z</time>
      </trkpt>
      <trkpt lat="47.34167" lon="-1.30331">
        <ele>59</ele>
        <time>2022-05-08T10:37:05Z</time>
      </trkpt>
      <trkpt lat="47.34161" lon="-1.30345">
        <ele>59</ele>
        <time>2022-05-08T10:37:07Z</time>
      </trkpt>
      <trkpt lat="47.34155" lon="-1.30359">
        <ele>60</ele>
        <time>2022-05-08T10:37:09Z</time>
      </trkpt>
      <trkpt lat="47.3415" lon="-1.30373">
        <ele>60</ele>
        <time>2022-05-08T10:37:11Z</time>
      </trkpt>
      <trkpt lat="47.34144" lon="-1.30387">
        <ele>60</ele>
        <time>2022-05-08T10:37:13Z</time>
      </trkpt>
      <trkpt lat="47.34139" lon="-1.30401">
        <ele>60</ele>
        <time>2022-05-08T10:37:15Z</time>
      </trkpt>
      <trkpt lat="47.34133" lon="-1.30416">
        <ele>60</ele>
        <time>2022-05-08T10:37:17Z</time>
      </trkpt>
      <trkpt lat="47.34127" lon="-1.3043">
        <ele>60</ele>
        <time>2022-05-08T10:37:19Z</time>
      </trkpt>
      <trkpt lat="47.34121" lon="-1.30444">
        <ele>60</ele>
        <time>2022-05-08T10:37:21Z</time>
      </trkpt>
      <trkpt lat="47.34115" lon="-1.30458">
        <ele>60</ele>
        <time>2022-05-08T10:37:23Z</time>
      </trkpt>
      <trkpt lat="47.34109" lon="-1.30472">
        <ele>60</ele>
        <time>2022-05-08T10:37:25Z</time>
      </trkpt>
      <trkpt lat="47.34103" lon="-1.30486">
        <ele>60</ele>
        <time>2022-05-08T10:37:27Z</time>
      </trkpt>
      <trkpt lat="47.34096" lon="-1.30499">
        <ele>60</ele>
        <time>2022-05-08T10:37:29Z</time>
      </trkpt>
      <trkpt lat="47.34089" lon="-1.30514">
        <ele>60</ele>
        <time>2022-05-08T10:37:31Z</time>
      </trkpt>
      <trkpt lat="47.34081" lon="-1.3053">
        <ele>59</ele>
        <time>2022-05-08T10:37:33Z</time>
      </trkpt>
      <trkpt lat="47.34074" lon="-1.30546">
        <ele>59</ele>
        <time>2022-05-08T10:37:35Z</time>
      </trkpt>
      <trkpt lat="47.34066" lon="-1.30561">
        <ele>59</ele>
        <time>2022-05-08T10:37:37Z</time>
      </trkpt>
      <trkpt lat="47.34058" lon="-1.30576">
        <ele>59</ele>
        <time>2022-05-08T10:37:39Z</time>
      </trkpt>
      <trkpt lat="47.3405" lon="-1.3059">
        <ele>59</ele>
        <time>2022-05-08T10:37:41Z</time>
      </trkpt>
      <trkpt lat="47.34042" lon="-1.30604">
        <ele>59</ele>
        <time>2022-05-08T10:37:43Z</time>
      </trkpt>
      <trkpt lat="47.34034" lon="-1.30617">
        <ele>59</ele>
        <time>2022-05-08T10:37:45Z</time>
      </trkpt>
      <trkpt lat="47.34026" lon="-1.30631">
        <ele>59</ele>
        <time>2022-05-08T10:37:47Z</time>
      </trkpt>
      <trkpt lat="47.34019" lon="-1.30643">
        <ele>60</ele>
        <time>2022-05-08T10:37:49Z</time>
      </trkpt>
      <trkpt lat="47.34011" lon="-1.30655">
        <ele>60</ele>
        <time>2022-05-08T10:37:51Z</time>
      </trkpt>
      <trkpt lat="47.34002" lon="-1.30668">
        <ele>61</ele>
        <time>2022-05-08T10:37:53Z</time>
      </trkpt>
      <trkpt lat="47.33993" lon="-1.30681">
        <ele>60</ele>
        <time>2022-05-08T10:37:55Z</time>
      </trkpt>
      <trkpt lat="47.33985" lon="-1.3069">
        <ele>60</ele>
        <time>2022-05-08T10:37:57Z</time>
      </trkpt>
      <trkpt lat="47.33975" lon="-1.30688">
        <ele>60</ele>
        <time>2022-05-08T10:37:59Z</time>
      </trkpt>
      <trkpt lat="47.3397" lon="-1.30677">
        <ele>60</ele>
        <time>2022-05-08T10:38:01Z</time>
      </trkpt>
      <trkpt lat="47.33958" lon="-1.30676">
        <ele>61</ele>
        <time>2022-05-08T10:38:04Z</time>
      </trkpt>
      <trkpt lat="47.3395" lon="-1.3069">
        <ele>61</ele>
        <time>2022-05-08T10:38:07Z</time>
      </trkpt>
      <trkpt lat="47.33942" lon="-1.30701">
        <ele>61</ele>
        <time>2022-05-08T10:38:09Z</time>
      </trkpt>
      <trkpt lat="47.33934" lon="-1.30713">
        <ele>61</ele>
        <time>2022-05-08T10:38:11Z</time>
      </trkpt>
      <trkpt lat="47.33927" lon="-1.30726">
        <ele>61</ele>
        <time>2022-05-08T10:38:13Z</time>
      </trkpt>
      <trkpt lat="47.33919" lon="-1.30739">
        <ele>61</ele>
        <time>2022-05-08T10:38:15Z</time>
      </trkpt>
      <trkpt lat="47.3391" lon="-1.30749">
        <ele>61</ele>
        <time>2022-05-08T10:38:17Z</time>
      </trkpt>
      <trkpt lat="47.33901" lon="-1.3076">
        <ele>61</ele>
        <time>2022-05-08T10:38:19Z</time>
      </trkpt>
      <trkpt lat="47.33891" lon="-1.30771">
        <ele>62</ele>
        <time>2022-05-08T10:38:21Z</time>
      </trkpt>
      <trkpt lat="47.33882" lon="-1.30781">
        <ele>61</ele>
        <time>2022-05-08T10:38:23Z</time>
      </trkpt>
      <trkpt lat="47.33873" lon="-1.3079">
        <ele>62</ele>
        <time>2022-05-08T10:38:25Z</time>
      </trkpt>
      <trkpt lat="47.33863" lon="-1.308">
        <ele>61</ele>
        <time>2022-05-08T10:38:27Z</time>
      </trkpt>
      <trkpt lat="47.33853" lon="-1.3081">
        <ele>61</ele>
        <time>2022-05-08T10:38:29Z</time>
      </trkpt>
      <trkpt lat="47.33842" lon="-1.30819">
        <ele>61</ele>
        <time>2022-05-08T10:38:31Z</time>
      </trkpt>
      <trkpt lat="47.33832" lon="-1.30828">
        <ele>62</ele>
        <time>2022-05-08T10:38:33Z</time>
      </trkpt>
      <trkpt lat="47.33823" lon="-1.30837">
        <ele>62</ele>
        <time>2022-05-08T10:38:35Z</time>
      </trkpt>
      <trkpt lat="47.33813" lon="-1.30847">
        <ele>62</ele>
        <time>2022-05-08T10:38:37Z</time>
      </trkpt>
      <trkpt lat="47.33803" lon="-1.30857">
        <ele>62</ele>
        <time>2022-05-08T10:38:39Z</time>
      </trkpt>
      <trkpt lat="47.33792" lon="-1.30867">
        <ele>61</ele>
        <time>2022-05-08T10:38:41Z</time>
      </trkpt>
      <trkpt lat="47.33782" lon="-1.30877">
        <ele>61</ele>
        <time>2022-05-08T10:38:43Z</time>
      </trkpt>
      <trkpt lat="47.33773" lon="-1.30888">
        <ele>61</ele>
        <time>2022-05-08T10:38:45Z</time>
      </trkpt>
      <trkpt lat="47.33763" lon="-1.30898">
        <ele>61</ele>
        <time>2022-05-08T10:38:47Z</time>
      </trkpt>
      <trkpt lat="47.33754" lon="-1.30909">
        <ele>61</ele>
        <time>2022-05-08T10:38:49Z</time>
      </trkpt>
      <trkpt lat="47.33745" lon="-1.3092">
        <ele>61</ele>
        <time>2022-05-08T10:38:51Z</time>
      </trkpt>
      <trkpt lat="47.33737" lon="-1.30931">
        <ele>61</ele>
        <time>2022-05-08T10:38:53Z</time>
      </trkpt>
      <trkpt lat="47.33729" lon="-1.3094">
        <ele>61</ele>
        <time>2022-05-08T10:38:55Z</time>
      </trkpt>
      <trkpt lat="47.33721" lon="-1.30948">
        <ele>61</ele>
        <time>2022-05-08T10:38:57Z</time>
      </trkpt>
      <trkpt lat="47.33712" lon="-1.3096">
        <ele>61</ele>
        <time>2022-05-08T10:38:59Z</time>
      </trkpt>
      <trkpt lat="47.33703" lon="-1.3097">
        <ele>61</ele>
        <time>2022-05-08T10:39:01Z</time>
      </trkpt>
      <trkpt lat="47.33695" lon="-1.3098">
        <ele>62</ele>
        <time>2022-05-08T10:39:03Z</time>
      </trkpt>
      <trkpt lat="47.33687" lon="-1.30987">
        <ele>62</ele>
        <time>2022-05-08T10:39:05Z</time>
      </trkpt>
      <trkpt lat="47.33678" lon="-1.30999">
        <ele>61</ele>
        <time>2022-05-08T10:39:08Z</time>
      </trkpt>
      <trkpt lat="47.3367" lon="-1.3101">
        <ele>61</ele>
        <time>2022-05-08T10:39:10Z</time>
      </trkpt>
      <trkpt lat="47.33661" lon="-1.31024">
        <ele>61</ele>
        <time>2022-05-08T10:39:12Z</time>
      </trkpt>
      <trkpt lat="47.33652" lon="-1.31037">
        <ele>60</ele>
        <time>2022-05-08T10:39:14Z</time>
      </trkpt>
      <trkpt lat="47.33643" lon="-1.3105">
        <ele>60</ele>
        <time>2022-05-08T10:39:16Z</time>
      </trkpt>
      <trkpt lat="47.33634" lon="-1.31062">
        <ele>59</ele>
        <time>2022-05-08T10:39:18Z</time>
      </trkpt>
      <trkpt lat="47.33626" lon="-1.31074">
        <ele>59</ele>
        <time>2022-05-08T10:39:20Z</time>
      </trkpt>
      <trkpt lat="47.33618" lon="-1.31087">
        <ele>59</ele>
        <time>2022-05-08T10:39:22Z</time>
      </trkpt>
      <trkpt lat="47.3361" lon="-1.31099">
        <ele>59</ele>
        <time>2022-05-08T10:39:24Z</time>
      </trkpt>
      <trkpt lat="47.33603" lon="-1.31114">
        <ele>59</ele>
        <time>2022-05-08T10:39:26Z</time>
      </trkpt>
      <trkpt lat="47.33596" lon="-1.31128">
        <ele>59</ele>
        <time>2022-05-08T10:39:28Z</time>
      </trkpt>
      <trkpt lat="47.33588" lon="-1.31142">
        <ele>59</ele>
        <time>2022-05-08T10:39:30Z</time>
      </trkpt>
      <trkpt lat="47.3358" lon="-1.31155">
        <ele>59</ele>
        <time>2022-05-08T10:39:32Z</time>
      </trkpt>
      <trkpt lat="47.33572" lon="-1.31169">
        <ele>58</ele>
        <time>2022-05-08T10:39:34Z</time>
      </trkpt>
      <trkpt lat="47.33565" lon="-1.31182">
        <ele>58</ele>
        <time>2022-05-08T10:39:36Z</time>
      </trkpt>
      <trkpt lat="47.33558" lon="-1.31195">
        <ele>59</ele>
        <time>2022-05-08T10:39:38Z</time>
      </trkpt>
      <trkpt lat="47.33552" lon="-1.3121">
        <ele>59</ele>
        <time>2022-05-08T10:39:40Z</time>
      </trkpt>
      <trkpt lat="47.33544" lon="-1.31223">
        <ele>59</ele>
        <time>2022-05-08T10:39:42Z</time>
      </trkpt>
      <trkpt lat="47.33536" lon="-1.31237">
        <ele>59</ele>
        <time>2022-05-08T10:39:44Z</time>
      </trkpt>
      <trkpt lat="47.33528" lon="-1.3125">
        <ele>58</ele>
        <time>2022-05-08T10:39:46Z</time>
      </trkpt>
      <trkpt lat="47.33521" lon="-1.31264">
        <ele>59</ele>
        <time>2022-05-08T10:39:48Z</time>
      </trkpt>
      <trkpt lat="47.33514" lon="-1.31277">
        <ele>59</ele>
        <time>2022-05-08T10:39:50Z</time>
      </trkpt>
      <trkpt lat="47.33508" lon="-1.3129">
        <ele>59</ele>
        <time>2022-05-08T10:39:52Z</time>
      </trkpt>
      <trkpt lat="47.33502" lon="-1.31303">
        <ele>59</ele>
        <time>2022-05-08T10:39:54Z</time>
      </trkpt>
      <trkpt lat="47.33495" lon="-1.31317">
        <ele>59</ele>
        <time>2022-05-08T10:39:56Z</time>
      </trkpt>
      <trkpt lat="47.33488" lon="-1.31331">
        <ele>58</ele>
        <time>2022-05-08T10:39:58Z</time>
      </trkpt>
      <trkpt lat="47.3348" lon="-1.31345">
        <ele>58</ele>
        <time>2022-05-08T10:40:00Z</time>
      </trkpt>
      <trkpt lat="47.33472" lon="-1.31359">
        <ele>57</ele>
        <time>2022-05-08T10:40:02Z</time>
      </trkpt>
      <trkpt lat="47.33464" lon="-1.31373">
        <ele>57</ele>
        <time>2022-05-08T10:40:04Z</time>
      </trkpt>
      <trkpt lat="47.33458" lon="-1.31387">
        <ele>58</ele>
        <time>2022-05-08T10:40:06Z</time>
      </trkpt>
      <trkpt lat="47.33451" lon="-1.31401">
        <ele>58</ele>
        <time>2022-05-08T10:40:08Z</time>
      </trkpt>
      <trkpt lat="47.33443" lon="-1.31415">
        <ele>57</ele>
        <time>2022-05-08T10:40:10Z</time>
      </trkpt>
      <trkpt lat="47.33436" lon="-1.3143">
        <ele>57</ele>
        <time>2022-05-08T10:40:12Z</time>
      </trkpt>
      <trkpt lat="47.3343" lon="-1.31445">
        <ele>57</ele>
        <time>2022-05-08T10:40:14Z</time>
      </trkpt>
      <trkpt lat="47.33423" lon="-1.31459">
        <ele>58</ele>
        <time>2022-05-08T10:40:16Z</time>
      </trkpt>
      <trkpt lat="47.33417" lon="-1.31474">
        <ele>59</ele>
        <time>2022-05-08T10:40:18Z</time>
      </trkpt>
      <trkpt lat="47.33411" lon="-1.31488">
        <ele>59</ele>
        <time>2022-05-08T10:40:20Z</time>
      </trkpt>
      <trkpt lat="47.33403" lon="-1.31503">
        <ele>59</ele>
        <time>2022-05-08T10:40:22Z</time>
      </trkpt>
      <trkpt lat="47.33396" lon="-1.31516">
        <ele>60</ele>
        <time>2022-05-08T10:40:24Z</time>
      </trkpt>
      <trkpt lat="47.33389" lon="-1.31529">
        <ele>60</ele>
        <time>2022-05-08T10:40:26Z</time>
      </trkpt>
      <trkpt lat="47.33382" lon="-1.31544">
        <ele>60</ele>
        <time>2022-05-08T10:40:28Z</time>
      </trkpt>
      <trkpt lat="47.33376" lon="-1.31557">
        <ele>60</ele>
        <time>2022-05-08T10:40:30Z</time>
      </trkpt>
      <trkpt lat="47.33368" lon="-1.31572">
        <ele>60</ele>
        <time>2022-05-08T10:40:32Z</time>
      </trkpt>
      <trkpt lat="47.3336" lon="-1.31586">
        <ele>60</ele>
        <time>2022-05-08T10:40:34Z</time>
      </trkpt>
      <trkpt lat="47.33352" lon="-1.316">
        <ele>61</ele>
        <time>2022-05-08T10:40:36Z</time>
      </trkpt>
      <trkpt lat="47.33344" lon="-1.31614">
        <ele>61</ele>
        <time>2022-05-08T10:40:38Z</time>
      </trkpt>
      <trkpt lat="47.33338" lon="-1.31628">
        <ele>61</ele>
        <time>2022-05-08T10:40:40Z</time>
      </trkpt>
      <trkpt lat="47.33331" lon="-1.31643">
        <ele>61</ele>
        <time>2022-05-08T10:40:42Z</time>
      </trkpt>
      <trkpt lat="47.33324" lon="-1.31656">
        <ele>61</ele>
        <time>2022-05-08T10:40:44Z</time>
      </trkpt>
      <trkpt lat="47.33316" lon="-1.31669">
        <ele>61</ele>
        <time>2022-05-08T10:40:46Z</time>
      </trkpt>
      <trkpt lat="47.33309" lon="-1.31683">
        <ele>61</ele>
        <time>2022-05-08T10:40:48Z</time>
      </trkpt>
      <trkpt lat="47.33302" lon="-1.31697">
        <ele>61</ele>
        <time>2022-05-08T10:40:50Z</time>
      </trkpt>
      <trkpt lat="47.33295" lon="-1.31709">
        <ele>61</ele>
        <time>2022-05-08T10:40:52Z</time>
      </trkpt>
      <trkpt lat="47.33288" lon="-1.31722">
        <ele>61</ele>
        <time>2022-05-08T10:40:54Z</time>
      </trkpt>
      <trkpt lat="47.33281" lon="-1.31734">
        <ele>61</ele>
        <time>2022-05-08T10:40:56Z</time>
      </trkpt>
      <trkpt lat="47.33274" lon="-1.31747">
        <ele>61</ele>
        <time>2022-05-08T10:40:58Z</time>
      </trkpt>
      <trkpt lat="47.33269" lon="-1.31758">
        <ele>60</ele>
        <time>2022-05-08T10:41:00Z</time>
      </trkpt>
      <trkpt lat="47.33263" lon="-1.31769">
        <ele>61</ele>
        <time>2022-05-08T10:41:02Z</time>
      </trkpt>
      <trkpt lat="47.33257" lon="-1.31782">
        <ele>61</ele>
        <time>2022-05-08T10:41:04Z</time>
      </trkpt>
      <trkpt lat="47.33249" lon="-1.31796">
        <ele>61</ele>
        <time>2022-05-08T10:41:06Z</time>
      </trkpt>
      <trkpt lat="47.33241" lon="-1.3181">
        <ele>61</ele>
        <time>2022-05-08T10:41:08Z</time>
      </trkpt>
      <trkpt lat="47.33234" lon="-1.31826">
        <ele>61</ele>
        <time>2022-05-08T10:41:10Z</time>
      </trkpt>
      <trkpt lat="47.33226" lon="-1.3184">
        <ele>61</ele>
        <time>2022-05-08T10:41:12Z</time>
      </trkpt>
      <trkpt lat="47.33219" lon="-1.31856">
        <ele>61</ele>
        <time>2022-05-08T10:41:14Z</time>
      </trkpt>
      <trkpt lat="47.33211" lon="-1.31871">
        <ele>61</ele>
        <time>2022-05-08T10:41:16Z</time>
      </trkpt>
      <trkpt lat="47.33204" lon="-1.31886">
        <ele>61</ele>
        <time>2022-05-08T10:41:18Z</time>
      </trkpt>
      <trkpt lat="47.33196" lon="-1.31901">
        <ele>60</ele>
        <time>2022-05-08T10:41:20Z</time>
      </trkpt>
      <trkpt lat="47.33188" lon="-1.31917">
        <ele>60</ele>
        <time>2022-05-08T10:41:22Z</time>
      </trkpt>
      <trkpt lat="47.3318" lon="-1.31931">
        <ele>60</ele>
        <time>2022-05-08T10:41:24Z</time>
      </trkpt>
      <trkpt lat="47.33172" lon="-1.31946">
        <ele>60</ele>
        <time>2022-05-08T10:41:26Z</time>
      </trkpt>
      <trkpt lat="47.33164" lon="-1.31959">
        <ele>60</ele>
        <time>2022-05-08T10:41:28Z</time>
      </trkpt>
      <trkpt lat="47.33158" lon="-1.31973">
        <ele>61</ele>
        <time>2022-05-08T10:41:30Z</time>
      </trkpt>
      <trkpt lat="47.33148" lon="-1.31981">
        <ele>60</ele>
        <time>2022-05-08T10:41:32Z</time>
      </trkpt>
      <trkpt lat="47.33137" lon="-1.31989">
        <ele>60</ele>
        <time>2022-05-08T10:41:34Z</time>
      </trkpt>
      <trkpt lat="47.33127" lon="-1.31998">
        <ele>60</ele>
        <time>2022-05-08T10:41:36Z</time>
      </trkpt>
      <trkpt lat="47.33119" lon="-1.32008">
        <ele>60</ele>
        <time>2022-05-08T10:41:38Z</time>
      </trkpt>
      <trkpt lat="47.33112" lon="-1.32021">
        <ele>60</ele>
        <time>2022-05-08T10:41:40Z</time>
      </trkpt>
      <trkpt lat="47.33105" lon="-1.32035">
        <ele>59</ele>
        <time>2022-05-08T10:41:42Z</time>
      </trkpt>
      <trkpt lat="47.33099" lon="-1.32046">
        <ele>58</ele>
        <time>2022-05-08T10:41:44Z</time>
      </trkpt>
      <trkpt lat="47.33099" lon="-1.32065">
        <ele>59</ele>
        <time>2022-05-08T10:41:47Z</time>
      </trkpt>
      <trkpt lat="47.33097" lon="-1.32082">
        <ele>58</ele>
        <time>2022-05-08T10:41:49Z</time>
      </trkpt>
      <trkpt lat="47.33091" lon="-1.32099">
        <ele>58</ele>
        <time>2022-05-08T10:41:51Z</time>
      </trkpt>
      <trkpt lat="47.33084" lon="-1.32114">
        <ele>58</ele>
        <time>2022-05-08T10:41:53Z</time>
      </trkpt>
      <trkpt lat="47.33075" lon="-1.32127">
        <ele>58</ele>
        <time>2022-05-08T10:41:55Z</time>
      </trkpt>
      <trkpt lat="47.33067" lon="-1.32141">
        <ele>58</ele>
        <time>2022-05-08T10:41:57Z</time>
      </trkpt>
      <trkpt lat="47.3306" lon="-1.32155">
        <ele>58</ele>
        <time>2022-05-08T10:41:59Z</time>
      </trkpt>
      <trkpt lat="47.33053" lon="-1.32169">
        <ele>58</ele>
        <time>2022-05-08T10:42:01Z</time>
      </trkpt>
      <trkpt lat="47.33048" lon="-1.32184">
        <ele>59</ele>
        <time>2022-05-08T10:42:03Z</time>
      </trkpt>
      <trkpt lat="47.33041" lon="-1.32198">
        <ele>59</ele>
        <time>2022-05-08T10:42:05Z</time>
      </trkpt>
      <trkpt lat="47.33033" lon="-1.32211">
        <ele>58</ele>
        <time>2022-05-08T10:42:07Z</time>
      </trkpt>
      <trkpt lat="47.33026" lon="-1.32225">
        <ele>58</ele>
        <time>2022-05-08T10:42:09Z</time>
      </trkpt>
      <trkpt lat="47.33019" lon="-1.32238">
        <ele>58</ele>
        <time>2022-05-08T10:42:11Z</time>
      </trkpt>
      <trkpt lat="47.33011" lon="-1.32252">
        <ele>58</ele>
        <time>2022-05-08T10:42:13Z</time>
      </trkpt>
      <trkpt lat="47.33004" lon="-1.32266">
        <ele>58</ele>
        <time>2022-05-08T10:42:15Z</time>
      </trkpt>
      <trkpt lat="47.32997" lon="-1.3228">
        <ele>57</ele>
        <time>2022-05-08T10:42:17Z</time>
      </trkpt>
      <trkpt lat="47.3299" lon="-1.32294">
        <ele>58</ele>
        <time>2022-05-08T10:42:19Z</time>
      </trkpt>
      <trkpt lat="47.32983" lon="-1.32308">
        <ele>58</ele>
        <time>2022-05-08T10:42:21Z</time>
      </trkpt>
      <trkpt lat="47.32975" lon="-1.32322">
        <ele>58</ele>
        <time>2022-05-08T10:42:23Z</time>
      </trkpt>
      <trkpt lat="47.32968" lon="-1.32337">
        <ele>58</ele>
        <time>2022-05-08T10:42:25Z</time>
      </trkpt>
      <trkpt lat="47.32961" lon="-1.32351">
        <ele>58</ele>
        <time>2022-05-08T10:42:27Z</time>
      </trkpt>
      <trkpt lat="47.32953" lon="-1.32365">
        <ele>57</ele>
        <time>2022-05-08T10:42:29Z</time>
      </trkpt>
      <trkpt lat="47.32946" lon="-1.32379">
        <ele>57</ele>
        <time>2022-05-08T10:42:31Z</time>
      </trkpt>
      <trkpt lat="47.32939" lon="-1.32393">
        <ele>58</ele>
        <time>2022-05-08T10:42:33Z</time>
      </trkpt>
      <trkpt lat="47.32932" lon="-1.32407">
        <ele>58</ele>
        <time>2022-05-08T10:42:35Z</time>
      </trkpt>
      <trkpt lat="47.32924" lon="-1.32421">
        <ele>58</ele>
        <time>2022-05-08T10:42:37Z</time>
      </trkpt>
      <trkpt lat="47.32917" lon="-1.32435">
        <ele>58</ele>
        <time>2022-05-08T10:42:39Z</time>
      </trkpt>
      <trkpt lat="47.32909" lon="-1.32449">
        <ele>58</ele>
        <time>2022-05-08T10:42:41Z</time>
      </trkpt>
      <trkpt lat="47.32902" lon="-1.32464">
        <ele>58</ele>
        <time>2022-05-08T10:42:43Z</time>
      </trkpt>
      <trkpt lat="47.32895" lon="-1.32478">
        <ele>58</ele>
        <time>2022-05-08T10:42:45Z</time>
      </trkpt>
      <trkpt lat="47.32887" lon="-1.32492">
        <ele>58</ele>
        <time>2022-05-08T10:42:47Z</time>
      </trkpt>
      <trkpt lat="47.3288" lon="-1.32506">
        <ele>58</ele>
        <time>2022-05-08T10:42:49Z</time>
      </trkpt>
      <trkpt lat="47.32873" lon="-1.3252">
        <ele>58</ele>
        <time>2022-05-08T10:42:51Z</time>
      </trkpt>
      <trkpt lat="47.32865" lon="-1.32535">
        <ele>58</ele>
        <time>2022-05-08T10:42:53Z</time>
      </trkpt>
      <trkpt lat="47.32858" lon="-1.32549">
        <ele>58</ele>
        <time>2022-05-08T10:42:55Z</time>
      </trkpt>
      <trkpt lat="47.32851" lon="-1.32562">
        <ele>58</ele>
        <time>2022-05-08T10:42:57Z</time>
      </trkpt>
      <trkpt lat="47.32844" lon="-1.32576">
        <ele>59</ele>
        <time>2022-05-08T10:42:59Z</time>
      </trkpt>
      <trkpt lat="47.32837" lon="-1.32589">
        <ele>59</ele>
        <time>2022-05-08T10:43:01Z</time>
      </trkpt>
      <trkpt lat="47.32831" lon="-1.32602">
        <ele>59</ele>
        <time>2022-05-08T10:43:03Z</time>
      </trkpt>
      <trkpt lat="47.32824" lon="-1.32614">
        <ele>60</ele>
        <time>2022-05-08T10:43:05Z</time>
      </trkpt>
      <trkpt lat="47.32815" lon="-1.32627">
        <ele>60</ele>
        <time>2022-05-08T10:43:07Z</time>
      </trkpt>
      <trkpt lat="47.32808" lon="-1.3264">
        <ele>60</ele>
        <time>2022-05-08T10:43:09Z</time>
      </trkpt>
      <trkpt lat="47.32799" lon="-1.32652">
        <ele>61</ele>
        <time>2022-05-08T10:43:11Z</time>
      </trkpt>
      <trkpt lat="47.32791" lon="-1.32665">
        <ele>61</ele>
        <time>2022-05-08T10:43:13Z</time>
      </trkpt>
      <trkpt lat="47.32785" lon="-1.32679">
        <ele>60</ele>
        <time>2022-05-08T10:43:15Z</time>
      </trkpt>
      <trkpt lat="47.3278" lon="-1.32695">
        <ele>60</ele>
        <time>2022-05-08T10:43:17Z</time>
      </trkpt>
      <trkpt lat="47.32774" lon="-1.32711">
        <ele>60</ele>
        <time>2022-05-08T10:43:19Z</time>
      </trkpt>
      <trkpt lat="47.32767" lon="-1.32726">
        <ele>59</ele>
        <time>2022-05-08T10:43:21Z</time>
      </trkpt>
      <trkpt lat="47.32761" lon="-1.32741">
        <ele>59</ele>
        <time>2022-05-08T10:43:23Z</time>
      </trkpt>
      <trkpt lat="47.32753" lon="-1.32755">
        <ele>59</ele>
        <time>2022-05-08T10:43:25Z</time>
      </trkpt>
      <trkpt lat="47.32745" lon="-1.32768">
        <ele>59</ele>
        <time>2022-05-08T10:43:27Z</time>
      </trkpt>
      <trkpt lat="47.32737" lon="-1.32782">
        <ele>59</ele>
        <time>2022-05-08T10:43:29Z</time>
      </trkpt>
      <trkpt lat="47.32729" lon="-1.32795">
        <ele>59</ele>
        <time>2022-05-08T10:43:31Z</time>
      </trkpt>
      <trkpt lat="47.32721" lon="-1.32808">
        <ele>59</ele>
        <time>2022-05-08T10:43:33Z</time>
      </trkpt>
      <trkpt lat="47.32713" lon="-1.32822">
        <ele>59</ele>
        <time>2022-05-08T10:43:35Z</time>
      </trkpt>
      <trkpt lat="47.32705" lon="-1.32834">
        <ele>59</ele>
        <time>2022-05-08T10:43:37Z</time>
      </trkpt>
      <trkpt lat="47.32696" lon="-1.32847">
        <ele>59</ele>
        <time>2022-05-08T10:43:39Z</time>
      </trkpt>
      <trkpt lat="47.32687" lon="-1.32859">
        <ele>59</ele>
        <time>2022-05-08T10:43:41Z</time>
      </trkpt>
      <trkpt lat="47.32679" lon="-1.32871">
        <ele>59</ele>
        <time>2022-05-08T10:43:43Z</time>
      </trkpt>
      <trkpt lat="47.32671" lon="-1.32883">
        <ele>59</ele>
        <time>2022-05-08T10:43:45Z</time>
      </trkpt>
      <trkpt lat="47.32662" lon="-1.32896">
        <ele>58</ele>
        <time>2022-05-08T10:43:47Z</time>
      </trkpt>
      <trkpt lat="47.3265" lon="-1.32913">
        <ele>59</ele>
        <time>2022-05-08T10:43:50Z</time>
      </trkpt>
      <trkpt lat="47.32637" lon="-1.32926">
        <ele>58</ele>
        <time>2022-05-08T10:43:53Z</time>
      </trkpt>
      <trkpt lat="47.32629" lon="-1.32932">
        <ele>58</ele>
        <time>2022-05-08T10:43:55Z</time>
      </trkpt>
      <trkpt lat="47.32618" lon="-1.32943">
        <ele>58</ele>
        <time>2022-05-08T10:43:58Z</time>
      </trkpt>
      <trkpt lat="47.32609" lon="-1.32958">
        <ele>58</ele>
        <time>2022-05-08T10:44:01Z</time>
      </trkpt>
      <trkpt lat="47.32601" lon="-1.32969">
        <ele>58</ele>
        <time>2022-05-08T10:44:03Z</time>
      </trkpt>
      <trkpt lat="47.32594" lon="-1.32981">
        <ele>59</ele>
        <time>2022-05-08T10:44:05Z</time>
      </trkpt>
      <trkpt lat="47.32585" lon="-1.3299">
        <ele>60</ele>
        <time>2022-05-08T10:44:07Z</time>
      </trkpt>
      <trkpt lat="47.32577" lon="-1.33001">
        <ele>60</ele>
        <time>2022-05-08T10:44:09Z</time>
      </trkpt>
      <trkpt lat="47.32568" lon="-1.33011">
        <ele>61</ele>
        <time>2022-05-08T10:44:11Z</time>
      </trkpt>
      <trkpt lat="47.32559" lon="-1.3302">
        <ele>60</ele>
        <time>2022-05-08T10:44:13Z</time>
      </trkpt>
      <trkpt lat="47.32549" lon="-1.33029">
        <ele>60</ele>
        <time>2022-05-08T10:44:15Z</time>
      </trkpt>
      <trkpt lat="47.32538" lon="-1.33038">
        <ele>60</ele>
        <time>2022-05-08T10:44:17Z</time>
      </trkpt>
      <trkpt lat="47.32527" lon="-1.33048">
        <ele>60</ele>
        <time>2022-05-08T10:44:19Z</time>
      </trkpt>
      <trkpt lat="47.32516" lon="-1.3306">
        <ele>60</ele>
        <time>2022-05-08T10:44:21Z</time>
      </trkpt>
      <trkpt lat="47.32506" lon="-1.33071">
        <ele>61</ele>
        <time>2022-05-08T10:44:23Z</time>
      </trkpt>
      <trkpt lat="47.32495" lon="-1.33081">
        <ele>61</ele>
        <time>2022-05-08T10:44:25Z</time>
      </trkpt>
      <trkpt lat="47.32485" lon="-1.33093">
        <ele>61</ele>
        <time>2022-05-08T10:44:27Z</time>
      </trkpt>
      <trkpt lat="47.32474" lon="-1.33105">
        <ele>61</ele>
        <time>2022-05-08T10:44:29Z</time>
      </trkpt>
      <trkpt lat="47.32465" lon="-1.33117">
        <ele>62</ele>
        <time>2022-05-08T10:44:31Z</time>
      </trkpt>
      <trkpt lat="47.32456" lon="-1.33128">
        <ele>62</ele>
        <time>2022-05-08T10:44:33Z</time>
      </trkpt>
      <trkpt lat="47.32448" lon="-1.33138">
        <ele>62</ele>
        <time>2022-05-08T10:44:35Z</time>
      </trkpt>
      <trkpt lat="47.32439" lon="-1.33141">
        <ele>62</ele>
        <time>2022-05-08T10:44:37Z</time>
      </trkpt>
      <trkpt lat="47.32427" lon="-1.33141">
        <ele>62</ele>
        <time>2022-05-08T10:44:40Z</time>
      </trkpt>
      <trkpt lat="47.32418" lon="-1.33146">
        <ele>62</ele>
        <time>2022-05-08T10:44:42Z</time>
      </trkpt>
      <trkpt lat="47.3241" lon="-1.33156">
        <ele>62</ele>
        <time>2022-05-08T10:44:44Z</time>
      </trkpt>
      <trkpt lat="47.32401" lon="-1.33168">
        <ele>62</ele>
        <time>2022-05-08T10:44:46Z</time>
      </trkpt>
      <trkpt lat="47.32392" lon="-1.33179">
        <ele>62</ele>
        <time>2022-05-08T10:44:48Z</time>
      </trkpt>
      <trkpt lat="47.32384" lon="-1.33192">
        <ele>61</ele>
        <time>2022-05-08T10:44:50Z</time>
      </trkpt>
      <trkpt lat="47.32377" lon="-1.33206">
        <ele>61</ele>
        <time>2022-05-08T10:44:52Z</time>
      </trkpt>
      <trkpt lat="47.3237" lon="-1.3322">
        <ele>60</ele>
        <time>2022-05-08T10:44:54Z</time>
      </trkpt>
      <trkpt lat="47.32363" lon="-1.33234">
        <ele>60</ele>
        <time>2022-05-08T10:44:56Z</time>
      </trkpt>
      <trkpt lat="47.32357" lon="-1.33249">
        <ele>59</ele>
        <time>2022-05-08T10:44:58Z</time>
      </trkpt>
      <trkpt lat="47.3235" lon="-1.33265">
        <ele>58</ele>
        <time>2022-05-08T10:45:00Z</time>
      </trkpt>
      <trkpt lat="47.32344" lon="-1.3328">
        <ele>58</ele>
        <time>2022-05-08T10:45:02Z</time>
      </trkpt>
      <trkpt lat="47.32337" lon="-1.33296">
        <ele>58</ele>
        <time>2022-05-08T10:45:04Z</time>
      </trkpt>
      <trkpt lat="47.3233" lon="-1.33311">
        <ele>58</ele>
        <time>2022-05-08T10:45:06Z</time>
      </trkpt>
      <trkpt lat="47.32324" lon="-1.33327">
        <ele>58</ele>
        <time>2022-05-08T10:45:08Z</time>
      </trkpt>
      <trkpt lat="47.32317" lon="-1.33342">
        <ele>58</ele>
        <time>2022-05-08T10:45:10Z</time>
      </trkpt>
      <trkpt lat="47.3231" lon="-1.33357">
        <ele>58</ele>
        <time>2022-05-08T10:45:12Z</time>
      </trkpt>
      <trkpt lat="47.32304" lon="-1.33373">
        <ele>59</ele>
        <time>2022-05-08T10:45:14Z</time>
      </trkpt>
      <trkpt lat="47.32297" lon="-1.33389">
        <ele>59</ele>
        <time>2022-05-08T10:45:16Z</time>
      </trkpt>
      <trkpt lat="47.3229" lon="-1.33405">
        <ele>60</ele>
        <time>2022-05-08T10:45:18Z</time>
      </trkpt>
      <trkpt lat="47.32282" lon="-1.33421">
        <ele>60</ele>
        <time>2022-05-08T10:45:20Z</time>
      </trkpt>
      <trkpt lat="47.32275" lon="-1.33436">
        <ele>60</ele>
        <time>2022-05-08T10:45:22Z</time>
      </trkpt>
      <trkpt lat="47.32267" lon="-1.33452">
        <ele>60</ele>
        <time>2022-05-08T10:45:24Z</time>
      </trkpt>
      <trkpt lat="47.3226" lon="-1.33467">
        <ele>60</ele>
        <time>2022-05-08T10:45:26Z</time>
      </trkpt>
      <trkpt lat="47.32252" lon="-1.33483">
        <ele>60</ele>
        <time>2022-05-08T10:45:28Z</time>
      </trkpt>
      <trkpt lat="47.32246" lon="-1.33499">
        <ele>60</ele>
        <time>2022-05-08T10:45:30Z</time>
      </trkpt>
      <trkpt lat="47.32238" lon="-1.33514">
        <ele>60</ele>
        <time>2022-05-08T10:45:32Z</time>
      </trkpt>
      <trkpt lat="47.32231" lon="-1.33528">
        <ele>60</ele>
        <time>2022-05-08T10:45:34Z</time>
      </trkpt>
      <trkpt lat="47.32224" lon="-1.33541">
        <ele>60</ele>
        <time>2022-05-08T10:45:36Z</time>
      </trkpt>
      <trkpt lat="47.32216" lon="-1.33555">
        <ele>60</ele>
        <time>2022-05-08T10:45:38Z</time>
      </trkpt>
      <trkpt lat="47.32211" lon="-1.33571">
        <ele>60</ele>
        <time>2022-05-08T10:45:40Z</time>
      </trkpt>
      <trkpt lat="47.32204" lon="-1.33585">
        <ele>59</ele>
        <time>2022-05-08T10:45:42Z</time>
      </trkpt>
      <trkpt lat="47.32198" lon="-1.336">
        <ele>59</ele>
        <time>2022-05-08T10:45:44Z</time>
      </trkpt>
      <trkpt lat="47.32192" lon="-1.33614">
        <ele>59</ele>
        <time>2022-05-08T10:45:46Z</time>
      </trkpt>
      <trkpt lat="47.32188" lon="-1.33628">
        <ele>59</ele>
        <time>2022-05-08T10:45:48Z</time>
      </trkpt>
      <trkpt lat="47.32179" lon="-1.33642">
        <ele>59</ele>
        <time>2022-05-08T10:45:51Z</time>
      </trkpt>
      <trkpt lat="47.32175" lon="-1.33656">
        <ele>58</ele>
        <time>2022-05-08T10:45:53Z</time>
      </trkpt>
      <trkpt lat="47.3217" lon="-1.3367">
        <ele>59</ele>
        <time>2022-05-08T10:45:55Z</time>
      </trkpt>
      <trkpt lat="47.32164" lon="-1.33686">
        <ele>59</ele>
        <time>2022-05-08T10:45:57Z</time>
      </trkpt>
      <trkpt lat="47.32159" lon="-1.33701">
        <ele>60</ele>
        <time>2022-05-08T10:45:59Z</time>
      </trkpt>
      <trkpt lat="47.32154" lon="-1.33717">
        <ele>60</ele>
        <time>2022-05-08T10:46:01Z</time>
      </trkpt>
      <trkpt lat="47.32147" lon="-1.33734">
        <ele>60</ele>
        <time>2022-05-08T10:46:03Z</time>
      </trkpt>
      <trkpt lat="47.3214" lon="-1.33749">
        <ele>61</ele>
        <time>2022-05-08T10:46:05Z</time>
      </trkpt>
      <trkpt lat="47.32134" lon="-1.33765">
        <ele>62</ele>
        <time>2022-05-08T10:46:07Z</time>
      </trkpt>
      <trkpt lat="47.32127" lon="-1.3378">
        <ele>62</ele>
        <time>2022-05-08T10:46:09Z</time>
      </trkpt>
      <trkpt lat="47.32121" lon="-1.33795">
        <ele>62</ele>
        <time>2022-05-08T10:46:11Z</time>
      </trkpt>
      <trkpt lat="47.32115" lon="-1.3381">
        <ele>63</ele>
        <time>2022-05-08T10:46:13Z</time>
      </trkpt>
      <trkpt lat="47.32108" lon="-1.33826">
        <ele>62</ele>
        <time>2022-05-08T10:46:15Z</time>
      </trkpt>
      <trkpt lat="47.321" lon="-1.3384">
        <ele>62</ele>
        <time>2022-05-08T10:46:17Z</time>
      </trkpt>
      <trkpt lat="47.32093" lon="-1.33855">
        <ele>62</ele>
        <time>2022-05-08T10:46:19Z</time>
      </trkpt>
      <trkpt lat="47.32086" lon="-1.33869">
        <ele>62</ele>
        <time>2022-05-08T10:46:21Z</time>
      </trkpt>
      <trkpt lat="47.32079" lon="-1.33883">
        <ele>62</ele>
        <time>2022-05-08T10:46:23Z</time>
      </trkpt>
      <trkpt lat="47.32071" lon="-1.33898">
        <ele>63</ele>
        <time>2022-05-08T10:46:25Z</time>
      </trkpt>
      <trkpt lat="47.32062" lon="-1.33912">
        <ele>61</ele>
        <time>2022-05-08T10:46:27Z</time>
      </trkpt>
      <trkpt lat="47.32053" lon="-1.33925">
        <ele>61</ele>
        <time>2022-05-08T10:46:29Z</time>
      </trkpt>
      <trkpt lat="47.32046" lon="-1.33938">
        <ele>61</ele>
        <time>2022-05-08T10:46:31Z</time>
      </trkpt>
      <trkpt lat="47.3204" lon="-1.3395">
        <ele>61</ele>
        <time>2022-05-08T10:46:33Z</time>
      </trkpt>
      <trkpt lat="47.32034" lon="-1.33965">
        <ele>61</ele>
        <time>2022-05-08T10:46:36Z</time>
      </trkpt>
      <trkpt lat="47.32025" lon="-1.3398">
        <ele>62</ele>
        <time>2022-05-08T10:46:39Z</time>
      </trkpt>
      <trkpt lat="47.32017" lon="-1.33991">
        <ele>62</ele>
        <time>2022-05-08T10:46:41Z</time>
      </trkpt>
      <trkpt lat="47.32008" lon="-1.34003">
        <ele>62</ele>
        <time>2022-05-08T10:46:43Z</time>
      </trkpt>
      <trkpt lat="47.31999" lon="-1.34017">
        <ele>62</ele>
        <time>2022-05-08T10:46:45Z</time>
      </trkpt>
      <trkpt lat="47.3199" lon="-1.3403">
        <ele>62</ele>
        <time>2022-05-08T10:46:47Z</time>
      </trkpt>
      <trkpt lat="47.31982" lon="-1.34042">
        <ele>62</ele>
        <time>2022-05-08T10:46:49Z</time>
      </trkpt>
      <trkpt lat="47.31974" lon="-1.34055">
        <ele>62</ele>
        <time>2022-05-08T10:46:51Z</time>
      </trkpt>
      <trkpt lat="47.31966" lon="-1.34068">
        <ele>61</ele>
        <time>2022-05-08T10:46:53Z</time>
      </trkpt>
      <trkpt lat="47.31958" lon="-1.34082">
        <ele>61</ele>
        <time>2022-05-08T10:46:55Z</time>
      </trkpt>
      <trkpt lat="47.31949" lon="-1.34095">
        <ele>62</ele>
        <time>2022-05-08T10:46:57Z</time>
      </trkpt>
      <trkpt lat="47.31942" lon="-1.34108">
        <ele>61</ele>
        <time>2022-05-08T10:46:59Z</time>
      </trkpt>
      <trkpt lat="47.31934" lon="-1.3412">
        <ele>62</ele>
        <time>2022-05-08T10:47:01Z</time>
      </trkpt>
      <trkpt lat="47.31925" lon="-1.34132">
        <ele>61</ele>
        <time>2022-05-08T10:47:03Z</time>
      </trkpt>
      <trkpt lat="47.31917" lon="-1.34144">
        <ele>60</ele>
        <time>2022-05-08T10:47:05Z</time>
      </trkpt>
      <trkpt lat="47.31908" lon="-1.34156">
        <ele>60</ele>
        <time>2022-05-08T10:47:07Z</time>
      </trkpt>
      <trkpt lat="47.319" lon="-1.3417">
        <ele>59</ele>
        <time>2022-05-08T10:47:09Z</time>
      </trkpt>
      <trkpt lat="47.3189" lon="-1.34183">
        <ele>59</ele>
        <time>2022-05-08T10:47:11Z</time>
      </trkpt>
      <trkpt lat="47.3188" lon="-1.34197">
        <ele>59</ele>
        <time>2022-05-08T10:47:13Z</time>
      </trkpt>
      <trkpt lat="47.3187" lon="-1.3421">
        <ele>58</ele>
        <time>2022-05-08T10:47:15Z</time>
      </trkpt>
      <trkpt lat="47.31862" lon="-1.34224">
        <ele>59</ele>
        <time>2022-05-08T10:47:17Z</time>
      </trkpt>
      <trkpt lat="47.31853" lon="-1.34238">
        <ele>59</ele>
        <time>2022-05-08T10:47:19Z</time>
      </trkpt>
      <trkpt lat="47.31844" lon="-1.3425">
        <ele>59</ele>
        <time>2022-05-08T10:47:21Z</time>
      </trkpt>
      <trkpt lat="47.31836" lon="-1.34265">
        <ele>58</ele>
        <time>2022-05-08T10:47:23Z</time>
      </trkpt>
      <trkpt lat="47.31827" lon="-1.34279">
        <ele>58</ele>
        <time>2022-05-08T10:47:25Z</time>
      </trkpt>
      <trkpt lat="47.31819" lon="-1.34292">
        <ele>58</ele>
        <time>2022-05-08T10:47:27Z</time>
      </trkpt>
      <trkpt lat="47.31811" lon="-1.34305">
        <ele>58</ele>
        <time>2022-05-08T10:47:29Z</time>
      </trkpt>
      <trkpt lat="47.31802" lon="-1.34319">
        <ele>58</ele>
        <time>2022-05-08T10:47:31Z</time>
      </trkpt>
      <trkpt lat="47.31794" lon="-1.34333">
        <ele>58</ele>
        <time>2022-05-08T10:47:33Z</time>
      </trkpt>
      <trkpt lat="47.31784" lon="-1.34346">
        <ele>58</ele>
        <time>2022-05-08T10:47:35Z</time>
      </trkpt>
      <trkpt lat="47.31776" lon="-1.3436">
        <ele>58</ele>
        <time>2022-05-08T10:47:37Z</time>
      </trkpt>
      <trkpt lat="47.31767" lon="-1.34374">
        <ele>59</ele>
        <time>2022-05-08T10:47:39Z</time>
      </trkpt>
      <trkpt lat="47.3176" lon="-1.34387">
        <ele>59</ele>
        <time>2022-05-08T10:47:41Z</time>
      </trkpt>
      <trkpt lat="47.31753" lon="-1.34401">
        <ele>59</ele>
        <time>2022-05-08T10:47:43Z</time>
      </trkpt>
      <trkpt lat="47.31744" lon="-1.34415">
        <ele>60</ele>
        <time>2022-05-08T10:47:45Z</time>
      </trkpt>
      <trkpt lat="47.31736" lon="-1.34429">
        <ele>60</ele>
        <time>2022-05-08T10:47:47Z</time>
      </trkpt>
      <trkpt lat="47.31727" lon="-1.34442">
        <ele>60</ele>
        <time>2022-05-08T10:47:49Z</time>
      </trkpt>
      <trkpt lat="47.31718" lon="-1.34456">
        <ele>60</ele>
        <time>2022-05-08T10:47:51Z</time>
      </trkpt>
      <trkpt lat="47.31709" lon="-1.34469">
        <ele>59</ele>
        <time>2022-05-08T10:47:53Z</time>
      </trkpt>
      <trkpt lat="47.317" lon="-1.34482">
        <ele>59</ele>
        <time>2022-05-08T10:47:55Z</time>
      </trkpt>
      <trkpt lat="47.31692" lon="-1.34496">
        <ele>59</ele>
        <time>2022-05-08T10:47:57Z</time>
      </trkpt>
      <trkpt lat="47.31683" lon="-1.34509">
        <ele>59</ele>
        <time>2022-05-08T10:47:59Z</time>
      </trkpt>
      <trkpt lat="47.31675" lon="-1.34521">
        <ele>60</ele>
        <time>2022-05-08T10:48:01Z</time>
      </trkpt>
      <trkpt lat="47.31666" lon="-1.34534">
        <ele>60</ele>
        <time>2022-05-08T10:48:03Z</time>
      </trkpt>
      <trkpt lat="47.31658" lon="-1.34547">
        <ele>60</ele>
        <time>2022-05-08T10:48:05Z</time>
      </trkpt>
      <trkpt lat="47.3165" lon="-1.3456">
        <ele>59</ele>
        <time>2022-05-08T10:48:07Z</time>
      </trkpt>
      <trkpt lat="47.31644" lon="-1.34573">
        <ele>59</ele>
        <time>2022-05-08T10:48:09Z</time>
      </trkpt>
      <trkpt lat="47.31636" lon="-1.34585">
        <ele>59</ele>
        <time>2022-05-08T10:48:11Z</time>
      </trkpt>
      <trkpt lat="47.31627" lon="-1.34598">
        <ele>59</ele>
        <time>2022-05-08T10:48:13Z</time>
      </trkpt>
      <trkpt lat="47.31619" lon="-1.34611">
        <ele>59</ele>
        <time>2022-05-08T10:48:15Z</time>
      </trkpt>
      <trkpt lat="47.31612" lon="-1.34624">
        <ele>59</ele>
        <time>2022-05-08T10:48:17Z</time>
      </trkpt>
      <trkpt lat="47.31603" lon="-1.34638">
        <ele>59</ele>
        <time>2022-05-08T10:48:19Z</time>
      </trkpt>
      <trkpt lat="47.31595" lon="-1.3465">
        <ele>59</ele>
        <time>2022-05-08T10:48:21Z</time>
      </trkpt>
      <trkpt lat="47.31587" lon="-1.34663">
        <ele>60</ele>
        <time>2022-05-08T10:48:23Z</time>
      </trkpt>
      <trkpt lat="47.31579" lon="-1.34676">
        <ele>60</ele>
        <time>2022-05-08T10:48:25Z</time>
      </trkpt>
      <trkpt lat="47.31571" lon="-1.34689">
        <ele>60</ele>
        <time>2022-05-08T10:48:27Z</time>
      </trkpt>
      <trkpt lat="47.31563" lon="-1.34701">
        <ele>60</ele>
        <time>2022-05-08T10:48:29Z</time>
      </trkpt>
      <trkpt lat="47.31555" lon="-1.34715">
        <ele>60</ele>
        <time>2022-05-08T10:48:31Z</time>
      </trkpt>
      <trkpt lat="47.31546" lon="-1.34728">
        <ele>60</ele>
        <time>2022-05-08T10:48:33Z</time>
      </trkpt>
      <trkpt lat="47.31537" lon="-1.34741">
        <ele>59</ele>
        <time>2022-05-08T10:48:35Z</time>
      </trkpt>
      <trkpt lat="47.31529" lon="-1.34755">
        <ele>59</ele>
        <time>2022-05-08T10:48:37Z</time>
      </trkpt>
      <trkpt lat="47.3152" lon="-1.34767">
        <ele>59</ele>
        <time>2022-05-08T10:48:39Z</time>
      </trkpt>
      <trkpt lat="47.31511" lon="-1.3478">
        <ele>58</ele>
        <time>2022-05-08T10:48:41Z</time>
      </trkpt>
      <trkpt lat="47.31503" lon="-1.34793">
        <ele>58</ele>
        <time>2022-05-08T10:48:43Z</time>
      </trkpt>
      <trkpt lat="47.31495" lon="-1.34806">
        <ele>58</ele>
        <time>2022-05-08T10:48:45Z</time>
      </trkpt>
      <trkpt lat="47.31487" lon="-1.34819">
        <ele>58</ele>
        <time>2022-05-08T10:48:47Z</time>
      </trkpt>
      <trkpt lat="47.31479" lon="-1.34832">
        <ele>58</ele>
        <time>2022-05-08T10:48:49Z</time>
      </trkpt>
      <trkpt lat="47.31471" lon="-1.34845">
        <ele>58</ele>
        <time>2022-05-08T10:48:51Z</time>
      </trkpt>
      <trkpt lat="47.31463" lon="-1.34858">
        <ele>58</ele>
        <time>2022-05-08T10:48:53Z</time>
      </trkpt>
      <trkpt lat="47.31455" lon="-1.34872">
        <ele>58</ele>
        <time>2022-05-08T10:48:55Z</time>
      </trkpt>
      <trkpt lat="47.31447" lon="-1.34885">
        <ele>58</ele>
        <time>2022-05-08T10:48:57Z</time>
      </trkpt>
      <trkpt lat="47.31438" lon="-1.34897">
        <ele>58</ele>
        <time>2022-05-08T10:48:59Z</time>
      </trkpt>
      <trkpt lat="47.3143" lon="-1.3491">
        <ele>58</ele>
        <time>2022-05-08T10:49:01Z</time>
      </trkpt>
      <trkpt lat="47.31422" lon="-1.34923">
        <ele>59</ele>
        <time>2022-05-08T10:49:03Z</time>
      </trkpt>
      <trkpt lat="47.31414" lon="-1.34937">
        <ele>59</ele>
        <time>2022-05-08T10:49:05Z</time>
      </trkpt>
      <trkpt lat="47.31406" lon="-1.3495">
        <ele>59</ele>
        <time>2022-05-08T10:49:07Z</time>
      </trkpt>
      <trkpt lat="47.31398" lon="-1.34963">
        <ele>59</ele>
        <time>2022-05-08T10:49:09Z</time>
      </trkpt>
      <trkpt lat="47.3139" lon="-1.34974">
        <ele>59</ele>
        <time>2022-05-08T10:49:11Z</time>
      </trkpt>
      <trkpt lat="47.31384" lon="-1.34986">
        <ele>59</ele>
        <time>2022-05-08T10:49:13Z</time>
      </trkpt>
      <trkpt lat="47.31376" lon="-1.34999">
        <ele>59</ele>
        <time>2022-05-08T10:49:15Z</time>
      </trkpt>
      <trkpt lat="47.31367" lon="-1.35013">
        <ele>59</ele>
        <time>2022-05-08T10:49:17Z</time>
      </trkpt>
      <trkpt lat="47.31359" lon="-1.35027">
        <ele>59</ele>
        <time>2022-05-08T10:49:19Z</time>
      </trkpt>
      <trkpt lat="47.31351" lon="-1.3504">
        <ele>59</ele>
        <time>2022-05-08T10:49:21Z</time>
      </trkpt>
      <trkpt lat="47.31344" lon="-1.35053">
        <ele>59</ele>
        <time>2022-05-08T10:49:23Z</time>
      </trkpt>
      <trkpt lat="47.31336" lon="-1.35064">
        <ele>59</ele>
        <time>2022-05-08T10:49:25Z</time>
      </trkpt>
      <trkpt lat="47.31328" lon="-1.35077">
        <ele>59</ele>
        <time>2022-05-08T10:49:27Z</time>
      </trkpt>
      <trkpt lat="47.31318" lon="-1.35083">
        <ele>59</ele>
        <time>2022-05-08T10:49:29Z</time>
      </trkpt>
      <trkpt lat="47.31307" lon="-1.35088">
        <ele>59</ele>
        <time>2022-05-08T10:49:31Z</time>
      </trkpt>
      <trkpt lat="47.31298" lon="-1.351">
        <ele>59</ele>
        <time>2022-05-08T10:49:33Z</time>
      </trkpt>
      <trkpt lat="47.31292" lon="-1.35112">
        <ele>60</ele>
        <time>2022-05-08T10:49:35Z</time>
      </trkpt>
      <trkpt lat="47.31287" lon="-1.35124">
        <ele>60</ele>
        <time>2022-05-08T10:49:37Z</time>
      </trkpt>
      <trkpt lat="47.31281" lon="-1.35138">
        <ele>59</ele>
        <time>2022-05-08T10:49:39Z</time>
      </trkpt>
      <trkpt lat="47.31273" lon="-1.35152">
        <ele>60</ele>
        <time>2022-05-08T10:49:41Z</time>
      </trkpt>
      <trkpt lat="47.31265" lon="-1.35165">
        <ele>59</ele>
        <time>2022-05-08T10:49:43Z</time>
      </trkpt>
      <trkpt lat="47.31257" lon="-1.35179">
        <ele>59</ele>
        <time>2022-05-08T10:49:45Z</time>
      </trkpt>
      <trkpt lat="47.3125" lon="-1.35193">
        <ele>59</ele>
        <time>2022-05-08T10:49:47Z</time>
      </trkpt>
      <trkpt lat="47.31242" lon="-1.35207">
        <ele>59</ele>
        <time>2022-05-08T10:49:49Z</time>
      </trkpt>
      <trkpt lat="47.31234" lon="-1.35219">
        <ele>59</ele>
        <time>2022-05-08T10:49:51Z</time>
      </trkpt>
      <trkpt lat="47.31225" lon="-1.35232">
        <ele>59</ele>
        <time>2022-05-08T10:49:53Z</time>
      </trkpt>
      <trkpt lat="47.31217" lon="-1.35245">
        <ele>59</ele>
        <time>2022-05-08T10:49:55Z</time>
      </trkpt>
      <trkpt lat="47.31209" lon="-1.35259">
        <ele>60</ele>
        <time>2022-05-08T10:49:57Z</time>
      </trkpt>
      <trkpt lat="47.31201" lon="-1.35272">
        <ele>60</ele>
        <time>2022-05-08T10:49:59Z</time>
      </trkpt>
      <trkpt lat="47.31193" lon="-1.35286">
        <ele>60</ele>
        <time>2022-05-08T10:50:01Z</time>
      </trkpt>
      <trkpt lat="47.31184" lon="-1.35299">
        <ele>60</ele>
        <time>2022-05-08T10:50:03Z</time>
      </trkpt>
      <trkpt lat="47.31176" lon="-1.35312">
        <ele>60</ele>
        <time>2022-05-08T10:50:05Z</time>
      </trkpt>
      <trkpt lat="47.31168" lon="-1.35324">
        <ele>60</ele>
        <time>2022-05-08T10:50:07Z</time>
      </trkpt>
      <trkpt lat="47.31159" lon="-1.35338">
        <ele>60</ele>
        <time>2022-05-08T10:50:09Z</time>
      </trkpt>
      <trkpt lat="47.31151" lon="-1.35351">
        <ele>59</ele>
        <time>2022-05-08T10:50:11Z</time>
      </trkpt>
      <trkpt lat="47.31143" lon="-1.35365">
        <ele>59</ele>
        <time>2022-05-08T10:50:13Z</time>
      </trkpt>
      <trkpt lat="47.31135" lon="-1.35378">
        <ele>59</ele>
        <time>2022-05-08T10:50:15Z</time>
      </trkpt>
      <trkpt lat="47.31127" lon="-1.3539">
        <ele>59</ele>
        <time>2022-05-08T10:50:17Z</time>
      </trkpt>
      <trkpt lat="47.31118" lon="-1.35403">
        <ele>59</ele>
        <time>2022-05-08T10:50:19Z</time>
      </trkpt>
      <trkpt lat="47.3111" lon="-1.35415">
        <ele>59</ele>
        <time>2022-05-08T10:50:21Z</time>
      </trkpt>
      <trkpt lat="47.31101" lon="-1.35428">
        <ele>59</ele>
        <time>2022-05-08T10:50:23Z</time>
      </trkpt>
      <trkpt lat="47.31091" lon="-1.35441">
        <ele>59</ele>
        <time>2022-05-08T10:50:25Z</time>
      </trkpt>
      <trkpt lat="47.31082" lon="-1.35453">
        <ele>58</ele>
        <time>2022-05-08T10:50:27Z</time>
      </trkpt>
      <trkpt lat="47.31073" lon="-1.35464">
        <ele>58</ele>
        <time>2022-05-08T10:50:29Z</time>
      </trkpt>
      <trkpt lat="47.31063" lon="-1.35476">
        <ele>59</ele>
        <time>2022-05-08T10:50:31Z</time>
      </trkpt>
      <trkpt lat="47.31054" lon="-1.35488">
        <ele>59</ele>
        <time>2022-05-08T10:50:33Z</time>
      </trkpt>
      <trkpt lat="47.31045" lon="-1.35499">
        <ele>59</ele>
        <time>2022-05-08T10:50:35Z</time>
      </trkpt>
      <trkpt lat="47.31035" lon="-1.35511">
        <ele>59</ele>
        <time>2022-05-08T10:50:37Z</time>
      </trkpt>
      <trkpt lat="47.31025" lon="-1.35522">
        <ele>59</ele>
        <time>2022-05-08T10:50:39Z</time>
      </trkpt>
      <trkpt lat="47.31016" lon="-1.35533">
        <ele>59</ele>
        <time>2022-05-08T10:50:41Z</time>
      </trkpt>
      <trkpt lat="47.31007" lon="-1.35545">
        <ele>60</ele>
        <time>2022-05-08T10:50:43Z</time>
      </trkpt>
      <trkpt lat="47.30996" lon="-1.35556">
        <ele>59</ele>
        <time>2022-05-08T10:50:45Z</time>
      </trkpt>
      <trkpt lat="47.30986" lon="-1.35567">
        <ele>59</ele>
        <time>2022-05-08T10:50:47Z</time>
      </trkpt>
      <trkpt lat="47.30976" lon="-1.35578">
        <ele>59</ele>
        <time>2022-05-08T10:50:49Z</time>
      </trkpt>
      <trkpt lat="47.30967" lon="-1.35589">
        <ele>59</ele>
        <time>2022-05-08T10:50:51Z</time>
      </trkpt>
      <trkpt lat="47.30957" lon="-1.356">
        <ele>59</ele>
        <time>2022-05-08T10:50:53Z</time>
      </trkpt>
      <trkpt lat="47.30948" lon="-1.35611">
        <ele>59</ele>
        <time>2022-05-08T10:50:55Z</time>
      </trkpt>
      <trkpt lat="47.30938" lon="-1.35622">
        <ele>59</ele>
        <time>2022-05-08T10:50:57Z</time>
      </trkpt>
      <trkpt lat="47.30928" lon="-1.35633">
        <ele>60</ele>
        <time>2022-05-08T10:50:59Z</time>
      </trkpt>
      <trkpt lat="47.30919" lon="-1.35645">
        <ele>60</ele>
        <time>2022-05-08T10:51:01Z</time>
      </trkpt>
      <trkpt lat="47.3091" lon="-1.35656">
        <ele>60</ele>
        <time>2022-05-08T10:51:03Z</time>
      </trkpt>
      <trkpt lat="47.30901" lon="-1.35668">
        <ele>60</ele>
        <time>2022-05-08T10:51:05Z</time>
      </trkpt>
      <trkpt lat="47.30891" lon="-1.35679">
        <ele>60</ele>
        <time>2022-05-08T10:51:07Z</time>
      </trkpt>
      <trkpt lat="47.30881" lon="-1.3569">
        <ele>60</ele>
        <time>2022-05-08T10:51:09Z</time>
      </trkpt>
      <trkpt lat="47.30872" lon="-1.35701">
        <ele>60</ele>
        <time>2022-05-08T10:51:11Z</time>
      </trkpt>
      <trkpt lat="47.30862" lon="-1.35713">
        <ele>60</ele>
        <time>2022-05-08T10:51:13Z</time>
      </trkpt>
      <trkpt lat="47.30852" lon="-1.35724">
        <ele>60</ele>
        <time>2022-05-08T10:51:15Z</time>
      </trkpt>
      <trkpt lat="47.30842" lon="-1.35736">
        <ele>60</ele>
        <time>2022-05-08T10:51:17Z</time>
      </trkpt>
      <trkpt lat="47.30833" lon="-1.35747">
        <ele>60</ele>
        <time>2022-05-08T10:51:19Z</time>
      </trkpt>
      <trkpt lat="47.30823" lon="-1.35758">
        <ele>60</ele>
        <time>2022-05-08T10:51:21Z</time>
      </trkpt>
      <trkpt lat="47.30813" lon="-1.35768">
        <ele>60</ele>
        <time>2022-05-08T10:51:23Z</time>
      </trkpt>
      <trkpt lat="47.30804" lon="-1.35779">
        <ele>61</ele>
        <time>2022-05-08T10:51:25Z</time>
      </trkpt>
      <trkpt lat="47.30794" lon="-1.35791">
        <ele>61</ele>
        <time>2022-05-08T10:51:27Z</time>
      </trkpt>
      <trkpt lat="47.30785" lon="-1.35802">
        <ele>61</ele>
        <time>2022-05-08T10:51:29Z</time>
      </trkpt>
      <trkpt lat="47.30775" lon="-1.35814">
        <ele>61</ele>
        <time>2022-05-08T10:51:31Z</time>
      </trkpt>
      <trkpt lat="47.30765" lon="-1.35826">
        <ele>61</ele>
        <time>2022-05-08T10:51:33Z</time>
      </trkpt>
      <trkpt lat="47.30755" lon="-1.35837">
        <ele>61</ele>
        <time>2022-05-08T10:51:35Z</time>
      </trkpt>
      <trkpt lat="47.30745" lon="-1.35849">
        <ele>61</ele>
        <time>2022-05-08T10:51:37Z</time>
      </trkpt>
      <trkpt lat="47.30736" lon="-1.3586">
        <ele>61</ele>
        <time>2022-05-08T10:51:39Z</time>
      </trkpt>
      <trkpt lat="47.30725" lon="-1.35871">
        <ele>61</ele>
        <time>2022-05-08T10:51:41Z</time>
      </trkpt>
      <trkpt lat="47.30716" lon="-1.35882">
        <ele>61</ele>
        <time>2022-05-08T10:51:43Z</time>
      </trkpt>
      <trkpt lat="47.30707" lon="-1.35893">
        <ele>61</ele>
        <time>2022-05-08T10:51:45Z</time>
      </trkpt>
      <trkpt lat="47.30697" lon="-1.35905">
        <ele>61</ele>
        <time>2022-05-08T10:51:47Z</time>
      </trkpt>
      <trkpt lat="47.30687" lon="-1.35916">
        <ele>60</ele>
        <time>2022-05-08T10:51:49Z</time>
      </trkpt>
      <trkpt lat="47.30677" lon="-1.35927">
        <ele>60</ele>
        <time>2022-05-08T10:51:51Z</time>
      </trkpt>
      <trkpt lat="47.30668" lon="-1.35939">
        <ele>60</ele>
        <time>2022-05-08T10:51:53Z</time>
      </trkpt>
      <trkpt lat="47.30659" lon="-1.35951">
        <ele>60</ele>
        <time>2022-05-08T10:51:55Z</time>
      </trkpt>
      <trkpt lat="47.30649" lon="-1.35962">
        <ele>60</ele>
        <time>2022-05-08T10:51:57Z</time>
      </trkpt>
      <trkpt lat="47.30639" lon="-1.35974">
        <ele>59</ele>
        <time>2022-05-08T10:51:59Z</time>
      </trkpt>
      <trkpt lat="47.3063" lon="-1.35985">
        <ele>60</ele>
        <time>2022-05-08T10:52:01Z</time>
      </trkpt>
      <trkpt lat="47.3062" lon="-1.35995">
        <ele>59</ele>
        <time>2022-05-08T10:52:03Z</time>
      </trkpt>
      <trkpt lat="47.30611" lon="-1.36004">
        <ele>59</ele>
        <time>2022-05-08T10:52:05Z</time>
      </trkpt>
      <trkpt lat="47.30601" lon="-1.36013">
        <ele>58</ele>
        <time>2022-05-08T10:52:07Z</time>
      </trkpt>
      <trkpt lat="47.30592" lon="-1.36022">
        <ele>59</ele>
        <time>2022-05-08T10:52:09Z</time>
      </trkpt>
      <trkpt lat="47.30585" lon="-1.36036">
        <ele>59</ele>
        <time>2022-05-08T10:52:12Z</time>
      </trkpt>
      <trkpt lat="47.30577" lon="-1.3605">
        <ele>60</ele>
        <time>2022-05-08T10:52:15Z</time>
      </trkpt>
      <trkpt lat="47.30569" lon="-1.36062">
        <ele>60</ele>
        <time>2022-05-08T10:52:17Z</time>
      </trkpt>
      <trkpt lat="47.30559" lon="-1.36073">
        <ele>59</ele>
        <time>2022-05-08T10:52:19Z</time>
      </trkpt>
      <trkpt lat="47.30551" lon="-1.36086">
        <ele>59</ele>
        <time>2022-05-08T10:52:21Z</time>
      </trkpt>
      <trkpt lat="47.30543" lon="-1.36099">
        <ele>59</ele>
        <time>2022-05-08T10:52:23Z</time>
      </trkpt>
      <trkpt lat="47.30535" lon="-1.36112">
        <ele>59</ele>
        <time>2022-05-08T10:52:25Z</time>
      </trkpt>
      <trkpt lat="47.30528" lon="-1.36126">
        <ele>59</ele>
        <time>2022-05-08T10:52:27Z</time>
      </trkpt>
      <trkpt lat="47.3052" lon="-1.36139">
        <ele>60</ele>
        <time>2022-05-08T10:52:29Z</time>
      </trkpt>
      <trkpt lat="47.30512" lon="-1.36153">
        <ele>60</ele>
        <time>2022-05-08T10:52:31Z</time>
      </trkpt>
      <trkpt lat="47.30504" lon="-1.36167">
        <ele>60</ele>
        <time>2022-05-08T10:52:33Z</time>
      </trkpt>
      <trkpt lat="47.30497" lon="-1.36181">
        <ele>60</ele>
        <time>2022-05-08T10:52:35Z</time>
      </trkpt>
      <trkpt lat="47.30489" lon="-1.36194">
        <ele>60</ele>
        <time>2022-05-08T10:52:37Z</time>
      </trkpt>
      <trkpt lat="47.30481" lon="-1.36209">
        <ele>60</ele>
        <time>2022-05-08T10:52:39Z</time>
      </trkpt>
      <trkpt lat="47.30473" lon="-1.36223">
        <ele>59</ele>
        <time>2022-05-08T10:52:41Z</time>
      </trkpt>
      <trkpt lat="47.30466" lon="-1.36238">
        <ele>59</ele>
        <time>2022-05-08T10:52:43Z</time>
      </trkpt>
      <trkpt lat="47.3046" lon="-1.36252">
        <ele>59</ele>
        <time>2022-05-08T10:52:45Z</time>
      </trkpt>
      <trkpt lat="47.30453" lon="-1.36267">
        <ele>59</ele>
        <time>2022-05-08T10:52:47Z</time>
      </trkpt>
      <trkpt lat="47.30446" lon="-1.36281">
        <ele>59</ele>
        <time>2022-05-08T10:52:49Z</time>
      </trkpt>
      <trkpt lat="47.30439" lon="-1.36296">
        <ele>60</ele>
        <time>2022-05-08T10:52:51Z</time>
      </trkpt>
      <trkpt lat="47.30432" lon="-1.3631">
        <ele>60</ele>
        <time>2022-05-08T10:52:53Z</time>
      </trkpt>
      <trkpt lat="47.30425" lon="-1.36325">
        <ele>59</ele>
        <time>2022-05-08T10:52:55Z</time>
      </trkpt>
      <trkpt lat="47.30418" lon="-1.3634">
        <ele>60</ele>
        <time>2022-05-08T10:52:57Z</time>
      </trkpt>
      <trkpt lat="47.30412" lon="-1.36354">
        <ele>60</ele>
        <time>2022-05-08T10:52:59Z</time>
      </trkpt>
      <trkpt lat="47.30405" lon="-1.36369">
        <ele>60</ele>
        <time>2022-05-08T10:53:01Z</time>
      </trkpt>
      <trkpt lat="47.30398" lon="-1.36384">
        <ele>60</ele>
        <time>2022-05-08T10:53:03Z</time>
      </trkpt>
      <trkpt lat="47.3039" lon="-1.36398">
        <ele>60</ele>
        <time>2022-05-08T10:53:05Z</time>
      </trkpt>
      <trkpt lat="47.30382" lon="-1.36413">
        <ele>60</ele>
        <time>2022-05-08T10:53:07Z</time>
      </trkpt>
      <trkpt lat="47.30376" lon="-1.36428">
        <ele>59</ele>
        <time>2022-05-08T10:53:09Z</time>
      </trkpt>
      <trkpt lat="47.30369" lon="-1.36443">
        <ele>60</ele>
        <time>2022-05-08T10:53:11Z</time>
      </trkpt>
      <trkpt lat="47.30362" lon="-1.36457">
        <ele>60</ele>
        <time>2022-05-08T10:53:13Z</time>
      </trkpt>
      <trkpt lat="47.30355" lon="-1.36472">
        <ele>60</ele>
        <time>2022-05-08T10:53:15Z</time>
      </trkpt>
      <trkpt lat="47.30347" lon="-1.36487">
        <ele>61</ele>
        <time>2022-05-08T10:53:17Z</time>
      </trkpt>
      <trkpt lat="47.3034" lon="-1.36502">
        <ele>61</ele>
        <time>2022-05-08T10:53:19Z</time>
      </trkpt>
      <trkpt lat="47.30333" lon="-1.36517">
        <ele>61</ele>
        <time>2022-05-08T10:53:21Z</time>
      </trkpt>
      <trkpt lat="47.30326" lon="-1.36531">
        <ele>61</ele>
        <time>2022-05-08T10:53:23Z</time>
      </trkpt>
      <trkpt lat="47.30319" lon="-1.36546">
        <ele>61</ele>
        <time>2022-05-08T10:53:25Z</time>
      </trkpt>
      <trkpt lat="47.30313" lon="-1.36561">
        <ele>61</ele>
        <time>2022-05-08T10:53:27Z</time>
      </trkpt>
      <trkpt lat="47.30307" lon="-1.36575">
        <ele>61</ele>
        <time>2022-05-08T10:53:29Z</time>
      </trkpt>
      <trkpt lat="47.303" lon="-1.36589">
        <ele>62</ele>
        <time>2022-05-08T10:53:31Z</time>
      </trkpt>
      <trkpt lat="47.30292" lon="-1.36603">
        <ele>61</ele>
        <time>2022-05-08T10:53:33Z</time>
      </trkpt>
      <trkpt lat="47.30281" lon="-1.36625">
        <ele>61</ele>
        <time>2022-05-08T10:53:36Z</time>
      </trkpt>
      <trkpt lat="47.30274" lon="-1.3664">
        <ele>61</ele>
        <time>2022-05-08T10:53:38Z</time>
      </trkpt>
      <trkpt lat="47.30266" lon="-1.36654">
        <ele>61</ele>
        <time>2022-05-08T10:53:40Z</time>
      </trkpt>
      <trkpt lat="47.30258" lon="-1.36668">
        <ele>61</ele>
        <time>2022-05-08T10:53:42Z</time>
      </trkpt>
      <trkpt lat="47.30251" lon="-1.36683">
        <ele>60</ele>
        <time>2022-05-08T10:53:44Z</time>
      </trkpt>
      <trkpt lat="47.30245" lon="-1.36698">
        <ele>60</ele>
        <time>2022-05-08T10:53:46Z</time>
      </trkpt>
      <trkpt lat="47.30237" lon="-1.36712">
        <ele>60</ele>
        <time>2022-05-08T10:53:48Z</time>
      </trkpt>
      <trkpt lat="47.30231" lon="-1.36727">
        <ele>60</ele>
        <time>2022-05-08T10:53:50Z</time>
      </trkpt>
      <trkpt lat="47.30224" lon="-1.36741">
        <ele>61</ele>
        <time>2022-05-08T10:53:52Z</time>
      </trkpt>
      <trkpt lat="47.30217" lon="-1.36756">
        <ele>61</ele>
        <time>2022-05-08T10:53:54Z</time>
      </trkpt>
      <trkpt lat="47.3021" lon="-1.3677">
        <ele>61</ele>
        <time>2022-05-08T10:53:56Z</time>
      </trkpt>
      <trkpt lat="47.30202" lon="-1.36785">
        <ele>60</ele>
        <time>2022-05-08T10:53:58Z</time>
      </trkpt>
      <trkpt lat="47.30195" lon="-1.36799">
        <ele>60</ele>
        <time>2022-05-08T10:54:00Z</time>
      </trkpt>
      <trkpt lat="47.30188" lon="-1.36814">
        <ele>60</ele>
        <time>2022-05-08T10:54:02Z</time>
      </trkpt>
      <trkpt lat="47.3018" lon="-1.36829">
        <ele>60</ele>
        <time>2022-05-08T10:54:04Z</time>
      </trkpt>
      <trkpt lat="47.30174" lon="-1.36844">
        <ele>60</ele>
        <time>2022-05-08T10:54:06Z</time>
      </trkpt>
      <trkpt lat="47.30166" lon="-1.36859">
        <ele>60</ele>
        <time>2022-05-08T10:54:08Z</time>
      </trkpt>
      <trkpt lat="47.30159" lon="-1.36874">
        <ele>60</ele>
        <time>2022-05-08T10:54:10Z</time>
      </trkpt>
      <trkpt lat="47.30151" lon="-1.36888">
        <ele>60</ele>
        <time>2022-05-08T10:54:12Z</time>
      </trkpt>
      <trkpt lat="47.30144" lon="-1.36903">
        <ele>59</ele>
        <time>2022-05-08T10:54:14Z</time>
      </trkpt>
      <trkpt lat="47.30137" lon="-1.36918">
        <ele>60</ele>
        <time>2022-05-08T10:54:16Z</time>
      </trkpt>
      <trkpt lat="47.3013" lon="-1.36931">
        <ele>59</ele>
        <time>2022-05-08T10:54:18Z</time>
      </trkpt>
      <trkpt lat="47.30123" lon="-1.36945">
        <ele>59</ele>
        <time>2022-05-08T10:54:20Z</time>
      </trkpt>
      <trkpt lat="47.30119" lon="-1.3696">
        <ele>59</ele>
        <time>2022-05-08T10:54:22Z</time>
      </trkpt>
      <trkpt lat="47.30113" lon="-1.36973">
        <ele>59</ele>
        <time>2022-05-08T10:54:24Z</time>
      </trkpt>
      <trkpt lat="47.30106" lon="-1.36987">
        <ele>59</ele>
        <time>2022-05-08T10:54:26Z</time>
      </trkpt>
      <trkpt lat="47.30099" lon="-1.37001">
        <ele>59</ele>
        <time>2022-05-08T10:54:28Z</time>
      </trkpt>
      <trkpt lat="47.30093" lon="-1.37014">
        <ele>59</ele>
        <time>2022-05-08T10:54:30Z</time>
      </trkpt>
      <trkpt lat="47.30085" lon="-1.37028">
        <ele>58</ele>
        <time>2022-05-08T10:54:32Z</time>
      </trkpt>
      <trkpt lat="47.30078" lon="-1.37041">
        <ele>58</ele>
        <time>2022-05-08T10:54:34Z</time>
      </trkpt>
      <trkpt lat="47.30071" lon="-1.37055">
        <ele>58</ele>
        <time>2022-05-08T10:54:36Z</time>
      </trkpt>
      <trkpt lat="47.30063" lon="-1.37069">
        <ele>58</ele>
        <time>2022-05-08T10:54:38Z</time>
      </trkpt>
      <trkpt lat="47.30055" lon="-1.37082">
        <ele>58</ele>
        <time>2022-05-08T10:54:40Z</time>
      </trkpt>
      <trkpt lat="47.30047" lon="-1.37096">
        <ele>58</ele>
        <time>2022-05-08T10:54:42Z</time>
      </trkpt>
      <trkpt lat="47.30039" lon="-1.3711">
        <ele>57</ele>
        <time>2022-05-08T10:54:44Z</time>
      </trkpt>
      <trkpt lat="47.30032" lon="-1.37122">
        <ele>57</ele>
        <time>2022-05-08T10:54:46Z</time>
      </trkpt>
      <trkpt lat="47.30024" lon="-1.37135">
        <ele>57</ele>
        <time>2022-05-08T10:54:48Z</time>
      </trkpt>
      <trkpt lat="47.30015" lon="-1.37148">
        <ele>57</ele>
        <time>2022-05-08T10:54:50Z</time>
      </trkpt>
      <trkpt lat="47.30006" lon="-1.37161">
        <ele>57</ele>
        <time>2022-05-08T10:54:52Z</time>
      </trkpt>
      <trkpt lat="47.29998" lon="-1.37173">
        <ele>57</ele>
        <time>2022-05-08T10:54:54Z</time>
      </trkpt>
      <trkpt lat="47.2999" lon="-1.37187">
        <ele>56</ele>
        <time>2022-05-08T10:54:56Z</time>
      </trkpt>
      <trkpt lat="47.29982" lon="-1.372">
        <ele>57</ele>
        <time>2022-05-08T10:54:58Z</time>
      </trkpt>
      <trkpt lat="47.29973" lon="-1.37213">
        <ele>57</ele>
        <time>2022-05-08T10:55:00Z</time>
      </trkpt>
      <trkpt lat="47.29965" lon="-1.37225">
        <ele>57</ele>
        <time>2022-05-08T10:55:02Z</time>
      </trkpt>
      <trkpt lat="47.29957" lon="-1.37237">
        <ele>57</ele>
        <time>2022-05-08T10:55:04Z</time>
      </trkpt>
      <trkpt lat="47.29949" lon="-1.3725">
        <ele>57</ele>
        <time>2022-05-08T10:55:06Z</time>
      </trkpt>
      <trkpt lat="47.29941" lon="-1.37263">
        <ele>57</ele>
        <time>2022-05-08T10:55:08Z</time>
      </trkpt>
      <trkpt lat="47.29932" lon="-1.37276">
        <ele>56</ele>
        <time>2022-05-08T10:55:10Z</time>
      </trkpt>
      <trkpt lat="47.29923" lon="-1.37289">
        <ele>56</ele>
        <time>2022-05-08T10:55:12Z</time>
      </trkpt>
      <trkpt lat="47.29914" lon="-1.37303">
        <ele>56</ele>
        <time>2022-05-08T10:55:14Z</time>
      </trkpt>
      <trkpt lat="47.29907" lon="-1.37317">
        <ele>57</ele>
        <time>2022-05-08T10:55:16Z</time>
      </trkpt>
      <trkpt lat="47.29898" lon="-1.3733">
        <ele>57</ele>
        <time>2022-05-08T10:55:18Z</time>
      </trkpt>
      <trkpt lat="47.2989" lon="-1.37343">
        <ele>57</ele>
        <time>2022-05-08T10:55:20Z</time>
      </trkpt>
      <trkpt lat="47.29881" lon="-1.37355">
        <ele>57</ele>
        <time>2022-05-08T10:55:22Z</time>
      </trkpt>
      <trkpt lat="47.29873" lon="-1.37368">
        <ele>57</ele>
        <time>2022-05-08T10:55:24Z</time>
      </trkpt>
      <trkpt lat="47.29864" lon="-1.37381">
        <ele>57</ele>
        <time>2022-05-08T10:55:26Z</time>
      </trkpt>
      <trkpt lat="47.29856" lon="-1.37394">
        <ele>57</ele>
        <time>2022-05-08T10:55:28Z</time>
      </trkpt>
      <trkpt lat="47.29848" lon="-1.37406">
        <ele>57</ele>
        <time>2022-05-08T10:55:30Z</time>
      </trkpt>
      <trkpt lat="47.2984" lon="-1.37418">
        <ele>57</ele>
        <time>2022-05-08T10:55:32Z</time>
      </trkpt>
      <trkpt lat="47.29832" lon="-1.37431">
        <ele>57</ele>
        <time>2022-05-08T10:55:34Z</time>
      </trkpt>
      <trkpt lat="47.29824" lon="-1.37443">
        <ele>58</ele>
        <time>2022-05-08T10:55:36Z</time>
      </trkpt>
      <trkpt lat="47.29816" lon="-1.37456">
        <ele>58</ele>
        <time>2022-05-08T10:55:38Z</time>
      </trkpt>
      <trkpt lat="47.29808" lon="-1.37469">
        <ele>58</ele>
        <time>2022-05-08T10:55:40Z</time>
      </trkpt>
      <trkpt lat="47.298" lon="-1.37482">
        <ele>58</ele>
        <time>2022-05-08T10:55:42Z</time>
      </trkpt>
      <trkpt lat="47.29793" lon="-1.37495">
        <ele>57</ele>
        <time>2022-05-08T10:55:44Z</time>
      </trkpt>
      <trkpt lat="47.29786" lon="-1.37509">
        <ele>57</ele>
        <time>2022-05-08T10:55:46Z</time>
      </trkpt>
      <trkpt lat="47.29778" lon="-1.37522">
        <ele>57</ele>
        <time>2022-05-08T10:55:48Z</time>
      </trkpt>
      <trkpt lat="47.29771" lon="-1.37536">
        <ele>56</ele>
        <time>2022-05-08T10:55:50Z</time>
      </trkpt>
      <trkpt lat="47.29763" lon="-1.3755">
        <ele>56</ele>
        <time>2022-05-08T10:55:52Z</time>
      </trkpt>
      <trkpt lat="47.29756" lon="-1.37564">
        <ele>56</ele>
        <time>2022-05-08T10:55:54Z</time>
      </trkpt>
      <trkpt lat="47.29749" lon="-1.37578">
        <ele>56</ele>
        <time>2022-05-08T10:55:56Z</time>
      </trkpt>
      <trkpt lat="47.29741" lon="-1.37592">
        <ele>56</ele>
        <time>2022-05-08T10:55:58Z</time>
      </trkpt>
      <trkpt lat="47.29734" lon="-1.37606">
        <ele>56</ele>
        <time>2022-05-08T10:56:00Z</time>
      </trkpt>
      <trkpt lat="47.29727" lon="-1.37621">
        <ele>56</ele>
        <time>2022-05-08T10:56:02Z</time>
      </trkpt>
      <trkpt lat="47.2972" lon="-1.37635">
        <ele>56</ele>
        <time>2022-05-08T10:56:04Z</time>
      </trkpt>
      <trkpt lat="47.29713" lon="-1.37649">
        <ele>56</ele>
        <time>2022-05-08T10:56:06Z</time>
      </trkpt>
      <trkpt lat="47.29705" lon="-1.37663">
        <ele>56</ele>
        <time>2022-05-08T10:56:08Z</time>
      </trkpt>
      <trkpt lat="47.29698" lon="-1.37677">
        <ele>56</ele>
        <time>2022-05-08T10:56:10Z</time>
      </trkpt>
      <trkpt lat="47.2969" lon="-1.37691">
        <ele>56</ele>
        <time>2022-05-08T10:56:12Z</time>
      </trkpt>
      <trkpt lat="47.29684" lon="-1.37705">
        <ele>56</ele>
        <time>2022-05-08T10:56:14Z</time>
      </trkpt>
      <trkpt lat="47.29677" lon="-1.37719">
        <ele>56</ele>
        <time>2022-05-08T10:56:16Z</time>
      </trkpt>
      <trkpt lat="47.29669" lon="-1.37733">
        <ele>56</ele>
        <time>2022-05-08T10:56:18Z</time>
      </trkpt>
      <trkpt lat="47.29662" lon="-1.37747">
        <ele>57</ele>
        <time>2022-05-08T10:56:20Z</time>
      </trkpt>
      <trkpt lat="47.29654" lon="-1.37761">
        <ele>57</ele>
        <time>2022-05-08T10:56:22Z</time>
      </trkpt>
      <trkpt lat="47.29647" lon="-1.37776">
        <ele>57</ele>
        <time>2022-05-08T10:56:24Z</time>
      </trkpt>
      <trkpt lat="47.2964" lon="-1.37789">
        <ele>57</ele>
        <time>2022-05-08T10:56:26Z</time>
      </trkpt>
      <trkpt lat="47.29632" lon="-1.37801">
        <ele>57</ele>
        <time>2022-05-08T10:56:28Z</time>
      </trkpt>
      <trkpt lat="47.29625" lon="-1.37814">
        <ele>57</ele>
        <time>2022-05-08T10:56:30Z</time>
      </trkpt>
      <trkpt lat="47.29618" lon="-1.37828">
        <ele>57</ele>
        <time>2022-05-08T10:56:32Z</time>
      </trkpt>
      <trkpt lat="47.29611" lon="-1.37842">
        <ele>57</ele>
        <time>2022-05-08T10:56:34Z</time>
      </trkpt>
      <trkpt lat="47.29604" lon="-1.37856">
        <ele>57</ele>
        <time>2022-05-08T10:56:36Z</time>
      </trkpt>
      <trkpt lat="47.29598" lon="-1.37871">
        <ele>57</ele>
        <time>2022-05-08T10:56:38Z</time>
      </trkpt>
      <trkpt lat="47.29592" lon="-1.37885">
        <ele>57</ele>
        <time>2022-05-08T10:56:40Z</time>
      </trkpt>
      <trkpt lat="47.29585" lon="-1.379">
        <ele>58</ele>
        <time>2022-05-08T10:56:42Z</time>
      </trkpt>
      <trkpt lat="47.29579" lon="-1.37915">
        <ele>58</ele>
        <time>2022-05-08T10:56:44Z</time>
      </trkpt>
      <trkpt lat="47.29573" lon="-1.37928">
        <ele>58</ele>
        <time>2022-05-08T10:56:46Z</time>
      </trkpt>
      <trkpt lat="47.29567" lon="-1.37942">
        <ele>58</ele>
        <time>2022-05-08T10:56:48Z</time>
      </trkpt>
      <trkpt lat="47.29561" lon="-1.37957">
        <ele>57</ele>
        <time>2022-05-08T10:56:50Z</time>
      </trkpt>
      <trkpt lat="47.29556" lon="-1.37972">
        <ele>57</ele>
        <time>2022-05-08T10:56:52Z</time>
      </trkpt>
      <trkpt lat="47.2955" lon="-1.37988">
        <ele>57</ele>
        <time>2022-05-08T10:56:54Z</time>
      </trkpt>
      <trkpt lat="47.29545" lon="-1.38004">
        <ele>57</ele>
        <time>2022-05-08T10:56:56Z</time>
      </trkpt>
      <trkpt lat="47.29539" lon="-1.3802">
        <ele>57</ele>
        <time>2022-05-08T10:56:58Z</time>
      </trkpt>
      <trkpt lat="47.29533" lon="-1.38035">
        <ele>58</ele>
        <time>2022-05-08T10:57:00Z</time>
      </trkpt>
      <trkpt lat="47.29527" lon="-1.38051">
        <ele>58</ele>
        <time>2022-05-08T10:57:02Z</time>
      </trkpt>
      <trkpt lat="47.29522" lon="-1.38066">
        <ele>58</ele>
        <time>2022-05-08T10:57:04Z</time>
      </trkpt>
      <trkpt lat="47.29517" lon="-1.38082">
        <ele>58</ele>
        <time>2022-05-08T10:57:06Z</time>
      </trkpt>
      <trkpt lat="47.29512" lon="-1.38098">
        <ele>58</ele>
        <time>2022-05-08T10:57:08Z</time>
      </trkpt>
      <trkpt lat="47.29508" lon="-1.38115">
        <ele>58</ele>
        <time>2022-05-08T10:57:10Z</time>
      </trkpt>
      <trkpt lat="47.29503" lon="-1.38131">
        <ele>59</ele>
        <time>2022-05-08T10:57:12Z</time>
      </trkpt>
      <trkpt lat="47.29499" lon="-1.38148">
        <ele>59</ele>
        <time>2022-05-08T10:57:14Z</time>
      </trkpt>
      <trkpt lat="47.29495" lon="-1.38165">
        <ele>59</ele>
        <time>2022-05-08T10:57:16Z</time>
      </trkpt>
      <trkpt lat="47.2949" lon="-1.38181">
        <ele>59</ele>
        <time>2022-05-08T10:57:18Z</time>
      </trkpt>
      <trkpt lat="47.29486" lon="-1.38198">
        <ele>59</ele>
        <time>2022-05-08T10:57:20Z</time>
      </trkpt>
      <trkpt lat="47.29481" lon="-1.38213">
        <ele>59</ele>
        <time>2022-05-08T10:57:22Z</time>
      </trkpt>
      <trkpt lat="47.29477" lon="-1.38229">
        <ele>59</ele>
        <time>2022-05-08T10:57:24Z</time>
      </trkpt>
      <trkpt lat="47.29472" lon="-1.38245">
        <ele>59</ele>
        <time>2022-05-08T10:57:26Z</time>
      </trkpt>
      <trkpt lat="47.29468" lon="-1.38262">
        <ele>59</ele>
        <time>2022-05-08T10:57:28Z</time>
      </trkpt>
      <trkpt lat="47.29463" lon="-1.38278">
        <ele>59</ele>
        <time>2022-05-08T10:57:30Z</time>
      </trkpt>
      <trkpt lat="47.29459" lon="-1.38295">
        <ele>59</ele>
        <time>2022-05-08T10:57:32Z</time>
      </trkpt>
      <trkpt lat="47.29454" lon="-1.38309">
        <ele>60</ele>
        <time>2022-05-08T10:57:34Z</time>
      </trkpt>
      <trkpt lat="47.29449" lon="-1.38322">
        <ele>61</ele>
        <time>2022-05-08T10:57:36Z</time>
      </trkpt>
      <trkpt lat="47.29443" lon="-1.38331">
        <ele>61</ele>
        <time>2022-05-08T10:57:38Z</time>
      </trkpt>
      <trkpt lat="47.29438" lon="-1.38346">
        <ele>61</ele>
        <time>2022-05-08T10:57:40Z</time>
      </trkpt>
      <trkpt lat="47.29436" lon="-1.38363">
        <ele>60</ele>
        <time>2022-05-08T10:57:42Z</time>
      </trkpt>
      <trkpt lat="47.29432" lon="-1.3838">
        <ele>60</ele>
        <time>2022-05-08T10:57:44Z</time>
      </trkpt>
      <trkpt lat="47.29428" lon="-1.38398">
        <ele>60</ele>
        <time>2022-05-08T10:57:46Z</time>
      </trkpt>
      <trkpt lat="47.29424" lon="-1.38417">
        <ele>59</ele>
        <time>2022-05-08T10:57:48Z</time>
      </trkpt>
      <trkpt lat="47.29419" lon="-1.38435">
        <ele>59</ele>
        <time>2022-05-08T10:57:50Z</time>
      </trkpt>
      <trkpt lat="47.29414" lon="-1.38453">
        <ele>59</ele>
        <time>2022-05-08T10:57:52Z</time>
      </trkpt>
      <trkpt lat="47.29409" lon="-1.38471">
        <ele>59</ele>
        <time>2022-05-08T10:57:54Z</time>
      </trkpt>
      <trkpt lat="47.29402" lon="-1.38488">
        <ele>59</ele>
        <time>2022-05-08T10:57:56Z</time>
      </trkpt>
      <trkpt lat="47.29395" lon="-1.38504">
        <ele>59</ele>
        <time>2022-05-08T10:57:58Z</time>
      </trkpt>
      <trkpt lat="47.29388" lon="-1.38521">
        <ele>59</ele>
        <time>2022-05-08T10:58:00Z</time>
      </trkpt>
      <trkpt lat="47.29382" lon="-1.38538">
        <ele>59</ele>
        <time>2022-05-08T10:58:02Z</time>
      </trkpt>
      <trkpt lat="47.29376" lon="-1.38555">
        <ele>59</ele>
        <time>2022-05-08T10:58:04Z</time>
      </trkpt>
      <trkpt lat="47.2937" lon="-1.38573">
        <ele>58</ele>
        <time>2022-05-08T10:58:06Z</time>
      </trkpt>
      <trkpt lat="47.29364" lon="-1.38593">
        <ele>57</ele>
        <time>2022-05-08T10:58:08Z</time>
      </trkpt>
      <trkpt lat="47.29358" lon="-1.38614">
        <ele>57</ele>
        <time>2022-05-08T10:58:10Z</time>
      </trkpt>
      <trkpt lat="47.29352" lon="-1.38635">
        <ele>57</ele>
        <time>2022-05-08T10:58:12Z</time>
      </trkpt>
      <trkpt lat="47.29345" lon="-1.38655">
        <ele>56</ele>
        <time>2022-05-08T10:58:14Z</time>
      </trkpt>
      <trkpt lat="47.29339" lon="-1.38675">
        <ele>57</ele>
        <time>2022-05-08T10:58:16Z</time>
      </trkpt>
      <trkpt lat="47.29333" lon="-1.38693">
        <ele>56</ele>
        <time>2022-05-08T10:58:18Z</time>
      </trkpt>
      <trkpt lat="47.29327" lon="-1.38711">
        <ele>56</ele>
        <time>2022-05-08T10:58:20Z</time>
      </trkpt>
      <trkpt lat="47.29322" lon="-1.38731">
        <ele>56</ele>
        <time>2022-05-08T10:58:22Z</time>
      </trkpt>
      <trkpt lat="47.29319" lon="-1.3875">
        <ele>56</ele>
        <time>2022-05-08T10:58:24Z</time>
      </trkpt>
      <trkpt lat="47.29314" lon="-1.38767">
        <ele>57</ele>
        <time>2022-05-08T10:58:26Z</time>
      </trkpt>
      <trkpt lat="47.2931" lon="-1.38784">
        <ele>57</ele>
        <time>2022-05-08T10:58:28Z</time>
      </trkpt>
      <trkpt lat="47.29305" lon="-1.38802">
        <ele>57</ele>
        <time>2022-05-08T10:58:30Z</time>
      </trkpt>
      <trkpt lat="47.293" lon="-1.38821">
        <ele>57</ele>
        <time>2022-05-08T10:58:32Z</time>
      </trkpt>
      <trkpt lat="47.29295" lon="-1.3884">
        <ele>57</ele>
        <time>2022-05-08T10:58:34Z</time>
      </trkpt>
      <trkpt lat="47.2929" lon="-1.38859">
        <ele>57</ele>
        <time>2022-05-08T10:58:36Z</time>
      </trkpt>
      <trkpt lat="47.29285" lon="-1.38877">
        <ele>57</ele>
        <time>2022-05-08T10:58:38Z</time>
      </trkpt>
      <trkpt lat="47.2928" lon="-1.38895">
        <ele>57</ele>
        <time>2022-05-08T10:58:40Z</time>
      </trkpt>
      <trkpt lat="47.29275" lon="-1.38913">
        <ele>56</ele>
        <time>2022-05-08T10:58:42Z</time>
      </trkpt>
      <trkpt lat="47.2927" lon="-1.38932">
        <ele>56</ele>
        <time>2022-05-08T10:58:44Z</time>
      </trkpt>
      <trkpt lat="47.29265" lon="-1.38949">
        <ele>57</ele>
        <time>2022-05-08T10:58:46Z</time>
      </trkpt>
      <trkpt lat="47.2926" lon="-1.38968">
        <ele>57</ele>
        <time>2022-05-08T10:58:48Z</time>
      </trkpt>
      <trkpt lat="47.29255" lon="-1.38988">
        <ele>57</ele>
        <time>2022-05-08T10:58:50Z</time>
      </trkpt>
      <trkpt lat="47.2925" lon="-1.39007">
        <ele>58</ele>
        <time>2022-05-08T10:58:52Z</time>
      </trkpt>
      <trkpt lat="47.29245" lon="-1.39027">
        <ele>58</ele>
        <time>2022-05-08T10:58:54Z</time>
      </trkpt>
      <trkpt lat="47.2924" lon="-1.39046">
        <ele>58</ele>
        <time>2022-05-08T10:58:56Z</time>
      </trkpt>
      <trkpt lat="47.29234" lon="-1.39065">
        <ele>58</ele>
        <time>2022-05-08T10:58:58Z</time>
      </trkpt>
      <trkpt lat="47.29228" lon="-1.39084">
        <ele>57</ele>
        <time>2022-05-08T10:59:00Z</time>
      </trkpt>
      <trkpt lat="47.2922" lon="-1.39102">
        <ele>57</ele>
        <time>2022-05-08T10:59:02Z</time>
      </trkpt>
      <trkpt lat="47.29211" lon="-1.39118">
        <ele>57</ele>
        <time>2022-05-08T10:59:04Z</time>
      </trkpt>
      <trkpt lat="47.29201" lon="-1.39132">
        <ele>57</ele>
        <time>2022-05-08T10:59:06Z</time>
      </trkpt>
      <trkpt lat="47.2919" lon="-1.39146">
        <ele>57</ele>
        <time>2022-05-08T10:59:08Z</time>
      </trkpt>
      <trkpt lat="47.29179" lon="-1.39159">
        <ele>56</ele>
        <time>2022-05-08T10:59:10Z</time>
      </trkpt>
      <trkpt lat="47.29168" lon="-1.39172">
        <ele>56</ele>
        <time>2022-05-08T10:59:12Z</time>
      </trkpt>
      <trkpt lat="47.29157" lon="-1.39186">
        <ele>56</ele>
        <time>2022-05-08T10:59:14Z</time>
      </trkpt>
      <trkpt lat="47.29145" lon="-1.392">
        <ele>56</ele>
        <time>2022-05-08T10:59:16Z</time>
      </trkpt>
      <trkpt lat="47.29134" lon="-1.39214">
        <ele>56</ele>
        <time>2022-05-08T10:59:18Z</time>
      </trkpt>
      <trkpt lat="47.29123" lon="-1.39227">
        <ele>56</ele>
        <time>2022-05-08T10:59:20Z</time>
      </trkpt>
      <trkpt lat="47.29112" lon="-1.3924">
        <ele>56</ele>
        <time>2022-05-08T10:59:22Z</time>
      </trkpt>
      <trkpt lat="47.29102" lon="-1.39255">
        <ele>56</ele>
        <time>2022-05-08T10:59:24Z</time>
      </trkpt>
      <trkpt lat="47.29093" lon="-1.39271">
        <ele>56</ele>
        <time>2022-05-08T10:59:26Z</time>
      </trkpt>
      <trkpt lat="47.29085" lon="-1.39285">
        <ele>56</ele>
        <time>2022-05-08T10:59:28Z</time>
      </trkpt>
      <trkpt lat="47.29075" lon="-1.39298">
        <ele>56</ele>
        <time>2022-05-08T10:59:30Z</time>
      </trkpt>
      <trkpt lat="47.29065" lon="-1.3931">
        <ele>56</ele>
        <time>2022-05-08T10:59:32Z</time>
      </trkpt>
      <trkpt lat="47.29053" lon="-1.3932">
        <ele>56</ele>
        <time>2022-05-08T10:59:34Z</time>
      </trkpt>
      <trkpt lat="47.29043" lon="-1.39333">
        <ele>56</ele>
        <time>2022-05-08T10:59:36Z</time>
      </trkpt>
      <trkpt lat="47.29033" lon="-1.39345">
        <ele>57</ele>
        <time>2022-05-08T10:59:38Z</time>
      </trkpt>
      <trkpt lat="47.29023" lon="-1.39358">
        <ele>58</ele>
        <time>2022-05-08T10:59:40Z</time>
      </trkpt>
      <trkpt lat="47.29015" lon="-1.39372">
        <ele>59</ele>
        <time>2022-05-08T10:59:42Z</time>
      </trkpt>
      <trkpt lat="47.29005" lon="-1.39387">
        <ele>60</ele>
        <time>2022-05-08T10:59:44Z</time>
      </trkpt>
      <trkpt lat="47.28994" lon="-1.39401">
        <ele>60</ele>
        <time>2022-05-08T10:59:46Z</time>
      </trkpt>
      <trkpt lat="47.28983" lon="-1.39413">
        <ele>59</ele>
        <time>2022-05-08T10:59:48Z</time>
      </trkpt>
      <trkpt lat="47.28973" lon="-1.39426">
        <ele>59</ele>
        <time>2022-05-08T10:59:50Z</time>
      </trkpt>
      <trkpt lat="47.28963" lon="-1.39439">
        <ele>59</ele>
        <time>2022-05-08T10:59:52Z</time>
      </trkpt>
      <trkpt lat="47.28952" lon="-1.39452">
        <ele>59</ele>
        <time>2022-05-08T10:59:54Z</time>
      </trkpt>
      <trkpt lat="47.28942" lon="-1.39464">
        <ele>59</ele>
        <time>2022-05-08T10:59:56Z</time>
      </trkpt>
      <trkpt lat="47.28931" lon="-1.39477">
        <ele>59</ele>
        <time>2022-05-08T10:59:58Z</time>
      </trkpt>
      <trkpt lat="47.28921" lon="-1.39489">
        <ele>60</ele>
        <time>2022-05-08T11:00:00Z</time>
      </trkpt>
      <trkpt lat="47.28911" lon="-1.39502">
        <ele>60</ele>
        <time>2022-05-08T11:00:02Z</time>
      </trkpt>
      <trkpt lat="47.289" lon="-1.39514">
        <ele>60</ele>
        <time>2022-05-08T11:00:04Z</time>
      </trkpt>
      <trkpt lat="47.2889" lon="-1.39526">
        <ele>60</ele>
        <time>2022-05-08T11:00:06Z</time>
      </trkpt>
      <trkpt lat="47.28879" lon="-1.39538">
        <ele>60</ele>
        <time>2022-05-08T11:00:08Z</time>
      </trkpt>
      <trkpt lat="47.2887" lon="-1.39551">
        <ele>60</ele>
        <time>2022-05-08T11:00:10Z</time>
      </trkpt>
      <trkpt lat="47.28859" lon="-1.39563">
        <ele>60</ele>
        <time>2022-05-08T11:00:12Z</time>
      </trkpt>
      <trkpt lat="47.28849" lon="-1.39575">
        <ele>60</ele>
        <time>2022-05-08T11:00:14Z</time>
      </trkpt>
      <trkpt lat="47.28839" lon="-1.39587">
        <ele>59</ele>
        <time>2022-05-08T11:00:16Z</time>
      </trkpt>
      <trkpt lat="47.28828" lon="-1.39599">
        <ele>59</ele>
        <time>2022-05-08T11:00:18Z</time>
      </trkpt>
      <trkpt lat="47.28818" lon="-1.39612">
        <ele>59</ele>
        <time>2022-05-08T11:00:20Z</time>
      </trkpt>
      <trkpt lat="47.28808" lon="-1.39624">
        <ele>58</ele>
        <time>2022-05-08T11:00:22Z</time>
      </trkpt>
      <trkpt lat="47.28798" lon="-1.39636">
        <ele>59</ele>
        <time>2022-05-08T11:00:24Z</time>
      </trkpt>
      <trkpt lat="47.28788" lon="-1.39648">
        <ele>59</ele>
        <time>2022-05-08T11:00:26Z</time>
      </trkpt>
      <trkpt lat="47.28778" lon="-1.3966">
        <ele>59</ele>
        <time>2022-05-08T11:00:28Z</time>
      </trkpt>
      <trkpt lat="47.28768" lon="-1.39672">
        <ele>59</ele>
        <time>2022-05-08T11:00:30Z</time>
      </trkpt>
      <trkpt lat="47.28758" lon="-1.39684">
        <ele>60</ele>
        <time>2022-05-08T11:00:32Z</time>
      </trkpt>
      <trkpt lat="47.28748" lon="-1.39697">
        <ele>60</ele>
        <time>2022-05-08T11:00:34Z</time>
      </trkpt>
      <trkpt lat="47.28737" lon="-1.39709">
        <ele>60</ele>
        <time>2022-05-08T11:00:36Z</time>
      </trkpt>
      <trkpt lat="47.28727" lon="-1.39721">
        <ele>59</ele>
        <time>2022-05-08T11:00:38Z</time>
      </trkpt>
      <trkpt lat="47.28717" lon="-1.39733">
        <ele>59</ele>
        <time>2022-05-08T11:00:40Z</time>
      </trkpt>
      <trkpt lat="47.28708" lon="-1.39745">
        <ele>59</ele>
        <time>2022-05-08T11:00:42Z</time>
      </trkpt>
      <trkpt lat="47.28698" lon="-1.39756">
        <ele>59</ele>
        <time>2022-05-08T11:00:44Z</time>
      </trkpt>
      <trkpt lat="47.28688" lon="-1.39768">
        <ele>59</ele>
        <time>2022-05-08T11:00:46Z</time>
      </trkpt>
      <trkpt lat="47.28678" lon="-1.39779">
        <ele>59</ele>
        <time>2022-05-08T11:00:48Z</time>
      </trkpt>
      <trkpt lat="47.28669" lon="-1.39792">
        <ele>58</ele>
        <time>2022-05-08T11:00:50Z</time>
      </trkpt>
      <trkpt lat="47.2866" lon="-1.39806">
        <ele>58</ele>
        <time>2022-05-08T11:00:52Z</time>
      </trkpt>
      <trkpt lat="47.28651" lon="-1.39819">
        <ele>58</ele>
        <time>2022-05-08T11:00:54Z</time>
      </trkpt>
      <trkpt lat="47.28643" lon="-1.39833">
        <ele>58</ele>
        <time>2022-05-08T11:00:56Z</time>
      </trkpt>
      <trkpt lat="47.28634" lon="-1.39847">
        <ele>58</ele>
        <time>2022-05-08T11:00:58Z</time>
      </trkpt>
      <trkpt lat="47.28626" lon="-1.3986">
        <ele>58</ele>
        <time>2022-05-08T11:01:00Z</time>
      </trkpt>
      <trkpt lat="47.28618" lon="-1.39873">
        <ele>58</ele>
        <time>2022-05-08T11:01:02Z</time>
      </trkpt>
      <trkpt lat="47.28609" lon="-1.39887">
        <ele>59</ele>
        <time>2022-05-08T11:01:04Z</time>
      </trkpt>
      <trkpt lat="47.286" lon="-1.399">
        <ele>59</ele>
        <time>2022-05-08T11:01:06Z</time>
      </trkpt>
      <trkpt lat="47.28591" lon="-1.39914">
        <ele>59</ele>
        <time>2022-05-08T11:01:08Z</time>
      </trkpt>
      <trkpt lat="47.28582" lon="-1.39927">
        <ele>59</ele>
        <time>2022-05-08T11:01:10Z</time>
      </trkpt>
      <trkpt lat="47.28573" lon="-1.3994">
        <ele>59</ele>
        <time>2022-05-08T11:01:12Z</time>
      </trkpt>
      <trkpt lat="47.28564" lon="-1.39954">
        <ele>60</ele>
        <time>2022-05-08T11:01:14Z</time>
      </trkpt>
      <trkpt lat="47.28555" lon="-1.39967">
        <ele>60</ele>
        <time>2022-05-08T11:01:16Z</time>
      </trkpt>
      <trkpt lat="47.28545" lon="-1.3998">
        <ele>60</ele>
        <time>2022-05-08T11:01:18Z</time>
      </trkpt>
      <trkpt lat="47.28536" lon="-1.39992">
        <ele>60</ele>
        <time>2022-05-08T11:01:20Z</time>
      </trkpt>
      <trkpt lat="47.28528" lon="-1.40004">
        <ele>60</ele>
        <time>2022-05-08T11:01:22Z</time>
      </trkpt>
      <trkpt lat="47.28519" lon="-1.40018">
        <ele>61</ele>
        <time>2022-05-08T11:01:24Z</time>
      </trkpt>
      <trkpt lat="47.28511" lon="-1.40032">
        <ele>61</ele>
        <time>2022-05-08T11:01:26Z</time>
      </trkpt>
      <trkpt lat="47.28504" lon="-1.40046">
        <ele>61</ele>
        <time>2022-05-08T11:01:28Z</time>
      </trkpt>
      <trkpt lat="47.28496" lon="-1.40061">
        <ele>61</ele>
        <time>2022-05-08T11:01:30Z</time>
      </trkpt>
      <trkpt lat="47.28489" lon="-1.40076">
        <ele>61</ele>
        <time>2022-05-08T11:01:32Z</time>
      </trkpt>
      <trkpt lat="47.28482" lon="-1.40091">
        <ele>62</ele>
        <time>2022-05-08T11:01:34Z</time>
      </trkpt>
      <trkpt lat="47.28475" lon="-1.40106">
        <ele>62</ele>
        <time>2022-05-08T11:01:36Z</time>
      </trkpt>
      <trkpt lat="47.28469" lon="-1.40123">
        <ele>62</ele>
        <time>2022-05-08T11:01:38Z</time>
      </trkpt>
      <trkpt lat="47.28463" lon="-1.40141">
        <ele>62</ele>
        <time>2022-05-08T11:01:40Z</time>
      </trkpt>
      <trkpt lat="47.28457" lon="-1.40158">
        <ele>62</ele>
        <time>2022-05-08T11:01:42Z</time>
      </trkpt>
      <trkpt lat="47.28451" lon="-1.40174">
        <ele>62</ele>
        <time>2022-05-08T11:01:44Z</time>
      </trkpt>
      <trkpt lat="47.28443" lon="-1.4019">
        <ele>63</ele>
        <time>2022-05-08T11:01:46Z</time>
      </trkpt>
      <trkpt lat="47.28437" lon="-1.40206">
        <ele>63</ele>
        <time>2022-05-08T11:01:48Z</time>
      </trkpt>
      <trkpt lat="47.28431" lon="-1.40222">
        <ele>64</ele>
        <time>2022-05-08T11:01:50Z</time>
      </trkpt>
      <trkpt lat="47.28425" lon="-1.40237">
        <ele>64</ele>
        <time>2022-05-08T11:01:52Z</time>
      </trkpt>
      <trkpt lat="47.28419" lon="-1.40254">
        <ele>65</ele>
        <time>2022-05-08T11:01:54Z</time>
      </trkpt>
      <trkpt lat="47.28411" lon="-1.4027">
        <ele>64</ele>
        <time>2022-05-08T11:01:56Z</time>
      </trkpt>
      <trkpt lat="47.28403" lon="-1.40285">
        <ele>63</ele>
        <time>2022-05-08T11:01:58Z</time>
      </trkpt>
      <trkpt lat="47.28395" lon="-1.403">
        <ele>62</ele>
        <time>2022-05-08T11:02:00Z</time>
      </trkpt>
      <trkpt lat="47.28387" lon="-1.40315">
        <ele>62</ele>
        <time>2022-05-08T11:02:02Z</time>
      </trkpt>
      <trkpt lat="47.28379" lon="-1.40329">
        <ele>61</ele>
        <time>2022-05-08T11:02:04Z</time>
      </trkpt>
      <trkpt lat="47.2837" lon="-1.40342">
        <ele>61</ele>
        <time>2022-05-08T11:02:06Z</time>
      </trkpt>
      <trkpt lat="47.2836" lon="-1.40355">
        <ele>61</ele>
        <time>2022-05-08T11:02:08Z</time>
      </trkpt>
      <trkpt lat="47.28351" lon="-1.40368">
        <ele>60</ele>
        <time>2022-05-08T11:02:10Z</time>
      </trkpt>
      <trkpt lat="47.28342" lon="-1.4038">
        <ele>60</ele>
        <time>2022-05-08T11:02:12Z</time>
      </trkpt>
      <trkpt lat="47.28333" lon="-1.40392">
        <ele>60</ele>
        <time>2022-05-08T11:02:14Z</time>
      </trkpt>
      <trkpt lat="47.28323" lon="-1.40405">
        <ele>60</ele>
        <time>2022-05-08T11:02:16Z</time>
      </trkpt>
      <trkpt lat="47.28313" lon="-1.40417">
        <ele>60</ele>
        <time>2022-05-08T11:02:18Z</time>
      </trkpt>
      <trkpt lat="47.28303" lon="-1.40428">
        <ele>60</ele>
        <time>2022-05-08T11:02:20Z</time>
      </trkpt>
      <trkpt lat="47.28292" lon="-1.40438">
        <ele>59</ele>
        <time>2022-05-08T11:02:22Z</time>
      </trkpt>
      <trkpt lat="47.28281" lon="-1.40449">
        <ele>59</ele>
        <time>2022-05-08T11:02:24Z</time>
      </trkpt>
      <trkpt lat="47.2827" lon="-1.40458">
        <ele>59</ele>
        <time>2022-05-08T11:02:26Z</time>
      </trkpt>
      <trkpt lat="47.2826" lon="-1.40468">
        <ele>59</ele>
        <time>2022-05-08T11:02:28Z</time>
      </trkpt>
      <trkpt lat="47.28249" lon="-1.40479">
        <ele>59</ele>
        <time>2022-05-08T11:02:30Z</time>
      </trkpt>
      <trkpt lat="47.28239" lon="-1.40489">
        <ele>59</ele>
        <time>2022-05-08T11:02:32Z</time>
      </trkpt>
      <trkpt lat="47.28229" lon="-1.40499">
        <ele>59</ele>
        <time>2022-05-08T11:02:34Z</time>
      </trkpt>
      <trkpt lat="47.28219" lon="-1.40509">
        <ele>59</ele>
        <time>2022-05-08T11:02:36Z</time>
      </trkpt>
      <trkpt lat="47.28208" lon="-1.40519">
        <ele>59</ele>
        <time>2022-05-08T11:02:38Z</time>
      </trkpt>
      <trkpt lat="47.28197" lon="-1.4053">
        <ele>59</ele>
        <time>2022-05-08T11:02:40Z</time>
      </trkpt>
      <trkpt lat="47.28187" lon="-1.40541">
        <ele>60</ele>
        <time>2022-05-08T11:02:42Z</time>
      </trkpt>
      <trkpt lat="47.28176" lon="-1.40551">
        <ele>59</ele>
        <time>2022-05-08T11:02:44Z</time>
      </trkpt>
      <trkpt lat="47.28165" lon="-1.40562">
        <ele>59</ele>
        <time>2022-05-08T11:02:46Z</time>
      </trkpt>
      <trkpt lat="47.28155" lon="-1.40572">
        <ele>59</ele>
        <time>2022-05-08T11:02:48Z</time>
      </trkpt>
      <trkpt lat="47.28144" lon="-1.40582">
        <ele>59</ele>
        <time>2022-05-08T11:02:50Z</time>
      </trkpt>
      <trkpt lat="47.28134" lon="-1.40592">
        <ele>60</ele>
        <time>2022-05-08T11:02:52Z</time>
      </trkpt>
      <trkpt lat="47.28123" lon="-1.40603">
        <ele>60</ele>
        <time>2022-05-08T11:02:54Z</time>
      </trkpt>
      <trkpt lat="47.28112" lon="-1.40614">
        <ele>59</ele>
        <time>2022-05-08T11:02:56Z</time>
      </trkpt>
      <trkpt lat="47.28101" lon="-1.40624">
        <ele>60</ele>
        <time>2022-05-08T11:02:58Z</time>
      </trkpt>
      <trkpt lat="47.28091" lon="-1.40633">
        <ele>60</ele>
        <time>2022-05-08T11:03:00Z</time>
      </trkpt>
      <trkpt lat="47.2808" lon="-1.40644">
        <ele>60</ele>
        <time>2022-05-08T11:03:02Z</time>
      </trkpt>
      <trkpt lat="47.2807" lon="-1.40653">
        <ele>60</ele>
        <time>2022-05-08T11:03:04Z</time>
      </trkpt>
      <trkpt lat="47.28059" lon="-1.40664">
        <ele>60</ele>
        <time>2022-05-08T11:03:06Z</time>
      </trkpt>
      <trkpt lat="47.28048" lon="-1.40675">
        <ele>60</ele>
        <time>2022-05-08T11:03:08Z</time>
      </trkpt>
      <trkpt lat="47.28037" lon="-1.40686">
        <ele>60</ele>
        <time>2022-05-08T11:03:10Z</time>
      </trkpt>
      <trkpt lat="47.28027" lon="-1.40697">
        <ele>60</ele>
        <time>2022-05-08T11:03:12Z</time>
      </trkpt>
      <trkpt lat="47.28016" lon="-1.40707">
        <ele>60</ele>
        <time>2022-05-08T11:03:14Z</time>
      </trkpt>
      <trkpt lat="47.28007" lon="-1.40717">
        <ele>60</ele>
        <time>2022-05-08T11:03:16Z</time>
      </trkpt>
      <trkpt lat="47.27996" lon="-1.40727">
        <ele>59</ele>
        <time>2022-05-08T11:03:18Z</time>
      </trkpt>
      <trkpt lat="47.27985" lon="-1.40737">
        <ele>60</ele>
        <time>2022-05-08T11:03:20Z</time>
      </trkpt>
      <trkpt lat="47.27975" lon="-1.40746">
        <ele>59</ele>
        <time>2022-05-08T11:03:22Z</time>
      </trkpt>
      <trkpt lat="47.27964" lon="-1.40756">
        <ele>59</ele>
        <time>2022-05-08T11:03:24Z</time>
      </trkpt>
      <trkpt lat="47.27953" lon="-1.40766">
        <ele>59</ele>
        <time>2022-05-08T11:03:26Z</time>
      </trkpt>
      <trkpt lat="47.27943" lon="-1.40775">
        <ele>59</ele>
        <time>2022-05-08T11:03:28Z</time>
      </trkpt>
      <trkpt lat="47.27932" lon="-1.40785">
        <ele>59</ele>
        <time>2022-05-08T11:03:30Z</time>
      </trkpt>
      <trkpt lat="47.27921" lon="-1.40795">
        <ele>59</ele>
        <time>2022-05-08T11:03:32Z</time>
      </trkpt>
      <trkpt lat="47.2791" lon="-1.40806">
        <ele>59</ele>
        <time>2022-05-08T11:03:34Z</time>
      </trkpt>
      <trkpt lat="47.27894" lon="-1.40822">
        <ele>59</ele>
        <time>2022-05-08T11:03:37Z</time>
      </trkpt>
      <trkpt lat="47.27884" lon="-1.40835">
        <ele>59</ele>
        <time>2022-05-08T11:03:39Z</time>
      </trkpt>
      <trkpt lat="47.27876" lon="-1.40849">
        <ele>59</ele>
        <time>2022-05-08T11:03:41Z</time>
      </trkpt>
      <trkpt lat="47.27869" lon="-1.40864">
        <ele>59</ele>
        <time>2022-05-08T11:03:43Z</time>
      </trkpt>
      <trkpt lat="47.27862" lon="-1.40879">
        <ele>59</ele>
        <time>2022-05-08T11:03:45Z</time>
      </trkpt>
      <trkpt lat="47.27856" lon="-1.40894">
        <ele>59</ele>
        <time>2022-05-08T11:03:47Z</time>
      </trkpt>
      <trkpt lat="47.27846" lon="-1.40916">
        <ele>59</ele>
        <time>2022-05-08T11:03:50Z</time>
      </trkpt>
      <trkpt lat="47.27839" lon="-1.4093">
        <ele>59</ele>
        <time>2022-05-08T11:03:52Z</time>
      </trkpt>
      <trkpt lat="47.27831" lon="-1.40945">
        <ele>60</ele>
        <time>2022-05-08T11:03:54Z</time>
      </trkpt>
      <trkpt lat="47.27824" lon="-1.40959">
        <ele>59</ele>
        <time>2022-05-08T11:03:56Z</time>
      </trkpt>
      <trkpt lat="47.27817" lon="-1.40974">
        <ele>59</ele>
        <time>2022-05-08T11:03:58Z</time>
      </trkpt>
      <trkpt lat="47.27808" lon="-1.40987">
        <ele>59</ele>
        <time>2022-05-08T11:04:00Z</time>
      </trkpt>
      <trkpt lat="47.278" lon="-1.41">
        <ele>59</ele>
        <time>2022-05-08T11:04:02Z</time>
      </trkpt>
      <trkpt lat="47.27792" lon="-1.41011">
        <ele>59</ele>
        <time>2022-05-08T11:04:04Z</time>
      </trkpt>
      <trkpt lat="47.27784" lon="-1.41023">
        <ele>59</ele>
        <time>2022-05-08T11:04:06Z</time>
      </trkpt>
      <trkpt lat="47.27777" lon="-1.41036">
        <ele>59</ele>
        <time>2022-05-08T11:04:08Z</time>
      </trkpt>
      <trkpt lat="47.27772" lon="-1.41053">
        <ele>59</ele>
        <time>2022-05-08T11:04:10Z</time>
      </trkpt>
      <trkpt lat="47.27765" lon="-1.41068">
        <ele>60</ele>
        <time>2022-05-08T11:04:12Z</time>
      </trkpt>
      <trkpt lat="47.27757" lon="-1.4108">
        <ele>60</ele>
        <time>2022-05-08T11:04:14Z</time>
      </trkpt>
      <trkpt lat="47.27746" lon="-1.41091">
        <ele>60</ele>
        <time>2022-05-08T11:04:16Z</time>
      </trkpt>
      <trkpt lat="47.27736" lon="-1.411">
        <ele>60</ele>
        <time>2022-05-08T11:04:18Z</time>
      </trkpt>
      <trkpt lat="47.27726" lon="-1.4111">
        <ele>60</ele>
        <time>2022-05-08T11:04:20Z</time>
      </trkpt>
      <trkpt lat="47.27717" lon="-1.41118">
        <ele>60</ele>
        <time>2022-05-08T11:04:22Z</time>
      </trkpt>
      <trkpt lat="47.27708" lon="-1.41123">
        <ele>60</ele>
        <time>2022-05-08T11:04:26Z</time>
      </trkpt>
      <trkpt lat="47.27707" lon="-1.41123">
        <ele>59</ele>
        <time>2022-05-08T11:06:27Z</time>
      </trkpt>
      <trkpt lat="47.27707" lon="-1.41123">
        <ele>59</ele>
        <time>2022-05-08T11:08:28Z</time>
      </trkpt>
      <trkpt lat="47.27707" lon="-1.41123">
        <ele>59</ele>
        <time>2022-05-08T11:10:29Z</time>
      </trkpt>
      <trkpt lat="47.27707" lon="-1.41123">
        <ele>60</ele>
        <time>2022-05-08T11:12:30Z</time>
      </trkpt>
      <trkpt lat="47.27707" lon="-1.41123">
        <ele>60</ele>
        <time>2022-05-08T11:14:31Z</time>
      </trkpt>
      <trkpt lat="47.27707" lon="-1.41123">
        <ele>60</ele>
        <time>2022-05-08T11:16:32Z</time>
      </trkpt>
      <trkpt lat="47.27706" lon="-1.41122">
        <ele>58</ele>
        <time>2022-05-08T11:18:33Z</time>
      </trkpt>
      <trkpt lat="47.27706" lon="-1.41122">
        <ele>57</ele>
        <time>2022-05-08T11:20:34Z</time>
      </trkpt>
      <trkpt lat="47.27698" lon="-1.41135">
        <ele>57</ele>
        <time>2022-05-08T11:21:40Z</time>
      </trkpt>
      <trkpt lat="47.27691" lon="-1.41144">
        <ele>56</ele>
        <time>2022-05-08T11:21:44Z</time>
      </trkpt>
      <trkpt lat="47.27684" lon="-1.41154">
        <ele>55</ele>
        <time>2022-05-08T11:21:49Z</time>
      </trkpt>
      <trkpt lat="47.2768" lon="-1.41166">
        <ele>55</ele>
        <time>2022-05-08T11:21:59Z</time>
      </trkpt>
      <trkpt lat="47.27673" lon="-1.41176">
        <ele>55</ele>
        <time>2022-05-08T11:22:08Z</time>
      </trkpt>
      <trkpt lat="47.27661" lon="-1.4118">
        <ele>55</ele>
        <time>2022-05-08T11:23:10Z</time>
      </trkpt>
      <trkpt lat="47.27651" lon="-1.4119">
        <ele>56</ele>
        <time>2022-05-08T11:23:13Z</time>
      </trkpt>
      <trkpt lat="47.2764" lon="-1.41201">
        <ele>56</ele>
        <time>2022-05-08T11:23:16Z</time>
      </trkpt>
      <trkpt lat="47.27631" lon="-1.41209">
        <ele>57</ele>
        <time>2022-05-08T11:23:18Z</time>
      </trkpt>
      <trkpt lat="47.27622" lon="-1.41218">
        <ele>57</ele>
        <time>2022-05-08T11:23:20Z</time>
      </trkpt>
      <trkpt lat="47.27613" lon="-1.41228">
        <ele>57</ele>
        <time>2022-05-08T11:23:22Z</time>
      </trkpt>
      <trkpt lat="47.27603" lon="-1.41238">
        <ele>57</ele>
        <time>2022-05-08T11:23:24Z</time>
      </trkpt>
      <trkpt lat="47.27594" lon="-1.41248">
        <ele>57</ele>
        <time>2022-05-08T11:23:26Z</time>
      </trkpt>
      <trkpt lat="47.27585" lon="-1.41259">
        <ele>57</ele>
        <time>2022-05-08T11:23:28Z</time>
      </trkpt>
      <trkpt lat="47.27576" lon="-1.4127">
        <ele>57</ele>
        <time>2022-05-08T11:23:30Z</time>
      </trkpt>
      <trkpt lat="47.27566" lon="-1.4128">
        <ele>57</ele>
        <time>2022-05-08T11:23:32Z</time>
      </trkpt>
      <trkpt lat="47.27556" lon="-1.41292">
        <ele>57</ele>
        <time>2022-05-08T11:23:34Z</time>
      </trkpt>
      <trkpt lat="47.27547" lon="-1.41304">
        <ele>57</ele>
        <time>2022-05-08T11:23:36Z</time>
      </trkpt>
      <trkpt lat="47.27538" lon="-1.41315">
        <ele>57</ele>
        <time>2022-05-08T11:23:38Z</time>
      </trkpt>
      <trkpt lat="47.27529" lon="-1.41327">
        <ele>57</ele>
        <time>2022-05-08T11:23:40Z</time>
      </trkpt>
      <trkpt lat="47.2752" lon="-1.41339">
        <ele>57</ele>
        <time>2022-05-08T11:23:42Z</time>
      </trkpt>
      <trkpt lat="47.27511" lon="-1.41353">
        <ele>57</ele>
        <time>2022-05-08T11:23:44Z</time>
      </trkpt>
      <trkpt lat="47.27503" lon="-1.41366">
        <ele>57</ele>
        <time>2022-05-08T11:23:46Z</time>
      </trkpt>
      <trkpt lat="47.27494" lon="-1.4138">
        <ele>57</ele>
        <time>2022-05-08T11:23:48Z</time>
      </trkpt>
      <trkpt lat="47.27486" lon="-1.41393">
        <ele>57</ele>
        <time>2022-05-08T11:23:50Z</time>
      </trkpt>
      <trkpt lat="47.27477" lon="-1.41408">
        <ele>57</ele>
        <time>2022-05-08T11:23:52Z</time>
      </trkpt>
      <trkpt lat="47.27469" lon="-1.41422">
        <ele>57</ele>
        <time>2022-05-08T11:23:54Z</time>
      </trkpt>
      <trkpt lat="47.27461" lon="-1.41436">
        <ele>57</ele>
        <time>2022-05-08T11:23:56Z</time>
      </trkpt>
      <trkpt lat="47.27453" lon="-1.41451">
        <ele>57</ele>
        <time>2022-05-08T11:23:58Z</time>
      </trkpt>
      <trkpt lat="47.27445" lon="-1.41465">
        <ele>57</ele>
        <time>2022-05-08T11:24:00Z</time>
      </trkpt>
      <trkpt lat="47.27433" lon="-1.41487">
        <ele>58</ele>
        <time>2022-05-08T11:24:03Z</time>
      </trkpt>
      <trkpt lat="47.27421" lon="-1.4151">
        <ele>58</ele>
        <time>2022-05-08T11:24:06Z</time>
      </trkpt>
      <trkpt lat="47.27412" lon="-1.41524">
        <ele>58</ele>
        <time>2022-05-08T11:24:08Z</time>
      </trkpt>
      <trkpt lat="47.27403" lon="-1.41538">
        <ele>58</ele>
        <time>2022-05-08T11:24:10Z</time>
      </trkpt>
      <trkpt lat="47.27394" lon="-1.41552">
        <ele>58</ele>
        <time>2022-05-08T11:24:12Z</time>
      </trkpt>
      <trkpt lat="47.27385" lon="-1.41567">
        <ele>58</ele>
        <time>2022-05-08T11:24:14Z</time>
      </trkpt>
      <trkpt lat="47.27375" lon="-1.41581">
        <ele>59</ele>
        <time>2022-05-08T11:24:16Z</time>
      </trkpt>
      <trkpt lat="47.27366" lon="-1.41595">
        <ele>58</ele>
        <time>2022-05-08T11:24:18Z</time>
      </trkpt>
      <trkpt lat="47.27357" lon="-1.4161">
        <ele>58</ele>
        <time>2022-05-08T11:24:20Z</time>
      </trkpt>
      <trkpt lat="47.27347" lon="-1.41623">
        <ele>58</ele>
        <time>2022-05-08T11:24:22Z</time>
      </trkpt>
      <trkpt lat="47.27337" lon="-1.41638">
        <ele>58</ele>
        <time>2022-05-08T11:24:24Z</time>
      </trkpt>
      <trkpt lat="47.27329" lon="-1.41652">
        <ele>58</ele>
        <time>2022-05-08T11:24:26Z</time>
      </trkpt>
      <trkpt lat="47.2732" lon="-1.41667">
        <ele>58</ele>
        <time>2022-05-08T11:24:28Z</time>
      </trkpt>
      <trkpt lat="47.27312" lon="-1.41682">
        <ele>58</ele>
        <time>2022-05-08T11:24:30Z</time>
      </trkpt>
      <trkpt lat="47.27304" lon="-1.41697">
        <ele>59</ele>
        <time>2022-05-08T11:24:32Z</time>
      </trkpt>
      <trkpt lat="47.27297" lon="-1.41713">
        <ele>59</ele>
        <time>2022-05-08T11:24:34Z</time>
      </trkpt>
      <trkpt lat="47.27288" lon="-1.41728">
        <ele>59</ele>
        <time>2022-05-08T11:24:36Z</time>
      </trkpt>
      <trkpt lat="47.2728" lon="-1.41744">
        <ele>59</ele>
        <time>2022-05-08T11:24:38Z</time>
      </trkpt>
      <trkpt lat="47.27272" lon="-1.4176">
        <ele>59</ele>
        <time>2022-05-08T11:24:40Z</time>
      </trkpt>
      <trkpt lat="47.27264" lon="-1.41774">
        <ele>59</ele>
        <time>2022-05-08T11:24:42Z</time>
      </trkpt>
      <trkpt lat="47.27256" lon="-1.4179">
        <ele>59</ele>
        <time>2022-05-08T11:24:44Z</time>
      </trkpt>
      <trkpt lat="47.27248" lon="-1.41805">
        <ele>59</ele>
        <time>2022-05-08T11:24:46Z</time>
      </trkpt>
      <trkpt lat="47.27239" lon="-1.4182">
        <ele>58</ele>
        <time>2022-05-08T11:24:48Z</time>
      </trkpt>
      <trkpt lat="47.27231" lon="-1.41834">
        <ele>59</ele>
        <time>2022-05-08T11:24:50Z</time>
      </trkpt>
      <trkpt lat="47.27224" lon="-1.4185">
        <ele>59</ele>
        <time>2022-05-08T11:24:52Z</time>
      </trkpt>
      <trkpt lat="47.27216" lon="-1.41865">
        <ele>59</ele>
        <time>2022-05-08T11:24:54Z</time>
      </trkpt>
      <trkpt lat="47.27207" lon="-1.4188">
        <ele>59</ele>
        <time>2022-05-08T11:24:56Z</time>
      </trkpt>
      <trkpt lat="47.27198" lon="-1.41894">
        <ele>59</ele>
        <time>2022-05-08T11:24:58Z</time>
      </trkpt>
      <trkpt lat="47.2719" lon="-1.41908">
        <ele>58</ele>
        <time>2022-05-08T11:25:00Z</time>
      </trkpt>
      <trkpt lat="47.27181" lon="-1.41922">
        <ele>58</ele>
        <time>2022-05-08T11:25:02Z</time>
      </trkpt>
      <trkpt lat="47.27173" lon="-1.41938">
        <ele>57</ele>
        <time>2022-05-08T11:25:04Z</time>
      </trkpt>
      <trkpt lat="47.27164" lon="-1.41953">
        <ele>57</ele>
        <time>2022-05-08T11:25:06Z</time>
      </trkpt>
      <trkpt lat="47.27155" lon="-1.41968">
        <ele>57</ele>
        <time>2022-05-08T11:25:08Z</time>
      </trkpt>
      <trkpt lat="47.27147" lon="-1.41984">
        <ele>57</ele>
        <time>2022-05-08T11:25:10Z</time>
      </trkpt>
      <trkpt lat="47.27139" lon="-1.41999">
        <ele>57</ele>
        <time>2022-05-08T11:25:12Z</time>
      </trkpt>
      <trkpt lat="47.2713" lon="-1.42013">
        <ele>57</ele>
        <time>2022-05-08T11:25:14Z</time>
      </trkpt>
      <trkpt lat="47.27121" lon="-1.42027">
        <ele>56</ele>
        <time>2022-05-08T11:25:16Z</time>
      </trkpt>
      <trkpt lat="47.27112" lon="-1.42042">
        <ele>57</ele>
        <time>2022-05-08T11:25:18Z</time>
      </trkpt>
      <trkpt lat="47.27103" lon="-1.42057">
        <ele>57</ele>
        <time>2022-05-08T11:25:20Z</time>
      </trkpt>
      <trkpt lat="47.27093" lon="-1.42071">
        <ele>57</ele>
        <time>2022-05-08T11:25:22Z</time>
      </trkpt>
      <trkpt lat="47.27084" lon="-1.42085">
        <ele>56</ele>
        <time>2022-05-08T11:25:24Z</time>
      </trkpt>
      <trkpt lat="47.27075" lon="-1.421">
        <ele>56</ele>
        <time>2022-05-08T11:25:26Z</time>
      </trkpt>
      <trkpt lat="47.27067" lon="-1.42114">
        <ele>57</ele>
        <time>2022-05-08T11:25:28Z</time>
      </trkpt>
      <trkpt lat="47.27059" lon="-1.42129">
        <ele>57</ele>
        <time>2022-05-08T11:25:30Z</time>
      </trkpt>
      <trkpt lat="47.27051" lon="-1.42144">
        <ele>57</ele>
        <time>2022-05-08T11:25:32Z</time>
      </trkpt>
      <trkpt lat="47.27043" lon="-1.4216">
        <ele>58</ele>
        <time>2022-05-08T11:25:34Z</time>
      </trkpt>
      <trkpt lat="47.27035" lon="-1.42174">
        <ele>58</ele>
        <time>2022-05-08T11:25:36Z</time>
      </trkpt>
      <trkpt lat="47.27027" lon="-1.42189">
        <ele>59</ele>
        <time>2022-05-08T11:25:38Z</time>
      </trkpt>
      <trkpt lat="47.27018" lon="-1.42204">
        <ele>58</ele>
        <time>2022-05-08T11:25:40Z</time>
      </trkpt>
      <trkpt lat="47.27009" lon="-1.4222">
        <ele>58</ele>
        <time>2022-05-08T11:25:42Z</time>
      </trkpt>
      <trkpt lat="47.26999" lon="-1.42236">
        <ele>58</ele>
        <time>2022-05-08T11:25:44Z</time>
      </trkpt>
      <trkpt lat="47.26991" lon="-1.42251">
        <ele>57</ele>
        <time>2022-05-08T11:25:46Z</time>
      </trkpt>
      <trkpt lat="47.26983" lon="-1.42265">
        <ele>57</ele>
        <time>2022-05-08T11:25:48Z</time>
      </trkpt>
      <trkpt lat="47.26974" lon="-1.4228">
        <ele>57</ele>
        <time>2022-05-08T11:25:50Z</time>
      </trkpt>
      <trkpt lat="47.26966" lon="-1.42295">
        <ele>57</ele>
        <time>2022-05-08T11:25:52Z</time>
      </trkpt>
      <trkpt lat="47.26958" lon="-1.4231">
        <ele>57</ele>
        <time>2022-05-08T11:25:54Z</time>
      </trkpt>
      <trkpt lat="47.2695" lon="-1.42325">
        <ele>56</ele>
        <time>2022-05-08T11:25:56Z</time>
      </trkpt>
      <trkpt lat="47.26943" lon="-1.4234">
        <ele>56</ele>
        <time>2022-05-08T11:25:58Z</time>
      </trkpt>
      <trkpt lat="47.26935" lon="-1.42355">
        <ele>57</ele>
        <time>2022-05-08T11:26:00Z</time>
      </trkpt>
      <trkpt lat="47.26927" lon="-1.42371">
        <ele>57</ele>
        <time>2022-05-08T11:26:02Z</time>
      </trkpt>
      <trkpt lat="47.2692" lon="-1.42387">
        <ele>57</ele>
        <time>2022-05-08T11:26:04Z</time>
      </trkpt>
      <trkpt lat="47.26913" lon="-1.42402">
        <ele>57</ele>
        <time>2022-05-08T11:26:06Z</time>
      </trkpt>
      <trkpt lat="47.26904" lon="-1.42417">
        <ele>57</ele>
        <time>2022-05-08T11:26:08Z</time>
      </trkpt>
      <trkpt lat="47.26896" lon="-1.42432">
        <ele>57</ele>
        <time>2022-05-08T11:26:10Z</time>
      </trkpt>
      <trkpt lat="47.26888" lon="-1.42447">
        <ele>56</ele>
        <time>2022-05-08T11:26:12Z</time>
      </trkpt>
      <trkpt lat="47.2688" lon="-1.42462">
        <ele>56</ele>
        <time>2022-05-08T11:26:14Z</time>
      </trkpt>
      <trkpt lat="47.26871" lon="-1.42478">
        <ele>57</ele>
        <time>2022-05-08T11:26:16Z</time>
      </trkpt>
      <trkpt lat="47.26863" lon="-1.42493">
        <ele>57</ele>
        <time>2022-05-08T11:26:18Z</time>
      </trkpt>
      <trkpt lat="47.26854" lon="-1.42509">
        <ele>56</ele>
        <time>2022-05-08T11:26:20Z</time>
      </trkpt>
      <trkpt lat="47.26846" lon="-1.42525">
        <ele>56</ele>
        <time>2022-05-08T11:26:22Z</time>
      </trkpt>
      <trkpt lat="47.26838" lon="-1.42542">
        <ele>56</ele>
        <time>2022-05-08T11:26:24Z</time>
      </trkpt>
      <trkpt lat="47.26829" lon="-1.42557">
        <ele>55</ele>
        <time>2022-05-08T11:26:26Z</time>
      </trkpt>
      <trkpt lat="47.26822" lon="-1.42574">
        <ele>55</ele>
        <time>2022-05-08T11:26:28Z</time>
      </trkpt>
      <trkpt lat="47.26815" lon="-1.4259">
        <ele>55</ele>
        <time>2022-05-08T11:26:30Z</time>
      </trkpt>
      <trkpt lat="47.26808" lon="-1.42606">
        <ele>56</ele>
        <time>2022-05-08T11:26:32Z</time>
      </trkpt>
      <trkpt lat="47.26801" lon="-1.42623">
        <ele>56</ele>
        <time>2022-05-08T11:26:34Z</time>
      </trkpt>
      <trkpt lat="47.26794" lon="-1.4264">
        <ele>56</ele>
        <time>2022-05-08T11:26:36Z</time>
      </trkpt>
      <trkpt lat="47.26788" lon="-1.42657">
        <ele>56</ele>
        <time>2022-05-08T11:26:38Z</time>
      </trkpt>
      <trkpt lat="47.26782" lon="-1.42674">
        <ele>55</ele>
        <time>2022-05-08T11:26:40Z</time>
      </trkpt>
      <trkpt lat="47.26776" lon="-1.42691">
        <ele>56</ele>
        <time>2022-05-08T11:26:42Z</time>
      </trkpt>
      <trkpt lat="47.2677" lon="-1.42709">
        <ele>56</ele>
        <time>2022-05-08T11:26:44Z</time>
      </trkpt>
      <trkpt lat="47.26763" lon="-1.42725">
        <ele>57</ele>
        <time>2022-05-08T11:26:46Z</time>
      </trkpt>
      <trkpt lat="47.26755" lon="-1.4274">
        <ele>57</ele>
        <time>2022-05-08T11:26:48Z</time>
      </trkpt>
      <trkpt lat="47.26746" lon="-1.42756">
        <ele>57</ele>
        <time>2022-05-08T11:26:50Z</time>
      </trkpt>
      <trkpt lat="47.26738" lon="-1.42772">
        <ele>57</ele>
        <time>2022-05-08T11:26:52Z</time>
      </trkpt>
      <trkpt lat="47.26733" lon="-1.4279">
        <ele>57</ele>
        <time>2022-05-08T11:26:54Z</time>
      </trkpt>
      <trkpt lat="47.26728" lon="-1.42807">
        <ele>57</ele>
        <time>2022-05-08T11:26:56Z</time>
      </trkpt>
      <trkpt lat="47.26723" lon="-1.42824">
        <ele>57</ele>
        <time>2022-05-08T11:26:58Z</time>
      </trkpt>
      <trkpt lat="47.26716" lon="-1.42841">
        <ele>57</ele>
        <time>2022-05-08T11:27:00Z</time>
      </trkpt>
      <trkpt lat="47.26709" lon="-1.42859">
        <ele>57</ele>
        <time>2022-05-08T11:27:02Z</time>
      </trkpt>
      <trkpt lat="47.26701" lon="-1.42876">
        <ele>57</ele>
        <time>2022-05-08T11:27:04Z</time>
      </trkpt>
      <trkpt lat="47.26693" lon="-1.42893">
        <ele>57</ele>
        <time>2022-05-08T11:27:06Z</time>
      </trkpt>
      <trkpt lat="47.26685" lon="-1.42909">
        <ele>57</ele>
        <time>2022-05-08T11:27:08Z</time>
      </trkpt>
      <trkpt lat="47.26677" lon="-1.42925">
        <ele>56</ele>
        <time>2022-05-08T11:27:10Z</time>
      </trkpt>
      <trkpt lat="47.26669" lon="-1.42941">
        <ele>56</ele>
        <time>2022-05-08T11:27:12Z</time>
      </trkpt>
      <trkpt lat="47.26662" lon="-1.42956">
        <ele>56</ele>
        <time>2022-05-08T11:27:14Z</time>
      </trkpt>
      <trkpt lat="47.26654" lon="-1.42972">
        <ele>56</ele>
        <time>2022-05-08T11:27:16Z</time>
      </trkpt>
      <trkpt lat="47.26646" lon="-1.42988">
        <ele>56</ele>
        <time>2022-05-08T11:27:18Z</time>
      </trkpt>
      <trkpt lat="47.26639" lon="-1.43003">
        <ele>56</ele>
        <time>2022-05-08T11:27:20Z</time>
      </trkpt>
      <trkpt lat="47.26631" lon="-1.43019">
        <ele>57</ele>
        <time>2022-05-08T11:27:22Z</time>
      </trkpt>
      <trkpt lat="47.26624" lon="-1.43034">
        <ele>57</ele>
        <time>2022-05-08T11:27:24Z</time>
      </trkpt>
      <trkpt lat="47.26616" lon="-1.43051">
        <ele>58</ele>
        <time>2022-05-08T11:27:26Z</time>
      </trkpt>
      <trkpt lat="47.26608" lon="-1.43066">
        <ele>57</ele>
        <time>2022-05-08T11:27:28Z</time>
      </trkpt>
      <trkpt lat="47.26599" lon="-1.43081">
        <ele>57</ele>
        <time>2022-05-08T11:27:30Z</time>
      </trkpt>
      <trkpt lat="47.2659" lon="-1.43095">
        <ele>57</ele>
        <time>2022-05-08T11:27:32Z</time>
      </trkpt>
      <trkpt lat="47.26582" lon="-1.43112">
        <ele>57</ele>
        <time>2022-05-08T11:27:34Z</time>
      </trkpt>
      <trkpt lat="47.26574" lon="-1.43127">
        <ele>58</ele>
        <time>2022-05-08T11:27:36Z</time>
      </trkpt>
      <trkpt lat="47.26565" lon="-1.43141">
        <ele>59</ele>
        <time>2022-05-08T11:27:38Z</time>
      </trkpt>
      <trkpt lat="47.26556" lon="-1.43155">
        <ele>59</ele>
        <time>2022-05-08T11:27:40Z</time>
      </trkpt>
      <trkpt lat="47.26546" lon="-1.43169">
        <ele>59</ele>
        <time>2022-05-08T11:27:42Z</time>
      </trkpt>
      <trkpt lat="47.26537" lon="-1.43183">
        <ele>58</ele>
        <time>2022-05-08T11:27:44Z</time>
      </trkpt>
      <trkpt lat="47.26527" lon="-1.43197">
        <ele>58</ele>
        <time>2022-05-08T11:27:46Z</time>
      </trkpt>
      <trkpt lat="47.26518" lon="-1.4321">
        <ele>58</ele>
        <time>2022-05-08T11:27:48Z</time>
      </trkpt>
      <trkpt lat="47.26509" lon="-1.43222">
        <ele>59</ele>
        <time>2022-05-08T11:27:50Z</time>
      </trkpt>
      <trkpt lat="47.265" lon="-1.43234">
        <ele>59</ele>
        <time>2022-05-08T11:27:52Z</time>
      </trkpt>
      <trkpt lat="47.2649" lon="-1.43246">
        <ele>59</ele>
        <time>2022-05-08T11:27:54Z</time>
      </trkpt>
      <trkpt lat="47.2648" lon="-1.43259">
        <ele>59</ele>
        <time>2022-05-08T11:27:56Z</time>
      </trkpt>
      <trkpt lat="47.26472" lon="-1.43271">
        <ele>60</ele>
        <time>2022-05-08T11:27:58Z</time>
      </trkpt>
      <trkpt lat="47.26463" lon="-1.43284">
        <ele>60</ele>
        <time>2022-05-08T11:28:00Z</time>
      </trkpt>
      <trkpt lat="47.26454" lon="-1.43298">
        <ele>60</ele>
        <time>2022-05-08T11:28:02Z</time>
      </trkpt>
      <trkpt lat="47.26446" lon="-1.43313">
        <ele>59</ele>
        <time>2022-05-08T11:28:04Z</time>
      </trkpt>
      <trkpt lat="47.26437" lon="-1.43325">
        <ele>58</ele>
        <time>2022-05-08T11:28:06Z</time>
      </trkpt>
      <trkpt lat="47.26428" lon="-1.43338">
        <ele>58</ele>
        <time>2022-05-08T11:28:08Z</time>
      </trkpt>
      <trkpt lat="47.26418" lon="-1.43352">
        <ele>57</ele>
        <time>2022-05-08T11:28:10Z</time>
      </trkpt>
      <trkpt lat="47.26408" lon="-1.43364">
        <ele>57</ele>
        <time>2022-05-08T11:28:12Z</time>
      </trkpt>
      <trkpt lat="47.26398" lon="-1.43376">
        <ele>57</ele>
        <time>2022-05-08T11:28:14Z</time>
      </trkpt>
      <trkpt lat="47.26387" lon="-1.43388">
        <ele>57</ele>
        <time>2022-05-08T11:28:16Z</time>
      </trkpt>
      <trkpt lat="47.26377" lon="-1.43399">
        <ele>56</ele>
        <time>2022-05-08T11:28:18Z</time>
      </trkpt>
      <trkpt lat="47.26367" lon="-1.43411">
        <ele>56</ele>
        <time>2022-05-08T11:28:20Z</time>
      </trkpt>
      <trkpt lat="47.26356" lon="-1.43422">
        <ele>56</ele>
        <time>2022-05-08T11:28:22Z</time>
      </trkpt>
      <trkpt lat="47.26345" lon="-1.43433">
        <ele>55</ele>
        <time>2022-05-08T11:28:24Z</time>
      </trkpt>
      <trkpt lat="47.26335" lon="-1.43444">
        <ele>55</ele>
        <time>2022-05-08T11:28:26Z</time>
      </trkpt>
      <trkpt lat="47.26326" lon="-1.43454">
        <ele>55</ele>
        <time>2022-05-08T11:28:28Z</time>
      </trkpt>
      <trkpt lat="47.26315" lon="-1.43465">
        <ele>55</ele>
        <time>2022-05-08T11:28:30Z</time>
      </trkpt>
      <trkpt lat="47.26306" lon="-1.43475">
        <ele>55</ele>
        <time>2022-05-08T11:28:32Z</time>
      </trkpt>
      <trkpt lat="47.26297" lon="-1.43483">
        <ele>55</ele>
        <time>2022-05-08T11:28:34Z</time>
      </trkpt>
      <trkpt lat="47.26287" lon="-1.4349">
        <ele>56</ele>
        <time>2022-05-08T11:28:36Z</time>
      </trkpt>
      <trkpt lat="47.26275" lon="-1.43493">
        <ele>56</ele>
        <time>2022-05-08T11:28:38Z</time>
      </trkpt>
      <trkpt lat="47.26264" lon="-1.43496">
        <ele>57</ele>
        <time>2022-05-08T11:28:40Z</time>
      </trkpt>
      <trkpt lat="47.26253" lon="-1.43504">
        <ele>57</ele>
        <time>2022-05-08T11:28:42Z</time>
      </trkpt>
      <trkpt lat="47.26242" lon="-1.43514">
        <ele>58</ele>
        <time>2022-05-08T11:28:44Z</time>
      </trkpt>
      <trkpt lat="47.26232" lon="-1.43525">
        <ele>58</ele>
        <time>2022-05-08T11:28:46Z</time>
      </trkpt>
      <trkpt lat="47.26223" lon="-1.43537">
        <ele>57</ele>
        <time>2022-05-08T11:28:48Z</time>
      </trkpt>
      <trkpt lat="47.26217" lon="-1.4355">
        <ele>58</ele>
        <time>2022-05-08T11:28:50Z</time>
      </trkpt>
      <trkpt lat="47.26216" lon="-1.43567">
        <ele>58</ele>
        <time>2022-05-08T11:28:52Z</time>
      </trkpt>
      <trkpt lat="47.26211" lon="-1.43584">
        <ele>58</ele>
        <time>2022-05-08T11:28:54Z</time>
      </trkpt>
      <trkpt lat="47.26202" lon="-1.43597">
        <ele>57</ele>
        <time>2022-05-08T11:28:56Z</time>
      </trkpt>
      <trkpt lat="47.26193" lon="-1.43611">
        <ele>57</ele>
        <time>2022-05-08T11:28:58Z</time>
      </trkpt>
      <trkpt lat="47.26185" lon="-1.43625">
        <ele>57</ele>
        <time>2022-05-08T11:29:00Z</time>
      </trkpt>
      <trkpt lat="47.26178" lon="-1.4364">
        <ele>57</ele>
        <time>2022-05-08T11:29:02Z</time>
      </trkpt>
      <trkpt lat="47.26169" lon="-1.43654">
        <ele>57</ele>
        <time>2022-05-08T11:29:04Z</time>
      </trkpt>
      <trkpt lat="47.2616" lon="-1.43669">
        <ele>56</ele>
        <time>2022-05-08T11:29:06Z</time>
      </trkpt>
      <trkpt lat="47.26151" lon="-1.43683">
        <ele>57</ele>
        <time>2022-05-08T11:29:08Z</time>
      </trkpt>
      <trkpt lat="47.26141" lon="-1.43696">
        <ele>56</ele>
        <time>2022-05-08T11:29:10Z</time>
      </trkpt>
      <trkpt lat="47.26133" lon="-1.43709">
        <ele>57</ele>
        <time>2022-05-08T11:29:12Z</time>
      </trkpt>
      <trkpt lat="47.26125" lon="-1.43722">
        <ele>57</ele>
        <time>2022-05-08T11:29:14Z</time>
      </trkpt>
      <trkpt lat="47.26117" lon="-1.43735">
        <ele>58</ele>
        <time>2022-05-08T11:29:16Z</time>
      </trkpt>
      <trkpt lat="47.26108" lon="-1.43747">
        <ele>58</ele>
        <time>2022-05-08T11:29:18Z</time>
      </trkpt>
      <trkpt lat="47.26098" lon="-1.43757">
        <ele>58</ele>
        <time>2022-05-08T11:29:20Z</time>
      </trkpt>
      <trkpt lat="47.26088" lon="-1.43768">
        <ele>58</ele>
        <time>2022-05-08T11:29:22Z</time>
      </trkpt>
      <trkpt lat="47.26078" lon="-1.4378">
        <ele>59</ele>
        <time>2022-05-08T11:29:24Z</time>
      </trkpt>
      <trkpt lat="47.26067" lon="-1.43792">
        <ele>59</ele>
        <time>2022-05-08T11:29:26Z</time>
      </trkpt>
      <trkpt lat="47.26058" lon="-1.43806">
        <ele>58</ele>
        <time>2022-05-08T11:29:28Z</time>
      </trkpt>
      <trkpt lat="47.2605" lon="-1.43822">
        <ele>59</ele>
        <time>2022-05-08T11:29:30Z</time>
      </trkpt>
      <trkpt lat="47.26043" lon="-1.43837">
        <ele>59</ele>
        <time>2022-05-08T11:29:32Z</time>
      </trkpt>
      <trkpt lat="47.26036" lon="-1.43853">
        <ele>60</ele>
        <time>2022-05-08T11:29:34Z</time>
      </trkpt>
      <trkpt lat="47.26027" lon="-1.43867">
        <ele>59</ele>
        <time>2022-05-08T11:29:36Z</time>
      </trkpt>
      <trkpt lat="47.26017" lon="-1.43878">
        <ele>59</ele>
        <time>2022-05-08T11:29:38Z</time>
      </trkpt>
      <trkpt lat="47.26008" lon="-1.43888">
        <ele>59</ele>
        <time>2022-05-08T11:29:40Z</time>
      </trkpt>
      <trkpt lat="47.25998" lon="-1.43898">
        <ele>59</ele>
        <time>2022-05-08T11:29:42Z</time>
      </trkpt>
      <trkpt lat="47.25988" lon="-1.43909">
        <ele>60</ele>
        <time>2022-05-08T11:29:44Z</time>
      </trkpt>
      <trkpt lat="47.25978" lon="-1.4392">
        <ele>60</ele>
        <time>2022-05-08T11:29:46Z</time>
      </trkpt>
      <trkpt lat="47.25968" lon="-1.43932">
        <ele>60</ele>
        <time>2022-05-08T11:29:48Z</time>
      </trkpt>
      <trkpt lat="47.25957" lon="-1.43943">
        <ele>60</ele>
        <time>2022-05-08T11:29:50Z</time>
      </trkpt>
      <trkpt lat="47.25948" lon="-1.43954">
        <ele>60</ele>
        <time>2022-05-08T11:29:52Z</time>
      </trkpt>
      <trkpt lat="47.25939" lon="-1.43966">
        <ele>61</ele>
        <time>2022-05-08T11:29:54Z</time>
      </trkpt>
      <trkpt lat="47.25929" lon="-1.43976">
        <ele>61</ele>
        <time>2022-05-08T11:29:56Z</time>
      </trkpt>
      <trkpt lat="47.25919" lon="-1.43988">
        <ele>62</ele>
        <time>2022-05-08T11:29:58Z</time>
      </trkpt>
      <trkpt lat="47.25909" lon="-1.43999">
        <ele>62</ele>
        <time>2022-05-08T11:30:00Z</time>
      </trkpt>
      <trkpt lat="47.25898" lon="-1.44011">
        <ele>62</ele>
        <time>2022-05-08T11:30:02Z</time>
      </trkpt>
      <trkpt lat="47.25888" lon="-1.44023">
        <ele>62</ele>
        <time>2022-05-08T11:30:04Z</time>
      </trkpt>
      <trkpt lat="47.25879" lon="-1.44036">
        <ele>61</ele>
        <time>2022-05-08T11:30:06Z</time>
      </trkpt>
      <trkpt lat="47.25873" lon="-1.44053">
        <ele>61</ele>
        <time>2022-05-08T11:30:08Z</time>
      </trkpt>
      <trkpt lat="47.25868" lon="-1.4407">
        <ele>60</ele>
        <time>2022-05-08T11:30:10Z</time>
      </trkpt>
      <trkpt lat="47.2586" lon="-1.44085">
        <ele>60</ele>
        <time>2022-05-08T11:30:12Z</time>
      </trkpt>
      <trkpt lat="47.25852" lon="-1.44098">
        <ele>60</ele>
        <time>2022-05-08T11:30:14Z</time>
      </trkpt>
      <trkpt lat="47.25842" lon="-1.44109">
        <ele>59</ele>
        <time>2022-05-08T11:30:16Z</time>
      </trkpt>
      <trkpt lat="47.25832" lon="-1.44119">
        <ele>59</ele>
        <time>2022-05-08T11:30:18Z</time>
      </trkpt>
      <trkpt lat="47.25823" lon="-1.44131">
        <ele>59</ele>
        <time>2022-05-08T11:30:20Z</time>
      </trkpt>
      <trkpt lat="47.25812" lon="-1.44142">
        <ele>59</ele>
        <time>2022-05-08T11:30:22Z</time>
      </trkpt>
      <trkpt lat="47.25802" lon="-1.44154">
        <ele>59</ele>
        <time>2022-05-08T11:30:24Z</time>
      </trkpt>
      <trkpt lat="47.25792" lon="-1.44165">
        <ele>59</ele>
        <time>2022-05-08T11:30:26Z</time>
      </trkpt>
      <trkpt lat="47.25782" lon="-1.44176">
        <ele>59</ele>
        <time>2022-05-08T11:30:28Z</time>
      </trkpt>
      <trkpt lat="47.25773" lon="-1.44188">
        <ele>58</ele>
        <time>2022-05-08T11:30:30Z</time>
      </trkpt>
      <trkpt lat="47.25763" lon="-1.442">
        <ele>58</ele>
        <time>2022-05-08T11:30:32Z</time>
      </trkpt>
      <trkpt lat="47.25754" lon="-1.44212">
        <ele>58</ele>
        <time>2022-05-08T11:30:34Z</time>
      </trkpt>
      <trkpt lat="47.25745" lon="-1.44224">
        <ele>58</ele>
        <time>2022-05-08T11:30:36Z</time>
      </trkpt>
      <trkpt lat="47.25736" lon="-1.44236">
        <ele>58</ele>
        <time>2022-05-08T11:30:38Z</time>
      </trkpt>
      <trkpt lat="47.25726" lon="-1.44248">
        <ele>57</ele>
        <time>2022-05-08T11:30:40Z</time>
      </trkpt>
      <trkpt lat="47.25717" lon="-1.44259">
        <ele>58</ele>
        <time>2022-05-08T11:30:42Z</time>
      </trkpt>
      <trkpt lat="47.25707" lon="-1.44271">
        <ele>58</ele>
        <time>2022-05-08T11:30:44Z</time>
      </trkpt>
      <trkpt lat="47.25697" lon="-1.44282">
        <ele>57</ele>
        <time>2022-05-08T11:30:46Z</time>
      </trkpt>
      <trkpt lat="47.25687" lon="-1.44294">
        <ele>57</ele>
        <time>2022-05-08T11:30:48Z</time>
      </trkpt>
      <trkpt lat="47.25678" lon="-1.44305">
        <ele>57</ele>
        <time>2022-05-08T11:30:50Z</time>
      </trkpt>
      <trkpt lat="47.25669" lon="-1.44317">
        <ele>57</ele>
        <time>2022-05-08T11:30:52Z</time>
      </trkpt>
      <trkpt lat="47.2566" lon="-1.44328">
        <ele>58</ele>
        <time>2022-05-08T11:30:54Z</time>
      </trkpt>
      <trkpt lat="47.2565" lon="-1.44339">
        <ele>58</ele>
        <time>2022-05-08T11:30:56Z</time>
      </trkpt>
      <trkpt lat="47.2564" lon="-1.44349">
        <ele>59</ele>
        <time>2022-05-08T11:30:58Z</time>
      </trkpt>
      <trkpt lat="47.2563" lon="-1.4436">
        <ele>59</ele>
        <time>2022-05-08T11:31:00Z</time>
      </trkpt>
      <trkpt lat="47.2562" lon="-1.44372">
        <ele>59</ele>
        <time>2022-05-08T11:31:02Z</time>
      </trkpt>
      <trkpt lat="47.2561" lon="-1.44383">
        <ele>59</ele>
        <time>2022-05-08T11:31:04Z</time>
      </trkpt>
      <trkpt lat="47.256" lon="-1.44395">
        <ele>58</ele>
        <time>2022-05-08T11:31:06Z</time>
      </trkpt>
      <trkpt lat="47.2559" lon="-1.44406">
        <ele>58</ele>
        <time>2022-05-08T11:31:08Z</time>
      </trkpt>
      <trkpt lat="47.2558" lon="-1.44419">
        <ele>58</ele>
        <time>2022-05-08T11:31:10Z</time>
      </trkpt>
      <trkpt lat="47.25571" lon="-1.44431">
        <ele>58</ele>
        <time>2022-05-08T11:31:12Z</time>
      </trkpt>
      <trkpt lat="47.25561" lon="-1.44442">
        <ele>58</ele>
        <time>2022-05-08T11:31:14Z</time>
      </trkpt>
      <trkpt lat="47.25552" lon="-1.44454">
        <ele>58</ele>
        <time>2022-05-08T11:31:16Z</time>
      </trkpt>
      <trkpt lat="47.25543" lon="-1.44468">
        <ele>59</ele>
        <time>2022-05-08T11:31:18Z</time>
      </trkpt>
      <trkpt lat="47.25534" lon="-1.44482">
        <ele>59</ele>
        <time>2022-05-08T11:31:20Z</time>
      </trkpt>
      <trkpt lat="47.25526" lon="-1.44496">
        <ele>59</ele>
        <time>2022-05-08T11:31:22Z</time>
      </trkpt>
      <trkpt lat="47.25517" lon="-1.4451">
        <ele>58</ele>
        <time>2022-05-08T11:31:24Z</time>
      </trkpt>
      <trkpt lat="47.25508" lon="-1.44524">
        <ele>58</ele>
        <time>2022-05-08T11:31:26Z</time>
      </trkpt>
      <trkpt lat="47.25498" lon="-1.44537">
        <ele>57</ele>
        <time>2022-05-08T11:31:28Z</time>
      </trkpt>
      <trkpt lat="47.25488" lon="-1.44551">
        <ele>57</ele>
        <time>2022-05-08T11:31:30Z</time>
      </trkpt>
      <trkpt lat="47.25479" lon="-1.44564">
        <ele>56</ele>
        <time>2022-05-08T11:31:32Z</time>
      </trkpt>
      <trkpt lat="47.2547" lon="-1.44578">
        <ele>56</ele>
        <time>2022-05-08T11:31:34Z</time>
      </trkpt>
      <trkpt lat="47.25462" lon="-1.44592">
        <ele>56</ele>
        <time>2022-05-08T11:31:36Z</time>
      </trkpt>
      <trkpt lat="47.25453" lon="-1.44605">
        <ele>56</ele>
        <time>2022-05-08T11:31:38Z</time>
      </trkpt>
      <trkpt lat="47.25444" lon="-1.44618">
        <ele>56</ele>
        <time>2022-05-08T11:31:40Z</time>
      </trkpt>
      <trkpt lat="47.25434" lon="-1.44629">
        <ele>57</ele>
        <time>2022-05-08T11:31:42Z</time>
      </trkpt>
      <trkpt lat="47.25425" lon="-1.44642">
        <ele>57</ele>
        <time>2022-05-08T11:31:44Z</time>
      </trkpt>
      <trkpt lat="47.25415" lon="-1.44654">
        <ele>57</ele>
        <time>2022-05-08T11:31:46Z</time>
      </trkpt>
      <trkpt lat="47.25406" lon="-1.44666">
        <ele>57</ele>
        <time>2022-05-08T11:31:48Z</time>
      </trkpt>
      <trkpt lat="47.25396" lon="-1.44679">
        <ele>56</ele>
        <time>2022-05-08T11:31:50Z</time>
      </trkpt>
      <trkpt lat="47.25387" lon="-1.44691">
        <ele>57</ele>
        <time>2022-05-08T11:31:52Z</time>
      </trkpt>
      <trkpt lat="47.25377" lon="-1.44703">
        <ele>56</ele>
        <time>2022-05-08T11:31:54Z</time>
      </trkpt>
      <trkpt lat="47.25367" lon="-1.44715">
        <ele>56</ele>
        <time>2022-05-08T11:31:56Z</time>
      </trkpt>
      <trkpt lat="47.25356" lon="-1.44726">
        <ele>56</ele>
        <time>2022-05-08T11:31:58Z</time>
      </trkpt>
      <trkpt lat="47.25346" lon="-1.44736">
        <ele>56</ele>
        <time>2022-05-08T11:32:00Z</time>
      </trkpt>
      <trkpt lat="47.25335" lon="-1.44747">
        <ele>56</ele>
        <time>2022-05-08T11:32:02Z</time>
      </trkpt>
      <trkpt lat="47.25325" lon="-1.44757">
        <ele>56</ele>
        <time>2022-05-08T11:32:04Z</time>
      </trkpt>
      <trkpt lat="47.25315" lon="-1.44768">
        <ele>56</ele>
        <time>2022-05-08T11:32:06Z</time>
      </trkpt>
      <trkpt lat="47.25305" lon="-1.44779">
        <ele>56</ele>
        <time>2022-05-08T11:32:08Z</time>
      </trkpt>
      <trkpt lat="47.25295" lon="-1.4479">
        <ele>57</ele>
        <time>2022-05-08T11:32:10Z</time>
      </trkpt>
      <trkpt lat="47.25285" lon="-1.44801">
        <ele>57</ele>
        <time>2022-05-08T11:32:12Z</time>
      </trkpt>
      <trkpt lat="47.25276" lon="-1.44812">
        <ele>57</ele>
        <time>2022-05-08T11:32:14Z</time>
      </trkpt>
      <trkpt lat="47.25266" lon="-1.44824">
        <ele>57</ele>
        <time>2022-05-08T11:32:16Z</time>
      </trkpt>
      <trkpt lat="47.25256" lon="-1.44836">
        <ele>57</ele>
        <time>2022-05-08T11:32:18Z</time>
      </trkpt>
      <trkpt lat="47.25245" lon="-1.44848">
        <ele>57</ele>
        <time>2022-05-08T11:32:20Z</time>
      </trkpt>
      <trkpt lat="47.25235" lon="-1.4486">
        <ele>57</ele>
        <time>2022-05-08T11:32:22Z</time>
      </trkpt>
      <trkpt lat="47.25225" lon="-1.4487">
        <ele>57</ele>
        <time>2022-05-08T11:32:24Z</time>
      </trkpt>
      <trkpt lat="47.25213" lon="-1.44879">
        <ele>57</ele>
        <time>2022-05-08T11:32:26Z</time>
      </trkpt>
      <trkpt lat="47.25202" lon="-1.44889">
        <ele>58</ele>
        <time>2022-05-08T11:32:28Z</time>
      </trkpt>
      <trkpt lat="47.2519" lon="-1.44897">
        <ele>59</ele>
        <time>2022-05-08T11:32:30Z</time>
      </trkpt>
      <trkpt lat="47.25179" lon="-1.44905">
        <ele>59</ele>
        <time>2022-05-08T11:32:32Z</time>
      </trkpt>
      <trkpt lat="47.25167" lon="-1.44914">
        <ele>59</ele>
        <time>2022-05-08T11:32:34Z</time>
      </trkpt>
      <trkpt lat="47.25157" lon="-1.44925">
        <ele>59</ele>
        <time>2022-05-08T11:32:36Z</time>
      </trkpt>
      <trkpt lat="47.25146" lon="-1.44935">
        <ele>58</ele>
        <time>2022-05-08T11:32:38Z</time>
      </trkpt>
      <trkpt lat="47.25136" lon="-1.44945">
        <ele>58</ele>
        <time>2022-05-08T11:32:40Z</time>
      </trkpt>
      <trkpt lat="47.25125" lon="-1.44956">
        <ele>59</ele>
        <time>2022-05-08T11:32:42Z</time>
      </trkpt>
      <trkpt lat="47.25115" lon="-1.44966">
        <ele>58</ele>
        <time>2022-05-08T11:32:44Z</time>
      </trkpt>
      <trkpt lat="47.25104" lon="-1.44976">
        <ele>59</ele>
        <time>2022-05-08T11:32:46Z</time>
      </trkpt>
      <trkpt lat="47.25094" lon="-1.44985">
        <ele>59</ele>
        <time>2022-05-08T11:32:48Z</time>
      </trkpt>
      <trkpt lat="47.25083" lon="-1.44993">
        <ele>59</ele>
        <time>2022-05-08T11:32:50Z</time>
      </trkpt>
      <trkpt lat="47.25072" lon="-1.45001">
        <ele>59</ele>
        <time>2022-05-08T11:32:52Z</time>
      </trkpt>
      <trkpt lat="47.2506" lon="-1.45009">
        <ele>59</ele>
        <time>2022-05-08T11:32:54Z</time>
      </trkpt>
      <trkpt lat="47.25049" lon="-1.45016">
        <ele>59</ele>
        <time>2022-05-08T11:32:56Z</time>
      </trkpt>
      <trkpt lat="47.25038" lon="-1.45024">
        <ele>60</ele>
        <time>2022-05-08T11:32:58Z</time>
      </trkpt>
      <trkpt lat="47.25027" lon="-1.45034">
        <ele>60</ele>
        <time>2022-05-08T11:33:00Z</time>
      </trkpt>
      <trkpt lat="47.25016" lon="-1.45043">
        <ele>60</ele>
        <time>2022-05-08T11:33:02Z</time>
      </trkpt>
      <trkpt lat="47.25005" lon="-1.45053">
        <ele>59</ele>
        <time>2022-05-08T11:33:04Z</time>
      </trkpt>
      <trkpt lat="47.24995" lon="-1.45065">
        <ele>60</ele>
        <time>2022-05-08T11:33:06Z</time>
      </trkpt>
      <trkpt lat="47.24985" lon="-1.45077">
        <ele>60</ele>
        <time>2022-05-08T11:33:08Z</time>
      </trkpt>
      <trkpt lat="47.24976" lon="-1.45088">
        <ele>60</ele>
        <time>2022-05-08T11:33:10Z</time>
      </trkpt>
      <trkpt lat="47.24966" lon="-1.451">
        <ele>60</ele>
        <time>2022-05-08T11:33:12Z</time>
      </trkpt>
      <trkpt lat="47.24956" lon="-1.45111">
        <ele>61</ele>
        <time>2022-05-08T11:33:14Z</time>
      </trkpt>
      <trkpt lat="47.24946" lon="-1.45122">
        <ele>59</ele>
        <time>2022-05-08T11:33:16Z</time>
      </trkpt>
      <trkpt lat="47.24935" lon="-1.45131">
        <ele>59</ele>
        <time>2022-05-08T11:33:18Z</time>
      </trkpt>
      <trkpt lat="47.24925" lon="-1.45143">
        <ele>59</ele>
        <time>2022-05-08T11:33:20Z</time>
      </trkpt>
      <trkpt lat="47.24915" lon="-1.45154">
        <ele>59</ele>
        <time>2022-05-08T11:33:22Z</time>
      </trkpt>
      <trkpt lat="47.24905" lon="-1.45165">
        <ele>59</ele>
        <time>2022-05-08T11:33:24Z</time>
      </trkpt>
      <trkpt lat="47.24896" lon="-1.45176">
        <ele>58</ele>
        <time>2022-05-08T11:33:26Z</time>
      </trkpt>
      <trkpt lat="47.24887" lon="-1.45189">
        <ele>59</ele>
        <time>2022-05-08T11:33:28Z</time>
      </trkpt>
      <trkpt lat="47.24879" lon="-1.45202">
        <ele>59</ele>
        <time>2022-05-08T11:33:30Z</time>
      </trkpt>
      <trkpt lat="47.24871" lon="-1.45213">
        <ele>60</ele>
        <time>2022-05-08T11:33:32Z</time>
      </trkpt>
      <trkpt lat="47.24863" lon="-1.45227">
        <ele>60</ele>
        <time>2022-05-08T11:33:34Z</time>
      </trkpt>
      <trkpt lat="47.24855" lon="-1.4524">
        <ele>61</ele>
        <time>2022-05-08T11:33:36Z</time>
      </trkpt>
      <trkpt lat="47.24847" lon="-1.45254">
        <ele>61</ele>
        <time>2022-05-08T11:33:38Z</time>
      </trkpt>
      <trkpt lat="47.24838" lon="-1.45267">
        <ele>61</ele>
        <time>2022-05-08T11:33:40Z</time>
      </trkpt>
      <trkpt lat="47.24829" lon="-1.45281">
        <ele>60</ele>
        <time>2022-05-08T11:33:42Z</time>
      </trkpt>
      <trkpt lat="47.24823" lon="-1.45295">
        <ele>61</ele>
        <time>2022-05-08T11:33:44Z</time>
      </trkpt>
      <trkpt lat="47.24817" lon="-1.4531">
        <ele>61</ele>
        <time>2022-05-08T11:33:46Z</time>
      </trkpt>
      <trkpt lat="47.2481" lon="-1.45324">
        <ele>62</ele>
        <time>2022-05-08T11:33:48Z</time>
      </trkpt>
      <trkpt lat="47.24802" lon="-1.45339">
        <ele>62</ele>
        <time>2022-05-08T11:33:50Z</time>
      </trkpt>
      <trkpt lat="47.24795" lon="-1.45354">
        <ele>61</ele>
        <time>2022-05-08T11:33:52Z</time>
      </trkpt>
      <trkpt lat="47.24788" lon="-1.45368">
        <ele>61</ele>
        <time>2022-05-08T11:33:54Z</time>
      </trkpt>
      <trkpt lat="47.24781" lon="-1.45385">
        <ele>61</ele>
        <time>2022-05-08T11:33:56Z</time>
      </trkpt>
      <trkpt lat="47.24775" lon="-1.454">
        <ele>61</ele>
        <time>2022-05-08T11:33:58Z</time>
      </trkpt>
      <trkpt lat="47.24766" lon="-1.45423">
        <ele>61</ele>
        <time>2022-05-08T11:34:01Z</time>
      </trkpt>
      <trkpt lat="47.24757" lon="-1.45447">
        <ele>61</ele>
        <time>2022-05-08T11:34:04Z</time>
      </trkpt>
      <trkpt lat="47.24749" lon="-1.45472">
        <ele>61</ele>
        <time>2022-05-08T11:34:07Z</time>
      </trkpt>
      <trkpt lat="47.24742" lon="-1.45487">
        <ele>61</ele>
        <time>2022-05-08T11:34:09Z</time>
      </trkpt>
      <trkpt lat="47.24735" lon="-1.45502">
        <ele>60</ele>
        <time>2022-05-08T11:34:11Z</time>
      </trkpt>
      <trkpt lat="47.24729" lon="-1.45519">
        <ele>60</ele>
        <time>2022-05-08T11:34:13Z</time>
      </trkpt>
      <trkpt lat="47.24719" lon="-1.45544">
        <ele>58</ele>
        <time>2022-05-08T11:34:16Z</time>
      </trkpt>
      <trkpt lat="47.24711" lon="-1.45569">
        <ele>58</ele>
        <time>2022-05-08T11:34:19Z</time>
      </trkpt>
      <trkpt lat="47.24706" lon="-1.45586">
        <ele>57</ele>
        <time>2022-05-08T11:34:21Z</time>
      </trkpt>
      <trkpt lat="47.247" lon="-1.45602">
        <ele>57</ele>
        <time>2022-05-08T11:34:23Z</time>
      </trkpt>
      <trkpt lat="47.24694" lon="-1.45619">
        <ele>57</ele>
        <time>2022-05-08T11:34:25Z</time>
      </trkpt>
      <trkpt lat="47.24689" lon="-1.45636">
        <ele>57</ele>
        <time>2022-05-08T11:34:27Z</time>
      </trkpt>
      <trkpt lat="47.24684" lon="-1.45652">
        <ele>57</ele>
        <time>2022-05-08T11:34:29Z</time>
      </trkpt>
      <trkpt lat="47.24679" lon="-1.45667">
        <ele>58</ele>
        <time>2022-05-08T11:34:31Z</time>
      </trkpt>
      <trkpt lat="47.24676" lon="-1.45682">
        <ele>58</ele>
        <time>2022-05-08T11:34:33Z</time>
      </trkpt>
      <trkpt lat="47.24673" lon="-1.45698">
        <ele>59</ele>
        <time>2022-05-08T11:34:35Z</time>
      </trkpt>
      <trkpt lat="47.24669" lon="-1.45715">
        <ele>59</ele>
        <time>2022-05-08T11:34:37Z</time>
      </trkpt>
      <trkpt lat="47.24665" lon="-1.45733">
        <ele>59</ele>
        <time>2022-05-08T11:34:39Z</time>
      </trkpt>
      <trkpt lat="47.2466" lon="-1.45751">
        <ele>59</ele>
        <time>2022-05-08T11:34:41Z</time>
      </trkpt>
      <trkpt lat="47.24656" lon="-1.45768">
        <ele>59</ele>
        <time>2022-05-08T11:34:43Z</time>
      </trkpt>
      <trkpt lat="47.24651" lon="-1.45784">
        <ele>59</ele>
        <time>2022-05-08T11:34:45Z</time>
      </trkpt>
      <trkpt lat="47.24646" lon="-1.45799">
        <ele>59</ele>
        <time>2022-05-08T11:34:47Z</time>
      </trkpt>
      <trkpt lat="47.24641" lon="-1.45815">
        <ele>59</ele>
        <time>2022-05-08T11:34:49Z</time>
      </trkpt>
      <trkpt lat="47.24636" lon="-1.45831">
        <ele>60</ele>
        <time>2022-05-08T11:34:51Z</time>
      </trkpt>
      <trkpt lat="47.24632" lon="-1.45847">
        <ele>60</ele>
        <time>2022-05-08T11:34:53Z</time>
      </trkpt>
      <trkpt lat="47.24627" lon="-1.45863">
        <ele>61</ele>
        <time>2022-05-08T11:34:55Z</time>
      </trkpt>
      <trkpt lat="47.24623" lon="-1.45882">
        <ele>62</ele>
        <time>2022-05-08T11:34:57Z</time>
      </trkpt>
      <trkpt lat="47.24619" lon="-1.45899">
        <ele>63</ele>
        <time>2022-05-08T11:34:59Z</time>
      </trkpt>
      <trkpt lat="47.24613" lon="-1.45915">
        <ele>63</ele>
        <time>2022-05-08T11:35:01Z</time>
      </trkpt>
      <trkpt lat="47.24608" lon="-1.45932">
        <ele>62</ele>
        <time>2022-05-08T11:35:03Z</time>
      </trkpt>
      <trkpt lat="47.24601" lon="-1.45948">
        <ele>62</ele>
        <time>2022-05-08T11:35:05Z</time>
      </trkpt>
      <trkpt lat="47.24594" lon="-1.45962">
        <ele>63</ele>
        <time>2022-05-08T11:35:07Z</time>
      </trkpt>
      <trkpt lat="47.24588" lon="-1.45976">
        <ele>63</ele>
        <time>2022-05-08T11:35:09Z</time>
      </trkpt>
      <trkpt lat="47.24581" lon="-1.45991">
        <ele>63</ele>
        <time>2022-05-08T11:35:11Z</time>
      </trkpt>
      <trkpt lat="47.24574" lon="-1.46006">
        <ele>62</ele>
        <time>2022-05-08T11:35:13Z</time>
      </trkpt>
      <trkpt lat="47.24568" lon="-1.46021">
        <ele>63</ele>
        <time>2022-05-08T11:35:15Z</time>
      </trkpt>
      <trkpt lat="47.24559" lon="-1.46035">
        <ele>64</ele>
        <time>2022-05-08T11:35:17Z</time>
      </trkpt>
      <trkpt lat="47.2455" lon="-1.46049">
        <ele>63</ele>
        <time>2022-05-08T11:35:19Z</time>
      </trkpt>
      <trkpt lat="47.24543" lon="-1.46063">
        <ele>64</ele>
        <time>2022-05-08T11:35:21Z</time>
      </trkpt>
      <trkpt lat="47.24537" lon="-1.46078">
        <ele>63</ele>
        <time>2022-05-08T11:35:23Z</time>
      </trkpt>
      <trkpt lat="47.24529" lon="-1.46092">
        <ele>64</ele>
        <time>2022-05-08T11:35:25Z</time>
      </trkpt>
      <trkpt lat="47.24522" lon="-1.46106">
        <ele>63</ele>
        <time>2022-05-08T11:35:27Z</time>
      </trkpt>
      <trkpt lat="47.24512" lon="-1.46116">
        <ele>63</ele>
        <time>2022-05-08T11:35:29Z</time>
      </trkpt>
      <trkpt lat="47.24502" lon="-1.46127">
        <ele>62</ele>
        <time>2022-05-08T11:35:31Z</time>
      </trkpt>
      <trkpt lat="47.24493" lon="-1.46138">
        <ele>62</ele>
        <time>2022-05-08T11:35:33Z</time>
      </trkpt>
      <trkpt lat="47.24484" lon="-1.4615">
        <ele>61</ele>
        <time>2022-05-08T11:35:35Z</time>
      </trkpt>
      <trkpt lat="47.24475" lon="-1.46161">
        <ele>61</ele>
        <time>2022-05-08T11:35:37Z</time>
      </trkpt>
      <trkpt lat="47.24465" lon="-1.46171">
        <ele>61</ele>
        <time>2022-05-08T11:35:39Z</time>
      </trkpt>
      <trkpt lat="47.24457" lon="-1.46183">
        <ele>61</ele>
        <time>2022-05-08T11:35:41Z</time>
      </trkpt>
      <trkpt lat="47.24448" lon="-1.46195">
        <ele>61</ele>
        <time>2022-05-08T11:35:43Z</time>
      </trkpt>
      <trkpt lat="47.24438" lon="-1.46209">
        <ele>61</ele>
        <time>2022-05-08T11:35:45Z</time>
      </trkpt>
      <trkpt lat="47.24429" lon="-1.46221">
        <ele>62</ele>
        <time>2022-05-08T11:35:47Z</time>
      </trkpt>
      <trkpt lat="47.2442" lon="-1.46232">
        <ele>62</ele>
        <time>2022-05-08T11:35:49Z</time>
      </trkpt>
      <trkpt lat="47.24411" lon="-1.46245">
        <ele>62</ele>
        <time>2022-05-08T11:35:51Z</time>
      </trkpt>
      <trkpt lat="47.24402" lon="-1.46257">
        <ele>62</ele>
        <time>2022-05-08T11:35:53Z</time>
      </trkpt>
      <trkpt lat="47.24393" lon="-1.46269">
        <ele>62</ele>
        <time>2022-05-08T11:35:55Z</time>
      </trkpt>
      <trkpt lat="47.24385" lon="-1.4628">
        <ele>63</ele>
        <time>2022-05-08T11:35:57Z</time>
      </trkpt>
      <trkpt lat="47.24376" lon="-1.46293">
        <ele>64</ele>
        <time>2022-05-08T11:35:59Z</time>
      </trkpt>
      <trkpt lat="47.24368" lon="-1.46306">
        <ele>63</ele>
        <time>2022-05-08T11:36:01Z</time>
      </trkpt>
      <trkpt lat="47.24359" lon="-1.46318">
        <ele>63</ele>
        <time>2022-05-08T11:36:03Z</time>
      </trkpt>
      <trkpt lat="47.24352" lon="-1.4633">
        <ele>63</ele>
        <time>2022-05-08T11:36:05Z</time>
      </trkpt>
      <trkpt lat="47.24344" lon="-1.46343">
        <ele>62</ele>
        <time>2022-05-08T11:36:07Z</time>
      </trkpt>
      <trkpt lat="47.24337" lon="-1.46357">
        <ele>62</ele>
        <time>2022-05-08T11:36:09Z</time>
      </trkpt>
      <trkpt lat="47.24329" lon="-1.4637">
        <ele>62</ele>
        <time>2022-05-08T11:36:11Z</time>
      </trkpt>
      <trkpt lat="47.24321" lon="-1.46383">
        <ele>61</ele>
        <time>2022-05-08T11:36:13Z</time>
      </trkpt>
      <trkpt lat="47.24313" lon="-1.46397">
        <ele>61</ele>
        <time>2022-05-08T11:36:15Z</time>
      </trkpt>
      <trkpt lat="47.24305" lon="-1.4641">
        <ele>61</ele>
        <time>2022-05-08T11:36:17Z</time>
      </trkpt>
      <trkpt lat="47.24298" lon="-1.46424">
        <ele>61</ele>
        <time>2022-05-08T11:36:19Z</time>
      </trkpt>
      <trkpt lat="47.2429" lon="-1.46437">
        <ele>62</ele>
        <time>2022-05-08T11:36:21Z</time>
      </trkpt>
      <trkpt lat="47.24282" lon="-1.4645">
        <ele>61</ele>
        <time>2022-05-08T11:36:23Z</time>
      </trkpt>
      <trkpt lat="47.24273" lon="-1.46462">
        <ele>61</ele>
        <time>2022-05-08T11:36:25Z</time>
      </trkpt>
      <trkpt lat="47.24264" lon="-1.46474">
        <ele>60</ele>
        <time>2022-05-08T11:36:27Z</time>
      </trkpt>
      <trkpt lat="47.24255" lon="-1.46485">
        <ele>61</ele>
        <time>2022-05-08T11:36:29Z</time>
      </trkpt>
      <trkpt lat="47.24246" lon="-1.46497">
        <ele>60</ele>
        <time>2022-05-08T11:36:31Z</time>
      </trkpt>
      <trkpt lat="47.24237" lon="-1.46508">
        <ele>61</ele>
        <time>2022-05-08T11:36:33Z</time>
      </trkpt>
      <trkpt lat="47.24227" lon="-1.4652">
        <ele>61</ele>
        <time>2022-05-08T11:36:35Z</time>
      </trkpt>
      <trkpt lat="47.24217" lon="-1.46531">
        <ele>60</ele>
        <time>2022-05-08T11:36:37Z</time>
      </trkpt>
      <trkpt lat="47.24208" lon="-1.46542">
        <ele>60</ele>
        <time>2022-05-08T11:36:39Z</time>
      </trkpt>
      <trkpt lat="47.24199" lon="-1.46554">
        <ele>60</ele>
        <time>2022-05-08T11:36:41Z</time>
      </trkpt>
      <trkpt lat="47.2419" lon="-1.46565">
        <ele>60</ele>
        <time>2022-05-08T11:36:43Z</time>
      </trkpt>
      <trkpt lat="47.24181" lon="-1.46577">
        <ele>59</ele>
        <time>2022-05-08T11:36:45Z</time>
      </trkpt>
      <trkpt lat="47.24171" lon="-1.46588">
        <ele>60</ele>
        <time>2022-05-08T11:36:47Z</time>
      </trkpt>
      <trkpt lat="47.24162" lon="-1.466">
        <ele>60</ele>
        <time>2022-05-08T11:36:49Z</time>
      </trkpt>
      <trkpt lat="47.24153" lon="-1.46612">
        <ele>61</ele>
        <time>2022-05-08T11:36:51Z</time>
      </trkpt>
      <trkpt lat="47.24144" lon="-1.46624">
        <ele>61</ele>
        <time>2022-05-08T11:36:53Z</time>
      </trkpt>
      <trkpt lat="47.24135" lon="-1.46636">
        <ele>60</ele>
        <time>2022-05-08T11:36:55Z</time>
      </trkpt>
      <trkpt lat="47.24127" lon="-1.46649">
        <ele>61</ele>
        <time>2022-05-08T11:36:57Z</time>
      </trkpt>
      <trkpt lat="47.24118" lon="-1.46662">
        <ele>60</ele>
        <time>2022-05-08T11:36:59Z</time>
      </trkpt>
      <trkpt lat="47.24108" lon="-1.46674">
        <ele>60</ele>
        <time>2022-05-08T11:37:01Z</time>
      </trkpt>
      <trkpt lat="47.24098" lon="-1.46687">
        <ele>60</ele>
        <time>2022-05-08T11:37:03Z</time>
      </trkpt>
      <trkpt lat="47.2409" lon="-1.467">
        <ele>60</ele>
        <time>2022-05-08T11:37:05Z</time>
      </trkpt>
      <trkpt lat="47.24084" lon="-1.46714">
        <ele>60</ele>
        <time>2022-05-08T11:37:07Z</time>
      </trkpt>
      <trkpt lat="47.24079" lon="-1.46729">
        <ele>60</ele>
        <time>2022-05-08T11:37:09Z</time>
      </trkpt>
      <trkpt lat="47.24069" lon="-1.4674">
        <ele>59</ele>
        <time>2022-05-08T11:37:11Z</time>
      </trkpt>
      <trkpt lat="47.24058" lon="-1.46748">
        <ele>59</ele>
        <time>2022-05-08T11:37:13Z</time>
      </trkpt>
      <trkpt lat="47.24048" lon="-1.46757">
        <ele>59</ele>
        <time>2022-05-08T11:37:15Z</time>
      </trkpt>
      <trkpt lat="47.24038" lon="-1.46767">
        <ele>59</ele>
        <time>2022-05-08T11:37:17Z</time>
      </trkpt>
      <trkpt lat="47.24027" lon="-1.46778">
        <ele>59</ele>
        <time>2022-05-08T11:37:19Z</time>
      </trkpt>
      <trkpt lat="47.24018" lon="-1.46789">
        <ele>59</ele>
        <time>2022-05-08T11:37:21Z</time>
      </trkpt>
      <trkpt lat="47.24008" lon="-1.46801">
        <ele>59</ele>
        <time>2022-05-08T11:37:23Z</time>
      </trkpt>
      <trkpt lat="47.23997" lon="-1.46812">
        <ele>59</ele>
        <time>2022-05-08T11:37:25Z</time>
      </trkpt>
      <trkpt lat="47.23987" lon="-1.46822">
        <ele>60</ele>
        <time>2022-05-08T11:37:27Z</time>
      </trkpt>
      <trkpt lat="47.23977" lon="-1.46834">
        <ele>60</ele>
        <time>2022-05-08T11:37:29Z</time>
      </trkpt>
      <trkpt lat="47.23966" lon="-1.46844">
        <ele>60</ele>
        <time>2022-05-08T11:37:31Z</time>
      </trkpt>
      <trkpt lat="47.23956" lon="-1.46854">
        <ele>60</ele>
        <time>2022-05-08T11:37:33Z</time>
      </trkpt>
      <trkpt lat="47.23946" lon="-1.46863">
        <ele>61</ele>
        <time>2022-05-08T11:37:35Z</time>
      </trkpt>
      <trkpt lat="47.23935" lon="-1.46871">
        <ele>61</ele>
        <time>2022-05-08T11:37:37Z</time>
      </trkpt>
      <trkpt lat="47.23924" lon="-1.46882">
        <ele>61</ele>
        <time>2022-05-08T11:37:39Z</time>
      </trkpt>
      <trkpt lat="47.23915" lon="-1.46892">
        <ele>60</ele>
        <time>2022-05-08T11:37:41Z</time>
      </trkpt>
      <trkpt lat="47.23906" lon="-1.46903">
        <ele>61</ele>
        <time>2022-05-08T11:37:43Z</time>
      </trkpt>
      <trkpt lat="47.23897" lon="-1.46914">
        <ele>60</ele>
        <time>2022-05-08T11:37:45Z</time>
      </trkpt>
      <trkpt lat="47.23888" lon="-1.46926">
        <ele>60</ele>
        <time>2022-05-08T11:37:47Z</time>
      </trkpt>
      <trkpt lat="47.23879" lon="-1.46938">
        <ele>60</ele>
        <time>2022-05-08T11:37:49Z</time>
      </trkpt>
      <trkpt lat="47.2387" lon="-1.4695">
        <ele>60</ele>
        <time>2022-05-08T11:37:51Z</time>
      </trkpt>
      <trkpt lat="47.2386" lon="-1.46963">
        <ele>60</ele>
        <time>2022-05-08T11:37:53Z</time>
      </trkpt>
      <trkpt lat="47.23851" lon="-1.46976">
        <ele>60</ele>
        <time>2022-05-08T11:37:55Z</time>
      </trkpt>
      <trkpt lat="47.23842" lon="-1.46988">
        <ele>60</ele>
        <time>2022-05-08T11:37:57Z</time>
      </trkpt>
      <trkpt lat="47.23834" lon="-1.47001">
        <ele>59</ele>
        <time>2022-05-08T11:37:59Z</time>
      </trkpt>
      <trkpt lat="47.23825" lon="-1.47014">
        <ele>59</ele>
        <time>2022-05-08T11:38:01Z</time>
      </trkpt>
      <trkpt lat="47.23816" lon="-1.47027">
        <ele>59</ele>
        <time>2022-05-08T11:38:03Z</time>
      </trkpt>
      <trkpt lat="47.23808" lon="-1.47039">
        <ele>59</ele>
        <time>2022-05-08T11:38:05Z</time>
      </trkpt>
      <trkpt lat="47.23799" lon="-1.47052">
        <ele>59</ele>
        <time>2022-05-08T11:38:07Z</time>
      </trkpt>
      <trkpt lat="47.2379" lon="-1.47064">
        <ele>59</ele>
        <time>2022-05-08T11:38:09Z</time>
      </trkpt>
      <trkpt lat="47.23781" lon="-1.47077">
        <ele>59</ele>
        <time>2022-05-08T11:38:11Z</time>
      </trkpt>
      <trkpt lat="47.23772" lon="-1.4709">
        <ele>59</ele>
        <time>2022-05-08T11:38:13Z</time>
      </trkpt>
      <trkpt lat="47.23763" lon="-1.47102">
        <ele>58</ele>
        <time>2022-05-08T11:38:15Z</time>
      </trkpt>
      <trkpt lat="47.23754" lon="-1.47115">
        <ele>58</ele>
        <time>2022-05-08T11:38:17Z</time>
      </trkpt>
      <trkpt lat="47.23744" lon="-1.47127">
        <ele>58</ele>
        <time>2022-05-08T11:38:19Z</time>
      </trkpt>
      <trkpt lat="47.23734" lon="-1.47137">
        <ele>58</ele>
        <time>2022-05-08T11:38:21Z</time>
      </trkpt>
      <trkpt lat="47.23725" lon="-1.47149">
        <ele>58</ele>
        <time>2022-05-08T11:38:23Z</time>
      </trkpt>
      <trkpt lat="47.23716" lon="-1.47162">
        <ele>58</ele>
        <time>2022-05-08T11:38:25Z</time>
      </trkpt>
      <trkpt lat="47.23707" lon="-1.47176">
        <ele>58</ele>
        <time>2022-05-08T11:38:27Z</time>
      </trkpt>
      <trkpt lat="47.23697" lon="-1.4719">
        <ele>59</ele>
        <time>2022-05-08T11:38:29Z</time>
      </trkpt>
      <trkpt lat="47.23688" lon="-1.47204">
        <ele>59</ele>
        <time>2022-05-08T11:38:31Z</time>
      </trkpt>
      <trkpt lat="47.23679" lon="-1.47219">
        <ele>59</ele>
        <time>2022-05-08T11:38:33Z</time>
      </trkpt>
      <trkpt lat="47.23669" lon="-1.47231">
        <ele>58</ele>
        <time>2022-05-08T11:38:35Z</time>
      </trkpt>
      <trkpt lat="47.23658" lon="-1.47243">
        <ele>58</ele>
        <time>2022-05-08T11:38:37Z</time>
      </trkpt>
      <trkpt lat="47.23647" lon="-1.47254">
        <ele>58</ele>
        <time>2022-05-08T11:38:39Z</time>
      </trkpt>
      <trkpt lat="47.23637" lon="-1.47266">
        <ele>58</ele>
        <time>2022-05-08T11:38:41Z</time>
      </trkpt>
      <trkpt lat="47.23627" lon="-1.47276">
        <ele>58</ele>
        <time>2022-05-08T11:38:43Z</time>
      </trkpt>
      <trkpt lat="47.23617" lon="-1.47288">
        <ele>58</ele>
        <time>2022-05-08T11:38:45Z</time>
      </trkpt>
      <trkpt lat="47.23606" lon="-1.47299">
        <ele>58</ele>
        <time>2022-05-08T11:38:47Z</time>
      </trkpt>
      <trkpt lat="47.23596" lon="-1.4731">
        <ele>58</ele>
        <time>2022-05-08T11:38:49Z</time>
      </trkpt>
      <trkpt lat="47.23585" lon="-1.47321">
        <ele>58</ele>
        <time>2022-05-08T11:38:51Z</time>
      </trkpt>
      <trkpt lat="47.23574" lon="-1.4733">
        <ele>59</ele>
        <time>2022-05-08T11:38:53Z</time>
      </trkpt>
      <trkpt lat="47.23563" lon="-1.4734">
        <ele>59</ele>
        <time>2022-05-08T11:38:55Z</time>
      </trkpt>
      <trkpt lat="47.23552" lon="-1.47348">
        <ele>59</ele>
        <time>2022-05-08T11:38:57Z</time>
      </trkpt>
      <trkpt lat="47.23541" lon="-1.47357">
        <ele>59</ele>
        <time>2022-05-08T11:38:59Z</time>
      </trkpt>
      <trkpt lat="47.2353" lon="-1.47366">
        <ele>59</ele>
        <time>2022-05-08T11:39:01Z</time>
      </trkpt>
      <trkpt lat="47.2352" lon="-1.47375">
        <ele>59</ele>
        <time>2022-05-08T11:39:03Z</time>
      </trkpt>
      <trkpt lat="47.23509" lon="-1.47384">
        <ele>59</ele>
        <time>2022-05-08T11:39:05Z</time>
      </trkpt>
      <trkpt lat="47.23498" lon="-1.47393">
        <ele>59</ele>
        <time>2022-05-08T11:39:07Z</time>
      </trkpt>
      <trkpt lat="47.23486" lon="-1.474">
        <ele>59</ele>
        <time>2022-05-08T11:39:09Z</time>
      </trkpt>
      <trkpt lat="47.23474" lon="-1.47406">
        <ele>59</ele>
        <time>2022-05-08T11:39:11Z</time>
      </trkpt>
      <trkpt lat="47.23461" lon="-1.47412">
        <ele>59</ele>
        <time>2022-05-08T11:39:13Z</time>
      </trkpt>
      <trkpt lat="47.23449" lon="-1.47417">
        <ele>58</ele>
        <time>2022-05-08T11:39:15Z</time>
      </trkpt>
      <trkpt lat="47.23437" lon="-1.47421">
        <ele>59</ele>
        <time>2022-05-08T11:39:17Z</time>
      </trkpt>
      <trkpt lat="47.23426" lon="-1.47426">
        <ele>59</ele>
        <time>2022-05-08T11:39:19Z</time>
      </trkpt>
      <trkpt lat="47.23415" lon="-1.47434">
        <ele>60</ele>
        <time>2022-05-08T11:39:21Z</time>
      </trkpt>
      <trkpt lat="47.23405" lon="-1.47443">
        <ele>60</ele>
        <time>2022-05-08T11:39:23Z</time>
      </trkpt>
      <trkpt lat="47.23393" lon="-1.4745">
        <ele>61</ele>
        <time>2022-05-08T11:39:25Z</time>
      </trkpt>
      <trkpt lat="47.23381" lon="-1.47456">
        <ele>61</ele>
        <time>2022-05-08T11:39:27Z</time>
      </trkpt>
      <trkpt lat="47.2337" lon="-1.47462">
        <ele>61</ele>
        <time>2022-05-08T11:39:29Z</time>
      </trkpt>
      <trkpt lat="47.23357" lon="-1.47467">
        <ele>61</ele>
        <time>2022-05-08T11:39:31Z</time>
      </trkpt>
      <trkpt lat="47.23346" lon="-1.47472">
        <ele>61</ele>
        <time>2022-05-08T11:39:33Z</time>
      </trkpt>
      <trkpt lat="47.23335" lon="-1.47477">
        <ele>61</ele>
        <time>2022-05-08T11:39:35Z</time>
      </trkpt>
      <trkpt lat="47.23325" lon="-1.47484">
        <ele>61</ele>
        <time>2022-05-08T11:39:37Z</time>
      </trkpt>
      <trkpt lat="47.23314" lon="-1.47496">
        <ele>61</ele>
        <time>2022-05-08T11:39:39Z</time>
      </trkpt>
      <trkpt lat="47.23303" lon="-1.47504">
        <ele>61</ele>
        <time>2022-05-08T11:39:41Z</time>
      </trkpt>
      <trkpt lat="47.23291" lon="-1.47511">
        <ele>60</ele>
        <time>2022-05-08T11:39:43Z</time>
      </trkpt>
      <trkpt lat="47.23279" lon="-1.47518">
        <ele>59</ele>
        <time>2022-05-08T11:39:45Z</time>
      </trkpt>
      <trkpt lat="47.23269" lon="-1.47525">
        <ele>60</ele>
        <time>2022-05-08T11:39:47Z</time>
      </trkpt>
      <trkpt lat="47.2326" lon="-1.47537">
        <ele>60</ele>
        <time>2022-05-08T11:39:49Z</time>
      </trkpt>
      <trkpt lat="47.23252" lon="-1.47551">
        <ele>60</ele>
        <time>2022-05-08T11:39:51Z</time>
      </trkpt>
      <trkpt lat="47.23244" lon="-1.47566">
        <ele>59</ele>
        <time>2022-05-08T11:39:53Z</time>
      </trkpt>
      <trkpt lat="47.23236" lon="-1.4758">
        <ele>59</ele>
        <time>2022-05-08T11:39:55Z</time>
      </trkpt>
      <trkpt lat="47.23229" lon="-1.47594">
        <ele>59</ele>
        <time>2022-05-08T11:39:57Z</time>
      </trkpt>
      <trkpt lat="47.23222" lon="-1.47609">
        <ele>60</ele>
        <time>2022-05-08T11:39:59Z</time>
      </trkpt>
      <trkpt lat="47.23216" lon="-1.47624">
        <ele>60</ele>
        <time>2022-05-08T11:40:01Z</time>
      </trkpt>
      <trkpt lat="47.2321" lon="-1.47639">
        <ele>60</ele>
        <time>2022-05-08T11:40:03Z</time>
      </trkpt>
      <trkpt lat="47.23204" lon="-1.47653">
        <ele>60</ele>
        <time>2022-05-08T11:40:05Z</time>
      </trkpt>
      <trkpt lat="47.23198" lon="-1.47668">
        <ele>60</ele>
        <time>2022-05-08T11:40:07Z</time>
      </trkpt>
      <trkpt lat="47.23193" lon="-1.47681">
        <ele>60</ele>
        <time>2022-05-08T11:40:09Z</time>
      </trkpt>
      <trkpt lat="47.23187" lon="-1.47694">
        <ele>60</ele>
        <time>2022-05-08T11:40:11Z</time>
      </trkpt>
      <trkpt lat="47.23179" lon="-1.47709">
        <ele>61</ele>
        <time>2022-05-08T11:40:13Z</time>
      </trkpt>
      <trkpt lat="47.23173" lon="-1.47727">
        <ele>60</ele>
        <time>2022-05-08T11:40:15Z</time>
      </trkpt>
      <trkpt lat="47.23166" lon="-1.47745">
        <ele>59</ele>
        <time>2022-05-08T11:40:17Z</time>
      </trkpt>
      <trkpt lat="47.23158" lon="-1.47762">
        <ele>59</ele>
        <time>2022-05-08T11:40:19Z</time>
      </trkpt>
      <trkpt lat="47.23151" lon="-1.47779">
        <ele>59</ele>
        <time>2022-05-08T11:40:21Z</time>
      </trkpt>
      <trkpt lat="47.23144" lon="-1.47796">
        <ele>59</ele>
        <time>2022-05-08T11:40:23Z</time>
      </trkpt>
      <trkpt lat="47.23138" lon="-1.47813">
        <ele>59</ele>
        <time>2022-05-08T11:40:25Z</time>
      </trkpt>
      <trkpt lat="47.23131" lon="-1.47829">
        <ele>59</ele>
        <time>2022-05-08T11:40:27Z</time>
      </trkpt>
      <trkpt lat="47.23124" lon="-1.47846">
        <ele>59</ele>
        <time>2022-05-08T11:40:29Z</time>
      </trkpt>
      <trkpt lat="47.23115" lon="-1.47862">
        <ele>59</ele>
        <time>2022-05-08T11:40:31Z</time>
      </trkpt>
      <trkpt lat="47.23106" lon="-1.47876">
        <ele>58</ele>
        <time>2022-05-08T11:40:33Z</time>
      </trkpt>
      <trkpt lat="47.23096" lon="-1.47889">
        <ele>58</ele>
        <time>2022-05-08T11:40:35Z</time>
      </trkpt>
      <trkpt lat="47.23087" lon="-1.47902">
        <ele>58</ele>
        <time>2022-05-08T11:40:37Z</time>
      </trkpt>
      <trkpt lat="47.23078" lon="-1.47915">
        <ele>58</ele>
        <time>2022-05-08T11:40:39Z</time>
      </trkpt>
      <trkpt lat="47.23068" lon="-1.47928">
        <ele>58</ele>
        <time>2022-05-08T11:40:41Z</time>
      </trkpt>
      <trkpt lat="47.2306" lon="-1.47941">
        <ele>59</ele>
        <time>2022-05-08T11:40:43Z</time>
      </trkpt>
      <trkpt lat="47.2305" lon="-1.47953">
        <ele>60</ele>
        <time>2022-05-08T11:40:45Z</time>
      </trkpt>
      <trkpt lat="47.2304" lon="-1.47966">
        <ele>60</ele>
        <time>2022-05-08T11:40:47Z</time>
      </trkpt>
      <trkpt lat="47.2303" lon="-1.47979">
        <ele>60</ele>
        <time>2022-05-08T11:40:49Z</time>
      </trkpt>
      <trkpt lat="47.2302" lon="-1.47992">
        <ele>59</ele>
        <time>2022-05-08T11:40:51Z</time>
      </trkpt>
      <trkpt lat="47.23012" lon="-1.48005">
        <ele>59</ele>
        <time>2022-05-08T11:40:53Z</time>
      </trkpt>
      <trkpt lat="47.23003" lon="-1.4802">
        <ele>60</ele>
        <time>2022-05-08T11:40:55Z</time>
      </trkpt>
      <trkpt lat="47.22995" lon="-1.48034">
        <ele>59</ele>
        <time>2022-05-08T11:40:57Z</time>
      </trkpt>
      <trkpt lat="47.22987" lon="-1.48049">
        <ele>59</ele>
        <time>2022-05-08T11:40:59Z</time>
      </trkpt>
      <trkpt lat="47.22978" lon="-1.48063">
        <ele>59</ele>
        <time>2022-05-08T11:41:01Z</time>
      </trkpt>
      <trkpt lat="47.22969" lon="-1.48077">
        <ele>58</ele>
        <time>2022-05-08T11:41:03Z</time>
      </trkpt>
      <trkpt lat="47.2296" lon="-1.4809">
        <ele>58</ele>
        <time>2022-05-08T11:41:05Z</time>
      </trkpt>
      <trkpt lat="47.22952" lon="-1.48102">
        <ele>58</ele>
        <time>2022-05-08T11:41:07Z</time>
      </trkpt>
      <trkpt lat="47.22944" lon="-1.48111">
        <ele>59</ele>
        <time>2022-05-08T11:41:09Z</time>
      </trkpt>
      <trkpt lat="47.22932" lon="-1.48113">
        <ele>59</ele>
        <time>2022-05-08T11:41:11Z</time>
      </trkpt>
      <trkpt lat="47.2292" lon="-1.48117">
        <ele>59</ele>
        <time>2022-05-08T11:41:13Z</time>
      </trkpt>
      <trkpt lat="47.22907" lon="-1.48126">
        <ele>59</ele>
        <time>2022-05-08T11:41:15Z</time>
      </trkpt>
      <trkpt lat="47.22897" lon="-1.48138">
        <ele>59</ele>
        <time>2022-05-08T11:41:17Z</time>
      </trkpt>
      <trkpt lat="47.22887" lon="-1.4815">
        <ele>58</ele>
        <time>2022-05-08T11:41:19Z</time>
      </trkpt>
      <trkpt lat="47.22878" lon="-1.48164">
        <ele>58</ele>
        <time>2022-05-08T11:41:21Z</time>
      </trkpt>
      <trkpt lat="47.2287" lon="-1.48177">
        <ele>59</ele>
        <time>2022-05-08T11:41:23Z</time>
      </trkpt>
      <trkpt lat="47.22861" lon="-1.48189">
        <ele>60</ele>
        <time>2022-05-08T11:41:25Z</time>
      </trkpt>
      <trkpt lat="47.22852" lon="-1.48203">
        <ele>61</ele>
        <time>2022-05-08T11:41:27Z</time>
      </trkpt>
      <trkpt lat="47.22843" lon="-1.48217">
        <ele>61</ele>
        <time>2022-05-08T11:41:29Z</time>
      </trkpt>
      <trkpt lat="47.22834" lon="-1.48231">
        <ele>60</ele>
        <time>2022-05-08T11:41:31Z</time>
      </trkpt>
      <trkpt lat="47.22825" lon="-1.48244">
        <ele>61</ele>
        <time>2022-05-08T11:41:33Z</time>
      </trkpt>
      <trkpt lat="47.22816" lon="-1.48256">
        <ele>61</ele>
        <time>2022-05-08T11:41:35Z</time>
      </trkpt>
      <trkpt lat="47.22807" lon="-1.4827">
        <ele>61</ele>
        <time>2022-05-08T11:41:37Z</time>
      </trkpt>
      <trkpt lat="47.22798" lon="-1.48285">
        <ele>61</ele>
        <time>2022-05-08T11:41:39Z</time>
      </trkpt>
      <trkpt lat="47.22789" lon="-1.48299">
        <ele>61</ele>
        <time>2022-05-08T11:41:41Z</time>
      </trkpt>
      <trkpt lat="47.2278" lon="-1.48314">
        <ele>61</ele>
        <time>2022-05-08T11:41:43Z</time>
      </trkpt>
      <trkpt lat="47.22772" lon="-1.48327">
        <ele>61</ele>
        <time>2022-05-08T11:41:45Z</time>
      </trkpt>
      <trkpt lat="47.22763" lon="-1.48341">
        <ele>60</ele>
        <time>2022-05-08T11:41:47Z</time>
      </trkpt>
      <trkpt lat="47.22753" lon="-1.48354">
        <ele>60</ele>
        <time>2022-05-08T11:41:49Z</time>
      </trkpt>
      <trkpt lat="47.22744" lon="-1.48366">
        <ele>60</ele>
        <time>2022-05-08T11:41:51Z</time>
      </trkpt>
      <trkpt lat="47.22734" lon="-1.48379">
        <ele>59</ele>
        <time>2022-05-08T11:41:53Z</time>
      </trkpt>
      <trkpt lat="47.22726" lon="-1.48391">
        <ele>59</ele>
        <time>2022-05-08T11:41:55Z</time>
      </trkpt>
      <trkpt lat="47.22717" lon="-1.48403">
        <ele>59</ele>
        <time>2022-05-08T11:41:57Z</time>
      </trkpt>
      <trkpt lat="47.22709" lon="-1.48418">
        <ele>58</ele>
        <time>2022-05-08T11:41:59Z</time>
      </trkpt>
      <trkpt lat="47.22703" lon="-1.48435">
        <ele>59</ele>
        <time>2022-05-08T11:42:01Z</time>
      </trkpt>
      <trkpt lat="47.22697" lon="-1.48451">
        <ele>58</ele>
        <time>2022-05-08T11:42:03Z</time>
      </trkpt>
      <trkpt lat="47.22691" lon="-1.48468">
        <ele>58</ele>
        <time>2022-05-08T11:42:05Z</time>
      </trkpt>
      <trkpt lat="47.22684" lon="-1.48483">
        <ele>59</ele>
        <time>2022-05-08T11:42:07Z</time>
      </trkpt>
      <trkpt lat="47.22677" lon="-1.48499">
        <ele>58</ele>
        <time>2022-05-08T11:42:09Z</time>
      </trkpt>
      <trkpt lat="47.2267" lon="-1.48515">
        <ele>59</ele>
        <time>2022-05-08T11:42:11Z</time>
      </trkpt>
      <trkpt lat="47.22665" lon="-1.48532">
        <ele>59</ele>
        <time>2022-05-08T11:42:13Z</time>
      </trkpt>
      <trkpt lat="47.22659" lon="-1.4855">
        <ele>59</ele>
        <time>2022-05-08T11:42:15Z</time>
      </trkpt>
      <trkpt lat="47.22654" lon="-1.48568">
        <ele>58</ele>
        <time>2022-05-08T11:42:17Z</time>
      </trkpt>
      <trkpt lat="47.22647" lon="-1.48584">
        <ele>58</ele>
        <time>2022-05-08T11:42:19Z</time>
      </trkpt>
      <trkpt lat="47.22641" lon="-1.48598">
        <ele>59</ele>
        <time>2022-05-08T11:42:21Z</time>
      </trkpt>
      <trkpt lat="47.22634" lon="-1.48611">
        <ele>59</ele>
        <time>2022-05-08T11:42:23Z</time>
      </trkpt>
      <trkpt lat="47.22628" lon="-1.48626">
        <ele>60</ele>
        <time>2022-05-08T11:42:25Z</time>
      </trkpt>
      <trkpt lat="47.22621" lon="-1.48644">
        <ele>60</ele>
        <time>2022-05-08T11:42:27Z</time>
      </trkpt>
      <trkpt lat="47.22615" lon="-1.48661">
        <ele>61</ele>
        <time>2022-05-08T11:42:29Z</time>
      </trkpt>
      <trkpt lat="47.22609" lon="-1.48679">
        <ele>61</ele>
        <time>2022-05-08T11:42:31Z</time>
      </trkpt>
      <trkpt lat="47.22604" lon="-1.48698">
        <ele>61</ele>
        <time>2022-05-08T11:42:33Z</time>
      </trkpt>
      <trkpt lat="47.226" lon="-1.48717">
        <ele>60</ele>
        <time>2022-05-08T11:42:35Z</time>
      </trkpt>
      <trkpt lat="47.22596" lon="-1.48736">
        <ele>60</ele>
        <time>2022-05-08T11:42:37Z</time>
      </trkpt>
      <trkpt lat="47.22591" lon="-1.48753">
        <ele>61</ele>
        <time>2022-05-08T11:42:39Z</time>
      </trkpt>
      <trkpt lat="47.22586" lon="-1.4877">
        <ele>61</ele>
        <time>2022-05-08T11:42:41Z</time>
      </trkpt>
      <trkpt lat="47.22581" lon="-1.48787">
        <ele>60</ele>
        <time>2022-05-08T11:42:43Z</time>
      </trkpt>
      <trkpt lat="47.22575" lon="-1.48804">
        <ele>60</ele>
        <time>2022-05-08T11:42:45Z</time>
      </trkpt>
      <trkpt lat="47.22569" lon="-1.48821">
        <ele>60</ele>
        <time>2022-05-08T11:42:47Z</time>
      </trkpt>
      <trkpt lat="47.22565" lon="-1.48835">
        <ele>60</ele>
        <time>2022-05-08T11:42:49Z</time>
      </trkpt>
      <trkpt lat="47.22561" lon="-1.48848">
        <ele>61</ele>
        <time>2022-05-08T11:42:51Z</time>
      </trkpt>
      <trkpt lat="47.22558" lon="-1.48863">
        <ele>62</ele>
        <time>2022-05-08T11:42:53Z</time>
      </trkpt>
      <trkpt lat="47.22553" lon="-1.48877">
        <ele>62</ele>
        <time>2022-05-08T11:42:55Z</time>
      </trkpt>
      <trkpt lat="47.22547" lon="-1.48894">
        <ele>64</ele>
        <time>2022-05-08T11:42:57Z</time>
      </trkpt>
      <trkpt lat="47.22542" lon="-1.48915">
        <ele>63</ele>
        <time>2022-05-08T11:42:59Z</time>
      </trkpt>
      <trkpt lat="47.22535" lon="-1.48936">
        <ele>63</ele>
        <time>2022-05-08T11:43:01Z</time>
      </trkpt>
      <trkpt lat="47.22529" lon="-1.48954">
        <ele>63</ele>
        <time>2022-05-08T11:43:03Z</time>
      </trkpt>
      <trkpt lat="47.22523" lon="-1.48972">
        <ele>63</ele>
        <time>2022-05-08T11:43:05Z</time>
      </trkpt>
      <trkpt lat="47.22517" lon="-1.48989">
        <ele>63</ele>
        <time>2022-05-08T11:43:07Z</time>
      </trkpt>
      <trkpt lat="47.22511" lon="-1.49005">
        <ele>63</ele>
        <time>2022-05-08T11:43:09Z</time>
      </trkpt>
      <trkpt lat="47.22506" lon="-1.49021">
        <ele>63</ele>
        <time>2022-05-08T11:43:11Z</time>
      </trkpt>
      <trkpt lat="47.22501" lon="-1.49037">
        <ele>62</ele>
        <time>2022-05-08T11:43:13Z</time>
      </trkpt>
      <trkpt lat="47.22496" lon="-1.49054">
        <ele>63</ele>
        <time>2022-05-08T11:43:15Z</time>
      </trkpt>
      <trkpt lat="47.22491" lon="-1.49072">
        <ele>63</ele>
        <time>2022-05-08T11:43:17Z</time>
      </trkpt>
      <trkpt lat="47.22486" lon="-1.4909">
        <ele>63</ele>
        <time>2022-05-08T11:43:19Z</time>
      </trkpt>
      <trkpt lat="47.22482" lon="-1.49108">
        <ele>63</ele>
        <time>2022-05-08T11:43:21Z</time>
      </trkpt>
      <trkpt lat="47.22476" lon="-1.49127">
        <ele>64</ele>
        <time>2022-05-08T11:43:23Z</time>
      </trkpt>
      <trkpt lat="47.22471" lon="-1.49145">
        <ele>64</ele>
        <time>2022-05-08T11:43:25Z</time>
      </trkpt>
      <trkpt lat="47.22465" lon="-1.49163">
        <ele>65</ele>
        <time>2022-05-08T11:43:27Z</time>
      </trkpt>
      <trkpt lat="47.22457" lon="-1.4918">
        <ele>65</ele>
        <time>2022-05-08T11:43:29Z</time>
      </trkpt>
      <trkpt lat="47.2245" lon="-1.49196">
        <ele>65</ele>
        <time>2022-05-08T11:43:31Z</time>
      </trkpt>
      <trkpt lat="47.22444" lon="-1.49213">
        <ele>65</ele>
        <time>2022-05-08T11:43:33Z</time>
      </trkpt>
      <trkpt lat="47.22438" lon="-1.4923">
        <ele>64</ele>
        <time>2022-05-08T11:43:35Z</time>
      </trkpt>
      <trkpt lat="47.22432" lon="-1.49247">
        <ele>64</ele>
        <time>2022-05-08T11:43:37Z</time>
      </trkpt>
      <trkpt lat="47.22425" lon="-1.49263">
        <ele>64</ele>
        <time>2022-05-08T11:43:39Z</time>
      </trkpt>
      <trkpt lat="47.22417" lon="-1.49279">
        <ele>63</ele>
        <time>2022-05-08T11:43:41Z</time>
      </trkpt>
      <trkpt lat="47.22411" lon="-1.49296">
        <ele>63</ele>
        <time>2022-05-08T11:43:43Z</time>
      </trkpt>
      <trkpt lat="47.22406" lon="-1.49313">
        <ele>63</ele>
        <time>2022-05-08T11:43:45Z</time>
      </trkpt>
      <trkpt lat="47.224" lon="-1.4933">
        <ele>63</ele>
        <time>2022-05-08T11:43:47Z</time>
      </trkpt>
      <trkpt lat="47.22394" lon="-1.49346">
        <ele>63</ele>
        <time>2022-05-08T11:43:49Z</time>
      </trkpt>
      <trkpt lat="47.22384" lon="-1.49369">
        <ele>63</ele>
        <time>2022-05-08T11:43:52Z</time>
      </trkpt>
      <trkpt lat="47.22377" lon="-1.49385">
        <ele>63</ele>
        <time>2022-05-08T11:43:54Z</time>
      </trkpt>
      <trkpt lat="47.2237" lon="-1.494">
        <ele>63</ele>
        <time>2022-05-08T11:43:56Z</time>
      </trkpt>
      <trkpt lat="47.22364" lon="-1.49416">
        <ele>63</ele>
        <time>2022-05-08T11:43:58Z</time>
      </trkpt>
      <trkpt lat="47.22357" lon="-1.4943">
        <ele>62</ele>
        <time>2022-05-08T11:44:00Z</time>
      </trkpt>
      <trkpt lat="47.22352" lon="-1.49447">
        <ele>63</ele>
        <time>2022-05-08T11:44:02Z</time>
      </trkpt>
      <trkpt lat="47.22346" lon="-1.49464">
        <ele>63</ele>
        <time>2022-05-08T11:44:04Z</time>
      </trkpt>
      <trkpt lat="47.2234" lon="-1.49489">
        <ele>64</ele>
        <time>2022-05-08T11:44:07Z</time>
      </trkpt>
      <trkpt lat="47.22335" lon="-1.49506">
        <ele>64</ele>
        <time>2022-05-08T11:44:09Z</time>
      </trkpt>
      <trkpt lat="47.22329" lon="-1.49523">
        <ele>64</ele>
        <time>2022-05-08T11:44:11Z</time>
      </trkpt>
      <trkpt lat="47.22324" lon="-1.4954">
        <ele>64</ele>
        <time>2022-05-08T11:44:13Z</time>
      </trkpt>
      <trkpt lat="47.22317" lon="-1.49556">
        <ele>64</ele>
        <time>2022-05-08T11:44:15Z</time>
      </trkpt>
      <trkpt lat="47.22311" lon="-1.49574">
        <ele>64</ele>
        <time>2022-05-08T11:44:17Z</time>
      </trkpt>
      <trkpt lat="47.22304" lon="-1.49592">
        <ele>64</ele>
        <time>2022-05-08T11:44:19Z</time>
      </trkpt>
      <trkpt lat="47.22298" lon="-1.4961">
        <ele>64</ele>
        <time>2022-05-08T11:44:21Z</time>
      </trkpt>
      <trkpt lat="47.22294" lon="-1.49629">
        <ele>64</ele>
        <time>2022-05-08T11:44:23Z</time>
      </trkpt>
      <trkpt lat="47.22289" lon="-1.49649">
        <ele>64</ele>
        <time>2022-05-08T11:44:25Z</time>
      </trkpt>
      <trkpt lat="47.22283" lon="-1.49667">
        <ele>64</ele>
        <time>2022-05-08T11:44:27Z</time>
      </trkpt>
      <trkpt lat="47.22276" lon="-1.49685">
        <ele>64</ele>
        <time>2022-05-08T11:44:29Z</time>
      </trkpt>
      <trkpt lat="47.22271" lon="-1.49704">
        <ele>63</ele>
        <time>2022-05-08T11:44:31Z</time>
      </trkpt>
      <trkpt lat="47.22264" lon="-1.49722">
        <ele>62</ele>
        <time>2022-05-08T11:44:33Z</time>
      </trkpt>
      <trkpt lat="47.22259" lon="-1.4974">
        <ele>62</ele>
        <time>2022-05-08T11:44:35Z</time>
      </trkpt>
      <trkpt lat="47.22255" lon="-1.49759">
        <ele>62</ele>
        <time>2022-05-08T11:44:37Z</time>
      </trkpt>
      <trkpt lat="47.22252" lon="-1.49778">
        <ele>62</ele>
        <time>2022-05-08T11:44:39Z</time>
      </trkpt>
      <trkpt lat="47.22249" lon="-1.49797">
        <ele>63</ele>
        <time>2022-05-08T11:44:41Z</time>
      </trkpt>
      <trkpt lat="47.22246" lon="-1.49816">
        <ele>63</ele>
        <time>2022-05-08T11:44:43Z</time>
      </trkpt>
      <trkpt lat="47.22242" lon="-1.49834">
        <ele>63</ele>
        <time>2022-05-08T11:44:45Z</time>
      </trkpt>
      <trkpt lat="47.22238" lon="-1.49853">
        <ele>63</ele>
        <time>2022-05-08T11:44:47Z</time>
      </trkpt>
      <trkpt lat="47.22233" lon="-1.49871">
        <ele>62</ele>
        <time>2022-05-08T11:44:49Z</time>
      </trkpt>
      <trkpt lat="47.2223" lon="-1.49889">
        <ele>63</ele>
        <time>2022-05-08T11:44:51Z</time>
      </trkpt>
      <trkpt lat="47.22227" lon="-1.49909">
        <ele>63</ele>
        <time>2022-05-08T11:44:53Z</time>
      </trkpt>
      <trkpt lat="47.22222" lon="-1.49927">
        <ele>62</ele>
        <time>2022-05-08T11:44:55Z</time>
      </trkpt>
      <trkpt lat="47.22217" lon="-1.49945">
        <ele>63</ele>
        <time>2022-05-08T11:44:57Z</time>
      </trkpt>
      <trkpt lat="47.22212" lon="-1.49964">
        <ele>63</ele>
        <time>2022-05-08T11:44:59Z</time>
      </trkpt>
      <trkpt lat="47.22207" lon="-1.4998">
        <ele>64</ele>
        <time>2022-05-08T11:45:01Z</time>
      </trkpt>
      <trkpt lat="47.22201" lon="-1.49997">
        <ele>64</ele>
        <time>2022-05-08T11:45:03Z</time>
      </trkpt>
      <trkpt lat="47.22196" lon="-1.50015">
        <ele>64</ele>
        <time>2022-05-08T11:45:05Z</time>
      </trkpt>
      <trkpt lat="47.22191" lon="-1.50033">
        <ele>64</ele>
        <time>2022-05-08T11:45:07Z</time>
      </trkpt>
      <trkpt lat="47.22187" lon="-1.50051">
        <ele>63</ele>
        <time>2022-05-08T11:45:09Z</time>
      </trkpt>
      <trkpt lat="47.22183" lon="-1.50069">
        <ele>63</ele>
        <time>2022-05-08T11:45:11Z</time>
      </trkpt>
      <trkpt lat="47.22179" lon="-1.50087">
        <ele>63</ele>
        <time>2022-05-08T11:45:13Z</time>
      </trkpt>
      <trkpt lat="47.22174" lon="-1.50106">
        <ele>62</ele>
        <time>2022-05-08T11:45:15Z</time>
      </trkpt>
      <trkpt lat="47.22168" lon="-1.50122">
        <ele>62</ele>
        <time>2022-05-08T11:45:17Z</time>
      </trkpt>
      <trkpt lat="47.22162" lon="-1.50139">
        <ele>62</ele>
        <time>2022-05-08T11:45:19Z</time>
      </trkpt>
      <trkpt lat="47.22156" lon="-1.50156">
        <ele>62</ele>
        <time>2022-05-08T11:45:21Z</time>
      </trkpt>
      <trkpt lat="47.22151" lon="-1.50174">
        <ele>62</ele>
        <time>2022-05-08T11:45:23Z</time>
      </trkpt>
      <trkpt lat="47.22148" lon="-1.50193">
        <ele>61</ele>
        <time>2022-05-08T11:45:25Z</time>
      </trkpt>
      <trkpt lat="47.22144" lon="-1.5021">
        <ele>61</ele>
        <time>2022-05-08T11:45:27Z</time>
      </trkpt>
      <trkpt lat="47.2214" lon="-1.50228">
        <ele>61</ele>
        <time>2022-05-08T11:45:29Z</time>
      </trkpt>
      <trkpt lat="47.22134" lon="-1.50244">
        <ele>60</ele>
        <time>2022-05-08T11:45:31Z</time>
      </trkpt>
      <trkpt lat="47.2213" lon="-1.50261">
        <ele>61</ele>
        <time>2022-05-08T11:45:33Z</time>
      </trkpt>
      <trkpt lat="47.22125" lon="-1.50277">
        <ele>61</ele>
        <time>2022-05-08T11:45:35Z</time>
      </trkpt>
      <trkpt lat="47.22117" lon="-1.50294">
        <ele>61</ele>
        <time>2022-05-08T11:45:37Z</time>
      </trkpt>
      <trkpt lat="47.22108" lon="-1.50308">
        <ele>61</ele>
        <time>2022-05-08T11:45:39Z</time>
      </trkpt>
      <trkpt lat="47.221" lon="-1.50323">
        <ele>62</ele>
        <time>2022-05-08T11:45:41Z</time>
      </trkpt>
      <trkpt lat="47.22093" lon="-1.50337">
        <ele>62</ele>
        <time>2022-05-08T11:45:43Z</time>
      </trkpt>
      <trkpt lat="47.22089" lon="-1.50355">
        <ele>62</ele>
        <time>2022-05-08T11:45:45Z</time>
      </trkpt>
      <trkpt lat="47.22085" lon="-1.50373">
        <ele>62</ele>
        <time>2022-05-08T11:45:47Z</time>
      </trkpt>
      <trkpt lat="47.22081" lon="-1.50391">
        <ele>62</ele>
        <time>2022-05-08T11:45:49Z</time>
      </trkpt>
      <trkpt lat="47.22076" lon="-1.50408">
        <ele>62</ele>
        <time>2022-05-08T11:45:51Z</time>
      </trkpt>
      <trkpt lat="47.22072" lon="-1.50426">
        <ele>61</ele>
        <time>2022-05-08T11:45:53Z</time>
      </trkpt>
      <trkpt lat="47.22069" lon="-1.50444">
        <ele>60</ele>
        <time>2022-05-08T11:45:55Z</time>
      </trkpt>
      <trkpt lat="47.22066" lon="-1.50463">
        <ele>60</ele>
        <time>2022-05-08T11:45:57Z</time>
      </trkpt>
      <trkpt lat="47.22065" lon="-1.5048">
        <ele>60</ele>
        <time>2022-05-08T11:45:59Z</time>
      </trkpt>
      <trkpt lat="47.22063" lon="-1.50494">
        <ele>60</ele>
        <time>2022-05-08T11:46:01Z</time>
      </trkpt>
      <trkpt lat="47.22062" lon="-1.50513">
        <ele>61</ele>
        <time>2022-05-08T11:46:03Z</time>
      </trkpt>
      <trkpt lat="47.2206" lon="-1.50532">
        <ele>60</ele>
        <time>2022-05-08T11:46:05Z</time>
      </trkpt>
      <trkpt lat="47.22059" lon="-1.50551">
        <ele>61</ele>
        <time>2022-05-08T11:46:07Z</time>
      </trkpt>
      <trkpt lat="47.22057" lon="-1.50568">
        <ele>61</ele>
        <time>2022-05-08T11:46:09Z</time>
      </trkpt>
      <trkpt lat="47.22056" lon="-1.50585">
        <ele>62</ele>
        <time>2022-05-08T11:46:11Z</time>
      </trkpt>
      <trkpt lat="47.22055" lon="-1.50601">
        <ele>62</ele>
        <time>2022-05-08T11:46:13Z</time>
      </trkpt>
      <trkpt lat="47.22054" lon="-1.50618">
        <ele>63</ele>
        <time>2022-05-08T11:46:15Z</time>
      </trkpt>
      <trkpt lat="47.22052" lon="-1.50636">
        <ele>63</ele>
        <time>2022-05-08T11:46:17Z</time>
      </trkpt>
      <trkpt lat="47.22051" lon="-1.50653">
        <ele>64</ele>
        <time>2022-05-08T11:46:19Z</time>
      </trkpt>
      <trkpt lat="47.22049" lon="-1.5067">
        <ele>64</ele>
        <time>2022-05-08T11:46:21Z</time>
      </trkpt>
      <trkpt lat="47.22047" lon="-1.50686">
        <ele>65</ele>
        <time>2022-05-08T11:46:23Z</time>
      </trkpt>
      <trkpt lat="47.22046" lon="-1.50703">
        <ele>64</ele>
        <time>2022-05-08T11:46:25Z</time>
      </trkpt>
      <trkpt lat="47.22044" lon="-1.5072">
        <ele>65</ele>
        <time>2022-05-08T11:46:27Z</time>
      </trkpt>
      <trkpt lat="47.22041" lon="-1.50736">
        <ele>66</ele>
        <time>2022-05-08T11:46:29Z</time>
      </trkpt>
      <trkpt lat="47.22039" lon="-1.50754">
        <ele>66</ele>
        <time>2022-05-08T11:46:31Z</time>
      </trkpt>
      <trkpt lat="47.22037" lon="-1.50771">
        <ele>66</ele>
        <time>2022-05-08T11:46:33Z</time>
      </trkpt>
      <trkpt lat="47.22031" lon="-1.50789">
        <ele>66</ele>
        <time>2022-05-08T11:46:35Z</time>
      </trkpt>
      <trkpt lat="47.22026" lon="-1.50805">
        <ele>66</ele>
        <time>2022-05-08T11:46:37Z</time>
      </trkpt>
      <trkpt lat="47.22021" lon="-1.5082">
        <ele>66</ele>
        <time>2022-05-08T11:46:39Z</time>
      </trkpt>
      <trkpt lat="47.22016" lon="-1.50832">
        <ele>66</ele>
        <time>2022-05-08T11:46:41Z</time>
      </trkpt>
      <trkpt lat="47.2201" lon="-1.50847">
        <ele>66</ele>
        <time>2022-05-08T11:46:43Z</time>
      </trkpt>
      <trkpt lat="47.22003" lon="-1.50865">
        <ele>67</ele>
        <time>2022-05-08T11:46:45Z</time>
      </trkpt>
      <trkpt lat="47.21997" lon="-1.50884">
        <ele>67</ele>
        <time>2022-05-08T11:46:47Z</time>
      </trkpt>
      <trkpt lat="47.21992" lon="-1.50901">
        <ele>66</ele>
        <time>2022-05-08T11:46:49Z</time>
      </trkpt>
      <trkpt lat="47.21987" lon="-1.50919">
        <ele>65</ele>
        <time>2022-05-08T11:46:51Z</time>
      </trkpt>
      <trkpt lat="47.21982" lon="-1.50937">
        <ele>64</ele>
        <time>2022-05-08T11:46:53Z</time>
      </trkpt>
      <trkpt lat="47.21978" lon="-1.50954">
        <ele>63</ele>
        <time>2022-05-08T11:46:55Z</time>
      </trkpt>
      <trkpt lat="47.21973" lon="-1.50971">
        <ele>63</ele>
        <time>2022-05-08T11:46:57Z</time>
      </trkpt>
      <trkpt lat="47.21968" lon="-1.50987">
        <ele>63</ele>
        <time>2022-05-08T11:46:59Z</time>
      </trkpt>
      <trkpt lat="47.21963" lon="-1.51004">
        <ele>62</ele>
        <time>2022-05-08T11:47:01Z</time>
      </trkpt>
      <trkpt lat="47.21958" lon="-1.51021">
        <ele>61</ele>
        <time>2022-05-08T11:47:03Z</time>
      </trkpt>
      <trkpt lat="47.21954" lon="-1.51037">
        <ele>61</ele>
        <time>2022-05-08T11:47:05Z</time>
      </trkpt>
      <trkpt lat="47.2195" lon="-1.51051">
        <ele>60</ele>
        <time>2022-05-08T11:47:07Z</time>
      </trkpt>
      <trkpt lat="47.21943" lon="-1.51065">
        <ele>61</ele>
        <time>2022-05-08T11:47:10Z</time>
      </trkpt>
      <trkpt lat="47.21936" lon="-1.51078">
        <ele>60</ele>
        <time>2022-05-08T11:47:12Z</time>
      </trkpt>
      <trkpt lat="47.2193" lon="-1.51094">
        <ele>60</ele>
        <time>2022-05-08T11:47:14Z</time>
      </trkpt>
      <trkpt lat="47.21924" lon="-1.5111">
        <ele>59</ele>
        <time>2022-05-08T11:47:16Z</time>
      </trkpt>
      <trkpt lat="47.21919" lon="-1.51125">
        <ele>59</ele>
        <time>2022-05-08T11:47:18Z</time>
      </trkpt>
      <trkpt lat="47.21914" lon="-1.51141">
        <ele>58</ele>
        <time>2022-05-08T11:47:20Z</time>
      </trkpt>
      <trkpt lat="47.21908" lon="-1.51158">
        <ele>57</ele>
        <time>2022-05-08T11:47:22Z</time>
      </trkpt>
      <trkpt lat="47.21902" lon="-1.51174">
        <ele>57</ele>
        <time>2022-05-08T11:47:24Z</time>
      </trkpt>
      <trkpt lat="47.21897" lon="-1.51191">
        <ele>57</ele>
        <time>2022-05-08T11:47:26Z</time>
      </trkpt>
      <trkpt lat="47.21892" lon="-1.51208">
        <ele>56</ele>
        <time>2022-05-08T11:47:28Z</time>
      </trkpt>
      <trkpt lat="47.21887" lon="-1.51224">
        <ele>56</ele>
        <time>2022-05-08T11:47:30Z</time>
      </trkpt>
      <trkpt lat="47.21882" lon="-1.5124">
        <ele>56</ele>
        <time>2022-05-08T11:47:32Z</time>
      </trkpt>
      <trkpt lat="47.21876" lon="-1.51256">
        <ele>55</ele>
        <time>2022-05-08T11:47:34Z</time>
      </trkpt>
      <trkpt lat="47.21871" lon="-1.51273">
        <ele>55</ele>
        <time>2022-05-08T11:47:36Z</time>
      </trkpt>
      <trkpt lat="47.21865" lon="-1.51289">
        <ele>55</ele>
        <time>2022-05-08T11:47:38Z</time>
      </trkpt>
      <trkpt lat="47.21861" lon="-1.51305">
        <ele>56</ele>
        <time>2022-05-08T11:47:40Z</time>
      </trkpt>
      <trkpt lat="47.21856" lon="-1.51322">
        <ele>56</ele>
        <time>2022-05-08T11:47:42Z</time>
      </trkpt>
      <trkpt lat="47.21851" lon="-1.51338">
        <ele>57</ele>
        <time>2022-05-08T11:47:44Z</time>
      </trkpt>
      <trkpt lat="47.21846" lon="-1.51354">
        <ele>58</ele>
        <time>2022-05-08T11:47:46Z</time>
      </trkpt>
      <trkpt lat="47.21842" lon="-1.51372">
        <ele>58</ele>
        <time>2022-05-08T11:47:48Z</time>
      </trkpt>
      <trkpt lat="47.21838" lon="-1.51388">
        <ele>58</ele>
        <time>2022-05-08T11:47:50Z</time>
      </trkpt>
      <trkpt lat="47.21834" lon="-1.51406">
        <ele>58</ele>
        <time>2022-05-08T11:47:52Z</time>
      </trkpt>
      <trkpt lat="47.2183" lon="-1.51422">
        <ele>57</ele>
        <time>2022-05-08T11:47:54Z</time>
      </trkpt>
      <trkpt lat="47.21826" lon="-1.5144">
        <ele>57</ele>
        <time>2022-05-08T11:47:56Z</time>
      </trkpt>
      <trkpt lat="47.21822" lon="-1.51457">
        <ele>57</ele>
        <time>2022-05-08T11:47:58Z</time>
      </trkpt>
      <trkpt lat="47.21819" lon="-1.51474">
        <ele>57</ele>
        <time>2022-05-08T11:48:00Z</time>
      </trkpt>
      <trkpt lat="47.21815" lon="-1.51491">
        <ele>57</ele>
        <time>2022-05-08T11:48:02Z</time>
      </trkpt>
      <trkpt lat="47.21809" lon="-1.51506">
        <ele>57</ele>
        <time>2022-05-08T11:48:04Z</time>
      </trkpt>
      <trkpt lat="47.21801" lon="-1.5152">
        <ele>58</ele>
        <time>2022-05-08T11:48:06Z</time>
      </trkpt>
      <trkpt lat="47.21796" lon="-1.51535">
        <ele>57</ele>
        <time>2022-05-08T11:48:08Z</time>
      </trkpt>
      <trkpt lat="47.21791" lon="-1.5155">
        <ele>57</ele>
        <time>2022-05-08T11:48:10Z</time>
      </trkpt>
      <trkpt lat="47.21785" lon="-1.51564">
        <ele>57</ele>
        <time>2022-05-08T11:48:12Z</time>
      </trkpt>
      <trkpt lat="47.21777" lon="-1.51578">
        <ele>57</ele>
        <time>2022-05-08T11:48:14Z</time>
      </trkpt>
      <trkpt lat="47.2177" lon="-1.5159">
        <ele>57</ele>
        <time>2022-05-08T11:48:16Z</time>
      </trkpt>
      <trkpt lat="47.21761" lon="-1.516">
        <ele>56</ele>
        <time>2022-05-08T11:48:18Z</time>
      </trkpt>
      <trkpt lat="47.21753" lon="-1.51613">
        <ele>56</ele>
        <time>2022-05-08T11:48:20Z</time>
      </trkpt>
      <trkpt lat="47.21746" lon="-1.51627">
        <ele>56</ele>
        <time>2022-05-08T11:48:22Z</time>
      </trkpt>
      <trkpt lat="47.21739" lon="-1.51642">
        <ele>56</ele>
        <time>2022-05-08T11:48:24Z</time>
      </trkpt>
      <trkpt lat="47.21732" lon="-1.51657">
        <ele>56</ele>
        <time>2022-05-08T11:48:26Z</time>
      </trkpt>
      <trkpt lat="47.21726" lon="-1.51673">
        <ele>55</ele>
        <time>2022-05-08T11:48:28Z</time>
      </trkpt>
      <trkpt lat="47.2172" lon="-1.51687">
        <ele>55</ele>
        <time>2022-05-08T11:48:30Z</time>
      </trkpt>
      <trkpt lat="47.21714" lon="-1.51699">
        <ele>55</ele>
        <time>2022-05-08T11:48:32Z</time>
      </trkpt>
      <trkpt lat="47.21708" lon="-1.51712">
        <ele>56</ele>
        <time>2022-05-08T11:48:34Z</time>
      </trkpt>
      <trkpt lat="47.217" lon="-1.51728">
        <ele>57</ele>
        <time>2022-05-08T11:48:36Z</time>
      </trkpt>
      <trkpt lat="47.21693" lon="-1.51746">
        <ele>57</ele>
        <time>2022-05-08T11:48:38Z</time>
      </trkpt>
      <trkpt lat="47.21686" lon="-1.51761">
        <ele>58</ele>
        <time>2022-05-08T11:48:40Z</time>
      </trkpt>
      <trkpt lat="47.21679" lon="-1.51777">
        <ele>58</ele>
        <time>2022-05-08T11:48:42Z</time>
      </trkpt>
      <trkpt lat="47.21672" lon="-1.51792">
        <ele>58</ele>
        <time>2022-05-08T11:48:44Z</time>
      </trkpt>
      <trkpt lat="47.21666" lon="-1.51807">
        <ele>58</ele>
        <time>2022-05-08T11:48:46Z</time>
      </trkpt>
      <trkpt lat="47.21659" lon="-1.51822">
        <ele>58</ele>
        <time>2022-05-08T11:48:48Z</time>
      </trkpt>
      <trkpt lat="47.21654" lon="-1.51839">
        <ele>58</ele>
        <time>2022-05-08T11:48:50Z</time>
      </trkpt>
      <trkpt lat="47.21649" lon="-1.51854">
        <ele>58</ele>
        <time>2022-05-08T11:48:52Z</time>
      </trkpt>
      <trkpt lat="47.21646" lon="-1.5187">
        <ele>59</ele>
        <time>2022-05-08T11:48:54Z</time>
      </trkpt>
      <trkpt lat="47.21641" lon="-1.51887">
        <ele>59</ele>
        <time>2022-05-08T11:48:56Z</time>
      </trkpt>
      <trkpt lat="47.21633" lon="-1.51901">
        <ele>58</ele>
        <time>2022-05-08T11:48:58Z</time>
      </trkpt>
      <trkpt lat="47.21628" lon="-1.51917">
        <ele>58</ele>
        <time>2022-05-08T11:49:00Z</time>
      </trkpt>
      <trkpt lat="47.21623" lon="-1.51935">
        <ele>58</ele>
        <time>2022-05-08T11:49:02Z</time>
      </trkpt>
      <trkpt lat="47.21621" lon="-1.51953">
        <ele>58</ele>
        <time>2022-05-08T11:49:04Z</time>
      </trkpt>
      <trkpt lat="47.21617" lon="-1.5197">
        <ele>57</ele>
        <time>2022-05-08T11:49:06Z</time>
      </trkpt>
      <trkpt lat="47.2161" lon="-1.51981">
        <ele>59</ele>
        <time>2022-05-08T11:49:08Z</time>
      </trkpt>
      <trkpt lat="47.21604" lon="-1.51993">
        <ele>59</ele>
        <time>2022-05-08T11:49:10Z</time>
      </trkpt>
      <trkpt lat="47.21598" lon="-1.52011">
        <ele>59</ele>
        <time>2022-05-08T11:49:12Z</time>
      </trkpt>
      <trkpt lat="47.21592" lon="-1.52029">
        <ele>59</ele>
        <time>2022-05-08T11:49:14Z</time>
      </trkpt>
      <trkpt lat="47.21587" lon="-1.52047">
        <ele>59</ele>
        <time>2022-05-08T11:49:16Z</time>
      </trkpt>
      <trkpt lat="47.21581" lon="-1.52064">
        <ele>59</ele>
        <time>2022-05-08T11:49:18Z</time>
      </trkpt>
      <trkpt lat="47.21576" lon="-1.52081">
        <ele>59</ele>
        <time>2022-05-08T11:49:20Z</time>
      </trkpt>
      <trkpt lat="47.21571" lon="-1.52098">
        <ele>59</ele>
        <time>2022-05-08T11:49:22Z</time>
      </trkpt>
      <trkpt lat="47.21565" lon="-1.52114">
        <ele>59</ele>
        <time>2022-05-08T11:49:24Z</time>
      </trkpt>
      <trkpt lat="47.2156" lon="-1.5213">
        <ele>58</ele>
        <time>2022-05-08T11:49:26Z</time>
      </trkpt>
      <trkpt lat="47.21555" lon="-1.52148">
        <ele>58</ele>
        <time>2022-05-08T11:49:28Z</time>
      </trkpt>
      <trkpt lat="47.2155" lon="-1.52165">
        <ele>58</ele>
        <time>2022-05-08T11:49:30Z</time>
      </trkpt>
      <trkpt lat="47.21544" lon="-1.52182">
        <ele>58</ele>
        <time>2022-05-08T11:49:32Z</time>
      </trkpt>
      <trkpt lat="47.21538" lon="-1.52197">
        <ele>58</ele>
        <time>2022-05-08T11:49:34Z</time>
      </trkpt>
      <trkpt lat="47.21532" lon="-1.52213">
        <ele>57</ele>
        <time>2022-05-08T11:49:36Z</time>
      </trkpt>
      <trkpt lat="47.21527" lon="-1.52231">
        <ele>57</ele>
        <time>2022-05-08T11:49:38Z</time>
      </trkpt>
      <trkpt lat="47.21521" lon="-1.52249">
        <ele>57</ele>
        <time>2022-05-08T11:49:40Z</time>
      </trkpt>
      <trkpt lat="47.21516" lon="-1.52268">
        <ele>57</ele>
        <time>2022-05-08T11:49:42Z</time>
      </trkpt>
      <trkpt lat="47.2151" lon="-1.52289">
        <ele>57</ele>
        <time>2022-05-08T11:49:44Z</time>
      </trkpt>
      <trkpt lat="47.21503" lon="-1.52311">
        <ele>57</ele>
        <time>2022-05-08T11:49:46Z</time>
      </trkpt>
      <trkpt lat="47.21497" lon="-1.52331">
        <ele>56</ele>
        <time>2022-05-08T11:49:48Z</time>
      </trkpt>
      <trkpt lat="47.2149" lon="-1.52352">
        <ele>56</ele>
        <time>2022-05-08T11:49:50Z</time>
      </trkpt>
      <trkpt lat="47.21484" lon="-1.52373">
        <ele>56</ele>
        <time>2022-05-08T11:49:52Z</time>
      </trkpt>
      <trkpt lat="47.21477" lon="-1.52393">
        <ele>56</ele>
        <time>2022-05-08T11:49:54Z</time>
      </trkpt>
      <trkpt lat="47.21471" lon="-1.52413">
        <ele>56</ele>
        <time>2022-05-08T11:49:56Z</time>
      </trkpt>
      <trkpt lat="47.21464" lon="-1.52434">
        <ele>56</ele>
        <time>2022-05-08T11:49:58Z</time>
      </trkpt>
      <trkpt lat="47.21457" lon="-1.52454">
        <ele>56</ele>
        <time>2022-05-08T11:50:00Z</time>
      </trkpt>
      <trkpt lat="47.21451" lon="-1.52473">
        <ele>57</ele>
        <time>2022-05-08T11:50:02Z</time>
      </trkpt>
      <trkpt lat="47.21445" lon="-1.52493">
        <ele>57</ele>
        <time>2022-05-08T11:50:04Z</time>
      </trkpt>
      <trkpt lat="47.21438" lon="-1.52512">
        <ele>57</ele>
        <time>2022-05-08T11:50:06Z</time>
      </trkpt>
      <trkpt lat="47.21431" lon="-1.52532">
        <ele>57</ele>
        <time>2022-05-08T11:50:08Z</time>
      </trkpt>
      <trkpt lat="47.21425" lon="-1.52552">
        <ele>57</ele>
        <time>2022-05-08T11:50:10Z</time>
      </trkpt>
      <trkpt lat="47.21419" lon="-1.52571">
        <ele>58</ele>
        <time>2022-05-08T11:50:12Z</time>
      </trkpt>
      <trkpt lat="47.21413" lon="-1.5259">
        <ele>58</ele>
        <time>2022-05-08T11:50:14Z</time>
      </trkpt>
      <trkpt lat="47.21407" lon="-1.52609">
        <ele>58</ele>
        <time>2022-05-08T11:50:16Z</time>
      </trkpt>
      <trkpt lat="47.21401" lon="-1.52628">
        <ele>58</ele>
        <time>2022-05-08T11:50:18Z</time>
      </trkpt>
      <trkpt lat="47.21396" lon="-1.52646">
        <ele>57</ele>
        <time>2022-05-08T11:50:20Z</time>
      </trkpt>
      <trkpt lat="47.21391" lon="-1.52663">
        <ele>58</ele>
        <time>2022-05-08T11:50:22Z</time>
      </trkpt>
      <trkpt lat="47.21387" lon="-1.52681">
        <ele>59</ele>
        <time>2022-05-08T11:50:24Z</time>
      </trkpt>
      <trkpt lat="47.21381" lon="-1.52702">
        <ele>59</ele>
        <time>2022-05-08T11:50:26Z</time>
      </trkpt>
      <trkpt lat="47.21377" lon="-1.52721">
        <ele>60</ele>
        <time>2022-05-08T11:50:28Z</time>
      </trkpt>
      <trkpt lat="47.21373" lon="-1.5274">
        <ele>61</ele>
        <time>2022-05-08T11:50:30Z</time>
      </trkpt>
      <trkpt lat="47.21368" lon="-1.52762">
        <ele>61</ele>
        <time>2022-05-08T11:50:32Z</time>
      </trkpt>
      <trkpt lat="47.21365" lon="-1.52784">
        <ele>61</ele>
        <time>2022-05-08T11:50:34Z</time>
      </trkpt>
      <trkpt lat="47.21363" lon="-1.52803">
        <ele>61</ele>
        <time>2022-05-08T11:50:36Z</time>
      </trkpt>
      <trkpt lat="47.21359" lon="-1.52821">
        <ele>61</ele>
        <time>2022-05-08T11:50:38Z</time>
      </trkpt>
      <trkpt lat="47.21355" lon="-1.5284">
        <ele>62</ele>
        <time>2022-05-08T11:50:40Z</time>
      </trkpt>
      <trkpt lat="47.21351" lon="-1.5286">
        <ele>62</ele>
        <time>2022-05-08T11:50:42Z</time>
      </trkpt>
      <trkpt lat="47.21347" lon="-1.5288">
        <ele>61</ele>
        <time>2022-05-08T11:50:44Z</time>
      </trkpt>
      <trkpt lat="47.21344" lon="-1.52901">
        <ele>60</ele>
        <time>2022-05-08T11:50:46Z</time>
      </trkpt>
      <trkpt lat="47.21341" lon="-1.52923">
        <ele>60</ele>
        <time>2022-05-08T11:50:48Z</time>
      </trkpt>
      <trkpt lat="47.21338" lon="-1.52942">
        <ele>59</ele>
        <time>2022-05-08T11:50:50Z</time>
      </trkpt>
      <trkpt lat="47.21337" lon="-1.52958">
        <ele>59</ele>
        <time>2022-05-08T11:50:52Z</time>
      </trkpt>
      <trkpt lat="47.21335" lon="-1.52984">
        <ele>60</ele>
        <time>2022-05-08T11:50:54Z</time>
      </trkpt>
      <trkpt lat="47.21334" lon="-1.53006">
        <ele>61</ele>
        <time>2022-05-08T11:50:56Z</time>
      </trkpt>
      <trkpt lat="47.21331" lon="-1.53026">
        <ele>61</ele>
        <time>2022-05-08T11:50:58Z</time>
      </trkpt>
      <trkpt lat="47.21329" lon="-1.53046">
        <ele>61</ele>
        <time>2022-05-08T11:51:00Z</time>
      </trkpt>
      <trkpt lat="47.21328" lon="-1.53065">
        <ele>61</ele>
        <time>2022-05-08T11:51:02Z</time>
      </trkpt>
      <trkpt lat="47.21327" lon="-1.53084">
        <ele>62</ele>
        <time>2022-05-08T11:51:04Z</time>
      </trkpt>
      <trkpt lat="47.21326" lon="-1.53104">
        <ele>62</ele>
        <time>2022-05-08T11:51:06Z</time>
      </trkpt>
      <trkpt lat="47.21322" lon="-1.53123">
        <ele>62</ele>
        <time>2022-05-08T11:51:08Z</time>
      </trkpt>
      <trkpt lat="47.21318" lon="-1.53142">
        <ele>63</ele>
        <time>2022-05-08T11:51:10Z</time>
      </trkpt>
      <trkpt lat="47.21315" lon="-1.53162">
        <ele>63</ele>
        <time>2022-05-08T11:51:12Z</time>
      </trkpt>
      <trkpt lat="47.21313" lon="-1.53181">
        <ele>63</ele>
        <time>2022-05-08T11:51:14Z</time>
      </trkpt>
      <trkpt lat="47.21311" lon="-1.53201">
        <ele>63</ele>
        <time>2022-05-08T11:51:16Z</time>
      </trkpt>
      <trkpt lat="47.2131" lon="-1.53221">
        <ele>62</ele>
        <time>2022-05-08T11:51:18Z</time>
      </trkpt>
      <trkpt lat="47.2131" lon="-1.53242">
        <ele>62</ele>
        <time>2022-05-08T11:51:20Z</time>
      </trkpt>
      <trkpt lat="47.2131" lon="-1.53261">
        <ele>62</ele>
        <time>2022-05-08T11:51:22Z</time>
      </trkpt>
      <trkpt lat="47.2131" lon="-1.53281">
        <ele>62</ele>
        <time>2022-05-08T11:51:24Z</time>
      </trkpt>
      <trkpt lat="47.21309" lon="-1.53301">
        <ele>61</ele>
        <time>2022-05-08T11:51:26Z</time>
      </trkpt>
      <trkpt lat="47.21307" lon="-1.5332">
        <ele>61</ele>
        <time>2022-05-08T11:51:28Z</time>
      </trkpt>
      <trkpt lat="47.21304" lon="-1.5334">
        <ele>61</ele>
        <time>2022-05-08T11:51:30Z</time>
      </trkpt>
      <trkpt lat="47.213" lon="-1.53359">
        <ele>60</ele>
        <time>2022-05-08T11:51:32Z</time>
      </trkpt>
      <trkpt lat="47.21297" lon="-1.53378">
        <ele>60</ele>
        <time>2022-05-08T11:51:34Z</time>
      </trkpt>
      <trkpt lat="47.21294" lon="-1.53398">
        <ele>60</ele>
        <time>2022-05-08T11:51:36Z</time>
      </trkpt>
      <trkpt lat="47.21293" lon="-1.53417">
        <ele>60</ele>
        <time>2022-05-08T11:51:38Z</time>
      </trkpt>
      <trkpt lat="47.21291" lon="-1.53436">
        <ele>60</ele>
        <time>2022-05-08T11:51:40Z</time>
      </trkpt>
      <trkpt lat="47.21292" lon="-1.53455">
        <ele>61</ele>
        <time>2022-05-08T11:51:42Z</time>
      </trkpt>
      <trkpt lat="47.21297" lon="-1.53472">
        <ele>60</ele>
        <time>2022-05-08T11:51:44Z</time>
      </trkpt>
      <trkpt lat="47.213" lon="-1.53491">
        <ele>60</ele>
        <time>2022-05-08T11:51:46Z</time>
      </trkpt>
      <trkpt lat="47.21301" lon="-1.53511">
        <ele>61</ele>
        <time>2022-05-08T11:51:48Z</time>
      </trkpt>
      <trkpt lat="47.21301" lon="-1.5353">
        <ele>61</ele>
        <time>2022-05-08T11:51:50Z</time>
      </trkpt>
      <trkpt lat="47.21302" lon="-1.53549">
        <ele>61</ele>
        <time>2022-05-08T11:51:52Z</time>
      </trkpt>
      <trkpt lat="47.21303" lon="-1.53568">
        <ele>62</ele>
        <time>2022-05-08T11:51:54Z</time>
      </trkpt>
      <trkpt lat="47.21304" lon="-1.53587">
        <ele>62</ele>
        <time>2022-05-08T11:51:56Z</time>
      </trkpt>
      <trkpt lat="47.21304" lon="-1.53605">
        <ele>61</ele>
        <time>2022-05-08T11:51:58Z</time>
      </trkpt>
      <trkpt lat="47.21302" lon="-1.53622">
        <ele>61</ele>
        <time>2022-05-08T11:52:00Z</time>
      </trkpt>
      <trkpt lat="47.21296" lon="-1.53632">
        <ele>62</ele>
        <time>2022-05-08T11:52:02Z</time>
      </trkpt>
      <trkpt lat="47.21292" lon="-1.53646">
        <ele>61</ele>
        <time>2022-05-08T11:52:05Z</time>
      </trkpt>
      <trkpt lat="47.21285" lon="-1.53657">
        <ele>61</ele>
        <time>2022-05-08T11:52:08Z</time>
      </trkpt>
      <trkpt lat="47.21272" lon="-1.53651">
        <ele>62</ele>
        <time>2022-05-08T11:52:11Z</time>
      </trkpt>
      <trkpt lat="47.21261" lon="-1.53645">
        <ele>63</ele>
        <time>2022-05-08T11:52:13Z</time>
      </trkpt>
      <trkpt lat="47.21251" lon="-1.53641">
        <ele>64</ele>
        <time>2022-05-08T11:52:15Z</time>
      </trkpt>
      <trkpt lat="47.2124" lon="-1.53635">
        <ele>64</ele>
        <time>2022-05-08T11:52:17Z</time>
      </trkpt>
      <trkpt lat="47.21227" lon="-1.5363">
        <ele>64</ele>
        <time>2022-05-08T11:52:19Z</time>
      </trkpt>
      <trkpt lat="47.21216" lon="-1.53625">
        <ele>64</ele>
        <time>2022-05-08T11:52:21Z</time>
      </trkpt>
      <trkpt lat="47.21205" lon="-1.5362">
        <ele>63</ele>
        <time>2022-05-08T11:52:23Z</time>
      </trkpt>
      <trkpt lat="47.21195" lon="-1.53614">
        <ele>63</ele>
        <time>2022-05-08T11:52:25Z</time>
      </trkpt>
      <trkpt lat="47.21185" lon="-1.53609">
        <ele>63</ele>
        <time>2022-05-08T11:52:27Z</time>
      </trkpt>
      <trkpt lat="47.21174" lon="-1.53604">
        <ele>63</ele>
        <time>2022-05-08T11:52:29Z</time>
      </trkpt>
      <trkpt lat="47.21164" lon="-1.53599">
        <ele>63</ele>
        <time>2022-05-08T11:52:31Z</time>
      </trkpt>
      <trkpt lat="47.21153" lon="-1.53594">
        <ele>63</ele>
        <time>2022-05-08T11:52:33Z</time>
      </trkpt>
      <trkpt lat="47.21142" lon="-1.53589">
        <ele>62</ele>
        <time>2022-05-08T11:52:35Z</time>
      </trkpt>
      <trkpt lat="47.21132" lon="-1.53584">
        <ele>62</ele>
        <time>2022-05-08T11:52:37Z</time>
      </trkpt>
      <trkpt lat="47.21121" lon="-1.53579">
        <ele>62</ele>
        <time>2022-05-08T11:52:39Z</time>
      </trkpt>
      <trkpt lat="47.2111" lon="-1.53573">
        <ele>61</ele>
        <time>2022-05-08T11:52:41Z</time>
      </trkpt>
      <trkpt lat="47.21098" lon="-1.53568">
        <ele>61</ele>
        <time>2022-05-08T11:52:43Z</time>
      </trkpt>
      <trkpt lat="47.21085" lon="-1.53561">
        <ele>60</ele>
        <time>2022-05-08T11:52:45Z</time>
      </trkpt>
      <trkpt lat="47.21074" lon="-1.53558">
        <ele>60</ele>
        <time>2022-05-08T11:52:47Z</time>
      </trkpt>
      <trkpt lat="47.21064" lon="-1.53563">
        <ele>59</ele>
        <time>2022-05-08T11:52:49Z</time>
      </trkpt>
      <trkpt lat="47.21056" lon="-1.53576">
        <ele>59</ele>
        <time>2022-05-08T11:52:51Z</time>
      </trkpt>
      <trkpt lat="47.21053" lon="-1.53594">
        <ele>59</ele>
        <time>2022-05-08T11:52:53Z</time>
      </trkpt>
      <trkpt lat="47.21053" lon="-1.53613">
        <ele>59</ele>
        <time>2022-05-08T11:52:55Z</time>
      </trkpt>
      <trkpt lat="47.21053" lon="-1.53633">
        <ele>59</ele>
        <time>2022-05-08T11:52:57Z</time>
      </trkpt>
      <trkpt lat="47.21052" lon="-1.53653">
        <ele>59</ele>
        <time>2022-05-08T11:52:59Z</time>
      </trkpt>
      <trkpt lat="47.2105" lon="-1.53672">
        <ele>59</ele>
        <time>2022-05-08T11:53:01Z</time>
      </trkpt>
      <trkpt lat="47.21046" lon="-1.5369">
        <ele>59</ele>
        <time>2022-05-08T11:53:03Z</time>
      </trkpt>
      <trkpt lat="47.21043" lon="-1.53708">
        <ele>59</ele>
        <time>2022-05-08T11:53:05Z</time>
      </trkpt>
      <trkpt lat="47.2104" lon="-1.53726">
        <ele>60</ele>
        <time>2022-05-08T11:53:07Z</time>
      </trkpt>
      <trkpt lat="47.21037" lon="-1.53743">
        <ele>60</ele>
        <time>2022-05-08T11:53:09Z</time>
      </trkpt>
      <trkpt lat="47.21033" lon="-1.53762">
        <ele>60</ele>
        <time>2022-05-08T11:53:11Z</time>
      </trkpt>
      <trkpt lat="47.21028" lon="-1.53779">
        <ele>59</ele>
        <time>2022-05-08T11:53:13Z</time>
      </trkpt>
      <trkpt lat="47.21024" lon="-1.53795">
        <ele>59</ele>
        <time>2022-05-08T11:53:15Z</time>
      </trkpt>
      <trkpt lat="47.21025" lon="-1.53813">
        <ele>60</ele>
        <time>2022-05-08T11:53:17Z</time>
      </trkpt>
      <trkpt lat="47.21022" lon="-1.53832">
        <ele>59</ele>
        <time>2022-05-08T11:53:19Z</time>
      </trkpt>
      <trkpt lat="47.21016" lon="-1.53849">
        <ele>59</ele>
        <time>2022-05-08T11:53:21Z</time>
      </trkpt>
      <trkpt lat="47.21009" lon="-1.53865">
        <ele>58</ele>
        <time>2022-05-08T11:53:23Z</time>
      </trkpt>
      <trkpt lat="47.21003" lon="-1.53881">
        <ele>58</ele>
        <time>2022-05-08T11:53:25Z</time>
      </trkpt>
      <trkpt lat="47.20999" lon="-1.53897">
        <ele>58</ele>
        <time>2022-05-08T11:53:27Z</time>
      </trkpt>
      <trkpt lat="47.20997" lon="-1.53915">
        <ele>58</ele>
        <time>2022-05-08T11:53:29Z</time>
      </trkpt>
      <trkpt lat="47.20992" lon="-1.53933">
        <ele>59</ele>
        <time>2022-05-08T11:53:31Z</time>
      </trkpt>
      <trkpt lat="47.20987" lon="-1.53953">
        <ele>58</ele>
        <time>2022-05-08T11:53:33Z</time>
      </trkpt>
      <trkpt lat="47.20982" lon="-1.53971">
        <ele>59</ele>
        <time>2022-05-08T11:53:35Z</time>
      </trkpt>
      <trkpt lat="47.20976" lon="-1.5399">
        <ele>59</ele>
        <time>2022-05-08T11:53:37Z</time>
      </trkpt>
      <trkpt lat="47.20971" lon="-1.54009">
        <ele>59</ele>
        <time>2022-05-08T11:53:39Z</time>
      </trkpt>
      <trkpt lat="47.20966" lon="-1.54028">
        <ele>59</ele>
        <time>2022-05-08T11:53:41Z</time>
      </trkpt>
      <trkpt lat="47.2096" lon="-1.54048">
        <ele>59</ele>
        <time>2022-05-08T11:53:43Z</time>
      </trkpt>
      <trkpt lat="47.20955" lon="-1.54068">
        <ele>59</ele>
        <time>2022-05-08T11:53:45Z</time>
      </trkpt>
      <trkpt lat="47.20948" lon="-1.54086">
        <ele>59</ele>
        <time>2022-05-08T11:53:47Z</time>
      </trkpt>
      <trkpt lat="47.20942" lon="-1.54105">
        <ele>59</ele>
        <time>2022-05-08T11:53:49Z</time>
      </trkpt>
      <trkpt lat="47.20936" lon="-1.54126">
        <ele>59</ele>
        <time>2022-05-08T11:53:51Z</time>
      </trkpt>
      <trkpt lat="47.2093" lon="-1.54144">
        <ele>59</ele>
        <time>2022-05-08T11:53:53Z</time>
      </trkpt>
      <trkpt lat="47.20921" lon="-1.54174">
        <ele>60</ele>
        <time>2022-05-08T11:53:56Z</time>
      </trkpt>
      <trkpt lat="47.20911" lon="-1.54202">
        <ele>60</ele>
        <time>2022-05-08T11:53:59Z</time>
      </trkpt>
      <trkpt lat="47.20906" lon="-1.54221">
        <ele>60</ele>
        <time>2022-05-08T11:54:01Z</time>
      </trkpt>
      <trkpt lat="47.209" lon="-1.5424">
        <ele>60</ele>
        <time>2022-05-08T11:54:03Z</time>
      </trkpt>
      <trkpt lat="47.20893" lon="-1.54258">
        <ele>59</ele>
        <time>2022-05-08T11:54:05Z</time>
      </trkpt>
      <trkpt lat="47.20886" lon="-1.54276">
        <ele>59</ele>
        <time>2022-05-08T11:54:07Z</time>
      </trkpt>
      <trkpt lat="47.2088" lon="-1.54294">
        <ele>59</ele>
        <time>2022-05-08T11:54:09Z</time>
      </trkpt>
      <trkpt lat="47.20874" lon="-1.54312">
        <ele>59</ele>
        <time>2022-05-08T11:54:11Z</time>
      </trkpt>
      <trkpt lat="47.20868" lon="-1.5433">
        <ele>60</ele>
        <time>2022-05-08T11:54:13Z</time>
      </trkpt>
      <trkpt lat="47.20862" lon="-1.54348">
        <ele>60</ele>
        <time>2022-05-08T11:54:15Z</time>
      </trkpt>
      <trkpt lat="47.20856" lon="-1.54366">
        <ele>61</ele>
        <time>2022-05-08T11:54:17Z</time>
      </trkpt>
      <trkpt lat="47.2085" lon="-1.54385">
        <ele>62</ele>
        <time>2022-05-08T11:54:19Z</time>
      </trkpt>
      <trkpt lat="47.20844" lon="-1.54405">
        <ele>62</ele>
        <time>2022-05-08T11:54:21Z</time>
      </trkpt>
      <trkpt lat="47.20838" lon="-1.54424">
        <ele>63</ele>
        <time>2022-05-08T11:54:23Z</time>
      </trkpt>
      <trkpt lat="47.20832" lon="-1.54442">
        <ele>63</ele>
        <time>2022-05-08T11:54:25Z</time>
      </trkpt>
      <trkpt lat="47.20826" lon="-1.54459">
        <ele>63</ele>
        <time>2022-05-08T11:54:27Z</time>
      </trkpt>
      <trkpt lat="47.2082" lon="-1.54477">
        <ele>63</ele>
        <time>2022-05-08T11:54:29Z</time>
      </trkpt>
      <trkpt lat="47.20815" lon="-1.54496">
        <ele>63</ele>
        <time>2022-05-08T11:54:31Z</time>
      </trkpt>
      <trkpt lat="47.20809" lon="-1.54515">
        <ele>62</ele>
        <time>2022-05-08T11:54:33Z</time>
      </trkpt>
      <trkpt lat="47.20804" lon="-1.54534">
        <ele>61</ele>
        <time>2022-05-08T11:54:35Z</time>
      </trkpt>
      <trkpt lat="47.20798" lon="-1.54552">
        <ele>61</ele>
        <time>2022-05-08T11:54:37Z</time>
      </trkpt>
      <trkpt lat="47.20792" lon="-1.54571">
        <ele>60</ele>
        <time>2022-05-08T11:54:39Z</time>
      </trkpt>
      <trkpt lat="47.20787" lon="-1.54589">
        <ele>60</ele>
        <time>2022-05-08T11:54:41Z</time>
      </trkpt>
      <trkpt lat="47.20781" lon="-1.54608">
        <ele>59</ele>
        <time>2022-05-08T11:54:43Z</time>
      </trkpt>
      <trkpt lat="47.20775" lon="-1.54627">
        <ele>59</ele>
        <time>2022-05-08T11:54:45Z</time>
      </trkpt>
      <trkpt lat="47.2077" lon="-1.54646">
        <ele>59</ele>
        <time>2022-05-08T11:54:47Z</time>
      </trkpt>
      <trkpt lat="47.20764" lon="-1.54664">
        <ele>59</ele>
        <time>2022-05-08T11:54:49Z</time>
      </trkpt>
      <trkpt lat="47.20758" lon="-1.54682">
        <ele>59</ele>
        <time>2022-05-08T11:54:51Z</time>
      </trkpt>
      <trkpt lat="47.20752" lon="-1.54701">
        <ele>59</ele>
        <time>2022-05-08T11:54:53Z</time>
      </trkpt>
      <trkpt lat="47.20746" lon="-1.5472">
        <ele>58</ele>
        <time>2022-05-08T11:54:55Z</time>
      </trkpt>
      <trkpt lat="47.20741" lon="-1.54738">
        <ele>58</ele>
        <time>2022-05-08T11:54:57Z</time>
      </trkpt>
      <trkpt lat="47.20735" lon="-1.54756">
        <ele>58</ele>
        <time>2022-05-08T11:54:59Z</time>
      </trkpt>
      <trkpt lat="47.20729" lon="-1.54775">
        <ele>58</ele>
        <time>2022-05-08T11:55:01Z</time>
      </trkpt>
      <trkpt lat="47.20723" lon="-1.54793">
        <ele>58</ele>
        <time>2022-05-08T11:55:03Z</time>
      </trkpt>
      <trkpt lat="47.20719" lon="-1.5481">
        <ele>57</ele>
        <time>2022-05-08T11:55:05Z</time>
      </trkpt>
      <trkpt lat="47.20716" lon="-1.54827">
        <ele>58</ele>
        <time>2022-05-08T11:55:07Z</time>
      </trkpt>
      <trkpt lat="47.20716" lon="-1.54843">
        <ele>58</ele>
        <time>2022-05-08T11:55:09Z</time>
      </trkpt>
      <trkpt lat="47.20713" lon="-1.54857">
        <ele>58</ele>
        <time>2022-05-08T11:55:11Z</time>
      </trkpt>
      <trkpt lat="47.20709" lon="-1.54869">
        <ele>58</ele>
        <time>2022-05-08T11:55:13Z</time>
      </trkpt>
      <trkpt lat="47.207" lon="-1.54875">
        <ele>58</ele>
        <time>2022-05-08T11:55:16Z</time>
      </trkpt>
      <trkpt lat="47.2069" lon="-1.5487">
        <ele>58</ele>
        <time>2022-05-08T11:55:18Z</time>
      </trkpt>
      <trkpt lat="47.20678" lon="-1.54863">
        <ele>59</ele>
        <time>2022-05-08T11:55:20Z</time>
      </trkpt>
      <trkpt lat="47.20666" lon="-1.54854">
        <ele>59</ele>
        <time>2022-05-08T11:55:22Z</time>
      </trkpt>
      <trkpt lat="47.20654" lon="-1.54844">
        <ele>60</ele>
        <time>2022-05-08T11:55:24Z</time>
      </trkpt>
      <trkpt lat="47.20643" lon="-1.54835">
        <ele>61</ele>
        <time>2022-05-08T11:55:26Z</time>
      </trkpt>
      <trkpt lat="47.20634" lon="-1.54828">
        <ele>62</ele>
        <time>2022-05-08T11:55:28Z</time>
      </trkpt>
      <trkpt lat="47.20623" lon="-1.54818">
        <ele>63</ele>
        <time>2022-05-08T11:55:31Z</time>
      </trkpt>
      <trkpt lat="47.20612" lon="-1.5481">
        <ele>63</ele>
        <time>2022-05-08T11:55:34Z</time>
      </trkpt>
      <trkpt lat="47.20605" lon="-1.54802">
        <ele>64</ele>
        <time>2022-05-08T11:55:40Z</time>
      </trkpt>
      <trkpt lat="47.20598" lon="-1.54795">
        <ele>64</ele>
        <time>2022-05-08T11:55:47Z</time>
      </trkpt>
      <trkpt lat="47.20587" lon="-1.54791">
        <ele>63</ele>
        <time>2022-05-08T11:55:49Z</time>
      </trkpt>
      <trkpt lat="47.20575" lon="-1.54783">
        <ele>63</ele>
        <time>2022-05-08T11:55:51Z</time>
      </trkpt>
      <trkpt lat="47.20563" lon="-1.54776">
        <ele>64</ele>
        <time>2022-05-08T11:55:53Z</time>
      </trkpt>
      <trkpt lat="47.20552" lon="-1.54769">
        <ele>65</ele>
        <time>2022-05-08T11:55:55Z</time>
      </trkpt>
      <trkpt lat="47.20541" lon="-1.54763">
        <ele>65</ele>
        <time>2022-05-08T11:55:57Z</time>
      </trkpt>
      <trkpt lat="47.2053" lon="-1.54764">
        <ele>64</ele>
        <time>2022-05-08T11:55:59Z</time>
      </trkpt>
      <trkpt lat="47.20521" lon="-1.54774">
        <ele>63</ele>
        <time>2022-05-08T11:56:01Z</time>
      </trkpt>
      <trkpt lat="47.20516" lon="-1.54793">
        <ele>63</ele>
        <time>2022-05-08T11:56:03Z</time>
      </trkpt>
      <trkpt lat="47.2051" lon="-1.54814">
        <ele>62</ele>
        <time>2022-05-08T11:56:05Z</time>
      </trkpt>
      <trkpt lat="47.20506" lon="-1.54834">
        <ele>62</ele>
        <time>2022-05-08T11:56:07Z</time>
      </trkpt>
      <trkpt lat="47.20501" lon="-1.54853">
        <ele>62</ele>
        <time>2022-05-08T11:56:09Z</time>
      </trkpt>
      <trkpt lat="47.20496" lon="-1.54873">
        <ele>61</ele>
        <time>2022-05-08T11:56:11Z</time>
      </trkpt>
      <trkpt lat="47.2049" lon="-1.54892">
        <ele>61</ele>
        <time>2022-05-08T11:56:13Z</time>
      </trkpt>
      <trkpt lat="47.20485" lon="-1.54912">
        <ele>60</ele>
        <time>2022-05-08T11:56:15Z</time>
      </trkpt>
      <trkpt lat="47.2048" lon="-1.54932">
        <ele>60</ele>
        <time>2022-05-08T11:56:17Z</time>
      </trkpt>
      <trkpt lat="47.20474" lon="-1.54951">
        <ele>60</ele>
        <time>2022-05-08T11:56:19Z</time>
      </trkpt>
      <trkpt lat="47.20469" lon="-1.5497">
        <ele>60</ele>
        <time>2022-05-08T11:56:21Z</time>
      </trkpt>
      <trkpt lat="47.20463" lon="-1.54989">
        <ele>59</ele>
        <time>2022-05-08T11:56:23Z</time>
      </trkpt>
      <trkpt lat="47.20458" lon="-1.55008">
        <ele>59</ele>
        <time>2022-05-08T11:56:25Z</time>
      </trkpt>
      <trkpt lat="47.20452" lon="-1.55026">
        <ele>59</ele>
        <time>2022-05-08T11:56:27Z</time>
      </trkpt>
      <trkpt lat="47.20446" lon="-1.55043">
        <ele>59</ele>
        <time>2022-05-08T11:56:29Z</time>
      </trkpt>
      <trkpt lat="47.20439" lon="-1.55059">
        <ele>60</ele>
        <time>2022-05-08T11:56:31Z</time>
      </trkpt>
      <trkpt lat="47.20433" lon="-1.55075">
        <ele>60</ele>
        <time>2022-05-08T11:56:33Z</time>
      </trkpt>
      <trkpt lat="47.20426" lon="-1.55091">
        <ele>59</ele>
        <time>2022-05-08T11:56:35Z</time>
      </trkpt>
      <trkpt lat="47.2042" lon="-1.55107">
        <ele>60</ele>
        <time>2022-05-08T11:56:37Z</time>
      </trkpt>
      <trkpt lat="47.20414" lon="-1.55124">
        <ele>60</ele>
        <time>2022-05-08T11:56:39Z</time>
      </trkpt>
      <trkpt lat="47.20408" lon="-1.55139">
        <ele>60</ele>
        <time>2022-05-08T11:56:41Z</time>
      </trkpt>
      <trkpt lat="47.20403" lon="-1.55154">
        <ele>60</ele>
        <time>2022-05-08T11:56:43Z</time>
      </trkpt>
      <trkpt lat="47.20398" lon="-1.55168">
        <ele>60</ele>
        <time>2022-05-08T11:56:49Z</time>
      </trkpt>
      <trkpt lat="47.20388" lon="-1.55177">
        <ele>61</ele>
        <time>2022-05-08T11:56:52Z</time>
      </trkpt>
      <trkpt lat="47.20376" lon="-1.55183">
        <ele>60</ele>
        <time>2022-05-08T11:56:54Z</time>
      </trkpt>
      <trkpt lat="47.20366" lon="-1.55196">
        <ele>60</ele>
        <time>2022-05-08T11:56:56Z</time>
      </trkpt>
      <trkpt lat="47.20355" lon="-1.55211">
        <ele>59</ele>
        <time>2022-05-08T11:56:58Z</time>
      </trkpt>
      <trkpt lat="47.20343" lon="-1.55225">
        <ele>58</ele>
        <time>2022-05-08T11:57:00Z</time>
      </trkpt>
      <trkpt lat="47.20331" lon="-1.55239">
        <ele>58</ele>
        <time>2022-05-08T11:57:02Z</time>
      </trkpt>
      <trkpt lat="47.20318" lon="-1.55253">
        <ele>59</ele>
        <time>2022-05-08T11:57:04Z</time>
      </trkpt>
      <trkpt lat="47.20308" lon="-1.55266">
        <ele>59</ele>
        <time>2022-05-08T11:57:06Z</time>
      </trkpt>
      <trkpt lat="47.20299" lon="-1.55277">
        <ele>59</ele>
        <time>2022-05-08T11:57:08Z</time>
      </trkpt>
      <trkpt lat="47.2029" lon="-1.55289">
        <ele>59</ele>
        <time>2022-05-08T11:57:10Z</time>
      </trkpt>
      <trkpt lat="47.20281" lon="-1.55302">
        <ele>59</ele>
        <time>2022-05-08T11:57:12Z</time>
      </trkpt>
      <trkpt lat="47.20271" lon="-1.55316">
        <ele>59</ele>
        <time>2022-05-08T11:57:14Z</time>
      </trkpt>
      <trkpt lat="47.20262" lon="-1.55329">
        <ele>59</ele>
        <time>2022-05-08T11:57:16Z</time>
      </trkpt>
      <trkpt lat="47.20252" lon="-1.55343">
        <ele>58</ele>
        <time>2022-05-08T11:57:18Z</time>
      </trkpt>
      <trkpt lat="47.20242" lon="-1.55357">
        <ele>58</ele>
        <time>2022-05-08T11:57:20Z</time>
      </trkpt>
      <trkpt lat="47.20232" lon="-1.55369">
        <ele>57</ele>
        <time>2022-05-08T11:57:22Z</time>
      </trkpt>
      <trkpt lat="47.20221" lon="-1.55382">
        <ele>57</ele>
        <time>2022-05-08T11:57:24Z</time>
      </trkpt>
      <trkpt lat="47.20211" lon="-1.55395">
        <ele>57</ele>
        <time>2022-05-08T11:57:26Z</time>
      </trkpt>
      <trkpt lat="47.20202" lon="-1.55407">
        <ele>58</ele>
        <time>2022-05-08T11:57:28Z</time>
      </trkpt>
      <trkpt lat="47.20196" lon="-1.5542">
        <ele>58</ele>
        <time>2022-05-08T11:57:30Z</time>
      </trkpt>
      <trkpt lat="47.20191" lon="-1.55434">
        <ele>58</ele>
        <time>2022-05-08T11:57:32Z</time>
      </trkpt>
      <trkpt lat="47.20185" lon="-1.55451">
        <ele>58</ele>
        <time>2022-05-08T11:57:34Z</time>
      </trkpt>
      <trkpt lat="47.2018" lon="-1.55468">
        <ele>59</ele>
        <time>2022-05-08T11:57:36Z</time>
      </trkpt>
      <trkpt lat="47.20177" lon="-1.55487">
        <ele>59</ele>
        <time>2022-05-08T11:57:38Z</time>
      </trkpt>
      <trkpt lat="47.20178" lon="-1.55506">
        <ele>58</ele>
        <time>2022-05-08T11:57:40Z</time>
      </trkpt>
      <trkpt lat="47.20184" lon="-1.55523">
        <ele>59</ele>
        <time>2022-05-08T11:57:42Z</time>
      </trkpt>
      <trkpt lat="47.20195" lon="-1.55533">
        <ele>59</ele>
        <time>2022-05-08T11:57:44Z</time>
      </trkpt>
      <trkpt lat="47.20207" lon="-1.55539">
        <ele>59</ele>
        <time>2022-05-08T11:57:46Z</time>
      </trkpt>
      <trkpt lat="47.20219" lon="-1.55544">
        <ele>59</ele>
        <time>2022-05-08T11:57:48Z</time>
      </trkpt>
      <trkpt lat="47.20231" lon="-1.5555">
        <ele>60</ele>
        <time>2022-05-08T11:57:50Z</time>
      </trkpt>
      <trkpt lat="47.20243" lon="-1.55556">
        <ele>60</ele>
        <time>2022-05-08T11:57:52Z</time>
      </trkpt>
      <trkpt lat="47.20256" lon="-1.55561">
        <ele>60</ele>
        <time>2022-05-08T11:57:54Z</time>
      </trkpt>
      <trkpt lat="47.20268" lon="-1.55564">
        <ele>61</ele>
        <time>2022-05-08T11:57:56Z</time>
      </trkpt>
      <trkpt lat="47.2028" lon="-1.55567">
        <ele>61</ele>
        <time>2022-05-08T11:57:58Z</time>
      </trkpt>
      <trkpt lat="47.2029" lon="-1.55574">
        <ele>61</ele>
        <time>2022-05-08T11:58:00Z</time>
      </trkpt>
      <trkpt lat="47.20297" lon="-1.55588">
        <ele>61</ele>
        <time>2022-05-08T11:58:02Z</time>
      </trkpt>
      <trkpt lat="47.20297" lon="-1.55605">
        <ele>61</ele>
        <time>2022-05-08T11:58:04Z</time>
      </trkpt>
      <trkpt lat="47.20296" lon="-1.55623">
        <ele>60</ele>
        <time>2022-05-08T11:58:06Z</time>
      </trkpt>
      <trkpt lat="47.20293" lon="-1.55641">
        <ele>60</ele>
        <time>2022-05-08T11:58:08Z</time>
      </trkpt>
      <trkpt lat="47.20291" lon="-1.5566">
        <ele>60</ele>
        <time>2022-05-08T11:58:10Z</time>
      </trkpt>
      <trkpt lat="47.20289" lon="-1.5568">
        <ele>60</ele>
        <time>2022-05-08T11:58:12Z</time>
      </trkpt>
      <trkpt lat="47.20287" lon="-1.557">
        <ele>60</ele>
        <time>2022-05-08T11:58:14Z</time>
      </trkpt>
      <trkpt lat="47.20285" lon="-1.55719">
        <ele>59</ele>
        <time>2022-05-08T11:58:16Z</time>
      </trkpt>
      <trkpt lat="47.20283" lon="-1.55739">
        <ele>60</ele>
        <time>2022-05-08T11:58:18Z</time>
      </trkpt>
      <trkpt lat="47.20281" lon="-1.55758">
        <ele>60</ele>
        <time>2022-05-08T11:58:20Z</time>
      </trkpt>
      <trkpt lat="47.20279" lon="-1.55779">
        <ele>60</ele>
        <time>2022-05-08T11:58:22Z</time>
      </trkpt>
      <trkpt lat="47.20277" lon="-1.55799">
        <ele>59</ele>
        <time>2022-05-08T11:58:24Z</time>
      </trkpt>
      <trkpt lat="47.20275" lon="-1.55819">
        <ele>59</ele>
        <time>2022-05-08T11:58:26Z</time>
      </trkpt>
      <trkpt lat="47.20273" lon="-1.55838">
        <ele>59</ele>
        <time>2022-05-08T11:58:28Z</time>
      </trkpt>
      <trkpt lat="47.20271" lon="-1.55858">
        <ele>59</ele>
        <time>2022-05-08T11:58:30Z</time>
      </trkpt>
      <trkpt lat="47.20269" lon="-1.55879">
        <ele>58</ele>
        <time>2022-05-08T11:58:32Z</time>
      </trkpt>
      <trkpt lat="47.20267" lon="-1.55898">
        <ele>58</ele>
        <time>2022-05-08T11:58:34Z</time>
      </trkpt>
      <trkpt lat="47.20265" lon="-1.55918">
        <ele>58</ele>
        <time>2022-05-08T11:58:36Z</time>
      </trkpt>
      <trkpt lat="47.20263" lon="-1.55938">
        <ele>58</ele>
        <time>2022-05-08T11:58:38Z</time>
      </trkpt>
      <trkpt lat="47.2026" lon="-1.55958">
        <ele>58</ele>
        <time>2022-05-08T11:58:40Z</time>
      </trkpt>
      <trkpt lat="47.20259" lon="-1.55977">
        <ele>58</ele>
        <time>2022-05-08T11:58:42Z</time>
      </trkpt>
      <trkpt lat="47.20257" lon="-1.55997">
        <ele>57</ele>
        <time>2022-05-08T11:58:44Z</time>
      </trkpt>
      <trkpt lat="47.20254" lon="-1.56017">
        <ele>58</ele>
        <time>2022-05-08T11:58:46Z</time>
      </trkpt>
      <trkpt lat="47.20252" lon="-1.56038">
        <ele>58</ele>
        <time>2022-05-08T11:58:48Z</time>
      </trkpt>
      <trkpt lat="47.2025" lon="-1.56058">
        <ele>58</ele>
        <time>2022-05-08T11:58:50Z</time>
      </trkpt>
      <trkpt lat="47.20248" lon="-1.56079">
        <ele>58</ele>
        <time>2022-05-08T11:58:52Z</time>
      </trkpt>
      <trkpt lat="47.20245" lon="-1.56099">
        <ele>58</ele>
        <time>2022-05-08T11:58:54Z</time>
      </trkpt>
      <trkpt lat="47.20243" lon="-1.5612">
        <ele>58</ele>
        <time>2022-05-08T11:58:56Z</time>
      </trkpt>
      <trkpt lat="47.20237" lon="-1.56139">
        <ele>58</ele>
        <time>2022-05-08T11:58:58Z</time>
      </trkpt>
      <trkpt lat="47.20227" lon="-1.56154">
        <ele>57</ele>
        <time>2022-05-08T11:59:00Z</time>
      </trkpt>
      <trkpt lat="47.20215" lon="-1.56165">
        <ele>58</ele>
        <time>2022-05-08T11:59:02Z</time>
      </trkpt>
      <trkpt lat="47.20202" lon="-1.56173">
        <ele>57</ele>
        <time>2022-05-08T11:59:04Z</time>
      </trkpt>
      <trkpt lat="47.2019" lon="-1.56181">
        <ele>57</ele>
        <time>2022-05-08T11:59:06Z</time>
      </trkpt>
      <trkpt lat="47.20179" lon="-1.56193">
        <ele>57</ele>
        <time>2022-05-08T11:59:08Z</time>
      </trkpt>
      <trkpt lat="47.20166" lon="-1.56195">
        <ele>56</ele>
        <time>2022-05-08T11:59:10Z</time>
      </trkpt>
      <trkpt lat="47.20155" lon="-1.56186">
        <ele>56</ele>
        <time>2022-05-08T11:59:12Z</time>
      </trkpt>
      <trkpt lat="47.20142" lon="-1.56182">
        <ele>56</ele>
        <time>2022-05-08T11:59:14Z</time>
      </trkpt>
      <trkpt lat="47.20129" lon="-1.56181">
        <ele>56</ele>
        <time>2022-05-08T11:59:16Z</time>
      </trkpt>
      <trkpt lat="47.20116" lon="-1.56181">
        <ele>57</ele>
        <time>2022-05-08T11:59:18Z</time>
      </trkpt>
      <trkpt lat="47.20103" lon="-1.56182">
        <ele>57</ele>
        <time>2022-05-08T11:59:20Z</time>
      </trkpt>
      <trkpt lat="47.20091" lon="-1.56182">
        <ele>58</ele>
        <time>2022-05-08T11:59:22Z</time>
      </trkpt>
      <trkpt lat="47.20078" lon="-1.56182">
        <ele>58</ele>
        <time>2022-05-08T11:59:24Z</time>
      </trkpt>
      <trkpt lat="47.20065" lon="-1.56182">
        <ele>58</ele>
        <time>2022-05-08T11:59:26Z</time>
      </trkpt>
      <trkpt lat="47.20052" lon="-1.56182">
        <ele>58</ele>
        <time>2022-05-08T11:59:28Z</time>
      </trkpt>
      <trkpt lat="47.20039" lon="-1.56183">
        <ele>58</ele>
        <time>2022-05-08T11:59:30Z</time>
      </trkpt>
      <trkpt lat="47.20026" lon="-1.56183">
        <ele>57</ele>
        <time>2022-05-08T11:59:32Z</time>
      </trkpt>
      <trkpt lat="47.20014" lon="-1.56185">
        <ele>58</ele>
        <time>2022-05-08T11:59:34Z</time>
      </trkpt>
      <trkpt lat="47.20003" lon="-1.5619">
        <ele>58</ele>
        <time>2022-05-08T11:59:36Z</time>
      </trkpt>
      <trkpt lat="47.1999" lon="-1.56193">
        <ele>58</ele>
        <time>2022-05-08T11:59:38Z</time>
      </trkpt>
      <trkpt lat="47.19979" lon="-1.56187">
        <ele>58</ele>
        <time>2022-05-08T11:59:40Z</time>
      </trkpt>
      <trkpt lat="47.19974" lon="-1.56172">
        <ele>58</ele>
        <time>2022-05-08T11:59:42Z</time>
      </trkpt>
      <trkpt lat="47.19964" lon="-1.56165">
        <ele>58</ele>
        <time>2022-05-08T11:59:44Z</time>
      </trkpt>
      <trkpt lat="47.19951" lon="-1.56169">
        <ele>58</ele>
        <time>2022-05-08T11:59:46Z</time>
      </trkpt>
      <trkpt lat="47.19937" lon="-1.56172">
        <ele>58</ele>
        <time>2022-05-08T11:59:48Z</time>
      </trkpt>
      <trkpt lat="47.19924" lon="-1.56174">
        <ele>59</ele>
        <time>2022-05-08T11:59:50Z</time>
      </trkpt>
      <trkpt lat="47.19911" lon="-1.56176">
        <ele>60</ele>
        <time>2022-05-08T11:59:52Z</time>
      </trkpt>
      <trkpt lat="47.19897" lon="-1.56179">
        <ele>60</ele>
        <time>2022-05-08T11:59:54Z</time>
      </trkpt>
      <trkpt lat="47.19885" lon="-1.5618">
        <ele>61</ele>
        <time>2022-05-08T11:59:56Z</time>
      </trkpt>
      <trkpt lat="47.19873" lon="-1.56183">
        <ele>62</ele>
        <time>2022-05-08T11:59:58Z</time>
      </trkpt>
      <trkpt lat="47.19861" lon="-1.56185">
        <ele>62</ele>
        <time>2022-05-08T12:00:00Z</time>
      </trkpt>
      <trkpt lat="47.1985" lon="-1.56187">
        <ele>63</ele>
        <time>2022-05-08T12:00:02Z</time>
      </trkpt>
      <trkpt lat="47.19838" lon="-1.56189">
        <ele>63</ele>
        <time>2022-05-08T12:00:04Z</time>
      </trkpt>
      <trkpt lat="47.19827" lon="-1.56192">
        <ele>63</ele>
        <time>2022-05-08T12:00:06Z</time>
      </trkpt>
      <trkpt lat="47.19815" lon="-1.56193">
        <ele>63</ele>
        <time>2022-05-08T12:00:08Z</time>
      </trkpt>
      <trkpt lat="47.19804" lon="-1.56195">
        <ele>63</ele>
        <time>2022-05-08T12:00:10Z</time>
      </trkpt>
      <trkpt lat="47.19793" lon="-1.56198">
        <ele>63</ele>
        <time>2022-05-08T12:00:12Z</time>
      </trkpt>
      <trkpt lat="47.19781" lon="-1.562">
        <ele>63</ele>
        <time>2022-05-08T12:00:14Z</time>
      </trkpt>
      <trkpt lat="47.19769" lon="-1.56202">
        <ele>62</ele>
        <time>2022-05-08T12:00:16Z</time>
      </trkpt>
      <trkpt lat="47.19757" lon="-1.56204">
        <ele>62</ele>
        <time>2022-05-08T12:00:18Z</time>
      </trkpt>
      <trkpt lat="47.19744" lon="-1.56207">
        <ele>62</ele>
        <time>2022-05-08T12:00:20Z</time>
      </trkpt>
      <trkpt lat="47.19731" lon="-1.56209">
        <ele>61</ele>
        <time>2022-05-08T12:00:22Z</time>
      </trkpt>
      <trkpt lat="47.19717" lon="-1.56212">
        <ele>60</ele>
        <time>2022-05-08T12:00:24Z</time>
      </trkpt>
      <trkpt lat="47.19703" lon="-1.56215">
        <ele>59</ele>
        <time>2022-05-08T12:00:26Z</time>
      </trkpt>
      <trkpt lat="47.19688" lon="-1.56217">
        <ele>59</ele>
        <time>2022-05-08T12:00:28Z</time>
      </trkpt>
      <trkpt lat="47.19673" lon="-1.56222">
        <ele>58</ele>
        <time>2022-05-08T12:00:30Z</time>
      </trkpt>
      <trkpt lat="47.19657" lon="-1.56227">
        <ele>57</ele>
        <time>2022-05-08T12:00:32Z</time>
      </trkpt>
      <trkpt lat="47.19642" lon="-1.56233">
        <ele>57</ele>
        <time>2022-05-08T12:00:34Z</time>
      </trkpt>
      <trkpt lat="47.19635" lon="-1.56255">
        <ele>57</ele>
        <time>2022-05-08T12:00:36Z</time>
      </trkpt>
      <trkpt lat="47.19634" lon="-1.56279">
        <ele>57</ele>
        <time>2022-05-08T12:00:38Z</time>
      </trkpt>
      <trkpt lat="47.19633" lon="-1.56301">
        <ele>56</ele>
        <time>2022-05-08T12:00:40Z</time>
      </trkpt>
      <trkpt lat="47.19632" lon="-1.56322">
        <ele>56</ele>
        <time>2022-05-08T12:00:42Z</time>
      </trkpt>
      <trkpt lat="47.19631" lon="-1.56342">
        <ele>56</ele>
        <time>2022-05-08T12:00:44Z</time>
      </trkpt>
      <trkpt lat="47.1963" lon="-1.56363">
        <ele>56</ele>
        <time>2022-05-08T12:00:46Z</time>
      </trkpt>
      <trkpt lat="47.19631" lon="-1.56384">
        <ele>55</ele>
        <time>2022-05-08T12:00:48Z</time>
      </trkpt>
      <trkpt lat="47.19632" lon="-1.56405">
        <ele>55</ele>
        <time>2022-05-08T12:00:50Z</time>
      </trkpt>
      <trkpt lat="47.19633" lon="-1.56426">
        <ele>55</ele>
        <time>2022-05-08T12:00:52Z</time>
      </trkpt>
      <trkpt lat="47.19633" lon="-1.56446">
        <ele>55</ele>
        <time>2022-05-08T12:00:54Z</time>
      </trkpt>
      <trkpt lat="47.19634" lon="-1.56467">
        <ele>55</ele>
        <time>2022-05-08T12:00:56Z</time>
      </trkpt>
      <trkpt lat="47.19634" lon="-1.56487">
        <ele>55</ele>
        <time>2022-05-08T12:00:58Z</time>
      </trkpt>
      <trkpt lat="47.19634" lon="-1.56508">
        <ele>55</ele>
        <time>2022-05-08T12:01:00Z</time>
      </trkpt>
      <trkpt lat="47.19633" lon="-1.56528">
        <ele>55</ele>
        <time>2022-05-08T12:01:02Z</time>
      </trkpt>
      <trkpt lat="47.19632" lon="-1.56548">
        <ele>56</ele>
        <time>2022-05-08T12:01:04Z</time>
      </trkpt>
      <trkpt lat="47.19631" lon="-1.56568">
        <ele>57</ele>
        <time>2022-05-08T12:01:06Z</time>
      </trkpt>
      <trkpt lat="47.1963" lon="-1.56588">
        <ele>57</ele>
        <time>2022-05-08T12:01:08Z</time>
      </trkpt>
      <trkpt lat="47.19629" lon="-1.56608">
        <ele>58</ele>
        <time>2022-05-08T12:01:10Z</time>
      </trkpt>
      <trkpt lat="47.19628" lon="-1.56628">
        <ele>58</ele>
        <time>2022-05-08T12:01:12Z</time>
      </trkpt>
      <trkpt lat="47.19627" lon="-1.56649">
        <ele>58</ele>
        <time>2022-05-08T12:01:14Z</time>
      </trkpt>
      <trkpt lat="47.19627" lon="-1.56669">
        <ele>59</ele>
        <time>2022-05-08T12:01:16Z</time>
      </trkpt>
      <trkpt lat="47.19626" lon="-1.56689">
        <ele>59</ele>
        <time>2022-05-08T12:01:18Z</time>
      </trkpt>
      <trkpt lat="47.19625" lon="-1.56709">
        <ele>60</ele>
        <time>2022-05-08T12:01:20Z</time>
      </trkpt>
      <trkpt lat="47.19623" lon="-1.5673">
        <ele>60</ele>
        <time>2022-05-08T12:01:22Z</time>
      </trkpt>
      <trkpt lat="47.19621" lon="-1.5675">
        <ele>60</ele>
        <time>2022-05-08T12:01:24Z</time>
      </trkpt>
      <trkpt lat="47.19621" lon="-1.56771">
        <ele>60</ele>
        <time>2022-05-08T12:01:26Z</time>
      </trkpt>
      <trkpt lat="47.1962" lon="-1.56792">
        <ele>59</ele>
        <time>2022-05-08T12:01:28Z</time>
      </trkpt>
      <trkpt lat="47.19618" lon="-1.56812">
        <ele>59</ele>
        <time>2022-05-08T12:01:30Z</time>
      </trkpt>
      <trkpt lat="47.19617" lon="-1.56832">
        <ele>59</ele>
        <time>2022-05-08T12:01:32Z</time>
      </trkpt>
      <trkpt lat="47.19617" lon="-1.56853">
        <ele>59</ele>
        <time>2022-05-08T12:01:34Z</time>
      </trkpt>
      <trkpt lat="47.19616" lon="-1.56873">
        <ele>59</ele>
        <time>2022-05-08T12:01:36Z</time>
      </trkpt>
      <trkpt lat="47.19614" lon="-1.56893">
        <ele>60</ele>
        <time>2022-05-08T12:01:38Z</time>
      </trkpt>
      <trkpt lat="47.19612" lon="-1.56914">
        <ele>59</ele>
        <time>2022-05-08T12:01:40Z</time>
      </trkpt>
      <trkpt lat="47.19611" lon="-1.56934">
        <ele>59</ele>
        <time>2022-05-08T12:01:42Z</time>
      </trkpt>
      <trkpt lat="47.19611" lon="-1.56955">
        <ele>59</ele>
        <time>2022-05-08T12:01:44Z</time>
      </trkpt>
      <trkpt lat="47.19609" lon="-1.56976">
        <ele>58</ele>
        <time>2022-05-08T12:01:46Z</time>
      </trkpt>
      <trkpt lat="47.19607" lon="-1.56998">
        <ele>57</ele>
        <time>2022-05-08T12:01:48Z</time>
      </trkpt>
      <trkpt lat="47.19605" lon="-1.57019">
        <ele>58</ele>
        <time>2022-05-08T12:01:50Z</time>
      </trkpt>
      <trkpt lat="47.19604" lon="-1.5704">
        <ele>58</ele>
        <time>2022-05-08T12:01:52Z</time>
      </trkpt>
      <trkpt lat="47.19602" lon="-1.5706">
        <ele>58</ele>
        <time>2022-05-08T12:01:54Z</time>
      </trkpt>
      <trkpt lat="47.19601" lon="-1.57081">
        <ele>58</ele>
        <time>2022-05-08T12:01:56Z</time>
      </trkpt>
      <trkpt lat="47.19601" lon="-1.57101">
        <ele>58</ele>
        <time>2022-05-08T12:01:58Z</time>
      </trkpt>
      <trkpt lat="47.196" lon="-1.57122">
        <ele>58</ele>
        <time>2022-05-08T12:02:00Z</time>
      </trkpt>
      <trkpt lat="47.19598" lon="-1.57142">
        <ele>58</ele>
        <time>2022-05-08T12:02:02Z</time>
      </trkpt>
      <trkpt lat="47.19597" lon="-1.57163">
        <ele>58</ele>
        <time>2022-05-08T12:02:04Z</time>
      </trkpt>
      <trkpt lat="47.19596" lon="-1.57183">
        <ele>58</ele>
        <time>2022-05-08T12:02:06Z</time>
      </trkpt>
      <trkpt lat="47.19595" lon="-1.57204">
        <ele>58</ele>
        <time>2022-05-08T12:02:08Z</time>
      </trkpt>
      <trkpt lat="47.19594" lon="-1.57224">
        <ele>58</ele>
        <time>2022-05-08T12:02:10Z</time>
      </trkpt>
      <trkpt lat="47.19592" lon="-1.57244">
        <ele>57</ele>
        <time>2022-05-08T12:02:12Z</time>
      </trkpt>
      <trkpt lat="47.19589" lon="-1.57264">
        <ele>57</ele>
        <time>2022-05-08T12:02:14Z</time>
      </trkpt>
      <trkpt lat="47.19588" lon="-1.57283">
        <ele>58</ele>
        <time>2022-05-08T12:02:16Z</time>
      </trkpt>
      <trkpt lat="47.19587" lon="-1.57302">
        <ele>58</ele>
        <time>2022-05-08T12:02:18Z</time>
      </trkpt>
      <trkpt lat="47.19585" lon="-1.57321">
        <ele>58</ele>
        <time>2022-05-08T12:02:20Z</time>
      </trkpt>
      <trkpt lat="47.19581" lon="-1.5734">
        <ele>58</ele>
        <time>2022-05-08T12:02:22Z</time>
      </trkpt>
      <trkpt lat="47.19577" lon="-1.57357">
        <ele>57</ele>
        <time>2022-05-08T12:02:24Z</time>
      </trkpt>
      <trkpt lat="47.19574" lon="-1.57375">
        <ele>57</ele>
        <time>2022-05-08T12:02:26Z</time>
      </trkpt>
      <trkpt lat="47.1957" lon="-1.57394">
        <ele>58</ele>
        <time>2022-05-08T12:02:28Z</time>
      </trkpt>
      <trkpt lat="47.19566" lon="-1.57413">
        <ele>59</ele>
        <time>2022-05-08T12:02:30Z</time>
      </trkpt>
      <trkpt lat="47.19562" lon="-1.57432">
        <ele>60</ele>
        <time>2022-05-08T12:02:32Z</time>
      </trkpt>
      <trkpt lat="47.19559" lon="-1.57451">
        <ele>59</ele>
        <time>2022-05-08T12:02:34Z</time>
      </trkpt>
      <trkpt lat="47.19555" lon="-1.5747">
        <ele>59</ele>
        <time>2022-05-08T12:02:36Z</time>
      </trkpt>
      <trkpt lat="47.19551" lon="-1.5749">
        <ele>59</ele>
        <time>2022-05-08T12:02:38Z</time>
      </trkpt>
      <trkpt lat="47.19548" lon="-1.5751">
        <ele>58</ele>
        <time>2022-05-08T12:02:40Z</time>
      </trkpt>
      <trkpt lat="47.19544" lon="-1.5753">
        <ele>58</ele>
        <time>2022-05-08T12:02:42Z</time>
      </trkpt>
      <trkpt lat="47.1954" lon="-1.57549">
        <ele>58</ele>
        <time>2022-05-08T12:02:44Z</time>
      </trkpt>
      <trkpt lat="47.19537" lon="-1.57568">
        <ele>58</ele>
        <time>2022-05-08T12:02:46Z</time>
      </trkpt>
      <trkpt lat="47.19533" lon="-1.57587">
        <ele>58</ele>
        <time>2022-05-08T12:02:48Z</time>
      </trkpt>
      <trkpt lat="47.19529" lon="-1.57607">
        <ele>58</ele>
        <time>2022-05-08T12:02:50Z</time>
      </trkpt>
      <trkpt lat="47.19525" lon="-1.57625">
        <ele>58</ele>
        <time>2022-05-08T12:02:52Z</time>
      </trkpt>
      <trkpt lat="47.19521" lon="-1.57644">
        <ele>58</ele>
        <time>2022-05-08T12:02:54Z</time>
      </trkpt>
      <trkpt lat="47.19517" lon="-1.57663">
        <ele>57</ele>
        <time>2022-05-08T12:02:56Z</time>
      </trkpt>
      <trkpt lat="47.19513" lon="-1.57682">
        <ele>57</ele>
        <time>2022-05-08T12:02:58Z</time>
      </trkpt>
      <trkpt lat="47.1951" lon="-1.57701">
        <ele>57</ele>
        <time>2022-05-08T12:03:00Z</time>
      </trkpt>
      <trkpt lat="47.19506" lon="-1.5772">
        <ele>58</ele>
        <time>2022-05-08T12:03:02Z</time>
      </trkpt>
      <trkpt lat="47.19502" lon="-1.57739">
        <ele>58</ele>
        <time>2022-05-08T12:03:04Z</time>
      </trkpt>
      <trkpt lat="47.19497" lon="-1.57759">
        <ele>58</ele>
        <time>2022-05-08T12:03:06Z</time>
      </trkpt>
      <trkpt lat="47.19494" lon="-1.57779">
        <ele>57</ele>
        <time>2022-05-08T12:03:08Z</time>
      </trkpt>
      <trkpt lat="47.19489" lon="-1.57798">
        <ele>57</ele>
        <time>2022-05-08T12:03:10Z</time>
      </trkpt>
      <trkpt lat="47.19486" lon="-1.57817">
        <ele>57</ele>
        <time>2022-05-08T12:03:12Z</time>
      </trkpt>
      <trkpt lat="47.19483" lon="-1.57837">
        <ele>57</ele>
        <time>2022-05-08T12:03:14Z</time>
      </trkpt>
      <trkpt lat="47.19481" lon="-1.57857">
        <ele>57</ele>
        <time>2022-05-08T12:03:16Z</time>
      </trkpt>
      <trkpt lat="47.19479" lon="-1.57876">
        <ele>57</ele>
        <time>2022-05-08T12:03:18Z</time>
      </trkpt>
      <trkpt lat="47.19475" lon="-1.57896">
        <ele>57</ele>
        <time>2022-05-08T12:03:20Z</time>
      </trkpt>
      <trkpt lat="47.19472" lon="-1.57916">
        <ele>57</ele>
        <time>2022-05-08T12:03:22Z</time>
      </trkpt>
      <trkpt lat="47.1947" lon="-1.57935">
        <ele>57</ele>
        <time>2022-05-08T12:03:24Z</time>
      </trkpt>
      <trkpt lat="47.19467" lon="-1.57954">
        <ele>57</ele>
        <time>2022-05-08T12:03:26Z</time>
      </trkpt>
      <trkpt lat="47.19466" lon="-1.57971">
        <ele>57</ele>
        <time>2022-05-08T12:03:28Z</time>
      </trkpt>
      <trkpt lat="47.19465" lon="-1.57989">
        <ele>57</ele>
        <time>2022-05-08T12:03:30Z</time>
      </trkpt>
      <trkpt lat="47.19463" lon="-1.58007">
        <ele>57</ele>
        <time>2022-05-08T12:03:32Z</time>
      </trkpt>
      <trkpt lat="47.19462" lon="-1.58026">
        <ele>57</ele>
        <time>2022-05-08T12:03:34Z</time>
      </trkpt>
      <trkpt lat="47.1946" lon="-1.58044">
        <ele>57</ele>
        <time>2022-05-08T12:03:36Z</time>
      </trkpt>
      <trkpt lat="47.19458" lon="-1.58061">
        <ele>57</ele>
        <time>2022-05-08T12:03:38Z</time>
      </trkpt>
      <trkpt lat="47.19456" lon="-1.58078">
        <ele>57</ele>
        <time>2022-05-08T12:03:40Z</time>
      </trkpt>
      <trkpt lat="47.19453" lon="-1.58093">
        <ele>57</ele>
        <time>2022-05-08T12:03:42Z</time>
      </trkpt>
      <trkpt lat="47.19443" lon="-1.58104">
        <ele>58</ele>
        <time>2022-05-08T12:03:44Z</time>
      </trkpt>
      <trkpt lat="47.19433" lon="-1.58117">
        <ele>57</ele>
        <time>2022-05-08T12:03:46Z</time>
      </trkpt>
      <trkpt lat="47.19424" lon="-1.5813">
        <ele>57</ele>
        <time>2022-05-08T12:03:48Z</time>
      </trkpt>
      <trkpt lat="47.19413" lon="-1.58141">
        <ele>57</ele>
        <time>2022-05-08T12:03:50Z</time>
      </trkpt>
      <trkpt lat="47.19404" lon="-1.58154">
        <ele>57</ele>
        <time>2022-05-08T12:03:52Z</time>
      </trkpt>
      <trkpt lat="47.19397" lon="-1.5817">
        <ele>57</ele>
        <time>2022-05-08T12:03:54Z</time>
      </trkpt>
      <trkpt lat="47.1939" lon="-1.58186">
        <ele>57</ele>
        <time>2022-05-08T12:03:56Z</time>
      </trkpt>
      <trkpt lat="47.19383" lon="-1.58203">
        <ele>57</ele>
        <time>2022-05-08T12:03:58Z</time>
      </trkpt>
      <trkpt lat="47.19376" lon="-1.58219">
        <ele>57</ele>
        <time>2022-05-08T12:04:00Z</time>
      </trkpt>
      <trkpt lat="47.1937" lon="-1.58237">
        <ele>57</ele>
        <time>2022-05-08T12:04:02Z</time>
      </trkpt>
      <trkpt lat="47.19363" lon="-1.58254">
        <ele>56</ele>
        <time>2022-05-08T12:04:04Z</time>
      </trkpt>
      <trkpt lat="47.19355" lon="-1.5827">
        <ele>57</ele>
        <time>2022-05-08T12:04:06Z</time>
      </trkpt>
      <trkpt lat="47.19346" lon="-1.58283">
        <ele>56</ele>
        <time>2022-05-08T12:04:08Z</time>
      </trkpt>
      <trkpt lat="47.19335" lon="-1.58294">
        <ele>56</ele>
        <time>2022-05-08T12:04:10Z</time>
      </trkpt>
      <trkpt lat="47.19324" lon="-1.58305">
        <ele>56</ele>
        <time>2022-05-08T12:04:12Z</time>
      </trkpt>
      <trkpt lat="47.19313" lon="-1.58315">
        <ele>56</ele>
        <time>2022-05-08T12:04:14Z</time>
      </trkpt>
      <trkpt lat="47.19302" lon="-1.58325">
        <ele>56</ele>
        <time>2022-05-08T12:04:16Z</time>
      </trkpt>
      <trkpt lat="47.19291" lon="-1.58335">
        <ele>56</ele>
        <time>2022-05-08T12:04:18Z</time>
      </trkpt>
      <trkpt lat="47.19281" lon="-1.58347">
        <ele>56</ele>
        <time>2022-05-08T12:04:20Z</time>
      </trkpt>
      <trkpt lat="47.19272" lon="-1.58356">
        <ele>56</ele>
        <time>2022-05-08T12:04:22Z</time>
      </trkpt>
      <trkpt lat="47.19262" lon="-1.58364">
        <ele>56</ele>
        <time>2022-05-08T12:04:24Z</time>
      </trkpt>
      <trkpt lat="47.1925" lon="-1.58374">
        <ele>56</ele>
        <time>2022-05-08T12:04:26Z</time>
      </trkpt>
      <trkpt lat="47.19238" lon="-1.58384">
        <ele>56</ele>
        <time>2022-05-08T12:04:28Z</time>
      </trkpt>
      <trkpt lat="47.19226" lon="-1.58395">
        <ele>57</ele>
        <time>2022-05-08T12:04:30Z</time>
      </trkpt>
      <trkpt lat="47.19214" lon="-1.58406">
        <ele>57</ele>
        <time>2022-05-08T12:04:32Z</time>
      </trkpt>
      <trkpt lat="47.19203" lon="-1.58417">
        <ele>57</ele>
        <time>2022-05-08T12:04:34Z</time>
      </trkpt>
      <trkpt lat="47.19191" lon="-1.58427">
        <ele>56</ele>
        <time>2022-05-08T12:04:36Z</time>
      </trkpt>
      <trkpt lat="47.1918" lon="-1.58437">
        <ele>56</ele>
        <time>2022-05-08T12:04:38Z</time>
      </trkpt>
      <trkpt lat="47.19169" lon="-1.58448">
        <ele>56</ele>
        <time>2022-05-08T12:04:40Z</time>
      </trkpt>
      <trkpt lat="47.19159" lon="-1.58459">
        <ele>56</ele>
        <time>2022-05-08T12:04:42Z</time>
      </trkpt>
      <trkpt lat="47.1915" lon="-1.58469">
        <ele>56</ele>
        <time>2022-05-08T12:04:44Z</time>
      </trkpt>
      <trkpt lat="47.19141" lon="-1.58479">
        <ele>55</ele>
        <time>2022-05-08T12:04:46Z</time>
      </trkpt>
      <trkpt lat="47.19129" lon="-1.5849">
        <ele>55</ele>
        <time>2022-05-08T12:04:48Z</time>
      </trkpt>
      <trkpt lat="47.19116" lon="-1.58502">
        <ele>56</ele>
        <time>2022-05-08T12:04:50Z</time>
      </trkpt>
      <trkpt lat="47.19104" lon="-1.58513">
        <ele>56</ele>
        <time>2022-05-08T12:04:52Z</time>
      </trkpt>
      <trkpt lat="47.19092" lon="-1.58525">
        <ele>56</ele>
        <time>2022-05-08T12:04:54Z</time>
      </trkpt>
      <trkpt lat="47.1908" lon="-1.58536">
        <ele>56</ele>
        <time>2022-05-08T12:04:56Z</time>
      </trkpt>
      <trkpt lat="47.19069" lon="-1.58547">
        <ele>56</ele>
        <time>2022-05-08T12:04:58Z</time>
      </trkpt>
      <trkpt lat="47.19058" lon="-1.58559">
        <ele>56</ele>
        <time>2022-05-08T12:05:00Z</time>
      </trkpt>
      <trkpt lat="47.19047" lon="-1.58572">
        <ele>56</ele>
        <time>2022-05-08T12:05:02Z</time>
      </trkpt>
      <trkpt lat="47.19035" lon="-1.58583">
        <ele>56</ele>
        <time>2022-05-08T12:05:04Z</time>
      </trkpt>
      <trkpt lat="47.19024" lon="-1.58595">
        <ele>57</ele>
        <time>2022-05-08T12:05:06Z</time>
      </trkpt>
      <trkpt lat="47.19013" lon="-1.58607">
        <ele>57</ele>
        <time>2022-05-08T12:05:08Z</time>
      </trkpt>
      <trkpt lat="47.19002" lon="-1.58618">
        <ele>58</ele>
        <time>2022-05-08T12:05:10Z</time>
      </trkpt>
      <trkpt lat="47.18991" lon="-1.58629">
        <ele>57</ele>
        <time>2022-05-08T12:05:12Z</time>
      </trkpt>
      <trkpt lat="47.1898" lon="-1.5864">
        <ele>58</ele>
        <time>2022-05-08T12:05:14Z</time>
      </trkpt>
      <trkpt lat="47.18969" lon="-1.58651">
        <ele>58</ele>
        <time>2022-05-08T12:05:16Z</time>
      </trkpt>
      <trkpt lat="47.18958" lon="-1.58662">
        <ele>57</ele>
        <time>2022-05-08T12:05:18Z</time>
      </trkpt>
      <trkpt lat="47.18946" lon="-1.58672">
        <ele>57</ele>
        <time>2022-05-08T12:05:20Z</time>
      </trkpt>
      <trkpt lat="47.18935" lon="-1.58683">
        <ele>57</ele>
        <time>2022-05-08T12:05:22Z</time>
      </trkpt>
      <trkpt lat="47.18924" lon="-1.58693">
        <ele>56</ele>
        <time>2022-05-08T12:05:24Z</time>
      </trkpt>
      <trkpt lat="47.18912" lon="-1.58703">
        <ele>56</ele>
        <time>2022-05-08T12:05:26Z</time>
      </trkpt>
      <trkpt lat="47.18901" lon="-1.58712">
        <ele>57</ele>
        <time>2022-05-08T12:05:28Z</time>
      </trkpt>
      <trkpt lat="47.18889" lon="-1.58719">
        <ele>57</ele>
        <time>2022-05-08T12:05:30Z</time>
      </trkpt>
      <trkpt lat="47.18878" lon="-1.58726">
        <ele>56</ele>
        <time>2022-05-08T12:05:32Z</time>
      </trkpt>
      <trkpt lat="47.18867" lon="-1.58732">
        <ele>57</ele>
        <time>2022-05-08T12:05:34Z</time>
      </trkpt>
      <trkpt lat="47.18856" lon="-1.58736">
        <ele>57</ele>
        <time>2022-05-08T12:05:36Z</time>
      </trkpt>
      <trkpt lat="47.18845" lon="-1.58741">
        <ele>57</ele>
        <time>2022-05-08T12:05:38Z</time>
      </trkpt>
      <trkpt lat="47.18835" lon="-1.58751">
        <ele>57</ele>
        <time>2022-05-08T12:05:40Z</time>
      </trkpt>
      <trkpt lat="47.18832" lon="-1.58769">
        <ele>57</ele>
        <time>2022-05-08T12:05:42Z</time>
      </trkpt>
      <trkpt lat="47.18826" lon="-1.58785">
        <ele>57</ele>
        <time>2022-05-08T12:05:44Z</time>
      </trkpt>
      <trkpt lat="47.18817" lon="-1.588">
        <ele>57</ele>
        <time>2022-05-08T12:05:46Z</time>
      </trkpt>
      <trkpt lat="47.18806" lon="-1.5881">
        <ele>57</ele>
        <time>2022-05-08T12:05:48Z</time>
      </trkpt>
      <trkpt lat="47.18794" lon="-1.58817">
        <ele>57</ele>
        <time>2022-05-08T12:05:50Z</time>
      </trkpt>
      <trkpt lat="47.18788" lon="-1.58833">
        <ele>57</ele>
        <time>2022-05-08T12:05:52Z</time>
      </trkpt>
      <trkpt lat="47.18784" lon="-1.58851">
        <ele>58</ele>
        <time>2022-05-08T12:05:54Z</time>
      </trkpt>
      <trkpt lat="47.18781" lon="-1.5887">
        <ele>57</ele>
        <time>2022-05-08T12:05:56Z</time>
      </trkpt>
      <trkpt lat="47.18778" lon="-1.58889">
        <ele>58</ele>
        <time>2022-05-08T12:05:58Z</time>
      </trkpt>
      <trkpt lat="47.18775" lon="-1.58909">
        <ele>57</ele>
        <time>2022-05-08T12:06:00Z</time>
      </trkpt>
      <trkpt lat="47.18773" lon="-1.58928">
        <ele>57</ele>
        <time>2022-05-08T12:06:02Z</time>
      </trkpt>
      <trkpt lat="47.18771" lon="-1.58948">
        <ele>57</ele>
        <time>2022-05-08T12:06:04Z</time>
      </trkpt>
      <trkpt lat="47.18768" lon="-1.58967">
        <ele>57</ele>
        <time>2022-05-08T12:06:06Z</time>
      </trkpt>
      <trkpt lat="47.18766" lon="-1.58986">
        <ele>57</ele>
        <time>2022-05-08T12:06:08Z</time>
      </trkpt>
      <trkpt lat="47.18764" lon="-1.59006">
        <ele>57</ele>
        <time>2022-05-08T12:06:10Z</time>
      </trkpt>
      <trkpt lat="47.18761" lon="-1.59025">
        <ele>57</ele>
        <time>2022-05-08T12:06:12Z</time>
      </trkpt>
      <trkpt lat="47.18759" lon="-1.59045">
        <ele>57</ele>
        <time>2022-05-08T12:06:14Z</time>
      </trkpt>
      <trkpt lat="47.18757" lon="-1.59064">
        <ele>57</ele>
        <time>2022-05-08T12:06:16Z</time>
      </trkpt>
      <trkpt lat="47.18755" lon="-1.59084">
        <ele>57</ele>
        <time>2022-05-08T12:06:18Z</time>
      </trkpt>
      <trkpt lat="47.18754" lon="-1.59103">
        <ele>56</ele>
        <time>2022-05-08T12:06:20Z</time>
      </trkpt>
      <trkpt lat="47.18751" lon="-1.59123">
        <ele>56</ele>
        <time>2022-05-08T12:06:22Z</time>
      </trkpt>
      <trkpt lat="47.18749" lon="-1.59143">
        <ele>56</ele>
        <time>2022-05-08T12:06:24Z</time>
      </trkpt>
      <trkpt lat="47.18747" lon="-1.59162">
        <ele>56</ele>
        <time>2022-05-08T12:06:26Z</time>
      </trkpt>
      <trkpt lat="47.18745" lon="-1.59182">
        <ele>56</ele>
        <time>2022-05-08T12:06:28Z</time>
      </trkpt>
      <trkpt lat="47.18743" lon="-1.59202">
        <ele>56</ele>
        <time>2022-05-08T12:06:30Z</time>
      </trkpt>
      <trkpt lat="47.18741" lon="-1.59222">
        <ele>56</ele>
        <time>2022-05-08T12:06:32Z</time>
      </trkpt>
      <trkpt lat="47.18738" lon="-1.59242">
        <ele>56</ele>
        <time>2022-05-08T12:06:34Z</time>
      </trkpt>
      <trkpt lat="47.18736" lon="-1.59262">
        <ele>56</ele>
        <time>2022-05-08T12:06:36Z</time>
      </trkpt>
      <trkpt lat="47.18734" lon="-1.59283">
        <ele>56</ele>
        <time>2022-05-08T12:06:38Z</time>
      </trkpt>
      <trkpt lat="47.18732" lon="-1.59303">
        <ele>56</ele>
        <time>2022-05-08T12:06:40Z</time>
      </trkpt>
      <trkpt lat="47.18729" lon="-1.59324">
        <ele>56</ele>
        <time>2022-05-08T12:06:42Z</time>
      </trkpt>
      <trkpt lat="47.18727" lon="-1.59344">
        <ele>56</ele>
        <time>2022-05-08T12:06:44Z</time>
      </trkpt>
      <trkpt lat="47.18725" lon="-1.59365">
        <ele>57</ele>
        <time>2022-05-08T12:06:46Z</time>
      </trkpt>
      <trkpt lat="47.18723" lon="-1.59386">
        <ele>56</ele>
        <time>2022-05-08T12:06:48Z</time>
      </trkpt>
      <trkpt lat="47.1872" lon="-1.59406">
        <ele>56</ele>
        <time>2022-05-08T12:06:50Z</time>
      </trkpt>
      <trkpt lat="47.18719" lon="-1.59426">
        <ele>57</ele>
        <time>2022-05-08T12:06:52Z</time>
      </trkpt>
      <trkpt lat="47.18716" lon="-1.59446">
        <ele>56</ele>
        <time>2022-05-08T12:06:54Z</time>
      </trkpt>
      <trkpt lat="47.18714" lon="-1.59466">
        <ele>56</ele>
        <time>2022-05-08T12:06:56Z</time>
      </trkpt>
      <trkpt lat="47.18712" lon="-1.59486">
        <ele>56</ele>
        <time>2022-05-08T12:06:58Z</time>
      </trkpt>
      <trkpt lat="47.1871" lon="-1.59506">
        <ele>56</ele>
        <time>2022-05-08T12:07:00Z</time>
      </trkpt>
      <trkpt lat="47.18707" lon="-1.59525">
        <ele>56</ele>
        <time>2022-05-08T12:07:02Z</time>
      </trkpt>
      <trkpt lat="47.18705" lon="-1.59545">
        <ele>56</ele>
        <time>2022-05-08T12:07:04Z</time>
      </trkpt>
      <trkpt lat="47.18703" lon="-1.59564">
        <ele>56</ele>
        <time>2022-05-08T12:07:06Z</time>
      </trkpt>
      <trkpt lat="47.187" lon="-1.59584">
        <ele>56</ele>
        <time>2022-05-08T12:07:08Z</time>
      </trkpt>
      <trkpt lat="47.18698" lon="-1.59603">
        <ele>56</ele>
        <time>2022-05-08T12:07:10Z</time>
      </trkpt>
      <trkpt lat="47.18695" lon="-1.59623">
        <ele>55</ele>
        <time>2022-05-08T12:07:12Z</time>
      </trkpt>
      <trkpt lat="47.18693" lon="-1.59642">
        <ele>55</ele>
        <time>2022-05-08T12:07:14Z</time>
      </trkpt>
      <trkpt lat="47.1869" lon="-1.59661">
        <ele>56</ele>
        <time>2022-05-08T12:07:16Z</time>
      </trkpt>
      <trkpt lat="47.18687" lon="-1.59681">
        <ele>56</ele>
        <time>2022-05-08T12:07:18Z</time>
      </trkpt>
      <trkpt lat="47.18685" lon="-1.59699">
        <ele>56</ele>
        <time>2022-05-08T12:07:20Z</time>
      </trkpt>
      <trkpt lat="47.18684" lon="-1.59718">
        <ele>55</ele>
        <time>2022-05-08T12:07:22Z</time>
      </trkpt>
      <trkpt lat="47.18684" lon="-1.59737">
        <ele>55</ele>
        <time>2022-05-08T12:07:24Z</time>
      </trkpt>
      <trkpt lat="47.18684" lon="-1.59756">
        <ele>56</ele>
        <time>2022-05-08T12:07:26Z</time>
      </trkpt>
      <trkpt lat="47.18683" lon="-1.59778">
        <ele>56</ele>
        <time>2022-05-08T12:07:28Z</time>
      </trkpt>
      <trkpt lat="47.18685" lon="-1.59803">
        <ele>56</ele>
        <time>2022-05-08T12:07:30Z</time>
      </trkpt>
      <trkpt lat="47.18683" lon="-1.59816">
        <ele>56</ele>
        <time>2022-05-08T12:07:31Z</time>
      </trkpt>
      <trkpt lat="47.18678" lon="-1.59829">
        <ele>56</ele>
        <time>2022-05-08T12:07:32Z</time>
      </trkpt>
      <trkpt lat="47.18664" lon="-1.59844">
        <ele>55</ele>
        <time>2022-05-08T12:07:34Z</time>
      </trkpt>
      <trkpt lat="47.18648" lon="-1.59844">
        <ele>55</ele>
        <time>2022-05-08T12:07:36Z</time>
      </trkpt>
      <trkpt lat="47.18634" lon="-1.59836">
        <ele>55</ele>
        <time>2022-05-08T12:07:38Z</time>
      </trkpt>
      <trkpt lat="47.18621" lon="-1.59832">
        <ele>54</ele>
        <time>2022-05-08T12:07:40Z</time>
      </trkpt>
      <trkpt lat="47.18615" lon="-1.59843">
        <ele>53</ele>
        <time>2022-05-08T12:07:42Z</time>
      </trkpt>
      <trkpt lat="47.18621" lon="-1.59858">
        <ele>54</ele>
        <time>2022-05-08T12:07:44Z</time>
      </trkpt>
      <trkpt lat="47.18624" lon="-1.59874">
        <ele>55</ele>
        <time>2022-05-08T12:07:46Z</time>
      </trkpt>
      <trkpt lat="47.1862" lon="-1.59891">
        <ele>55</ele>
        <time>2022-05-08T12:07:48Z</time>
      </trkpt>
      <trkpt lat="47.18615" lon="-1.59909">
        <ele>55</ele>
        <time>2022-05-08T12:07:50Z</time>
      </trkpt>
      <trkpt lat="47.1861" lon="-1.59926">
        <ele>56</ele>
        <time>2022-05-08T12:07:52Z</time>
      </trkpt>
      <trkpt lat="47.18606" lon="-1.59944">
        <ele>56</ele>
        <time>2022-05-08T12:07:54Z</time>
      </trkpt>
      <trkpt lat="47.186" lon="-1.5996">
        <ele>56</ele>
        <time>2022-05-08T12:07:56Z</time>
      </trkpt>
      <trkpt lat="47.18595" lon="-1.59978">
        <ele>56</ele>
        <time>2022-05-08T12:07:58Z</time>
      </trkpt>
      <trkpt lat="47.18589" lon="-1.59995">
        <ele>56</ele>
        <time>2022-05-08T12:08:00Z</time>
      </trkpt>
      <trkpt lat="47.18584" lon="-1.60012">
        <ele>56</ele>
        <time>2022-05-08T12:08:02Z</time>
      </trkpt>
      <trkpt lat="47.18578" lon="-1.60029">
        <ele>56</ele>
        <time>2022-05-08T12:08:04Z</time>
      </trkpt>
      <trkpt lat="47.18572" lon="-1.60046">
        <ele>56</ele>
        <time>2022-05-08T12:08:06Z</time>
      </trkpt>
      <trkpt lat="47.18565" lon="-1.60063">
        <ele>57</ele>
        <time>2022-05-08T12:08:08Z</time>
      </trkpt>
      <trkpt lat="47.18559" lon="-1.60079">
        <ele>56</ele>
        <time>2022-05-08T12:08:10Z</time>
      </trkpt>
      <trkpt lat="47.18552" lon="-1.60095">
        <ele>56</ele>
        <time>2022-05-08T12:08:12Z</time>
      </trkpt>
      <trkpt lat="47.18545" lon="-1.60111">
        <ele>56</ele>
        <time>2022-05-08T12:08:14Z</time>
      </trkpt>
      <trkpt lat="47.18538" lon="-1.60128">
        <ele>56</ele>
        <time>2022-05-08T12:08:16Z</time>
      </trkpt>
      <trkpt lat="47.18531" lon="-1.60144">
        <ele>56</ele>
        <time>2022-05-08T12:08:18Z</time>
      </trkpt>
      <trkpt lat="47.18525" lon="-1.60159">
        <ele>57</ele>
        <time>2022-05-08T12:08:20Z</time>
      </trkpt>
      <trkpt lat="47.18517" lon="-1.60175">
        <ele>56</ele>
        <time>2022-05-08T12:08:22Z</time>
      </trkpt>
      <trkpt lat="47.18509" lon="-1.6019">
        <ele>56</ele>
        <time>2022-05-08T12:08:24Z</time>
      </trkpt>
      <trkpt lat="47.18502" lon="-1.60205">
        <ele>56</ele>
        <time>2022-05-08T12:08:26Z</time>
      </trkpt>
      <trkpt lat="47.18494" lon="-1.6022">
        <ele>56</ele>
        <time>2022-05-08T12:08:28Z</time>
      </trkpt>
      <trkpt lat="47.18486" lon="-1.60235">
        <ele>56</ele>
        <time>2022-05-08T12:08:30Z</time>
      </trkpt>
      <trkpt lat="47.18478" lon="-1.6025">
        <ele>56</ele>
        <time>2022-05-08T12:08:32Z</time>
      </trkpt>
      <trkpt lat="47.1847" lon="-1.60265">
        <ele>56</ele>
        <time>2022-05-08T12:08:34Z</time>
      </trkpt>
      <trkpt lat="47.18462" lon="-1.60278">
        <ele>56</ele>
        <time>2022-05-08T12:08:36Z</time>
      </trkpt>
      <trkpt lat="47.18454" lon="-1.60292">
        <ele>56</ele>
        <time>2022-05-08T12:08:38Z</time>
      </trkpt>
      <trkpt lat="47.18446" lon="-1.60306">
        <ele>56</ele>
        <time>2022-05-08T12:08:40Z</time>
      </trkpt>
      <trkpt lat="47.18438" lon="-1.6032">
        <ele>56</ele>
        <time>2022-05-08T12:08:42Z</time>
      </trkpt>
      <trkpt lat="47.18429" lon="-1.60333">
        <ele>56</ele>
        <time>2022-05-08T12:08:44Z</time>
      </trkpt>
      <trkpt lat="47.1842" lon="-1.60347">
        <ele>56</ele>
        <time>2022-05-08T12:08:46Z</time>
      </trkpt>
      <trkpt lat="47.1841" lon="-1.6036">
        <ele>56</ele>
        <time>2022-05-08T12:08:48Z</time>
      </trkpt>
      <trkpt lat="47.18401" lon="-1.60373">
        <ele>56</ele>
        <time>2022-05-08T12:08:50Z</time>
      </trkpt>
      <trkpt lat="47.18391" lon="-1.60386">
        <ele>56</ele>
        <time>2022-05-08T12:08:52Z</time>
      </trkpt>
      <trkpt lat="47.18382" lon="-1.60399">
        <ele>55</ele>
        <time>2022-05-08T12:08:54Z</time>
      </trkpt>
      <trkpt lat="47.18372" lon="-1.60411">
        <ele>56</ele>
        <time>2022-05-08T12:08:56Z</time>
      </trkpt>
      <trkpt lat="47.18362" lon="-1.60424">
        <ele>56</ele>
        <time>2022-05-08T12:08:58Z</time>
      </trkpt>
      <trkpt lat="47.18352" lon="-1.60436">
        <ele>56</ele>
        <time>2022-05-08T12:09:00Z</time>
      </trkpt>
      <trkpt lat="47.18342" lon="-1.60448">
        <ele>56</ele>
        <time>2022-05-08T12:09:02Z</time>
      </trkpt>
      <trkpt lat="47.18332" lon="-1.6046">
        <ele>56</ele>
        <time>2022-05-08T12:09:04Z</time>
      </trkpt>
      <trkpt lat="47.18322" lon="-1.60472">
        <ele>56</ele>
        <time>2022-05-08T12:09:06Z</time>
      </trkpt>
      <trkpt lat="47.18312" lon="-1.60484">
        <ele>55</ele>
        <time>2022-05-08T12:09:08Z</time>
      </trkpt>
      <trkpt lat="47.18302" lon="-1.60496">
        <ele>55</ele>
        <time>2022-05-08T12:09:10Z</time>
      </trkpt>
      <trkpt lat="47.18291" lon="-1.60507">
        <ele>55</ele>
        <time>2022-05-08T12:09:12Z</time>
      </trkpt>
      <trkpt lat="47.1828" lon="-1.60518">
        <ele>55</ele>
        <time>2022-05-08T12:09:14Z</time>
      </trkpt>
      <trkpt lat="47.18269" lon="-1.60528">
        <ele>55</ele>
        <time>2022-05-08T12:09:16Z</time>
      </trkpt>
      <trkpt lat="47.18258" lon="-1.60538">
        <ele>55</ele>
        <time>2022-05-08T12:09:18Z</time>
      </trkpt>
      <trkpt lat="47.18246" lon="-1.60547">
        <ele>55</ele>
        <time>2022-05-08T12:09:20Z</time>
      </trkpt>
      <trkpt lat="47.18235" lon="-1.60555">
        <ele>55</ele>
        <time>2022-05-08T12:09:22Z</time>
      </trkpt>
      <trkpt lat="47.18224" lon="-1.60563">
        <ele>56</ele>
        <time>2022-05-08T12:09:24Z</time>
      </trkpt>
      <trkpt lat="47.18213" lon="-1.60569">
        <ele>56</ele>
        <time>2022-05-08T12:09:26Z</time>
      </trkpt>
      <trkpt lat="47.18203" lon="-1.60573">
        <ele>56</ele>
        <time>2022-05-08T12:09:28Z</time>
      </trkpt>
      <trkpt lat="47.18195" lon="-1.60577">
        <ele>57</ele>
        <time>2022-05-08T12:09:30Z</time>
      </trkpt>
      <trkpt lat="47.18191" lon="-1.60592">
        <ele>57</ele>
        <time>2022-05-08T12:09:33Z</time>
      </trkpt>
      <trkpt lat="47.18184" lon="-1.60602">
        <ele>56</ele>
        <time>2022-05-08T12:09:35Z</time>
      </trkpt>
      <trkpt lat="47.1817" lon="-1.60603">
        <ele>56</ele>
        <time>2022-05-08T12:09:37Z</time>
      </trkpt>
      <trkpt lat="47.18157" lon="-1.60604">
        <ele>56</ele>
        <time>2022-05-08T12:09:39Z</time>
      </trkpt>
      <trkpt lat="47.18143" lon="-1.60602">
        <ele>56</ele>
        <time>2022-05-08T12:09:41Z</time>
      </trkpt>
      <trkpt lat="47.18131" lon="-1.60601">
        <ele>56</ele>
        <time>2022-05-08T12:09:43Z</time>
      </trkpt>
      <trkpt lat="47.18118" lon="-1.60597">
        <ele>56</ele>
        <time>2022-05-08T12:09:45Z</time>
      </trkpt>
      <trkpt lat="47.18105" lon="-1.60593">
        <ele>56</ele>
        <time>2022-05-08T12:09:47Z</time>
      </trkpt>
      <trkpt lat="47.18092" lon="-1.60586">
        <ele>56</ele>
        <time>2022-05-08T12:09:49Z</time>
      </trkpt>
      <trkpt lat="47.1808" lon="-1.6058">
        <ele>57</ele>
        <time>2022-05-08T12:09:51Z</time>
      </trkpt>
      <trkpt lat="47.18067" lon="-1.60573">
        <ele>57</ele>
        <time>2022-05-08T12:09:53Z</time>
      </trkpt>
      <trkpt lat="47.18055" lon="-1.60566">
        <ele>56</ele>
        <time>2022-05-08T12:09:55Z</time>
      </trkpt>
      <trkpt lat="47.18044" lon="-1.60559">
        <ele>56</ele>
        <time>2022-05-08T12:09:57Z</time>
      </trkpt>
      <trkpt lat="47.18031" lon="-1.60554">
        <ele>56</ele>
        <time>2022-05-08T12:09:59Z</time>
      </trkpt>
      <trkpt lat="47.18019" lon="-1.60552">
        <ele>56</ele>
        <time>2022-05-08T12:10:01Z</time>
      </trkpt>
      <trkpt lat="47.18006" lon="-1.60553">
        <ele>56</ele>
        <time>2022-05-08T12:10:03Z</time>
      </trkpt>
      <trkpt lat="47.17994" lon="-1.60557">
        <ele>56</ele>
        <time>2022-05-08T12:10:05Z</time>
      </trkpt>
      <trkpt lat="47.17983" lon="-1.60561">
        <ele>56</ele>
        <time>2022-05-08T12:10:07Z</time>
      </trkpt>
      <trkpt lat="47.17971" lon="-1.60566">
        <ele>56</ele>
        <time>2022-05-08T12:10:09Z</time>
      </trkpt>
      <trkpt lat="47.17955" lon="-1.60574">
        <ele>56</ele>
        <time>2022-05-08T12:10:12Z</time>
      </trkpt>
      <trkpt lat="47.17943" lon="-1.60581">
        <ele>57</ele>
        <time>2022-05-08T12:10:14Z</time>
      </trkpt>
      <trkpt lat="47.17932" lon="-1.60586">
        <ele>57</ele>
        <time>2022-05-08T12:10:16Z</time>
      </trkpt>
      <trkpt lat="47.17923" lon="-1.60587">
        <ele>58</ele>
        <time>2022-05-08T12:10:18Z</time>
      </trkpt>
      <trkpt lat="47.17908" lon="-1.6059">
        <ele>58</ele>
        <time>2022-05-08T12:10:21Z</time>
      </trkpt>
      <trkpt lat="47.17902" lon="-1.60607">
        <ele>58</ele>
        <time>2022-05-08T12:10:23Z</time>
      </trkpt>
      <trkpt lat="47.17898" lon="-1.60626">
        <ele>57</ele>
        <time>2022-05-08T12:10:25Z</time>
      </trkpt>
      <trkpt lat="47.17892" lon="-1.60645">
        <ele>57</ele>
        <time>2022-05-08T12:10:27Z</time>
      </trkpt>
      <trkpt lat="47.17886" lon="-1.60664">
        <ele>56</ele>
        <time>2022-05-08T12:10:29Z</time>
      </trkpt>
      <trkpt lat="47.1788" lon="-1.60683">
        <ele>56</ele>
        <time>2022-05-08T12:10:31Z</time>
      </trkpt>
      <trkpt lat="47.17875" lon="-1.60703">
        <ele>56</ele>
        <time>2022-05-08T12:10:33Z</time>
      </trkpt>
      <trkpt lat="47.1787" lon="-1.60722">
        <ele>56</ele>
        <time>2022-05-08T12:10:35Z</time>
      </trkpt>
      <trkpt lat="47.17866" lon="-1.60742">
        <ele>56</ele>
        <time>2022-05-08T12:10:37Z</time>
      </trkpt>
      <trkpt lat="47.17861" lon="-1.60761">
        <ele>56</ele>
        <time>2022-05-08T12:10:39Z</time>
      </trkpt>
      <trkpt lat="47.17857" lon="-1.6078">
        <ele>56</ele>
        <time>2022-05-08T12:10:41Z</time>
      </trkpt>
      <trkpt lat="47.17853" lon="-1.60799">
        <ele>56</ele>
        <time>2022-05-08T12:10:43Z</time>
      </trkpt>
      <trkpt lat="47.17848" lon="-1.60817">
        <ele>56</ele>
        <time>2022-05-08T12:10:45Z</time>
      </trkpt>
      <trkpt lat="47.17843" lon="-1.60835">
        <ele>56</ele>
        <time>2022-05-08T12:10:47Z</time>
      </trkpt>
      <trkpt lat="47.17836" lon="-1.60852">
        <ele>56</ele>
        <time>2022-05-08T12:10:49Z</time>
      </trkpt>
      <trkpt lat="47.17828" lon="-1.60867">
        <ele>56</ele>
        <time>2022-05-08T12:10:51Z</time>
      </trkpt>
      <trkpt lat="47.17818" lon="-1.60881">
        <ele>55</ele>
        <time>2022-05-08T12:10:53Z</time>
      </trkpt>
      <trkpt lat="47.17808" lon="-1.60893">
        <ele>55</ele>
        <time>2022-05-08T12:10:55Z</time>
      </trkpt>
      <trkpt lat="47.17796" lon="-1.60902">
        <ele>55</ele>
        <time>2022-05-08T12:10:57Z</time>
      </trkpt>
      <trkpt lat="47.17784" lon="-1.60909">
        <ele>55</ele>
        <time>2022-05-08T12:10:59Z</time>
      </trkpt>
      <trkpt lat="47.17773" lon="-1.60917">
        <ele>55</ele>
        <time>2022-05-08T12:11:01Z</time>
      </trkpt>
      <trkpt lat="47.17764" lon="-1.60927">
        <ele>55</ele>
        <time>2022-05-08T12:11:03Z</time>
      </trkpt>
      <trkpt lat="47.17753" lon="-1.60935">
        <ele>55</ele>
        <time>2022-05-08T12:11:05Z</time>
      </trkpt>
      <trkpt lat="47.17742" lon="-1.60944">
        <ele>55</ele>
        <time>2022-05-08T12:11:07Z</time>
      </trkpt>
      <trkpt lat="47.17731" lon="-1.60952">
        <ele>55</ele>
        <time>2022-05-08T12:11:09Z</time>
      </trkpt>
      <trkpt lat="47.17718" lon="-1.60961">
        <ele>55</ele>
        <time>2022-05-08T12:11:11Z</time>
      </trkpt>
      <trkpt lat="47.17706" lon="-1.60968">
        <ele>55</ele>
        <time>2022-05-08T12:11:13Z</time>
      </trkpt>
      <trkpt lat="47.17694" lon="-1.60973">
        <ele>54</ele>
        <time>2022-05-08T12:11:15Z</time>
      </trkpt>
      <trkpt lat="47.17682" lon="-1.60972">
        <ele>54</ele>
        <time>2022-05-08T12:11:17Z</time>
      </trkpt>
      <trkpt lat="47.17668" lon="-1.60971">
        <ele>53</ele>
        <time>2022-05-08T12:11:19Z</time>
      </trkpt>
      <trkpt lat="47.17655" lon="-1.60976">
        <ele>54</ele>
        <time>2022-05-08T12:11:21Z</time>
      </trkpt>
      <trkpt lat="47.17644" lon="-1.60985">
        <ele>53</ele>
        <time>2022-05-08T12:11:23Z</time>
      </trkpt>
      <trkpt lat="47.17632" lon="-1.60995">
        <ele>54</ele>
        <time>2022-05-08T12:11:25Z</time>
      </trkpt>
      <trkpt lat="47.17621" lon="-1.61005">
        <ele>54</ele>
        <time>2022-05-08T12:11:27Z</time>
      </trkpt>
      <trkpt lat="47.1761" lon="-1.61015">
        <ele>54</ele>
        <time>2022-05-08T12:11:29Z</time>
      </trkpt>
      <trkpt lat="47.17599" lon="-1.61025">
        <ele>54</ele>
        <time>2022-05-08T12:11:31Z</time>
      </trkpt>
      <trkpt lat="47.17589" lon="-1.61035">
        <ele>55</ele>
        <time>2022-05-08T12:11:33Z</time>
      </trkpt>
      <trkpt lat="47.17577" lon="-1.61043">
        <ele>55</ele>
        <time>2022-05-08T12:11:35Z</time>
      </trkpt>
      <trkpt lat="47.17567" lon="-1.61053">
        <ele>55</ele>
        <time>2022-05-08T12:11:37Z</time>
      </trkpt>
      <trkpt lat="47.17555" lon="-1.61062">
        <ele>55</ele>
        <time>2022-05-08T12:11:39Z</time>
      </trkpt>
      <trkpt lat="47.17544" lon="-1.61071">
        <ele>55</ele>
        <time>2022-05-08T12:11:41Z</time>
      </trkpt>
      <trkpt lat="47.17533" lon="-1.61081">
        <ele>54</ele>
        <time>2022-05-08T12:11:43Z</time>
      </trkpt>
      <trkpt lat="47.17522" lon="-1.6109">
        <ele>54</ele>
        <time>2022-05-08T12:11:45Z</time>
      </trkpt>
      <trkpt lat="47.17512" lon="-1.61099">
        <ele>54</ele>
        <time>2022-05-08T12:11:47Z</time>
      </trkpt>
      <trkpt lat="47.175" lon="-1.61103">
        <ele>55</ele>
        <time>2022-05-08T12:11:49Z</time>
      </trkpt>
      <trkpt lat="47.17488" lon="-1.61104">
        <ele>55</ele>
        <time>2022-05-08T12:11:51Z</time>
      </trkpt>
      <trkpt lat="47.17477" lon="-1.61102">
        <ele>55</ele>
        <time>2022-05-08T12:11:53Z</time>
      </trkpt>
      <trkpt lat="47.17466" lon="-1.61093">
        <ele>55</ele>
        <time>2022-05-08T12:11:55Z</time>
      </trkpt>
      <trkpt lat="47.17457" lon="-1.61084">
        <ele>56</ele>
        <time>2022-05-08T12:11:57Z</time>
      </trkpt>
      <trkpt lat="47.17449" lon="-1.61074">
        <ele>56</ele>
        <time>2022-05-08T12:11:59Z</time>
      </trkpt>
      <trkpt lat="47.17442" lon="-1.61061">
        <ele>57</ele>
        <time>2022-05-08T12:12:01Z</time>
      </trkpt>
      <trkpt lat="47.17436" lon="-1.61048">
        <ele>57</ele>
        <time>2022-05-08T12:12:03Z</time>
      </trkpt>
      <trkpt lat="47.17432" lon="-1.61035">
        <ele>57</ele>
        <time>2022-05-08T12:12:05Z</time>
      </trkpt>
      <trkpt lat="47.17428" lon="-1.61019">
        <ele>58</ele>
        <time>2022-05-08T12:12:08Z</time>
      </trkpt>
      <trkpt lat="47.17422" lon="-1.6103">
        <ele>58</ele>
        <time>2022-05-08T12:12:12Z</time>
      </trkpt>
      <trkpt lat="47.17425" lon="-1.61049">
        <ele>58</ele>
        <time>2022-05-08T12:12:15Z</time>
      </trkpt>
      <trkpt lat="47.1743" lon="-1.61062">
        <ele>59</ele>
        <time>2022-05-08T12:12:17Z</time>
      </trkpt>
      <trkpt lat="47.17435" lon="-1.61075">
        <ele>59</ele>
        <time>2022-05-08T12:12:19Z</time>
      </trkpt>
      <trkpt lat="47.17441" lon="-1.61089">
        <ele>59</ele>
        <time>2022-05-08T12:12:21Z</time>
      </trkpt>
      <trkpt lat="47.17446" lon="-1.61102">
        <ele>60</ele>
        <time>2022-05-08T12:12:23Z</time>
      </trkpt>
      <trkpt lat="47.17451" lon="-1.61115">
        <ele>60</ele>
        <time>2022-05-08T12:12:25Z</time>
      </trkpt>
      <trkpt lat="47.17456" lon="-1.61129">
        <ele>61</ele>
        <time>2022-05-08T12:12:27Z</time>
      </trkpt>
      <trkpt lat="47.17462" lon="-1.61142">
        <ele>61</ele>
        <time>2022-05-08T12:12:29Z</time>
      </trkpt>
      <trkpt lat="47.17467" lon="-1.61156">
        <ele>62</ele>
        <time>2022-05-08T12:12:31Z</time>
      </trkpt>
      <trkpt lat="47.17473" lon="-1.61169">
        <ele>62</ele>
        <time>2022-05-08T12:12:33Z</time>
      </trkpt>
      <trkpt lat="47.17478" lon="-1.61182">
        <ele>63</ele>
        <time>2022-05-08T12:12:35Z</time>
      </trkpt>
      <trkpt lat="47.17484" lon="-1.61194">
        <ele>63</ele>
        <time>2022-05-08T12:12:37Z</time>
      </trkpt>
      <trkpt lat="47.17489" lon="-1.61207">
        <ele>62</ele>
        <time>2022-05-08T12:12:39Z</time>
      </trkpt>
      <trkpt lat="47.17495" lon="-1.6122">
        <ele>62</ele>
        <time>2022-05-08T12:12:41Z</time>
      </trkpt>
      <trkpt lat="47.17501" lon="-1.61233">
        <ele>62</ele>
        <time>2022-05-08T12:12:43Z</time>
      </trkpt>
      <trkpt lat="47.17507" lon="-1.61247">
        <ele>62</ele>
        <time>2022-05-08T12:12:45Z</time>
      </trkpt>
      <trkpt lat="47.17514" lon="-1.61259">
        <ele>62</ele>
        <time>2022-05-08T12:12:47Z</time>
      </trkpt>
      <trkpt lat="47.17521" lon="-1.61271">
        <ele>63</ele>
        <time>2022-05-08T12:12:49Z</time>
      </trkpt>
      <trkpt lat="47.17529" lon="-1.61281">
        <ele>62</ele>
        <time>2022-05-08T12:12:51Z</time>
      </trkpt>
      <trkpt lat="47.17538" lon="-1.6129">
        <ele>63</ele>
        <time>2022-05-08T12:12:53Z</time>
      </trkpt>
      <trkpt lat="47.1755" lon="-1.61297">
        <ele>62</ele>
        <time>2022-05-08T12:12:55Z</time>
      </trkpt>
      <trkpt lat="47.17559" lon="-1.61307">
        <ele>61</ele>
        <time>2022-05-08T12:12:57Z</time>
      </trkpt>
      <trkpt lat="47.17562" lon="-1.61326">
        <ele>61</ele>
        <time>2022-05-08T12:12:59Z</time>
      </trkpt>
      <trkpt lat="47.17556" lon="-1.61342">
        <ele>61</ele>
        <time>2022-05-08T12:13:01Z</time>
      </trkpt>
      <trkpt lat="47.17546" lon="-1.61355">
        <ele>62</ele>
        <time>2022-05-08T12:13:03Z</time>
      </trkpt>
      <trkpt lat="47.17536" lon="-1.61367">
        <ele>62</ele>
        <time>2022-05-08T12:13:05Z</time>
      </trkpt>
      <trkpt lat="47.17529" lon="-1.61382">
        <ele>62</ele>
        <time>2022-05-08T12:13:07Z</time>
      </trkpt>
      <trkpt lat="47.17524" lon="-1.61397">
        <ele>62</ele>
        <time>2022-05-08T12:13:09Z</time>
      </trkpt>
      <trkpt lat="47.17521" lon="-1.61412">
        <ele>62</ele>
        <time>2022-05-08T12:13:11Z</time>
      </trkpt>
      <trkpt lat="47.17518" lon="-1.61427">
        <ele>63</ele>
        <time>2022-05-08T12:13:13Z</time>
      </trkpt>
      <trkpt lat="47.17515" lon="-1.61441">
        <ele>63</ele>
        <time>2022-05-08T12:13:15Z</time>
      </trkpt>
      <trkpt lat="47.17509" lon="-1.61454">
        <ele>64</ele>
        <time>2022-05-08T12:13:17Z</time>
      </trkpt>
      <trkpt lat="47.175" lon="-1.61462">
        <ele>64</ele>
        <time>2022-05-08T12:13:19Z</time>
      </trkpt>
      <trkpt lat="47.1749" lon="-1.61466">
        <ele>65</ele>
        <time>2022-05-08T12:13:21Z</time>
      </trkpt>
      <trkpt lat="47.1748" lon="-1.6147">
        <ele>66</ele>
        <time>2022-05-08T12:13:23Z</time>
      </trkpt>
      <trkpt lat="47.17469" lon="-1.61475">
        <ele>66</ele>
        <time>2022-05-08T12:13:25Z</time>
      </trkpt>
      <trkpt lat="47.17459" lon="-1.6148">
        <ele>66</ele>
        <time>2022-05-08T12:13:27Z</time>
      </trkpt>
      <trkpt lat="47.17449" lon="-1.61485">
        <ele>67</ele>
        <time>2022-05-08T12:13:29Z</time>
      </trkpt>
      <trkpt lat="47.1744" lon="-1.6149">
        <ele>67</ele>
        <time>2022-05-08T12:13:31Z</time>
      </trkpt>
      <trkpt lat="47.1743" lon="-1.61496">
        <ele>67</ele>
        <time>2022-05-08T12:13:33Z</time>
      </trkpt>
      <trkpt lat="47.17421" lon="-1.61502">
        <ele>68</ele>
        <time>2022-05-08T12:13:35Z</time>
      </trkpt>
      <trkpt lat="47.17411" lon="-1.61509">
        <ele>68</ele>
        <time>2022-05-08T12:13:37Z</time>
      </trkpt>
      <trkpt lat="47.17402" lon="-1.61516">
        <ele>68</ele>
        <time>2022-05-08T12:13:39Z</time>
      </trkpt>
      <trkpt lat="47.17393" lon="-1.61523">
        <ele>69</ele>
        <time>2022-05-08T12:13:41Z</time>
      </trkpt>
      <trkpt lat="47.17384" lon="-1.61531">
        <ele>69</ele>
        <time>2022-05-08T12:13:43Z</time>
      </trkpt>
      <trkpt lat="47.17376" lon="-1.61539">
        <ele>70</ele>
        <time>2022-05-08T12:13:45Z</time>
      </trkpt>
      <trkpt lat="47.17367" lon="-1.61547">
        <ele>71</ele>
        <time>2022-05-08T12:13:47Z</time>
      </trkpt>
      <trkpt lat="47.17359" lon="-1.61557">
        <ele>71</ele>
        <time>2022-05-08T12:13:49Z</time>
      </trkpt>
      <trkpt lat="47.1735" lon="-1.61566">
        <ele>71</ele>
        <time>2022-05-08T12:13:51Z</time>
      </trkpt>
      <trkpt lat="47.17342" lon="-1.61576">
        <ele>72</ele>
        <time>2022-05-08T12:13:53Z</time>
      </trkpt>
      <trkpt lat="47.17335" lon="-1.61587">
        <ele>72</ele>
        <time>2022-05-08T12:13:55Z</time>
      </trkpt>
      <trkpt lat="47.17326" lon="-1.61597">
        <ele>72</ele>
        <time>2022-05-08T12:13:57Z</time>
      </trkpt>
      <trkpt lat="47.17318" lon="-1.61607">
        <ele>73</ele>
        <time>2022-05-08T12:13:59Z</time>
      </trkpt>
      <trkpt lat="47.1731" lon="-1.61618">
        <ele>73</ele>
        <time>2022-05-08T12:14:01Z</time>
      </trkpt>
      <trkpt lat="47.17303" lon="-1.61631">
        <ele>73</ele>
        <time>2022-05-08T12:14:03Z</time>
      </trkpt>
      <trkpt lat="47.17295" lon="-1.61643">
        <ele>73</ele>
        <time>2022-05-08T12:14:05Z</time>
      </trkpt>
      <trkpt lat="47.17289" lon="-1.61657">
        <ele>74</ele>
        <time>2022-05-08T12:14:07Z</time>
      </trkpt>
      <trkpt lat="47.17282" lon="-1.61671">
        <ele>74</ele>
        <time>2022-05-08T12:14:09Z</time>
      </trkpt>
      <trkpt lat="47.17275" lon="-1.61685">
        <ele>74</ele>
        <time>2022-05-08T12:14:11Z</time>
      </trkpt>
      <trkpt lat="47.17268" lon="-1.617">
        <ele>74</ele>
        <time>2022-05-08T12:14:13Z</time>
      </trkpt>
      <trkpt lat="47.1726" lon="-1.61714">
        <ele>73</ele>
        <time>2022-05-08T12:14:15Z</time>
      </trkpt>
      <trkpt lat="47.17253" lon="-1.61728">
        <ele>73</ele>
        <time>2022-05-08T12:14:17Z</time>
      </trkpt>
      <trkpt lat="47.17246" lon="-1.61744">
        <ele>74</ele>
        <time>2022-05-08T12:14:19Z</time>
      </trkpt>
      <trkpt lat="47.17244" lon="-1.61762">
        <ele>73</ele>
        <time>2022-05-08T12:14:21Z</time>
      </trkpt>
      <trkpt lat="47.17238" lon="-1.61777">
        <ele>73</ele>
        <time>2022-05-08T12:14:23Z</time>
      </trkpt>
      <trkpt lat="47.17227" lon="-1.61787">
        <ele>73</ele>
        <time>2022-05-08T12:14:25Z</time>
      </trkpt>
      <trkpt lat="47.17217" lon="-1.61797">
        <ele>72</ele>
        <time>2022-05-08T12:14:27Z</time>
      </trkpt>
      <trkpt lat="47.17207" lon="-1.61806">
        <ele>72</ele>
        <time>2022-05-08T12:14:29Z</time>
      </trkpt>
      <trkpt lat="47.17197" lon="-1.61816">
        <ele>71</ele>
        <time>2022-05-08T12:14:31Z</time>
      </trkpt>
      <trkpt lat="47.17186" lon="-1.61826">
        <ele>71</ele>
        <time>2022-05-08T12:14:33Z</time>
      </trkpt>
      <trkpt lat="47.17176" lon="-1.61835">
        <ele>71</ele>
        <time>2022-05-08T12:14:35Z</time>
      </trkpt>
      <trkpt lat="47.17166" lon="-1.61845">
        <ele>71</ele>
        <time>2022-05-08T12:14:37Z</time>
      </trkpt>
      <trkpt lat="47.17156" lon="-1.61855">
        <ele>71</ele>
        <time>2022-05-08T12:14:39Z</time>
      </trkpt>
      <trkpt lat="47.17145" lon="-1.61864">
        <ele>70</ele>
        <time>2022-05-08T12:14:41Z</time>
      </trkpt>
      <trkpt lat="47.17135" lon="-1.61874">
        <ele>70</ele>
        <time>2022-05-08T12:14:43Z</time>
      </trkpt>
      <trkpt lat="47.17125" lon="-1.61884">
        <ele>70</ele>
        <time>2022-05-08T12:14:45Z</time>
      </trkpt>
      <trkpt lat="47.17115" lon="-1.61893">
        <ele>70</ele>
        <time>2022-05-08T12:14:47Z</time>
      </trkpt>
      <trkpt lat="47.17104" lon="-1.61904">
        <ele>70</ele>
        <time>2022-05-08T12:14:49Z</time>
      </trkpt>
      <trkpt lat="47.17094" lon="-1.61914">
        <ele>70</ele>
        <time>2022-05-08T12:14:51Z</time>
      </trkpt>
      <trkpt lat="47.17084" lon="-1.61924">
        <ele>71</ele>
        <time>2022-05-08T12:14:53Z</time>
      </trkpt>
      <trkpt lat="47.17075" lon="-1.61932">
        <ele>70</ele>
        <time>2022-05-08T12:14:55Z</time>
      </trkpt>
      <trkpt lat="47.17066" lon="-1.61942">
        <ele>70</ele>
        <time>2022-05-08T12:14:57Z</time>
      </trkpt>
      <trkpt lat="47.17057" lon="-1.61953">
        <ele>70</ele>
        <time>2022-05-08T12:14:59Z</time>
      </trkpt>
      <trkpt lat="47.17048" lon="-1.61965">
        <ele>70</ele>
        <time>2022-05-08T12:15:01Z</time>
      </trkpt>
      <trkpt lat="47.17039" lon="-1.61977">
        <ele>70</ele>
        <time>2022-05-08T12:15:03Z</time>
      </trkpt>
      <trkpt lat="47.1703" lon="-1.6199">
        <ele>71</ele>
        <time>2022-05-08T12:15:05Z</time>
      </trkpt>
      <trkpt lat="47.17021" lon="-1.62003">
        <ele>71</ele>
        <time>2022-05-08T12:15:07Z</time>
      </trkpt>
      <trkpt lat="47.17013" lon="-1.62017">
        <ele>71</ele>
        <time>2022-05-08T12:15:09Z</time>
      </trkpt>
      <trkpt lat="47.17004" lon="-1.62031">
        <ele>70</ele>
        <time>2022-05-08T12:15:11Z</time>
      </trkpt>
      <trkpt lat="47.16996" lon="-1.62045">
        <ele>70</ele>
        <time>2022-05-08T12:15:13Z</time>
      </trkpt>
      <trkpt lat="47.16989" lon="-1.6206">
        <ele>70</ele>
        <time>2022-05-08T12:15:15Z</time>
      </trkpt>
      <trkpt lat="47.16981" lon="-1.62074">
        <ele>71</ele>
        <time>2022-05-08T12:15:17Z</time>
      </trkpt>
      <trkpt lat="47.16973" lon="-1.62088">
        <ele>71</ele>
        <time>2022-05-08T12:15:19Z</time>
      </trkpt>
      <trkpt lat="47.16965" lon="-1.62101">
        <ele>71</ele>
        <time>2022-05-08T12:15:21Z</time>
      </trkpt>
      <trkpt lat="47.16958" lon="-1.62116">
        <ele>71</ele>
        <time>2022-05-08T12:15:23Z</time>
      </trkpt>
      <trkpt lat="47.16951" lon="-1.6213">
        <ele>71</ele>
        <time>2022-05-08T12:15:25Z</time>
      </trkpt>
      <trkpt lat="47.16944" lon="-1.62144">
        <ele>71</ele>
        <time>2022-05-08T12:15:27Z</time>
      </trkpt>
      <trkpt lat="47.16937" lon="-1.62158">
        <ele>71</ele>
        <time>2022-05-08T12:15:29Z</time>
      </trkpt>
      <trkpt lat="47.16931" lon="-1.62173">
        <ele>71</ele>
        <time>2022-05-08T12:15:31Z</time>
      </trkpt>
      <trkpt lat="47.16923" lon="-1.62187">
        <ele>71</ele>
        <time>2022-05-08T12:15:33Z</time>
      </trkpt>
      <trkpt lat="47.16915" lon="-1.62201">
        <ele>71</ele>
        <time>2022-05-08T12:15:35Z</time>
      </trkpt>
      <trkpt lat="47.16907" lon="-1.62214">
        <ele>72</ele>
        <time>2022-05-08T12:15:37Z</time>
      </trkpt>
      <trkpt lat="47.16898" lon="-1.62226">
        <ele>72</ele>
        <time>2022-05-08T12:15:39Z</time>
      </trkpt>
      <trkpt lat="47.16888" lon="-1.62237">
        <ele>72</ele>
        <time>2022-05-08T12:15:41Z</time>
      </trkpt>
      <trkpt lat="47.16878" lon="-1.62248">
        <ele>72</ele>
        <time>2022-05-08T12:15:43Z</time>
      </trkpt>
      <trkpt lat="47.16869" lon="-1.6226">
        <ele>72</ele>
        <time>2022-05-08T12:15:45Z</time>
      </trkpt>
      <trkpt lat="47.16859" lon="-1.62272">
        <ele>72</ele>
        <time>2022-05-08T12:15:47Z</time>
      </trkpt>
      <trkpt lat="47.1685" lon="-1.62284">
        <ele>72</ele>
        <time>2022-05-08T12:15:49Z</time>
      </trkpt>
      <trkpt lat="47.16841" lon="-1.62296">
        <ele>72</ele>
        <time>2022-05-08T12:15:51Z</time>
      </trkpt>
      <trkpt lat="47.16831" lon="-1.62307">
        <ele>73</ele>
        <time>2022-05-08T12:15:53Z</time>
      </trkpt>
      <trkpt lat="47.1682" lon="-1.62316">
        <ele>73</ele>
        <time>2022-05-08T12:15:55Z</time>
      </trkpt>
      <trkpt lat="47.16808" lon="-1.62324">
        <ele>73</ele>
        <time>2022-05-08T12:15:57Z</time>
      </trkpt>
      <trkpt lat="47.16797" lon="-1.62331">
        <ele>73</ele>
        <time>2022-05-08T12:15:59Z</time>
      </trkpt>
      <trkpt lat="47.16784" lon="-1.62337">
        <ele>72</ele>
        <time>2022-05-08T12:16:01Z</time>
      </trkpt>
      <trkpt lat="47.16772" lon="-1.62344">
        <ele>72</ele>
        <time>2022-05-08T12:16:03Z</time>
      </trkpt>
      <trkpt lat="47.1676" lon="-1.62352">
        <ele>71</ele>
        <time>2022-05-08T12:16:05Z</time>
      </trkpt>
      <trkpt lat="47.16748" lon="-1.62362">
        <ele>71</ele>
        <time>2022-05-08T12:16:07Z</time>
      </trkpt>
      <trkpt lat="47.16739" lon="-1.62376">
        <ele>71</ele>
        <time>2022-05-08T12:16:09Z</time>
      </trkpt>
      <trkpt lat="47.16733" lon="-1.62393">
        <ele>71</ele>
        <time>2022-05-08T12:16:11Z</time>
      </trkpt>
      <trkpt lat="47.1673" lon="-1.6241">
        <ele>71</ele>
        <time>2022-05-08T12:16:13Z</time>
      </trkpt>
      <trkpt lat="47.16728" lon="-1.62428">
        <ele>71</ele>
        <time>2022-05-08T12:16:15Z</time>
      </trkpt>
      <trkpt lat="47.16724" lon="-1.62446">
        <ele>71</ele>
        <time>2022-05-08T12:16:17Z</time>
      </trkpt>
      <trkpt lat="47.1672" lon="-1.62464">
        <ele>71</ele>
        <time>2022-05-08T12:16:19Z</time>
      </trkpt>
      <trkpt lat="47.16716" lon="-1.62481">
        <ele>71</ele>
        <time>2022-05-08T12:16:21Z</time>
      </trkpt>
      <trkpt lat="47.16718" lon="-1.62494">
        <ele>71</ele>
        <time>2022-05-08T12:16:24Z</time>
      </trkpt>
      <trkpt lat="47.16729" lon="-1.62497">
        <ele>72</ele>
        <time>2022-05-08T12:16:26Z</time>
      </trkpt>
      <trkpt lat="47.16738" lon="-1.62501">
        <ele>72</ele>
        <time>2022-05-08T12:16:27Z</time>
      </trkpt>
      <trkpt lat="47.16751" lon="-1.62508">
        <ele>73</ele>
        <time>2022-05-08T12:16:29Z</time>
      </trkpt>
      <trkpt lat="47.16762" lon="-1.62515">
        <ele>73</ele>
        <time>2022-05-08T12:16:31Z</time>
      </trkpt>
      <trkpt lat="47.16774" lon="-1.62522">
        <ele>73</ele>
        <time>2022-05-08T12:16:33Z</time>
      </trkpt>
      <trkpt lat="47.16785" lon="-1.6253">
        <ele>73</ele>
        <time>2022-05-08T12:16:35Z</time>
      </trkpt>
      <trkpt lat="47.16796" lon="-1.62537">
        <ele>74</ele>
        <time>2022-05-08T12:16:37Z</time>
      </trkpt>
      <trkpt lat="47.16808" lon="-1.62544">
        <ele>73</ele>
        <time>2022-05-08T12:16:39Z</time>
      </trkpt>
      <trkpt lat="47.16818" lon="-1.62554">
        <ele>73</ele>
        <time>2022-05-08T12:16:41Z</time>
      </trkpt>
      <trkpt lat="47.16827" lon="-1.62565">
        <ele>73</ele>
        <time>2022-05-08T12:16:43Z</time>
      </trkpt>
      <trkpt lat="47.16831" lon="-1.62581">
        <ele>73</ele>
        <time>2022-05-08T12:16:45Z</time>
      </trkpt>
      <trkpt lat="47.16825" lon="-1.62595">
        <ele>73</ele>
        <time>2022-05-08T12:16:47Z</time>
      </trkpt>
      <trkpt lat="47.16818" lon="-1.62608">
        <ele>73</ele>
        <time>2022-05-08T12:16:49Z</time>
      </trkpt>
      <trkpt lat="47.1681" lon="-1.6262">
        <ele>73</ele>
        <time>2022-05-08T12:16:51Z</time>
      </trkpt>
      <trkpt lat="47.16802" lon="-1.62632">
        <ele>73</ele>
        <time>2022-05-08T12:16:53Z</time>
      </trkpt>
      <trkpt lat="47.16796" lon="-1.62644">
        <ele>73</ele>
        <time>2022-05-08T12:16:55Z</time>
      </trkpt>
      <trkpt lat="47.1679" lon="-1.62654">
        <ele>73</ele>
        <time>2022-05-08T12:16:57Z</time>
      </trkpt>
      <trkpt lat="47.16781" lon="-1.62659">
        <ele>73</ele>
        <time>2022-05-08T12:17:00Z</time>
      </trkpt>
      <trkpt lat="47.16774" lon="-1.6265">
        <ele>72</ele>
        <time>2022-05-08T12:18:00Z</time>
      </trkpt>
    </trkseg>
  </trk>
</gpx>